# Wetter Temperatur Luftdruck Luftfeuchtigkeit Sichtweite Windgeschwindigkeit Windrichtung Zeit
1 Rain 16 1025 88 9000 2.57 170 08:57 14.08.2022
2 Mist 15 1024 88 8000 4.63 190 06:40 14.08.2022
3 Clouds 15 1024 94 10000 0.93 271 05:37 14.08.2022
4 Rain 14 1023 94 9000 3.09 230 01:36 14.08.2022
5 Rain 15 1025 88 9000 2.06 210 22:56 13.08.2022
6 Rain 15 1025 88 9000 2.06 210 22:27 13.08.2022
7 Clouds 16 1024 92 10000 3.09 280 20:50 13.08.2022
8 Clouds 17 1023 77 10000 2.06 210 19:48 13.08.2022
9 Clouds 17 1023 77 10000 2.06 210 19:18 13.08.2022
10 Rain 15 1013 93 10000 1 316 17:21 13.08.2022
11 Rain 19 1022 72 7000 5.14 250 14:42 13.08.2022
12 Clouds 19 1022 72 10000 3.09 160 13:49 13.08.2022
13 Clouds 19 1022 72 10000 3.09 160 13:25 13.08.2022
14 Mist 19 1024 72 8000 2.06 190 11:29 13.08.2022
15 Mist 16 1025 82 6000 1.03 160 09:23 13.08.2022
16 Mist 15 1024 88 9000 0 0 06:54 13.08.2022
17 Clouds 16 1024 82 10000 0 0 01:51 13.08.2022
18 Clouds 16 1025 82 10000 0 0 23:32 12.08.2022
19 Rain 16 1024 88 8000 3.09 270 21:37 12.08.2022
20 Rain 15 1024 94 8000 0 0 19:48 12.08.2022
21 Rain 15 1024 94 8000 0 0 19:23 12.08.2022
22 Rain 15 1023 94 8000 2.06 250 18:26 12.08.2022
23 Rain 15 1022 94 7000 3.09 290 16:27 12.08.2022
24 Clouds 15 1022 82 8000 6.17 310 15:19 12.08.2022
25 Clouds 19 1022 72 10000 5.66 250 13:43 12.08.2022
26 Rain 17 1012 82 8906 2.64 250 12:32 12.08.2022
27 Clouds 17 1025 77 10000 3.09 240 08:57 12.08.2022
28 Clouds 17 1025 77 10000 4.12 230 07:46 12.08.2022
29 Clouds 13 1016 96 10000 1.36 285 06:23 12.08.2022
30 Clouds 15 1015 82 8000 3.09 250 00:32 12.08.2022
31 Clouds 15 1015 82 8000 1.03 290 23:59 11.08.2022
32 Clouds 15 1016 82 8000 1.03 290 23:25 11.08.2022
33 Rain 13 1016 95 10000 1.77 241 21:53 11.08.2022
34 Rain 14 1016 93 10000 1.79 241 21:28 11.08.2022
35 Clouds 15 1024 94 8000 0 0 20:31 11.08.2022
36 Clouds 15 1024 94 8000 3.6 250 19:34 11.08.2022
37 Clouds 16 1023 94 3000 1.03 190 18:57 11.08.2022
38 Clouds 16 1023 94 2000 3.09 220 17:22 11.08.2022
39 Rain 16 1022 88 8000 4.12 220 15:48 11.08.2022
40 Rain 17 1012 81 10000 2.19 245 14:46 11.08.2022
41 Clouds 16 1025 88 10000 3.09 180 11:59 11.08.2022
42 Clouds 16 1026 82 8000 2.06 190 09:24 11.08.2022
43 Clouds 14 1025 94 9000 3.09 250 06:58 11.08.2022
44 Rain 13 1014 98 10000 1.9 261 03:23 11.08.2022
45 Rain 14 1024 88 9000 3.09 270 00:19 11.08.2022
46 Rain 16 1025 82 9000 3.09 250 21:56 10.08.2022
47 Rain 16 1025 82 9000 3.09 250 21:19 10.08.2022
48 Rain 16 1024 82 10000 2.57 250 20:42 10.08.2022
49 Rain 16 1024 82 8000 4.63 250 18:53 10.08.2022
50 Rain 16 1023 82 8000 2.06 190 17:28 10.08.2022
51 Clouds 16 1023 88 8000 5.66 211 15:26 10.08.2022
52 Clouds 17 1023 82 10000 3.6 200 13:34 10.08.2022
53 Rain 16 1025 82 8000 2.57 220 11:47 10.08.2022
54 Rain 16 1025 82 8000 3.09 260 08:44 10.08.2022
55 Rain 16 1025 82 8000 3.09 260 07:36 10.08.2022
56 Rain 15 1024 88 8000 3.09 250 05:53 10.08.2022
57 Clouds 16 1023 82 10000 3.09 230 02:44 10.08.2022
58 Clouds 17 1025 77 10000 3.09 250 23:33 09.08.2022
59 Rain 14 1015 91 10000 1.81 291 22:48 09.08.2022
60 Rain 17 1025 77 9000 3.09 310 21:34 09.08.2022
61 Clouds 17 1024 82 10000 2.06 260 19:33 09.08.2022
62 Rain 15 1013 86 10000 2.09 301 18:23 09.08.2022
63 Rain 18 1023 77 9000 3.09 260 17:26 09.08.2022
64 Rain 18 1022 77 9000 3.09 260 16:40 09.08.2022
65 Clouds 18 1022 77 10000 2.06 270 15:31 09.08.2022
66 Clouds 20 1024 68 10000 1.54 220 12:20 09.08.2022
67 Clouds 17 1026 82 10000 2.57 280 09:22 09.08.2022
68 Clouds 16 1026 82 10000 4.12 220 08:26 09.08.2022
69 Clouds 14 1016 87 10000 1.9 277 07:18 09.08.2022
70 Clouds 15 1023 82 10000 3.09 280 02:54 09.08.2022
71 Clouds 15 1025 77 10000 3.09 270 23:27 08.08.2022
72 Clouds 15 1025 77 10000 3.09 270 22:53 08.08.2022
73 Clouds 16 1025 88 10000 3.09 300 21:48 08.08.2022
74 Clouds 17 1024 67 10000 4.12 320 20:52 08.08.2022
75 Clouds 17 1024 77 10000 5.14 300 19:50 08.08.2022
76 Clouds 18 1023 72 10000 6.17 320 18:35 08.08.2022
77 Clouds 19 1022 68 10000 6.17 320 16:34 08.08.2022
78 Clouds 20 1022 64 10000 5.14 300 15:38 08.08.2022
79 Clouds 19 1024 68 10000 4.12 290 12:50 08.08.2022
80 Rain 17 1013 79 10000 4.21 317 11:48 08.08.2022
81 Clouds 17 1026 77 10000 5.14 300 09:29 08.08.2022
82 Rain 14 1024 88 9000 2.06 300 05:35 08.08.2022
83 Clouds 15 1023 88 10000 3.09 260 01:56 08.08.2022
84 Rain 14 1015 89 10000 2 312 21:51 07.08.2022
85 Rain 14 1015 89 10000 2 312 21:32 07.08.2022
86 Clouds 17 1024 77 10000 4.63 250 20:25 07.08.2022
87 Clouds 17 1024 77 10000 2.57 270 19:53 07.08.2022
88 Rain 14 1014 95 10000 1.23 317 19:29 07.08.2022
89 Rain 17 1023 77 9000 1.03 270 17:59 07.08.2022
90 Rain 17 1022 77 9000 2.57 230 16:53 07.08.2022
91 Clouds 17 1023 77 10000 1.38 7 15:49 07.08.2022
92 Rain 16 1023 82 9000 4.12 80 14:34 07.08.2022
93 Clouds 17 1024 77 10000 3.6 290 12:51 07.08.2022
94 Clouds 18 1025 72 10000 0 0 10:57 07.08.2022
95 Clouds 18 1025 72 10000 0 0 10:21 07.08.2022
96 Clouds 16 1023 63 10000 3.09 270 04:42 07.08.2022
97 Clouds 16 1023 72 10000 3.09 260 02:37 07.08.2022
98 Clouds 17 1025 63 10000 1.54 300 22:57 06.08.2022
99 Rain 13 1015 96 5690 1.93 243 22:19 06.08.2022
100 Rain 14 1015 95 9292 2.23 260 20:19 06.08.2022
101 Clouds 18 1024 63 10000 4.12 300 19:38 06.08.2022
102 Clouds 19 1023 59 10000 3.09 290 18:19 06.08.2022
103 Clouds 20 1022 64 10000 3.09 280 16:33 06.08.2022
104 Rain 18 1024 72 9000 6.17 290 13:52 06.08.2022
105 Clouds 18 1024 72 10000 6.17 290 12:50 06.08.2022
106 Rain 18 1014 73 10000 3.33 279 11:21 06.08.2022
107 Rain 18 1014 73 10000 3.34 271 09:50 06.08.2022
108 Clouds 15 1026 88 10000 2.06 240 07:36 06.08.2022
109 Rain 13 1015 93 10000 2.13 265 02:22 06.08.2022
110 Rain 13 1016 97 7470 2.12 222 22:40 05.08.2022
111 Clouds 16 1025 88 10000 0 0 21:51 05.08.2022
112 Clouds 17 1025 82 10000 2.06 300 19:29 05.08.2022
113 Clouds 18 1024 77 10000 2.06 300 18:44 05.08.2022
114 Clouds 18 1023 77 10000 4.12 300 17:26 05.08.2022
115 Clouds 18 1023 77 10000 5.14 230 16:43 05.08.2022
116 Clouds 20 1023 68 10000 4.12 210 15:21 05.08.2022
117 Clouds 17 1024 82 10000 2.06 220 13:43 05.08.2022
118 Clouds 17 1024 82 10000 2.06 220 13:22 05.08.2022
119 Clouds 17 1025 82 10000 4.12 280 12:24 05.08.2022
120 Clouds 15 1027 88 10000 2.06 260 10:30 05.08.2022
121 Clouds 15 1026 88 10000 0 0 07:58 05.08.2022
122 Clouds 13 1017 94 10000 1.19 225 05:30 05.08.2022
123 Clouds 15 1026 82 10000 4.12 290 23:51 04.08.2022
124 Drizzle 15 1026 82 8000 2.06 290 22:25 04.08.2022
125 Thunderstorm 16 1026 82 7000 2.06 270 21:25 04.08.2022
126 Rain 14 1016 88 8711 0.36 30 20:42 04.08.2022
127 Rain 15 1014 88 9940 0.57 266 19:23 04.08.2022
128 Rain 15 1014 88 9940 0.57 266 18:35 04.08.2022
129 Rain 15 1014 89 9881 0.46 171 17:31 04.08.2022
130 Clouds 18 1024 77 10000 4.12 180 13:44 04.08.2022
131 Clouds 17 1026 82 10000 2.57 190 11:47 04.08.2022
132 Clouds 17 1026 82 10000 3.6 200 10:48 04.08.2022
133 Mist 15 1026 88 9000 1.03 200 07:52 04.08.2022
134 Rain 13 1016 95 10000 1.63 269 04:30 04.08.2022
135 Clouds 16 1024 82 10000 2.06 240 02:20 04.08.2022
136 Clouds 17 1025 72 10000 2.06 100 23:43 03.08.2022
137 Clouds 17 1025 72 10000 0 0 21:50 03.08.2022
138 Clouds 18 1025 68 10000 2.06 160 20:37 03.08.2022
139 Rain 14 1015 90 8151 1.34 234 19:29 03.08.2022
140 Clouds 19 1023 72 10000 4.12 190 17:58 03.08.2022
141 Clouds 19 1023 72 10000 4.63 190 16:24 03.08.2022
142 Clouds 19 1023 72 10000 4.63 190 16:24 03.08.2022
143 Rain 18 1011 71 10000 2.62 215 14:44 03.08.2022
144 Rain 19 1012 68 6871 2.54 234 12:30 03.08.2022
145 Clouds 16 1026 88 10000 3.6 260 08:26 03.08.2022
146 Clouds 14 1024 94 10000 3.09 250 04:47 03.08.2022
147 Clouds 14 1024 94 10000 2.06 260 03:28 03.08.2022
148 Clouds 15 1024 94 10000 3.09 250 01:18 03.08.2022
149 Clouds 15 1024 94 10000 3.09 250 01:18 03.08.2022
150 Clouds 15 1024 94 10000 3.09 250 01:18 03.08.2022
151 Rain 15 1026 94 8000 2.06 260 23:18 02.08.2022
152 Rain 15 1026 94 9000 0 0 21:55 02.08.2022
153 Rain 15 1026 94 9000 0 0 21:21 02.08.2022
154 Rain 16 1025 88 7000 2.39 245 18:52 02.08.2022
155 Rain 17 1013 77 6670 2.77 257 16:24 02.08.2022
156 Clouds 16 1025 82 10000 4.12 210 12:53 02.08.2022
157 Clouds 16 1027 82 10000 3.09 250 09:40 02.08.2022
158 Clouds 16 1027 77 10000 3.6 250 07:56 02.08.2022
159 Clouds 15 1026 82 10000 2.57 270 06:43 02.08.2022
160 Clouds 15 1025 82 10000 3.6 270 04:55 02.08.2022
161 Clouds 15 1025 82 10000 3.6 270 04:55 02.08.2022
162 Clouds 15 1026 88 10000 3.6 280 23:52 01.08.2022
163 Clouds 16 1027 82 10000 3.09 240 22:50 01.08.2022
164 Clouds 16 1026 82 10000 4.12 250 20:53 01.08.2022
165 Rain 13 1018 93 10000 1.72 319 19:41 01.08.2022
166 Rain 13 1017 91 10000 1.85 319 18:43 01.08.2022
167 Rain 17 1025 77 6000 1.7 297 16:54 01.08.2022
168 Rain 17 1025 77 6000 2.65 273 16:28 01.08.2022
169 Rain 14 1025 88 5000 2.64 273 15:31 01.08.2022
170 Rain 15 1014 82 10000 3.27 264 14:43 01.08.2022
171 Rain 15 1014 82 10000 3.27 264 14:43 01.08.2022
172 Rain 13 1026 94 3000 2.85 231 12:52 01.08.2022
173 Rain 14 1027 94 3000 3.09 170 10:29 01.08.2022
174 Rain 12 1027 87 2000 3.09 180 08:39 01.08.2022
175 Clouds 14 1025 94 9000 4.12 240 06:50 01.08.2022
176 Clouds 12 1016 96 10000 1.57 243 04:24 01.08.2022
177 Clouds 15 1025 82 10000 3.09 250 00:55 01.08.2022
178 Clouds 15 1026 88 10000 3.6 280 22:42 31.07.2022
179 Clouds 15 1025 94 10000 2.57 280 21:35 31.07.2022
180 Clouds 15 1025 94 10000 4.12 250 20:18 31.07.2022
181 Clouds 15 1024 88 7000 4 340 18:38 31.07.2022
182 Clouds 16 1024 82 10000 2.06 260 16:18 31.07.2022
183 Rain 17 1012 81 5510 2.05 237 13:53 31.07.2022
184 Rain 18 1012 74 5694 2.29 216 12:43 31.07.2022
185 Rain 17 1015 76 10000 2.7 198 10:22 31.07.2022
186 Mist 15 1026 88 8000 2.06 250 08:19 31.07.2022
187 Rain 14 1025 94 8000 0 0 04:30 31.07.2022
188 Mist 14 1025 94 7000 1.03 210 00:23 31.07.2022
189 Rain 14 1016 89 10000 1.15 116 22:20 30.07.2022
190 Clouds 15 1025 94 10000 0 0 21:50 30.07.2022
191 Clouds 15 1025 94 10000 0 0 21:20 30.07.2022
192 Clouds 15 1025 94 10000 0 0 20:24 30.07.2022
193 Clouds 16 1025 88 10000 0 0 19:27 30.07.2022
194 Clouds 16 1024 88 10000 0 0 17:48 30.07.2022
195 Rain 16 1024 88 8000 2.06 330 16:21 30.07.2022
196 Rain 18 1012 73 10000 2.49 120 15:27 30.07.2022
197 Rain 19 1013 72 5207 2.15 127 13:22 30.07.2022
198 Mist 19 1025 68 8000 5.14 170 12:21 30.07.2022
199 Mist 19 1026 72 8000 3.09 150 10:44 30.07.2022
200 Mist 17 1027 77 8000 0 0 09:59 30.07.2022
201 Mist 17 1027 77 8000 0 0 08:44 30.07.2022
202 Clouds 14 1026 88 10000 1.03 280 06:50 30.07.2022
203 Clouds 15 1024 82 10000 0 0 02:33 30.07.2022
204 Clouds 17 1026 77 10000 0 0 22:57 29.07.2022
205 Clouds 17 1026 77 10000 0 0 21:30 29.07.2022
206 Clouds 18 1025 72 10000 0 0 20:50 29.07.2022
207 Clouds 18 1025 72 10000 0 0 19:34 29.07.2022
208 Clouds 20 1023 64 10000 4.12 180 16:44 29.07.2022
209 Clouds 21 1024 60 10000 3.6 250 14:23 29.07.2022
210 Rain 19 1013 66 10000 1.34 212 12:32 29.07.2022
211 Rain 16 1027 82 9000 3.09 200 08:51 29.07.2022
212 Rain 16 1027 82 9000 3.09 200 08:21 29.07.2022
213 Clouds 15 1024 88 10000 0 0 03:55 29.07.2022
214 Clouds 16 1026 82 10000 2.06 190 23:30 28.07.2022
215 Clouds 16 1026 82 10000 4.12 80 21:38 28.07.2022
216 Clouds 17 1025 77 10000 2.06 270 20:50 28.07.2022
217 Clouds 17 1025 77 10000 2.06 270 20:18 28.07.2022
218 Rain 14 1015 87 10000 1.82 132 19:26 28.07.2022
219 Clouds 18 1023 77 10000 0 0 17:46 28.07.2022
220 Clouds 18 1023 77 10000 0 0 17:20 28.07.2022
221 Rain 17 1012 81 10000 1.16 88 16:40 28.07.2022
222 Clouds 18 1023 77 8000 6.17 30 13:56 28.07.2022
223 Clouds 19 1024 72 10000 10 200 12:39 28.07.2022
224 Rain 16 1016 82 7000 2.57 210 07:46 28.07.2022
225 Clouds 14 1024 94 10000 3.09 250 05:39 28.07.2022
226 Clouds 14 1024 94 10000 3.09 250 05:20 28.07.2022
227 Clouds 16 1024 82 10000 2.06 230 23:19 27.07.2022
228 Clouds 16 1025 88 8431 0.29 205 21:30 27.07.2022
229 Clouds 17 1023 82 10000 0 0 19:48 27.07.2022
230 Rain 14 1014 89 10000 0.5 197 19:19 27.07.2022
231 Clouds 18 1021 72 10000 4.12 200 16:31 27.07.2022
232 Clouds 18 1011 72 10000 3.09 180 15:51 27.07.2022
233 Clouds 19 1022 77 9000 3.09 160 14:41 27.07.2022
234 Clouds 18 1023 72 10000 4.12 190 13:34 27.07.2022
235 Rain 14 1017 94 8000 4.12 240 09:28 27.07.2022
236 Rain 15 1017 88 8000 4.12 240 07:40 27.07.2022
237 Rain 15 1023 88 8000 3.09 270 03:57 27.07.2022
238 Clouds 15 1024 88 8000 2.06 210 23:21 26.07.2022
239 Rain 16 1024 82 8000 2.06 300 21:49 26.07.2022
240 Rain 16 1024 82 8000 2.06 300 20:49 26.07.2022
241 Rain 16 1012 83 7932 1.29 241 19:20 26.07.2022
242 Clouds 18 1012 77 10000 0 0 18:39 26.07.2022
243 Clouds 18 1012 77 10000 1.03 50 17:46 26.07.2022
244 Rain 18 1010 70 6886 1.57 254 15:43 26.07.2022
245 Rain 20 1022 68 9000 3.09 240 14:38 26.07.2022
246 Clouds 18 1024 77 10000 4.12 200 12:25 26.07.2022
247 Clouds 17 1026 77 9000 2.06 200 09:44 26.07.2022
248 Mist 16 1026 82 9000 1.03 130 08:22 26.07.2022
249 Clouds 16 1024 82 10000 2.06 300 01:52 26.07.2022
250 Clouds 17 1026 77 10000 3.09 220 23:44 25.07.2022
251 Clouds 17 1024 77 10000 3.09 240 22:39 25.07.2022
252 Clouds 18 1025 72 10000 0 0 21:43 25.07.2022
253 Clouds 18 1025 72 10000 0 0 20:43 25.07.2022
254 Clouds 18 1024 77 10000 2.06 290 19:55 25.07.2022
255 Rain 15 1014 84 10000 0.95 262 19:20 25.07.2022
256 Clouds 19 1023 72 9000 3.09 300 17:35 25.07.2022
257 Clouds 20 1023 73 10000 3.09 320 16:40 25.07.2022
258 Clouds 21 1024 64 10000 6.17 230 12:58 25.07.2022
259 Clouds 19 1026 68 10000 4.12 220 10:47 25.07.2022
260 Clouds 13 1018 88 10000 1.91 285 07:29 25.07.2022
261 Clouds 15 1025 88 9000 3.09 320 00:38 25.07.2022
262 Rain 14 1027 88 9000 3.09 260 23:45 24.07.2022
263 Rain 14 1027 94 8000 4.12 220 22:43 24.07.2022
264 Clouds 15 1026 88 10000 5.14 190 21:33 24.07.2022
265 Clouds 15 1026 88 10000 5.14 190 20:58 24.07.2022
266 Clouds 16 1025 82 10000 3.09 270 20:35 24.07.2022
267 Rain 14 1015 89 10000 2.28 318 18:59 24.07.2022
268 Clouds 20 1022 68 10000 5.14 300 16:54 24.07.2022
269 Clouds 17 1023 77 10000 4.12 290 15:54 24.07.2022
270 Clouds 18 1023 77 10000 4.12 275 14:41 24.07.2022
271 Rain 17 1025 82 7000 2.06 260 13:47 24.07.2022
272 Rain 17 1013 76 10000 2.54 240 12:19 24.07.2022
273 Rain 16 1015 79 10000 2.32 243 11:29 24.07.2022
274 Clouds 15 1016 87 10000 2.15 261 09:33 24.07.2022
275 Rain 14 1017 94 10000 2.2 245 07:53 24.07.2022
276 Rain 13 1017 94 10000 1.5 228 07:26 24.07.2022
277 Rain 13 1015 94 10000 2.11 243 02:52 24.07.2022
278 Rain 14 1015 91 10000 1.34 244 22:45 23.07.2022
279 Clouds 17 1024 82 10000 0 0 20:47 23.07.2022
280 Clouds 17 1024 82 10000 4.12 240 19:25 23.07.2022
281 Clouds 18 1023 77 10000 1.03 340 18:18 23.07.2022
282 Rain 18 1011 77 9534 0.77 239 17:27 23.07.2022
283 Clouds 17 1022 77 9000 3.09 300 16:22 23.07.2022
284 Clouds 18 1022 77 9000 5.14 280 15:21 23.07.2022
285 Rain 20 1023 68 9000 5.14 190 14:52 23.07.2022
286 Rain 20 1023 68 9000 5.14 190 14:21 23.07.2022
287 Clouds 18 1025 77 10000 3.6 190 11:55 23.07.2022
288 Clouds 18 1026 77 10000 3.6 190 10:37 23.07.2022
289 Clouds 18 1026 77 10000 3.09 200 09:34 23.07.2022
290 Clouds 15 1016 85 10000 1.47 265 06:46 23.07.2022
291 Clouds 15 1024 82 10000 2.06 250 03:37 23.07.2022
292 Clouds 16 1025 82 10000 0 0 00:34 23.07.2022
293 Clear 14 1016 85 10000 0.52 156 21:33 22.07.2022
294 Clouds 16 1025 94 10000 0 0 20:31 22.07.2022
295 Rain 15 1014 83 10000 0.4 149 18:42 22.07.2022
296 Clouds 18 1024 94 3000 2.06 340 17:39 22.07.2022
297 Clouds 21 1022 73 10000 4.12 210 15:48 22.07.2022
298 Rain 19 1012 64 10000 2.69 160 12:47 22.07.2022
299 Clouds 18 1016 72 10000 4.12 170 10:22 22.07.2022
300 Clouds 17 1027 82 10000 5.14 250 09:21 22.07.2022
301 Clouds 15 1027 88 10000 0.89 183 07:57 22.07.2022
302 Clouds 15 1024 88 10000 4.12 250 04:23 22.07.2022
303 Clouds 12 1016 90 10000 1.41 284 23:36 21.07.2022
304 Clouds 16 1025 88 10000 0 0 21:51 21.07.2022
305 Clouds 16 1024 88 10000 2.06 290 19:45 21.07.2022
306 Clouds 16 1024 88 9000 2.06 310 18:36 21.07.2022
307 Clouds 17 1023 82 10000 2.06 200 17:22 21.07.2022
308 Clouds 17 1023 82 10000 3.09 200 16:23 21.07.2022
309 Mist 17 1024 82 8000 0.51 200 14:46 21.07.2022
310 Clouds 15 1014 83 10000 2.02 238 13:58 21.07.2022
311 Rain 15 1016 86 10000 1.57 197 11:58 21.07.2022
312 Rain 13 1017 93 10000 1.27 187 10:20 21.07.2022
313 Mist 15 1026 82 4000 1.03 190 08:53 21.07.2022
314 Rain 14 1017 89 8934 0.72 190 07:50 21.07.2022
315 Rain 13 1017 93 10000 0.95 215 06:45 21.07.2022
316 Rain 15 1025 88 4000 3.09 230 02:59 21.07.2022
317 Mist 16 1026 82 6000 3.6 240 22:49 20.07.2022
318 Rain 13 1017 95 10000 1.62 267 22:19 20.07.2022
319 Rain 16 1026 88 9000 3.09 220 20:46 20.07.2022
320 Rain 16 1026 88 9000 3.09 220 20:46 20.07.2022
321 Rain 17 1025 82 8000 3.09 200 19:47 20.07.2022
322 Rain 17 1024 82 8000 3.09 230 18:56 20.07.2022
323 Rain 17 1024 82 8000 3.09 230 18:31 20.07.2022
324 Rain 17 1024 82 9000 1.03 200 17:33 20.07.2022
325 Rain 13 1015 92 10000 0.98 277 15:38 20.07.2022
326 Rain 13 1015 92 10000 1.03 263 14:49 20.07.2022
327 Rain 17 1025 82 7000 1.54 190 13:44 20.07.2022
328 Rain 13 1017 93 8488 1.15 254 11:29 20.07.2022
329 Rain 14 1017 94 2000 0 300 06:49 20.07.2022
330 Clouds 15 1025 82 10000 2.57 310 01:57 20.07.2022
331 Clouds 15 1026 88 10000 1.03 300 00:42 20.07.2022
332 Clouds 16 1026 94 10000 1.03 130 22:38 19.07.2022
333 Rain 14 1017 90 10000 1.04 264 22:20 19.07.2022
334 Clouds 17 1025 94 10000 2 150 20:50 19.07.2022
335 Rain 14 1016 90 10000 2.33 211 19:37 19.07.2022
336 Rain 15 1015 88 10000 1.11 179 18:42 19.07.2022
337 Rain 15 1014 85 10000 0.8 229 17:56 19.07.2022
338 Rain 15 1013 86 9243 2.31 302 15:50 19.07.2022
339 Rain 19 1012 61 10000 1.01 193 13:51 19.07.2022
340 Mist 15 1026 88 9000 2.06 200 11:34 19.07.2022
341 Rain 18 1015 66 10000 2.06 228 09:58 19.07.2022
342 Rain 16 1016 73 10000 1.97 232 08:48 19.07.2022
343 Rain 15 1017 80 10000 2.22 266 08:21 19.07.2022
344 Rain 14 1017 82 10000 1.28 266 07:18 19.07.2022
345 Clouds 14 1026 88 10000 2.06 280 05:23 19.07.2022
346 Clouds 14 1025 88 10000 2.06 270 04:40 19.07.2022
347 Clouds 14 1016 84 10000 0.81 243 00:21 19.07.2022
348 Clouds 14 1016 84 10000 1.54 228 23:21 18.07.2022
349 Clouds 14 1016 84 10000 1.54 228 22:51 18.07.2022
350 Clouds 16 1025 82 10000 1.03 290 21:27 18.07.2022
351 Clouds 16 1025 88 10000 1.03 30 20:49 18.07.2022
352 Clouds 16 1024 88 10000 0 0 19:24 18.07.2022
353 Clouds 15 1024 88 8000 2.06 110 16:50 18.07.2022
354 Rain 15 1013 79 10000 3.2 317 15:41 18.07.2022
355 Rain 17 1013 72 10000 0.57 253 13:41 18.07.2022
356 Clouds 18 1024 77 10000 4.12 210 12:29 18.07.2022
357 Rain 18 1015 67 10000 2.29 220 10:24 18.07.2022
358 Clouds 16 1026 88 10000 2.06 235 08:21 18.07.2022
359 Clouds 14 1026 94 10000 4.63 260 06:48 18.07.2022
360 Clouds 16 1026 88 10000 0 300 23:30 17.07.2022
361 Clouds 16 1026 82 10000 1.03 240 22:32 17.07.2022
362 Clouds 15 1016 78 10000 0.9 281 21:43 17.07.2022
363 Clouds 14 1016 78 10000 1.14 289 20:53 17.07.2022
364 Clouds 14 1016 79 10000 1.17 317 20:35 17.07.2022
365 Clouds 15 1015 79 10000 1.11 313 19:26 17.07.2022
366 Clouds 15 1014 78 10000 1.21 292 18:26 17.07.2022
367 Clouds 19 1024 72 10000 3.09 110 17:37 17.07.2022
368 Rain 17 1013 71 10000 1.55 294 16:50 17.07.2022
369 Rain 17 1013 66 10000 1.16 296 16:25 17.07.2022
370 Rain 17 1014 66 10000 1.25 243 14:32 17.07.2022
371 Rain 14 1017 83 10000 1.59 300 13:28 17.07.2022
372 Rain 14 1018 87 10000 2.12 2 10:59 17.07.2022
373 Rain 14 1029 94 2000 1.03 200 08:44 17.07.2022
374 Clouds 12 1017 95 10000 1.8 260 03:40 17.07.2022
375 Clouds 12 1016 91 10000 1.82 260 02:21 17.07.2022
376 Rain 14 1017 86 10000 1.19 242 23:19 16.07.2022
377 Clouds 17 1026 88 10000 1.03 290 21:21 16.07.2022
378 Rain 15 1015 82 10000 1.36 258 19:25 16.07.2022
379 Clouds 17 1024 88 7000 2.06 240 17:56 16.07.2022
380 Clouds 17 1024 82 5592 1.54 280 16:27 16.07.2022
381 Rain 19 1012 62 10000 1.23 298 13:47 16.07.2022
382 Rain 19 1015 63 10000 2.05 260 10:50 16.07.2022
383 Rain 18 1015 66 9830 2.14 265 09:32 16.07.2022
384 Rain 17 1016 70 10000 1.96 263 08:43 16.07.2022
385 Rain 16 1026 88 6000 2.03 264 07:59 16.07.2022
386 Mist 14 1025 94 8000 1.32 307 03:41 16.07.2022
387 Mist 14 1025 94 8000 1.61 302 02:35 16.07.2022
388 Mist 14 1027 94 2000 1.6 280 23:29 15.07.2022
389 Clouds 13 1017 91 10000 1.59 281 22:39 15.07.2022
390 Clouds 13 1017 89 10000 1.51 273 21:28 15.07.2022
391 Clouds 15 1025 88 10000 1.63 271 20:24 15.07.2022
392 Clouds 16 1024 88 10000 2.15 273 18:37 15.07.2022
393 Clouds 17 1024 82 10000 1.82 264 17:36 15.07.2022
394 Drizzle 14 1015 88 6000 1.07 214 14:48 15.07.2022
395 Clouds 15 1026 88 8588 3.11 232 12:49 15.07.2022
396 Rain 17 1016 71 10000 3 222 10:54 15.07.2022
397 Mist 16 1027 82 8000 1.54 340 09:21 15.07.2022
398 Rain 14 1025 88 8000 3.09 220 05:56 15.07.2022
399 Clouds 14 1026 88 10000 4.12 260 00:52 15.07.2022
400 Rain 14 1026 88 8000 2.06 240 23:36 14.07.2022
401 Rain 15 1027 88 8000 3.09 240 22:42 14.07.2022
402 Clouds 14 1026 88 9000 1.03 280 21:43 14.07.2022
403 Clouds 14 1026 88 9000 1.03 280 21:25 14.07.2022
404 Clouds 15 1026 88 8000 2.06 250 20:43 14.07.2022
405 Clouds 15 1026 88 8000 2.06 250 20:19 14.07.2022
406 Clouds 15 1025 88 10000 6.17 250 18:42 14.07.2022
407 Clouds 15 1024 88 8000 4.12 200 16:22 14.07.2022
408 Rain 16 1024 82 9000 4.12 210 15:29 14.07.2022
409 Rain 17 1025 88 8000 3.09 210 13:53 14.07.2022
410 Mist 16 1026 88 2000 3.6 200 12:53 14.07.2022
411 Rain 17 1027 88 4000 4.12 210 11:43 14.07.2022
412 Rain 16 1027 88 4000 4.12 210 11:22 14.07.2022
413 Rain 15 1027 88 8000 3.09 210 09:49 14.07.2022
414 Rain 14 1017 90 10000 2.93 251 06:54 14.07.2022
415 Clouds 15 1026 88 6000 1.03 240 01:24 14.07.2022
416 Clouds 16 1026 82 8000 2.06 210 00:53 14.07.2022
417 Clouds 16 1027 82 10000 1.03 230 22:33 13.07.2022
418 Clouds 16 1027 82 8000 2.06 210 21:55 13.07.2022
419 Clouds 17 1026 82 10000 3.09 210 20:45 13.07.2022
420 Clouds 17 1026 82 10000 2.06 190 19:21 13.07.2022
421 Clouds 17 1024 82 8000 1.03 80 17:42 13.07.2022
422 Rain 17 1024 82 8000 0 0 16:29 13.07.2022
423 Clouds 17 1024 82 9000 4.12 240 15:24 13.07.2022
424 Clouds 17 1026 82 10000 4.12 180 12:55 13.07.2022
425 Clouds 16 1028 82 10000 4.12 170 10:45 13.07.2022
426 Rain 16 1017 78 10000 1.99 198 09:58 13.07.2022
427 Rain 14 1018 86 10000 1.37 206 09:21 13.07.2022
428 Clouds 13 1019 92 10000 1.03 216 06:19 13.07.2022
429 Mist 17 1026 82 9000 3.6 220 01:28 13.07.2022
430 Rain 16 1027 88 8000 1.03 270 23:45 12.07.2022
431 Rain 13 1019 92 10000 1.22 352 21:57 12.07.2022
432 Rain 13 1019 91 10000 1.12 336 21:29 12.07.2022
433 Rain 13 1019 91 10000 1.12 336 20:41 12.07.2022
434 Rain 15 1027 94 8000 1.54 50 19:26 12.07.2022
435 Rain 16 1026 94 4000 2.06 150 17:49 12.07.2022
436 Mist 17 1025 82 9000 1.54 160 15:57 12.07.2022
437 Clouds 13 1017 89 10000 1.44 273 14:31 12.07.2022
438 Clouds 16 1027 82 10000 2.06 220 12:29 12.07.2022
439 Mist 16 1028 82 9000 1.54 190 11:22 12.07.2022
440 Rain 14 1019 88 10000 1.74 224 09:38 12.07.2022
441 Mist 14 1029 94 4000 1.03 180 08:19 12.07.2022
442 Clouds 13 1027 94 4000 0 110 06:29 12.07.2022
443 Rain 12 1027 100 3000 0 0 05:39 12.07.2022
444 Rain 12 1026 94 3000 0 0 02:21 12.07.2022
445 Rain 14 1027 88 3000 0 0 23:18 11.07.2022
446 Rain 14 1027 88 3000 0 0 22:30 11.07.2022
447 Rain 15 1026 94 5000 0 0 20:33 11.07.2022
448 Rain 15 1026 94 5000 0 0 19:36 11.07.2022
449 Rain 13 1018 92 10000 1.2 256 18:32 11.07.2022
450 Clouds 13 1017 92 10000 1.47 251 17:46 11.07.2022
451 Clouds 13 1016 90 10000 2.32 242 16:19 11.07.2022
452 Fog 14 1024 88 1000 2.76 237 14:38 11.07.2022
453 Rain 13 1017 93 10000 2.76 229 11:49 11.07.2022
454 Rain 13 1018 94 7909 2.58 215 10:29 11.07.2022
455 Rain 13 1018 95 1786 2.3 207 09:42 11.07.2022
456 Rain 13 1018 96 3282 2.05 206 08:33 11.07.2022
457 Clouds 14 1017 94 6000 3.09 230 05:51 11.07.2022
458 Clouds 14 1025 94 10000 4.12 260 00:22 11.07.2022
459 Clouds 15 1026 94 10000 2.06 200 22:56 10.07.2022
460 Mist 15 1026 94 7000 2.06 200 21:51 10.07.2022
461 Mist 16 1025 94 7000 3.09 190 20:54 10.07.2022
462 Mist 16 1024 88 5000 2.06 210 19:50 10.07.2022
463 Clouds 13 1016 93 10000 1.23 196 18:49 10.07.2022
464 Clouds 16 1023 94 8000 4.12 180 17:37 10.07.2022
465 Clouds 17 1023 82 10000 4.12 210 16:57 10.07.2022
466 Clouds 17 1023 82 10000 2.06 220 15:33 10.07.2022
467 Clouds 17 1023 77 10000 2.06 210 14:30 10.07.2022
468 Mist 17 1025 77 8000 2.06 280 12:29 10.07.2022
469 Mist 16 1026 82 8000 1.03 240 11:25 10.07.2022
470 Rain 14 1017 91 10000 2.02 244 08:46 10.07.2022
471 Mist 14 1026 88 6000 1.03 250 07:59 10.07.2022
472 Clouds 14 1024 88 9000 2.06 240 02:50 10.07.2022
473 Clouds 15 1026 88 10000 0 0 22:59 09.07.2022
474 Rain 13 1017 92 6123 1.53 323 22:25 09.07.2022
475 Clouds 15 1026 88 10000 1.03 200 21:28 09.07.2022
476 Rain 15 1015 85 10000 1.87 310 18:43 09.07.2022
477 Clouds 15 1025 88 8000 3.09 300 17:48 09.07.2022
478 Rain 15 1025 94 10000 5.14 230 16:58 09.07.2022
479 Rain 15 1025 94 10000 1.03 230 15:42 09.07.2022
480 Clouds 17 1025 82 10000 0 0 14:44 09.07.2022
481 Rain 17 1013 74 9804 2.25 276 13:51 09.07.2022
482 Clouds 15 1027 88 10000 1.54 290 12:53 09.07.2022
483 Clouds 16 1027 88 10000 3.6 170 11:33 09.07.2022
484 Clouds 15 1027 88 10000 3.6 210 10:23 09.07.2022
485 Clouds 15 1018 77 10000 1.81 272 07:54 09.07.2022
486 Clouds 14 1018 82 10000 1.64 287 06:58 09.07.2022
487 Clouds 13 1017 92 10000 1.61 292 04:34 09.07.2022
488 Clouds 16 1027 82 10000 4.12 250 23:18 08.07.2022
489 Clouds 16 1027 82 10000 4.12 250 23:18 08.07.2022
490 Clouds 16 1027 82 10000 2.57 250 21:59 08.07.2022
491 Clouds 18 1027 77 10000 1.54 40 20:59 08.07.2022
492 Clouds 18 1027 77 10000 1.54 40 20:25 08.07.2022
493 Clouds 19 1025 77 10000 3.09 250 18:32 08.07.2022
494 Clouds 20 1024 68 10000 5.14 230 17:25 08.07.2022
495 Rain 19 1013 61 10000 2.53 274 14:55 08.07.2022
496 Rain 19 1014 59 10000 2.79 265 14:29 08.07.2022
497 Rain 19 1015 61 10000 2.95 276 12:28 08.07.2022
498 Clouds 16 1028 94 10000 1.54 210 10:45 08.07.2022
499 Clouds 15 1029 82 10000 5.14 230 08:51 08.07.2022
500 Rain 15 1027 88 8000 5.14 280 06:54 08.07.2022
501 Clouds 15 1026 88 10000 4.12 250 03:22 08.07.2022
502 Clouds 13 1017 90 10000 2.33 250 23:45 07.07.2022
503 Clouds 16 1027 88 10000 1.03 200 22:40 07.07.2022
504 Rain 14 1018 86 10000 1.92 229 20:59 07.07.2022
505 Rain 15 1016 88 8924 2.76 265 18:42 07.07.2022
506 Clouds 18 1024 82 10000 3.09 210 17:41 07.07.2022
507 Rain 19 1012 60 10000 1.76 218 15:22 07.07.2022
508 Rain 19 1014 63 10000 2.44 202 13:26 07.07.2022
509 Clouds 16 1027 82 10000 5.14 220 12:39 07.07.2022
510 Rain 17 1016 72 10000 2.07 209 12:19 07.07.2022
511 Clouds 15 1028 88 9000 5.14 210 11:30 07.07.2022
512 Clouds 15 1028 88 9000 6.17 170 10:43 07.07.2022
513 Clouds 15 1028 88 9000 6.17 170 10:25 07.07.2022
514 Clouds 15 1027 88 10000 3.09 230 07:40 07.07.2022
515 Clouds 14 1025 94 10000 0 0 04:42 07.07.2022
516 Clouds 16 1015 72 10000 1.42 232 23:37 06.07.2022
517 Clouds 16 1015 70 10000 0.9 276 23:19 06.07.2022
518 Clouds 16 1015 70 10000 0.9 276 22:56 06.07.2022
519 Clouds 16 1015 70 10000 0.9 276 22:38 06.07.2022
520 Clouds 16 1015 70 10000 1.41 315 21:30 06.07.2022
521 Clouds 18 1024 88 10000 2.06 170 19:38 06.07.2022
522 Clouds 18 1023 88 10000 0 0 18:21 06.07.2022
523 Rain 18 1012 67 10000 2.11 96 16:19 06.07.2022
524 Rain 21 1010 50 10000 1.79 91 14:55 06.07.2022
525 Clouds 22 1025 68 10000 3.09 200 12:40 06.07.2022
526 Rain 21 1013 53 10000 0.99 192 11:49 06.07.2022
527 Rain 20 1015 58 9240 1.4 182 10:18 06.07.2022
528 Clouds 16 1027 77 10000 2.06 200 07:47 06.07.2022
529 Clouds 17 1027 77 10000 2.06 200 07:23 06.07.2022
530 Clouds 15 1015 76 10000 1.48 319 03:24 06.07.2022
531 Clouds 15 1026 94 10000 2.06 320 22:45 05.07.2022
532 Clouds 16 1027 88 10000 4.12 310 21:39 05.07.2022
533 Rain 15 1017 76 10000 0.79 356 20:39 05.07.2022
534 Clouds 14 1017 80 10000 0.74 326 19:41 05.07.2022
535 Clouds 15 1016 77 10000 1.32 228 19:22 05.07.2022
536 Rain 15 1015 74 10000 1.49 182 17:47 05.07.2022
537 Rain 17 1014 67 10000 0.4 175 16:54 05.07.2022
538 Rain 19 1024 88 7000 3.09 320 15:25 05.07.2022
539 Clouds 20 1025 73 10000 3.6 180 13:59 05.07.2022
540 Clouds 20 1026 73 10000 4.63 210 12:42 05.07.2022
541 Rain 20 1015 53 10000 0.67 189 11:32 05.07.2022
542 Rain 19 1017 57 10000 1.09 161 10:34 05.07.2022
543 Clouds 18 1018 63 10000 1.15 88 09:22 05.07.2022
544 Clouds 15 1029 88 10000 0 0 07:45 05.07.2022
545 Clouds 13 1027 94 10000 2.06 60 04:49 05.07.2022
546 Clouds 13 1027 94 10000 2.06 60 04:21 05.07.2022
547 Clouds 12 1018 88 10000 2.2 327 23:45 04.07.2022
548 Clouds 13 1018 86 10000 2.45 326 23:25 04.07.2022
549 Clouds 16 1027 88 10000 0 0 22:21 04.07.2022
550 Clouds 13 1019 86 10000 2.42 321 21:30 04.07.2022
551 Clouds 17 1027 82 10000 4.12 270 20:52 04.07.2022
552 Clouds 17 1027 82 10000 4.12 270 20:33 04.07.2022
553 Clouds 17 1027 82 10000 4.12 270 19:52 04.07.2022
554 Clouds 17 1027 82 10000 4.12 270 19:34 04.07.2022
555 Clouds 18 1026 77 10000 4.12 260 17:57 04.07.2022
556 Clouds 19 1026 77 10000 7.2 220 15:50 04.07.2022
557 Clouds 19 1027 77 10000 3.09 240 14:54 04.07.2022
558 Clouds 18 1017 63 10000 3.58 254 13:29 04.07.2022
559 Clouds 16 1018 71 10000 3.61 261 12:20 04.07.2022
560 Rain 14 1020 81 10000 2.44 242 10:33 04.07.2022
561 Rain 13 1021 89 10000 2.04 247 09:40 04.07.2022
562 Rain 13 1019 91 7228 1.05 343 06:53 04.07.2022
563 Clouds 16 1027 88 10000 4.12 240 03:35 04.07.2022
564 Mist 15 1027 94 8000 0 350 00:30 04.07.2022
565 Rain 13 1018 88 10000 1.57 199 22:58 03.07.2022
566 Clouds 16 1026 88 10000 2.06 300 20:51 03.07.2022
567 Clouds 16 1026 88 10000 2.06 300 20:25 03.07.2022
568 Clouds 16 1026 88 10000 3.09 280 19:26 03.07.2022
569 Clouds 16 1025 88 9000 5.14 180 18:32 03.07.2022
570 Thunderstorm 17 1024 88 9000 7.2 340 17:43 03.07.2022
571 Clouds 19 1024 72 9000 3.75 31 15:29 03.07.2022
572 Rain 18 1011 68 3404 3.75 31 14:58 03.07.2022
573 Clouds 20 1025 73 10000 5.14 240 13:59 03.07.2022
574 Clouds 20 1025 73 10000 5.14 240 13:33 03.07.2022
575 Clouds 20 1026 68 10000 3.09 240 12:32 03.07.2022
576 Rain 21 1014 53 10000 1.63 224 11:18 03.07.2022
577 Rain 21 1014 53 10000 1.63 224 10:38 03.07.2022
578 Clouds 17 1028 77 10000 2.36 220 08:59 03.07.2022
579 Clouds 16 1027 77 10000 3.6 240 07:34 03.07.2022
580 Clouds 16 1026 88 10000 4.12 220 01:39 03.07.2022
581 Clouds 13 1017 81 10000 2.05 308 23:50 02.07.2022
582 Clouds 17 1026 88 10000 1.03 330 22:32 02.07.2022
583 Rain 14 1018 80 10000 1.28 265 20:37 02.07.2022
584 Clouds 18 1025 88 10000 3.09 250 19:50 02.07.2022
585 Clouds 18 1025 88 10000 3.09 250 19:19 02.07.2022
586 Clouds 19 1024 88 8000 2.06 230 17:41 02.07.2022
587 Clouds 16 1014 72 10000 2.6 332 16:38 02.07.2022
588 Clouds 22 1025 60 8000 2.06 160 13:51 02.07.2022
589 Clouds 21 1026 64 8000 2.57 160 11:52 02.07.2022
590 Clouds 20 1027 68 5000 1.54 150 10:53 02.07.2022
591 Clouds 20 1027 68 5000 1.54 150 10:32 02.07.2022
592 Mist 18 1028 72 5000 0.51 160 08:39 02.07.2022
593 Mist 18 1028 72 5000 0.51 160 08:19 02.07.2022
594 Clouds 14 1027 88 8000 1.03 20 05:59 02.07.2022
595 Clouds 15 1026 88 10000 1.54 320 00:55 02.07.2022
596 Clouds 15 1027 94 10000 1.03 120 23:31 01.07.2022
597 Clouds 15 1027 94 10000 2.06 210 22:40 01.07.2022
598 Clouds 14 1018 77 10000 1.19 257 21:40 01.07.2022
599 Clouds 14 1017 75 10000 1.15 271 20:59 01.07.2022
600 Clouds 14 1017 75 10000 1.15 271 20:37 01.07.2022
601 Clouds 16 1026 94 10000 1.03 120 19:41 01.07.2022
602 Clouds 18 1025 88 10000 3.09 190 17:45 01.07.2022
603 Rain 18 1014 58 10000 1.7 259 15:26 01.07.2022
604 Rain 18 1015 57 10000 2.23 244 13:54 01.07.2022
605 Rain 18 1015 57 10000 2.23 244 13:54 01.07.2022
606 Rain 14 1019 80 10000 3.49 265 11:49 01.07.2022
607 Rain 12 1021 87 10000 1.18 283 10:20 01.07.2022
608 Rain 12 1022 90 6629 1.73 309 08:46 01.07.2022
609 Clouds 15 1027 88 10000 3.09 290 03:18 01.07.2022
610 Clouds 13 1017 87 10000 2.39 254 00:25 01.07.2022
611 Clouds 15 1027 88 10000 1.47 244 22:56 30.06.2022
612 Clouds 15 1027 88 10000 1.47 244 22:33 30.06.2022
613 Clouds 15 1026 88 10000 3.09 230 21:59 30.06.2022
614 Clouds 15 1026 88 10000 3.09 230 21:35 30.06.2022
615 Clouds 16 1026 82 10000 3.09 240 20:22 30.06.2022
616 Rain 14 1017 84 10000 2.23 251 19:53 30.06.2022
617 Rain 14 1016 85 10000 2.38 264 19:18 30.06.2022
618 Clouds 17 1025 82 10000 3.09 190 18:35 30.06.2022
619 Rain 14 1015 86 10000 2.51 262 17:38 30.06.2022
620 Mist 17 1024 82 8000 2.06 190 16:48 30.06.2022
621 Rain 18 1013 62 10000 2.08 257 15:27 30.06.2022
622 Clouds 17 1026 77 10000 2.57 160 13:30 30.06.2022
623 Rain 18 1014 61 10000 2.04 243 12:35 30.06.2022
624 Rain 17 1016 70 10000 2.59 222 11:28 30.06.2022
625 Clouds 16 1028 82 10000 1.03 50 09:53 30.06.2022
626 Clouds 16 1028 82 10000 1.03 50 09:32 30.06.2022
627 Rain 13 1019 84 10000 1.18 273 07:41 30.06.2022
628 Rain 13 1027 100 8000 3.09 80 05:57 30.06.2022
629 Clouds 15 1025 88 10000 2.57 270 00:32 30.06.2022
630 Clouds 15 1026 88 10000 2.06 280 23:21 29.06.2022
631 Rain 13 1017 89 10000 1.55 239 22:39 29.06.2022
632 Clouds 15 1026 88 10000 0 0 21:34 29.06.2022
633 Rain 14 1017 82 10000 1.11 254 20:33 29.06.2022
634 Rain 14 1016 82 10000 1.69 285 19:37 29.06.2022
635 Clouds 16 1024 82 8000 2.06 70 17:43 29.06.2022
636 Clouds 16 1023 82 7000 4.12 270 16:36 29.06.2022
637 Clouds 18 1025 72 8000 10.29 60 14:56 29.06.2022
638 Clouds 19 1026 72 10000 3.6 210 12:40 29.06.2022
639 Clouds 20 1027 68 10000 2.06 230 10:56 29.06.2022
640 Clouds 18 1028 77 10000 1.54 230 09:32 29.06.2022
641 Mist 17 1028 77 8000 0 240 07:39 29.06.2022
642 Rain 12 1018 88 10000 1.35 249 04:51 29.06.2022
643 Clouds 15 1026 94 10000 3.09 290 00:57 29.06.2022
644 Clouds 15 1026 94 10000 3.09 290 00:35 29.06.2022
645 Rain 14 1017 81 10000 0.63 204 22:54 28.06.2022
646 Rain 14 1017 79 10000 1.02 179 22:24 28.06.2022
647 Rain 14 1017 79 10000 1.02 179 21:54 28.06.2022
648 Rain 14 1017 79 10000 1 180 21:54 28.06.2022
649 Rain 14 1017 79 10000 1.02 179 21:32 28.06.2022
650 Rain 16 1016 71 10000 2.97 160 20:34 28.06.2022
651 Clouds 16 1016 69 10000 2.08 155 19:34 28.06.2022
652 Clouds 17 1014 63 10000 2.93 183 18:46 28.06.2022
653 Clouds 18 1024 88 7000 3.09 340 17:40 28.06.2022
654 Thunderstorm 19 1023 77 8000 6.17 300 15:57 28.06.2022
655 Rain 19 1023 77 8000 6.17 300 15:36 28.06.2022
656 Rain 22 1010 43 10000 4.44 144 14:20 28.06.2022
657 Clouds 19 1025 68 10000 2.06 170 13:51 28.06.2022
658 Clouds 19 1025 68 10000 2.06 170 12:55 28.06.2022
659 Clouds 19 1026 68 10000 3.09 210 11:18 28.06.2022
660 Clouds 16 1028 77 10000 3.09 180 09:28 28.06.2022
661 Clouds 16 1027 72 10000 3.09 240 08:43 28.06.2022
662 Clouds 17 1017 69 10000 2.34 229 07:42 28.06.2022
663 Clouds 14 1018 81 10000 0.93 307 06:20 28.06.2022
664 Clouds 13 1017 85 10000 1.58 288 00:56 28.06.2022
665 Clouds 13 1017 87 10000 0.93 268 23:37 27.06.2022
666 Clouds 13 1018 86 10000 0.95 245 22:52 27.06.2022
667 Clouds 17 1027 88 7000 0 340 21:34 27.06.2022
668 Clouds 14 1018 84 10000 1 210 20:48 27.06.2022
669 Clouds 14 1018 82 10000 1.4 208 19:31 27.06.2022
670 Rain 15 1016 81 8581 2.49 332 18:24 27.06.2022
671 Rain 16 1014 69 10000 1.7 313 16:19 27.06.2022
672 Clouds 21 1025 64 10000 1.03 280 14:45 27.06.2022
673 Clouds 20 1025 68 10000 2.57 210 13:36 27.06.2022
674 Clouds 21 1026 60 10000 3.09 180 12:56 27.06.2022
675 Clouds 19 1028 72 10000 1.03 160 10:34 27.06.2022
676 Clouds 18 1017 60 10000 2.08 222 09:18 27.06.2022
677 Mist 17 1029 77 8000 1.54 220 08:19 27.06.2022
678 Mist 15 1027 88 8000 0 310 06:38 27.06.2022
679 Rain 15 1027 88 8000 2.57 270 02:28 27.06.2022
680 Clouds 14 1017 81 10000 1.29 226 23:55 26.06.2022
681 Rain 17 1027 82 7000 3.09 310 21:58 26.06.2022
682 Clouds 17 1026 88 10000 1.03 350 20:44 26.06.2022
683 Clouds 18 1025 82 10000 1.03 290 19:32 26.06.2022
684 Clouds 19 1024 72 10000 1.03 70 18:30 26.06.2022
685 Clouds 20 1024 68 10000 1.33 269 16:33 26.06.2022
686 Rain 15 1015 78 10000 2.36 21 14:41 26.06.2022
687 Clouds 21 1025 60 10000 4.12 210 13:38 26.06.2022
688 Clouds 21 1025 60 10000 4.12 210 13:18 26.06.2022
689 Rain 20 1015 50 10000 2.09 152 11:26 26.06.2022
690 Rain 20 1016 53 10000 2.46 136 10:26 26.06.2022
691 Rain 18 1017 57 10000 1.48 140 09:19 26.06.2022
692 Rain 15 1026 88 9000 2.06 158 07:41 26.06.2022
693 Clouds 15 1025 82 10000 3.09 300 01:53 26.06.2022
694 Clouds 15 1016 70 10000 0.96 79 00:20 26.06.2022
695 Clouds 15 1016 70 10000 0.96 79 23:41 25.06.2022
696 Clouds 16 1026 82 10000 2.06 310 22:57 25.06.2022
697 Clouds 16 1026 82 10000 2.06 310 22:27 25.06.2022
698 Clouds 16 1025 82 10000 2.06 320 21:40 25.06.2022
699 Clouds 16 1025 82 10000 2.06 320 21:18 25.06.2022
700 Clouds 15 1025 82 10000 2.06 120 20:27 25.06.2022
701 Clouds 17 1024 88 10000 2.06 310 19:21 25.06.2022
702 Clouds 19 1023 82 7000 4.12 310 17:53 25.06.2022
703 Clouds 19 1023 82 7000 4.12 310 17:19 25.06.2022
704 Clouds 23 1009 29 10000 3.58 112 15:26 25.06.2022
705 Clouds 23 1010 33 10000 2.46 181 13:27 25.06.2022
706 Clouds 23 1010 33 10000 2.46 181 12:37 25.06.2022
707 Clouds 21 1013 42 10000 0.96 177 10:32 25.06.2022
708 Clouds 17 1026 82 10000 0.58 196 08:58 25.06.2022
709 Clouds 17 1026 82 10000 0.58 196 08:35 25.06.2022
710 Clouds 17 1017 67 10000 1.11 204 07:45 25.06.2022
711 Clouds 12 1017 89 10000 0.68 172 03:30 25.06.2022
712 Rain 13 1015 85 10000 1.28 118 00:33 25.06.2022
713 Rain 15 1015 77 10000 1.22 149 22:53 24.06.2022
714 Rain 15 1016 78 10000 1.62 151 21:34 24.06.2022
715 Clouds 18 1024 82 10000 3.09 280 20:44 24.06.2022
716 Clouds 16 1014 64 10000 2.75 139 20:18 24.06.2022
717 Clouds 17 1012 51 10000 3.38 104 19:20 24.06.2022
718 Clouds 19 1023 88 8000 4.12 160 18:48 24.06.2022
719 Clouds 19 1023 88 8000 4.12 160 18:30 24.06.2022
720 Clouds 21 1009 39 10000 3.47 107 16:57 24.06.2022
721 Clouds 20 1021 77 10000 3.57 111 15:28 24.06.2022
722 Clouds 22 1010 45 10000 3.3 137 14:25 24.06.2022
723 Clouds 21 1023 73 10000 3.23 136 13:53 24.06.2022
724 Clouds 20 1025 73 10000 3.76 115 11:43 24.06.2022
725 Rain 20 1014 54 10000 3.92 124 10:47 24.06.2022
726 Rain 19 1015 59 10000 3.27 131 09:42 24.06.2022
727 Rain 18 1016 65 10000 2.72 141 09:19 24.06.2022
728 Clouds 17 1026 82 10000 2.68 140 08:42 24.06.2022
729 Clouds 15 1025 88 10000 1.03 280 06:47 24.06.2022
730 Clouds 15 1025 88 10000 1.03 280 06:29 24.06.2022
731 Clouds 14 1025 94 10000 1.03 280 05:51 24.06.2022
732 Thunderstorm 16 1024 94 8000 0 300 00:57 24.06.2022
733 Rain 15 1015 77 10000 0.34 91 22:44 23.06.2022
734 Thunderstorm 16 1025 88 6000 1.03 90 21:43 23.06.2022
735 Rain 15 1015 74 10000 1.22 99 20:43 23.06.2022
736 Thunderstorm 17 1023 88 8000 1.03 60 19:57 23.06.2022
737 Clouds 18 1023 82 8000 2.06 330 18:43 23.06.2022
738 Clouds 18 1021 77 8000 3.09 30 17:37 23.06.2022
739 Clouds 18 1021 77 10000 1.03 10 16:32 23.06.2022
740 Clouds 22 1009 41 10000 0.97 116 15:27 23.06.2022
741 Clouds 18 1021 72 9000 1.03 80 14:45 23.06.2022
742 Clouds 22 1024 64 10000 6.17 180 11:54 23.06.2022
743 Clouds 21 1013 43 10000 2.01 36 10:56 23.06.2022
744 Clouds 19 1026 72 10000 2.06 190 09:20 23.06.2022
745 Clouds 13 1024 94 10000 2.06 280 05:48 23.06.2022
746 Clouds 15 1023 88 10000 4.63 260 01:21 23.06.2022
747 Clouds 16 1013 63 10000 0.87 293 00:18 23.06.2022
748 Clouds 17 1025 82 10000 5.14 280 23:22 22.06.2022
749 Clouds 17 1024 82 10000 0 0 21:44 22.06.2022
750 Clouds 17 1014 58 10000 1.24 13 20:52 22.06.2022
751 Clouds 17 1013 57 10000 1.42 22 20:20 22.06.2022
752 Clouds 17 1012 60 10000 1 38 19:43 22.06.2022
753 Clouds 21 1022 68 10000 2.06 130 17:40 22.06.2022
754 Clouds 19 1011 55 10000 4.13 346 16:43 22.06.2022
755 Clouds 21 1023 83 10000 3.09 40 15:29 22.06.2022
756 Clouds 21 1024 83 10000 4.12 70 14:51 22.06.2022
757 Rain 20 1010 47 10000 3.39 20 13:48 22.06.2022
758 Rain 23 1010 36 10000 0.93 194 13:24 22.06.2022
759 Clouds 23 1011 37 10000 1.85 156 12:18 22.06.2022
760 Clouds 23 1011 37 10000 1.85 156 11:45 22.06.2022
761 Clouds 22 1013 43 10000 0.99 213 10:46 22.06.2022
762 Clouds 17 1028 77 10000 5.14 80 09:40 22.06.2022
763 Clouds 14 1017 74 10000 1.61 347 06:55 22.06.2022
764 Clouds 15 1024 88 10000 4.12 320 02:26 22.06.2022
765 Clouds 13 1015 80 10000 2.33 307 00:57 22.06.2022
766 Clouds 13 1016 81 10000 1.9 288 22:53 21.06.2022
767 Clouds 15 1024 55 10000 4.12 280 20:58 21.06.2022
768 Clouds 15 1015 77 10000 2.5 269 19:30 21.06.2022
769 Clouds 15 1014 74 10000 2.04 298 17:56 21.06.2022
770 Clouds 20 1022 73 10000 5.66 320 16:47 21.06.2022
771 Clouds 20 1026 64 10000 1.03 160 11:59 21.06.2022
772 Clouds 18 1027 68 10000 2.57 230 10:46 21.06.2022
773 Clouds 18 1027 77 10000 1.54 210 09:24 21.06.2022
774 Clouds 15 1027 88 10000 2.06 250 07:49 21.06.2022
775 Clouds 13 1018 79 10000 1.62 258 04:57 21.06.2022
776 Clouds 14 1017 68 10000 0.49 292 00:23 21.06.2022
777 Clouds 15 1018 64 10000 2.1 186 22:21 20.06.2022
778 Clouds 15 1018 64 10000 2.1 186 21:37 20.06.2022
779 Clouds 17 1016 51 10000 3.23 116 20:29 20.06.2022
780 Clouds 17 1016 52 10000 3.18 123 19:36 20.06.2022
781 Clouds 18 1013 49 10000 2.05 163 18:26 20.06.2022
782 Clouds 18 1013 49 10000 2.05 163 17:49 20.06.2022
783 Clouds 21 1011 39 10000 7.35 134 16:36 20.06.2022
784 Clouds 22 1024 60 8888 10 215 15:30 20.06.2022
785 Clouds 20 1026 77 10000 5.14 170 12:32 20.06.2022
786 Clouds 19 1027 88 10000 4.12 180 10:22 20.06.2022
787 Clear 20 1016 45 10000 1.99 154 08:56 20.06.2022
788 Clouds 19 1017 49 10000 1.08 195 07:52 20.06.2022
789 Clouds 14 1017 69 10000 0.91 201 05:26 20.06.2022
790 Rain 14 1017 75 10000 1.78 80 01:33 20.06.2022
791 Rain 15 1017 71 10000 2.82 99 00:19 20.06.2022
792 Thunderstorm 16 1027 94 5000 6.17 130 22:43 19.06.2022
793 Clouds 16 1025 94 10000 0 0 21:48 19.06.2022
794 Clouds 16 1025 94 10000 0 0 21:48 19.06.2022
795 Clouds 16 1025 94 10000 0 0 21:29 19.06.2022
796 Clouds 17 1024 88 10000 2.06 50 20:30 19.06.2022
797 Clouds 16 1014 63 10000 2.7 86 19:47 19.06.2022
798 Clouds 16 1014 67 10000 2.87 80 18:43 19.06.2022
799 Clouds 17 1013 66 10000 5.68 95 17:48 19.06.2022
800 Clouds 23 1009 32 10000 6.81 107 17:22 19.06.2022
801 Clouds 23 1009 32 10000 6.81 107 16:34 19.06.2022
802 Clouds 24 1008 27 10000 8.2 98 15:41 19.06.2022
803 Mist 22 1022 60 8000 3.6 220 14:56 19.06.2022
804 Clouds 25 1008 26 10000 8.03 102 14:19 19.06.2022
805 Mist 22 1024 60 8000 1.54 200 12:56 19.06.2022
806 Fog 20 1026 60 6000 2.57 200 10:54 19.06.2022
807 Clouds 22 1012 39 10000 4.23 113 09:40 19.06.2022
808 Clouds 20 1014 51 10000 2.82 127 08:47 19.06.2022
809 Clouds 18 1015 56 10000 0.84 119 07:51 19.06.2022
810 Clouds 14 1025 88 10000 2.06 260 05:36 19.06.2022
811 Rain 16 1024 88 7000 2.06 180 01:29 19.06.2022
812 Rain 14 1016 76 10000 2.36 52 00:24 19.06.2022
813 Rain 16 1025 94 10000 2.06 120 23:36 18.06.2022
814 Rain 16 1015 62 10000 3.68 96 22:36 18.06.2022
815 Rain 16 1015 62 10000 3.68 96 22:36 18.06.2022
816 Clouds 17 1023 88 10000 1.03 320 20:56 18.06.2022
817 Clouds 17 1023 88 10000 1.03 320 20:38 18.06.2022
818 Clouds 16 1013 59 10000 2.35 85 19:38 18.06.2022
819 Clouds 19 1022 77 10000 2.57 210 18:45 18.06.2022
820 Thunderstorm 20 1021 73 10000 2.06 340 17:34 18.06.2022
821 Clouds 22 1021 64 10000 4.12 180 16:47 18.06.2022
822 Clouds 23 1021 60 10000 6.17 180 15:31 18.06.2022
823 Clouds 23 1021 60 10000 3.09 90 14:44 18.06.2022
824 Clouds 21 1022 56 10000 1.54 210 13:22 18.06.2022
825 Clouds 21 1024 60 10000 1.54 180 11:39 18.06.2022
826 Clouds 21 1024 64 10000 1.54 170 10:46 18.06.2022
827 Clouds 21 1013 39 10000 3.46 118 09:22 18.06.2022
828 Clouds 19 1025 68 10000 0.51 140 08:24 18.06.2022
829 Clouds 16 1024 77 10000 0 220 06:46 18.06.2022
830 Clouds 15 1013 66 10000 0.28 341 03:30 18.06.2022
831 Clouds 16 1013 59 10000 1.22 107 01:25 18.06.2022
832 Clouds 16 1013 59 10000 1.22 107 00:46 18.06.2022
833 Clouds 16 1013 53 10000 1.82 110 23:52 17.06.2022
834 Clouds 18 1013 44 10000 2.38 107 23:19 17.06.2022
835 Clouds 23 1023 49 10000 1.03 270 20:42 17.06.2022
836 Clouds 23 1022 49 10000 1.03 230 19:31 17.06.2022
837 Clouds 23 1022 56 10000 2.06 230 18:37 17.06.2022
838 Clouds 24 1021 53 10000 2.06 150 17:43 17.06.2022
839 Clouds 23 1021 56 10000 3.6 190 16:43 17.06.2022
840 Clouds 23 1021 56 10000 3.6 190 16:43 17.06.2022
841 Clouds 25 1021 50 10000 3.09 120 15:43 17.06.2022
842 Clouds 25 1022 47 10000 3.09 170 14:58 17.06.2022
843 Clouds 27 1006 18 10000 4.94 124 14:20 17.06.2022
844 Clouds 24 1022 53 10000 4.12 60 13:45 17.06.2022
845 Clouds 23 1023 53 10000 1.54 230 12:53 17.06.2022
846 Clouds 22 1024 56 10000 4.12 140 11:57 17.06.2022
847 Clouds 22 1024 56 10000 4.12 140 11:36 17.06.2022
848 Haze 20 1025 56 8000 4.12 170 10:48 17.06.2022
849 Haze 20 1025 56 8000 4.12 170 10:48 17.06.2022
850 Clouds 21 1014 41 10000 2.74 145 08:30 17.06.2022
851 Clouds 19 1015 51 10000 2.26 150 07:30 17.06.2022
852 Clouds 15 1016 73 10000 0.79 125 05:51 17.06.2022
853 Clouds 15 1023 77 10000 2.06 60 02:47 17.06.2022
854 Clouds 15 1014 52 10000 0.69 90 00:42 17.06.2022
855 Clouds 16 1014 41 10000 1.38 108 22:44 16.06.2022
856 Clouds 18 1014 34 10000 1.73 86 21:58 16.06.2022
857 Clouds 19 1014 29 10000 2.18 82 21:18 16.06.2022
858 Clouds 19 1014 29 10000 2.18 82 20:49 16.06.2022
859 Clouds 18 1023 63 10000 2.06 320 19:56 16.06.2022
860 Clouds 21 1011 25 10000 2.89 96 18:30 16.06.2022
861 Clouds 21 1022 56 10000 3.09 300 17:44 16.06.2022
862 Clouds 23 1009 25 10000 3.01 142 16:46 16.06.2022
863 Clouds 24 1009 28 10000 3.92 116 15:24 16.06.2022
864 Clouds 24 1009 27 10000 3.94 116 14:56 16.06.2022
865 Clouds 23 1023 49 10000 6.17 160 13:45 16.06.2022
866 Clouds 27 1008 23 10000 6.01 143 12:37 16.06.2022
867 Clouds 26 1009 23 10000 3.78 146 11:53 16.06.2022
868 Clouds 24 1011 29 10000 2.95 153 11:18 16.06.2022
869 Clouds 24 1011 29 10000 2.95 153 10:33 16.06.2022
870 Clouds 20 1014 44 10000 2.87 149 09:25 16.06.2022
871 Clouds 20 1014 44 10000 2.87 149 08:46 16.06.2022
872 Clouds 17 1016 61 10000 1.49 162 07:29 16.06.2022
873 Clouds 12 1024 94 10000 2.57 310 05:31 16.06.2022
874 Clouds 14 1024 88 10000 2.06 270 02:52 16.06.2022
875 Clouds 14 1024 88 10000 2.06 310 01:51 16.06.2022
876 Clouds 14 1024 88 10000 2.06 310 01:21 16.06.2022
877 Clouds 16 1014 49 10000 1.47 234 23:49 15.06.2022
878 Clouds 17 1014 39 10000 1.28 220 22:44 15.06.2022
879 Clear 19 1013 29 10000 1.06 44 21:23 15.06.2022
880 Clouds 17 1024 77 10000 3.09 250 20:57 15.06.2022
881 Clouds 18 1024 77 10000 3.09 250 20:35 15.06.2022
882 Clouds 20 1023 68 10000 4.12 270 19:46 15.06.2022
883 Clouds 22 1023 56 10000 4.12 220 18:29 15.06.2022
884 Clouds 22 1022 53 10000 4.12 240 17:42 15.06.2022
885 Clouds 23 1022 53 8000 2.57 190 15:51 15.06.2022
886 Haze 23 1022 49 8000 4.12 130 14:30 15.06.2022
887 Clouds 27 1008 18 10000 5.74 120 12:57 15.06.2022
888 Clouds 27 1008 18 10000 5.74 120 12:32 15.06.2022
889 Clear 24 1012 26 10000 2.59 125 10:28 15.06.2022
890 Haze 19 1025 68 8000 3.09 190 09:53 15.06.2022
891 Haze 17 1026 72 8000 2.14 141 08:50 15.06.2022
892 Clouds 17 1016 58 10000 1.27 177 07:21 15.06.2022
893 Clouds 14 1024 82 10000 0.51 310 04:51 15.06.2022
894 Clouds 15 1014 55 10000 0.62 231 02:28 15.06.2022
895 Clouds 17 1013 37 10000 1.51 128 00:54 15.06.2022
896 Clouds 18 1013 32 10000 1.47 69 23:55 14.06.2022
897 Clouds 18 1013 32 10000 1.47 69 23:37 14.06.2022
898 Clouds 19 1012 29 10000 3.69 58 22:33 14.06.2022
899 Clouds 19 1012 29 10000 3.66 58 21:42 14.06.2022
900 Clouds 20 1012 29 10000 3.56 53 20:57 14.06.2022
901 Clouds 20 1012 29 10000 3.56 53 20:34 14.06.2022
902 Clouds 21 1011 24 10000 3.72 58 19:25 14.06.2022
903 Clouds 21 1011 24 10000 3.72 58 18:32 14.06.2022
904 Clouds 25 1008 17 10000 5.96 56 16:50 14.06.2022
905 Clouds 18 1021 72 10000 5.14 150 15:52 14.06.2022
906 Clouds 18 1021 72 10000 5.14 150 15:34 14.06.2022
907 Clouds 23 1022 43 10000 2.06 240 14:46 14.06.2022
908 Clouds 23 1023 43 10000 1.54 60 13:46 14.06.2022
909 Clouds 27 1008 21 10000 5.62 141 12:55 14.06.2022
910 Clouds 26 1009 23 10000 4.6 133 11:52 14.06.2022
911 Clouds 20 1026 60 10000 1.54 140 10:49 14.06.2022
912 Clouds 20 1026 60 10000 1.54 140 10:25 14.06.2022
913 Clouds 20 1026 60 10000 1.54 140 10:25 14.06.2022
914 Clouds 14 1027 77 10000 2.06 230 08:52 14.06.2022
915 Clouds 16 1027 77 10000 2.06 220 07:58 14.06.2022
916 Clouds 14 1025 82 10000 4.12 250 05:56 14.06.2022
917 Clouds 15 1025 77 10000 2.06 330 03:36 14.06.2022
918 Clouds 15 1025 88 10000 2.06 240 01:36 14.06.2022
919 Clouds 17 1015 77 10000 1.03 230 23:51 13.06.2022
920 Clouds 17 1026 67 10000 1.54 180 22:27 13.06.2022
921 Clouds 17 1015 55 10000 1.17 90 21:59 13.06.2022
922 Clouds 17 1015 54 10000 1.96 79 20:43 13.06.2022
923 Clouds 17 1025 68 10000 2.57 120 19:42 13.06.2022
924 Clouds 19 1025 63 10000 5.14 110 18:45 13.06.2022
925 Clouds 22 1011 33 10000 5.26 109 17:52 13.06.2022
926 Clouds 24 1009 22 10000 6.36 103 17:18 13.06.2022
927 Clouds 25 1008 19 10000 7.09 103 15:53 13.06.2022
928 Clouds 26 1008 18 10000 6.5 100 14:48 13.06.2022
929 Rain 18 1024 72 8000 2.06 120 13:59 13.06.2022
930 Rain 18 1024 72 8000 2.06 120 13:23 13.06.2022
931 Clouds 20 1026 60 10000 2.06 140 11:45 13.06.2022
932 Clouds 19 1027 63 10000 1.03 180 10:34 13.06.2022
933 Clouds 24 1012 31 10000 4.03 132 09:42 13.06.2022
934 Clouds 22 1014 40 10000 2.46 122 08:30 13.06.2022
935 Clouds 15 1026 82 10000 0.51 300 06:34 13.06.2022
936 Clouds 15 1015 72 10000 1.14 179 04:23 13.06.2022
937 Clouds 15 1024 88 10000 2.06 330 01:44 13.06.2022
938 Clouds 15 1024 88 10000 2.06 330 01:18 13.06.2022
939 Clouds 17 1015 61 10000 0.93 101 23:37 12.06.2022
940 Clouds 17 1015 59 10000 1.1 79 22:34 12.06.2022
941 Clouds 19 1026 68 10000 2.06 50 21:45 12.06.2022
942 Clouds 18 1015 54 10000 2.59 97 20:49 12.06.2022
943 Clouds 21 1024 60 10000 3.09 100 19:49 12.06.2022
944 Clouds 21 1024 60 10000 7.2 110 18:53 12.06.2022
945 Clouds 24 1010 23 10000 5.36 109 17:20 12.06.2022
946 Clouds 24 1022 53 10000 3.6 90 15:44 12.06.2022
947 Clouds 24 1022 53 10000 4.12 110 14:50 12.06.2022
948 Clouds 26 1008 18 10000 7.81 109 14:18 12.06.2022
949 Clouds 22 1024 60 10000 5.14 140 13:44 12.06.2022
950 Clouds 25 1011 24 10000 6.2 129 12:22 12.06.2022
951 Haze 20 1026 64 9000 3.6 190 10:46 12.06.2022
952 Haze 19 1027 68 9000 1.54 270 09:42 12.06.2022
953 Clouds 21 1015 41 10000 3.17 141 08:50 12.06.2022
954 Clouds 17 1027 82 10000 1.32 164 07:52 12.06.2022
955 Clouds 15 1026 94 10000 1.54 310 06:27 12.06.2022
956 Clouds 15 1024 88 10000 2.06 330 03:54 12.06.2022
957 Clouds 14 1025 88 10000 2.06 310 02:25 12.06.2022
958 Clouds 15 1025 88 10000 2.06 310 01:35 12.06.2022
959 Clouds 15 1027 88 10000 1.54 290 00:44 12.06.2022
960 Clouds 15 1027 88 10000 1.54 290 00:18 12.06.2022
961 Clouds 16 1027 82 10000 2.57 300 23:18 11.06.2022
962 Clouds 17 1027 82 10000 3.09 300 22:35 11.06.2022
963 Clouds 18 1027 77 10000 2.06 150 21:18 11.06.2022
964 Clouds 19 1026 68 10000 2.06 160 20:26 11.06.2022
965 Clouds 19 1025 68 10000 4.63 150 19:36 11.06.2022
966 Clouds 20 1014 32 10000 4.82 88 18:45 11.06.2022
967 Clouds 21 1013 27 10000 6.4 83 18:26 11.06.2022
968 Clouds 21 1023 60 10000 8.23 90 17:47 11.06.2022
969 Clouds 21 1023 60 10000 8.23 90 17:26 11.06.2022
970 Clouds 21 1023 56 10000 4.63 90 16:43 11.06.2022
971 Clouds 21 1023 56 10000 4.63 90 16:18 11.06.2022
972 Clouds 23 1023 60 10000 8.23 90 14:44 11.06.2022
973 Clouds 22 1024 53 10000 4.12 100 13:52 11.06.2022
974 Clouds 27 1010 19 10000 7.11 104 12:19 11.06.2022
975 Clouds 21 1027 52 10000 5.14 170 10:31 11.06.2022
976 Clouds 23 1014 32 10000 4.38 130 09:41 11.06.2022
977 Clouds 21 1016 41 10000 3 127 08:38 11.06.2022
978 Clouds 17 1017 57 10000 2.09 123 06:33 11.06.2022
979 Clouds 15 1017 63 10000 1.33 97 05:44 11.06.2022
980 Clouds 15 1016 66 10000 1.37 109 03:18 11.06.2022
981 Clouds 16 1026 88 10000 0 0 01:42 11.06.2022
982 Clouds 16 1026 88 10000 2.06 150 00:55 11.06.2022
983 Clouds 18 1015 47 10000 0.95 121 23:26 10.06.2022
984 Clouds 19 1015 44 10000 1.1 95 22:20 10.06.2022
985 Clouds 19 1014 43 10000 2.27 81 21:27 10.06.2022
986 Clouds 19 1014 43 10000 2.27 81 20:37 10.06.2022
987 Clouds 20 1014 39 10000 2.58 108 20:19 10.06.2022
988 Clouds 20 1025 73 10000 0 0 19:19 10.06.2022
989 Clouds 20 1024 64 10000 0 0 18:30 10.06.2022
990 Clouds 22 1024 60 10000 3.09 240 17:43 10.06.2022
991 Clouds 22 1024 60 10000 3.09 240 17:21 10.06.2022
992 Clouds 22 1023 60 10000 3.09 230 16:25 10.06.2022
993 Clouds 24 1009 26 10000 2.44 92 15:37 10.06.2022
994 Clouds 24 1009 25 10000 3.32 119 13:58 10.06.2022
995 Clouds 25 1010 28 10000 3.39 145 12:51 10.06.2022
996 Clouds 21 1027 68 10000 3.6 120 11:53 10.06.2022
997 Clouds 22 1013 39 10000 5.12 150 10:45 10.06.2022
998 Clouds 19 1028 72 10000 4.12 180 09:54 10.06.2022
999 Rain 20 1016 49 10000 2.71 152 08:42 10.06.2022
1000 Clouds 15 1028 88 10000 0 0 07:26 10.06.2022
1001 Clouds 15 1027 88 10000 2.57 300 06:44 10.06.2022
1002 Clouds 15 1027 88 10000 2.57 300 06:25 10.06.2022
1003 Clouds 13 1016 78 10000 0.79 213 03:55 10.06.2022
1004 Clouds 14 1015 73 10000 1.02 218 01:41 10.06.2022
1005 Clouds 14 1015 71 10000 0.82 246 00:32 10.06.2022
1006 Clouds 15 1015 68 10000 0.66 228 23:47 09.06.2022
1007 Clouds 16 1015 56 10000 1.35 110 22:18 09.06.2022
1008 Clouds 17 1026 88 10000 2.06 350 21:33 09.06.2022
1009 Clouds 17 1015 50 10000 1.19 56 20:54 09.06.2022
1010 Clouds 18 1014 46 10000 0.28 13 20:21 09.06.2022
1011 Clouds 19 1012 41 10000 2.63 110 19:21 09.06.2022
1012 Clouds 20 1011 39 10000 1.36 81 18:28 09.06.2022
1013 Clouds 21 1011 38 10000 2.24 98 16:51 09.06.2022
1014 Thunderstorm 21 1024 78 7000 5.14 180 15:48 09.06.2022
1015 Clouds 22 1010 36 10000 4.89 96 14:35 09.06.2022
1016 Clouds 23 1010 35 10000 2.4 131 13:54 09.06.2022
1017 Clouds 21 1012 40 10000 3.03 98 13:28 09.06.2022
1018 Clouds 17 1017 77 10000 2.06 180 11:54 09.06.2022
1019 Clouds 17 1017 77 10000 2.06 180 11:18 09.06.2022
1020 Clouds 14 1028 88 10000 1.54 220 09:44 09.06.2022
1021 Clouds 15 1028 88 10000 1.54 220 09:23 09.06.2022
1022 Haze 13 1027 94 9000 1.03 200 07:45 09.06.2022
1023 Haze 14 1027 94 9000 1.03 200 07:45 09.06.2022
1024 Haze 13 1026 94 9000 0.51 150 06:33 09.06.2022
1025 Clouds 14 1015 76 10000 0.57 239 02:52 09.06.2022
1026 Rain 14 1015 77 10000 0.85 95 23:39 08.06.2022
1027 Rain 15 1015 76 10000 0.81 112 22:58 08.06.2022
1028 Rain 15 1016 74 10000 1.15 143 22:27 08.06.2022
1029 Rain 15 1016 74 10000 1.15 143 21:54 08.06.2022
1030 Rain 16 1015 70 10000 2.05 135 21:21 08.06.2022
1031 Rain 16 1015 70 10000 2.05 135 21:21 08.06.2022
1032 Rain 17 1015 64 10000 1.9 137 20:21 08.06.2022
1033 Clouds 18 1014 55 10000 1.19 124 19:38 08.06.2022
1034 Clouds 18 1024 82 10000 2.06 120 18:45 08.06.2022
1035 Clouds 18 1023 82 10000 3.09 310 17:18 08.06.2022
1036 Clouds 22 1023 53 10000 5.14 310 15:44 08.06.2022
1037 Clouds 22 1024 53 10000 4.12 160 13:51 08.06.2022
1038 Clouds 23 1011 34 10000 5.01 152 12:20 08.06.2022
1039 Clouds 23 1011 34 10000 5.01 152 11:33 08.06.2022
1040 Clouds 20 1014 45 10000 3.05 141 09:59 08.06.2022
1041 Rain 19 1015 52 10000 2.36 142 09:21 08.06.2022
1042 Rain 17 1016 66 10000 1.95 143 08:26 08.06.2022
1043 Clouds 14 1025 94 10000 0.84 169 05:55 08.06.2022
1044 Clouds 15 1025 94 9000 2.06 210 03:55 08.06.2022
1045 Clouds 15 1025 94 10000 0 0 00:38 08.06.2022
1046 Clouds 16 1025 94 10000 2.06 200 23:28 07.06.2022
1047 Clouds 16 1025 94 10000 2.06 220 22:45 07.06.2022
1048 Rain 15 1014 75 10000 1.4 143 22:23 07.06.2022
1049 Clouds 16 1025 94 10000 3.09 270 21:33 07.06.2022
1050 Clouds 16 1025 94 10000 3.09 270 20:58 07.06.2022
1051 Clouds 16 1024 88 10000 3.09 250 20:32 07.06.2022
1052 Clouds 9 1024 53 7955 3.09 130 19:38 07.06.2022
1053 Clouds 17 1022 82 10000 2.06 310 18:23 07.06.2022
1054 Clouds 20 1010 47 10000 2.2 126 17:26 07.06.2022
1055 Clouds 17 1022 82 10000 3.09 260 16:43 07.06.2022
1056 Clouds 21 1009 46 10000 1.11 152 15:47 07.06.2022
1057 Clouds 21 1009 42 10000 1.95 104 15:26 07.06.2022
1058 Clouds 21 1009 42 10000 1.97 105 15:26 07.06.2022
1059 Clouds 18 1022 77 9000 2.06 330 14:47 07.06.2022
1060 Clouds 18 1022 77 9000 2.06 330 14:29 07.06.2022
1061 Clouds 22 1009 39 10000 3.44 131 13:30 07.06.2022
1062 Clouds 19 1023 68 10000 2.06 180 12:49 07.06.2022
1063 Clouds 19 1012 51 10000 2.63 129 11:47 07.06.2022
1064 Clouds 18 1025 63 10000 1.03 160 10:26 07.06.2022
1065 Fog 14 1026 77 5000 1.54 220 08:49 07.06.2022
1066 Rain 18 1015 60 10000 1.31 137 07:34 07.06.2022
1067 Clouds 14 1025 88 1000 0.51 360 06:18 07.06.2022
1068 Rain 14 1015 77 10000 1.18 64 03:31 07.06.2022
1069 Rain 14 1015 77 10000 1.18 64 03:31 07.06.2022
1070 Clouds 16 1024 94 10000 4.12 310 00:45 07.06.2022
1071 Clouds 17 1025 88 10000 2.06 290 23:41 06.06.2022
1072 Clouds 17 1025 94 10000 3.09 270 22:47 06.06.2022
1073 Clouds 17 1025 94 10000 4.12 240 21:56 06.06.2022
1074 Clouds 18 1025 82 10000 1.03 300 20:42 06.06.2022
1075 Clouds 17 1024 82 10000 2.06 250 19:24 06.06.2022
1076 Clouds 17 1023 82 10000 2.06 250 18:47 06.06.2022
1077 Clouds 17 1023 72 10000 2.06 260 17:55 06.06.2022
1078 Clouds 18 1023 68 10000 2.57 220 16:55 06.06.2022
1079 Clouds 17 1022 67 10000 0 0 15:45 06.06.2022
1080 Rain 18 1012 59 10000 2.3 17 14:59 06.06.2022
1081 Rain 21 1010 45 10000 2.1 121 13:43 06.06.2022
1082 Clouds 22 1010 41 10000 2.79 171 13:19 06.06.2022
1083 Clouds 22 1010 41 10000 2.79 171 12:33 06.06.2022
1084 Rain 22 1012 42 10000 2.11 164 11:45 06.06.2022
1085 Rain 19 1015 54 10000 2 117 09:51 06.06.2022
1086 Rain 17 1016 63 10000 0.93 144 08:57 06.06.2022
1087 Rain 16 1017 66 10000 0.91 158 08:28 06.06.2022
1088 Clouds 16 1027 72 10000 3.09 140 07:19 06.06.2022
1089 Clouds 14 1016 74 10000 0.88 79 04:38 06.06.2022
1090 Clouds 16 1024 88 10000 2.06 180 01:53 06.06.2022
1091 Clouds 15 1014 69 10000 0.33 48 00:57 06.06.2022
1092 Clouds 15 1014 69 10000 0.33 48 00:34 06.06.2022
1093 Rain 16 1016 67 10000 1.59 317 22:59 05.06.2022
1094 Clouds 16 1016 69 10000 1.65 288 22:19 05.06.2022
1095 Clouds 19 1025 77 10000 4.12 290 20:24 05.06.2022
1096 Clouds 19 1025 72 10000 5.14 310 19:23 05.06.2022
1097 Clouds 19 1024 72 10000 4.12 300 18:18 05.06.2022
1098 Clouds 19 1024 63 10000 4.12 300 17:39 05.06.2022
1099 Clouds 19 1024 63 10000 4.12 300 17:20 05.06.2022
1100 Rain 19 1024 63 9000 3.09 260 16:47 05.06.2022
1101 Thunderstorm 21 1024 52 7000 3.09 170 15:28 05.06.2022
1102 Clouds 22 1023 49 9000 5.14 130 14:21 05.06.2022
1103 Clouds 20 1025 52 10000 6 312 11:59 05.06.2022
1104 Clouds 19 1026 55 8888 7 270 10:45 05.06.2022
1105 Clouds 19 1026 55 8888 7 270 10:24 05.06.2022
1106 Clouds 19 1026 55 10000 5.66 160 09:34 05.06.2022
1107 Clouds 18 1026 59 10000 2.57 230 08:23 05.06.2022
1108 Clouds 15 1026 55 10000 5 220 06:23 05.06.2022
1109 Clouds 12 1025 94 10000 1.03 350 05:19 05.06.2022
1110 Clouds 14 1024 88 10000 2.06 60 02:43 05.06.2022
1111 Rain 16 1014 70 10000 1 117 01:23 05.06.2022
1112 Clouds 18 1025 77 10000 2.57 70 22:51 04.06.2022
1113 Clouds 18 1025 77 10000 3.6 90 21:30 04.06.2022
1114 Clouds 18 1024 68 10000 3.09 60 19:27 04.06.2022
1115 Clouds 19 1023 68 10000 4.12 90 17:21 04.06.2022
1116 Clouds 19 1022 64 10000 3.6 60 16:20 04.06.2022
1117 Clouds 21 1022 60 10000 4.63 90 15:39 04.06.2022
1118 Clouds 22 1023 56 10000 2.57 200 13:59 04.06.2022
1119 Clouds 20 1024 56 10000 4.12 180 11:43 04.06.2022
1120 Clouds 19 1025 52 10000 5.14 190 10:55 04.06.2022
1121 Clouds 19 1026 55 10000 2.06 200 09:59 04.06.2022
1122 Clouds 18 1026 55 10000 2.06 200 09:38 04.06.2022
1123 Clouds 17 1026 63 10000 2.06 160 08:39 04.06.2022
1124 Rain 16 1016 67 10000 1.93 166 07:00 04.06.2022
1125 Clouds 14 1024 62 10000 0 0 04:29 04.06.2022
1126 Clouds 17 1025 72 10000 0 150 00:24 04.06.2022
1127 Clouds 15 1016 66 10000 1.01 127 23:19 03.06.2022
1128 Clouds 15 1015 63 10000 2.19 112 21:54 03.06.2022
1129 Clouds 19 1024 55 10000 2.57 120 20:42 03.06.2022
1130 Clouds 19 1024 55 10000 2.57 120 20:42 03.06.2022
1131 Clouds 20 1023 49 10000 3.09 150 19:49 03.06.2022
1132 Clouds 21 1022 52 10000 2.06 190 16:59 03.06.2022
1133 Clouds 24 1022 43 10000 1.54 170 16:30 03.06.2022
1134 Clouds 25 1023 38 10000 1.54 100 14:47 03.06.2022
1135 Clouds 24 1010 30 10000 7.33 115 12:26 03.06.2022
1136 Clouds 17 1026 59 10000 3.09 180 09:58 03.06.2022
1137 Clouds 17 1026 59 10000 3.09 180 09:29 03.06.2022
1138 Clouds 13 1026 71 10000 4.12 250 07:50 03.06.2022
1139 Clouds 13 1026 71 10000 4.12 250 07:19 03.06.2022
1140 Clouds 17 1015 60 10000 1.5 151 06:30 03.06.2022
1141 Clouds 13 1015 75 10000 0.81 170 04:35 03.06.2022
1142 Clouds 14 1024 88 10000 2.06 240 00:22 03.06.2022
1143 Clouds 17 1024 77 10000 2.06 150 22:35 02.06.2022
1144 Clouds 20 1023 64 10000 6.17 80 20:58 02.06.2022
1145 Clouds 20 1023 64 10000 6.17 80 19:59 02.06.2022
1146 Clouds 20 1023 64 10000 10.29 90 19:41 02.06.2022
1147 Clouds 19 1012 43 10000 3.71 90 19:18 02.06.2022
1148 Clouds 24 1008 23 10000 6.53 106 16:30 02.06.2022
1149 Clouds 24 1008 22 10000 6.64 109 15:58 02.06.2022
1150 Clouds 24 1022 43 10000 3.09 100 13:38 02.06.2022
1151 Clouds 24 1022 43 10000 3.09 100 13:20 02.06.2022
1152 Clouds 21 1025 56 10000 1.54 160 10:53 02.06.2022
1153 Clouds 24 1011 29 10000 4.09 136 10:19 02.06.2022
1154 Clouds 19 1025 63 10000 1.54 170 09:27 02.06.2022
1155 Clouds 19 1014 48 10000 1.95 139 08:24 02.06.2022
1156 Clouds 16 1024 67 10000 1.03 290 06:26 02.06.2022
1157 Clouds 14 1014 62 10000 1.39 96 03:53 02.06.2022
1158 Clouds 15 1013 54 10000 1.61 90 01:36 02.06.2022
1159 Clouds 19 1024 59 10000 2.06 50 23:36 01.06.2022
1160 Clouds 19 1025 59 10000 2.06 80 22:18 01.06.2022
1161 Clouds 20 1015 56 10000 2.97 68 21:25 01.06.2022
1162 Clouds 18 1015 43 10000 2.97 68 20:39 01.06.2022
1163 Clouds 21 1023 52 10000 5.14 90 19:52 01.06.2022
1164 Clouds 22 1022 43 10000 6.17 100 18:52 01.06.2022
1165 Clouds 23 1022 38 10000 4.12 80 17:40 01.06.2022
1166 Clouds 24 1008 21 10000 6.69 99 16:22 01.06.2022
1167 Clouds 24 1023 38 10000 7.2 100 14:51 01.06.2022
1168 Haze 24 1023 41 8000 2.57 130 13:44 01.06.2022
1169 Haze 21 1025 49 8000 2 160 11:32 01.06.2022
1170 Haze 20 1026 45 8000 2.06 90 09:34 01.06.2022
1171 Haze 18 1025 55 8000 1.03 140 08:28 01.06.2022
1172 Clouds 18 1025 55 10000 1.03 160 07:21 01.06.2022
1173 Clouds 13 1024 76 10000 1.02 50 04:58 01.06.2022
1174 Clouds 18 1024 59 10000 3.09 50 23:56 31.05.2022
1175 Clouds 19 1025 59 10000 2.06 70 22:51 31.05.2022
1176 Clouds 19 1025 59 10000 2.06 70 22:29 31.05.2022
1177 Clouds 19 1025 59 10000 2.06 60 21:45 31.05.2022
1178 Clouds 21 1025 52 10000 4.12 90 20:44 31.05.2022
1179 Clouds 19 1014 37 10000 3.17 86 19:52 31.05.2022
1180 Clouds 23 1023 40 10000 5.66 140 18:44 31.05.2022
1181 Clouds 24 1022 38 10000 5.14 110 17:49 31.05.2022
1182 Clouds 23 1010 26 10000 5.9 74 16:48 31.05.2022
1183 Clouds 24 1022 36 10000 5.14 60 15:40 31.05.2022
1184 Clouds 26 1008 20 10000 5.22 92 13:37 31.05.2022
1185 Clouds 25 1025 29 10000 2.06 40 12:19 31.05.2022
1186 Clouds 24 1026 33 10000 6.17 120 10:52 31.05.2022
1187 Clear 22 1015 30 10000 3.94 115 08:35 31.05.2022
1188 Clear 16 1026 55 10000 2.06 320 06:38 31.05.2022
1189 Clouds 15 1025 63 10000 0 0 04:34 31.05.2022
1190 Clouds 19 1026 45 10000 2.06 70 23:49 30.05.2022
1191 Clouds 19 1026 45 10000 2.06 70 23:25 30.05.2022
1192 Clouds 20 1027 42 10000 2.06 130 22:42 30.05.2022
1193 Clouds 17 1016 34 10000 2.55 48 21:42 30.05.2022
1194 Clouds 18 1016 32 10000 3.26 68 21:21 30.05.2022
1195 Clouds 22 1016 40 10000 3.09 60 19:45 30.05.2022
1196 Clouds 21 1013 23 10000 5.98 87 18:21 30.05.2022
1197 Clouds 24 1023 31 10000 7.2 90 17:23 30.05.2022
1198 Clouds 24 1023 31 10000 7.2 90 17:23 30.05.2022
1199 Clouds 24 1011 18 10000 7.2 93 16:30 30.05.2022
1200 Clouds 27 1009 15 10000 6.93 100 13:44 30.05.2022
1201 Clouds 27 1011 15 10000 6.74 107 11:54 30.05.2022
1202 Clouds 24 1013 19 10000 4.94 101 10:20 30.05.2022
1203 Clear 21 1028 43 10000 2.06 140 09:18 30.05.2022
1204 Clouds 16 1027 51 10000 0 0 06:28 30.05.2022
1205 Clouds 15 1026 58 10000 3.09 240 04:52 30.05.2022
1206 Clouds 15 1016 36 10000 2.13 49 01:23 30.05.2022
1207 Clouds 19 1026 52 10000 4.63 50 22:49 29.05.2022
1208 Clouds 19 1026 52 10000 4.63 50 22:29 29.05.2022
1209 Clouds 17 1016 39 10000 1.51 357 20:38 29.05.2022
1210 Clouds 20 1024 52 10000 7.72 80 19:30 29.05.2022
1211 Clouds 21 1024 49 10000 6.17 60 18:34 29.05.2022
1212 Clouds 23 1010 25 10000 6.37 97 16:40 29.05.2022
1213 Clouds 25 1022 31 10000 4.12 100 15:47 29.05.2022
1214 Clouds 23 1023 35 10000 6.17 130 14:55 29.05.2022
1215 Clouds 20 1024 49 6000 1.54 100 13:18 29.05.2022
1216 Clouds 26 1011 19 10000 5.56 96 11:20 29.05.2022
1217 Clouds 23 1026 35 10000 1.54 180 10:37 29.05.2022
1218 Haze 20 1027 42 8000 1.54 110 08:36 29.05.2022
1219 Clouds 15 1025 51 10000 2.06 110 04:59 29.05.2022
1220 Clouds 15 1025 51 10000 2.06 110 04:39 29.05.2022
1221 Clouds 16 1025 55 10000 3.6 70 01:52 29.05.2022
1222 Clouds 17 1014 34 10000 2.14 42 23:48 28.05.2022
1223 Clouds 19 1014 30 10000 2.46 36 23:20 28.05.2022
1224 Clouds 19 1014 31 10000 2.9 34 22:19 28.05.2022
1225 Clouds 18 1014 35 10000 3.09 41 21:19 28.05.2022
1226 Clouds 18 1014 35 10000 3.09 41 21:19 28.05.2022
1227 Clouds 20 1012 31 10000 4.58 69 19:21 28.05.2022
1228 Clouds 20 1012 31 10000 4.58 69 18:40 28.05.2022
1229 Clouds 23 1022 28 10000 3.09 160 17:33 28.05.2022
1230 Clouds 26 1008 17 10000 6.81 96 15:56 28.05.2022
1231 Clouds 26 1008 17 10000 6.81 96 15:38 28.05.2022
1232 Clouds 28 1007 14 10000 6.69 100 13:42 28.05.2022
1233 Clouds 26 1025 31 10000 3.09 160 12:43 28.05.2022
1234 Clouds 26 1025 31 10000 2.06 300 11:50 28.05.2022
1235 Clouds 26 1010 16 10000 5.29 99 10:41 28.05.2022
1236 Clouds 23 1027 38 10000 4.12 180 09:55 28.05.2022
1237 Clouds 20 1027 45 10000 2.06 120 08:33 28.05.2022
1238 Clouds 19 1016 35 10000 0.98 50 06:53 28.05.2022
1239 Clouds 13 1026 71 10000 2.06 210 05:24 28.05.2022
1240 Clouds 15 1025 63 10000 1.03 310 02:27 28.05.2022
1241 Clouds 17 1026 55 10000 0.51 320 23:58 27.05.2022
1242 Clouds 19 1015 35 10000 1.16 58 22:48 27.05.2022
1243 Clouds 18 1014 55 10000 5.14 210 21:29 27.05.2022
1244 Clouds 20 1014 34 10000 3.01 59 20:45 27.05.2022
1245 Clouds 20 1013 34 10000 3.1 77 20:19 27.05.2022
1246 Clouds 19 1014 36 10000 2.91 68 19:38 27.05.2022
1247 Clouds 20 1013 33 10000 3.14 59 19:19 27.05.2022
1248 Clouds 24 1023 38 10000 7.72 90 17:24 27.05.2022
1249 Clouds 26 1022 38 10000 9.26 90 15:57 27.05.2022
1250 Clouds 26 1009 38 10000 8.23 110 14:57 27.05.2022
1251 Clouds 26 1009 22 10000 3.44 141 13:40 27.05.2022
1252 Clouds 25 1025 41 10000 1.54 320 12:20 27.05.2022
1253 Clouds 24 1026 43 10000 1.03 150 11:31 27.05.2022
1254 Clouds 21 1027 52 10000 1.03 260 10:43 27.05.2022
1255 Clouds 20 1028 52 10000 1.03 190 09:59 27.05.2022
1256 Clouds 20 1028 52 10000 1.03 190 09:30 27.05.2022
1257 Clouds 16 1028 63 10000 1.03 260 07:39 27.05.2022
1258 Clouds 16 1028 63 10000 1.03 260 07:39 27.05.2022
1259 Clouds 15 1027 67 10000 2.06 310 03:59 27.05.2022
1260 Clouds 16 1016 44 10000 0.67 15 01:38 27.05.2022
1261 Clouds 18 1016 44 10000 0.5 61 23:23 26.05.2022
1262 Clouds 20 1028 45 10000 3.09 100 22:22 26.05.2022
1263 Clouds 20 1028 45 10000 2.57 80 21:27 26.05.2022
1264 Clouds 21 1026 43 10000 5.14 90 19:34 26.05.2022
1265 Clouds 19 1015 38 10000 3.12 96 18:51 26.05.2022
1266 Clouds 23 1025 38 10000 5.14 100 17:36 26.05.2022
1267 Clouds 24 1024 38 10000 4.63 80 16:30 26.05.2022
1268 Clouds 27 1010 32 10000 6.17 120 15:28 26.05.2022
1269 Clouds 25 1025 31 10000 5.14 110 14:19 26.05.2022
1270 Clouds 27 1011 16 10000 5.66 120 12:18 26.05.2022
1271 Clouds 24 1027 41 10000 4.79 122 11:20 26.05.2022
1272 Haze 23 1029 43 10000 1.03 160 09:39 26.05.2022
1273 Clouds 20 1029 49 10000 2.06 250 08:48 26.05.2022
1274 Clouds 15 1029 63 10000 3.6 270 05:43 26.05.2022
1275 Clouds 17 1028 55 10000 4.12 240 02:24 26.05.2022
1276 Clouds 18 1029 52 10000 2.06 150 23:57 25.05.2022
1277 Clouds 19 1029 48 10000 4.12 250 22:53 25.05.2022
1278 Clouds 19 1029 48 10000 2.06 300 21:42 25.05.2022
1279 Clouds 21 1028 40 10000 2.06 230 20:49 25.05.2022
1280 Clouds 18 1016 28 10000 2.34 36 19:45 25.05.2022
1281 Clouds 24 1026 31 10000 2.57 160 18:48 25.05.2022
1282 Clouds 25 1025 27 10000 5.14 140 17:24 25.05.2022
1283 Clouds 25 1011 17 10000 6.65 98 16:34 25.05.2022
1284 Clouds 26 1024 25 10000 5.66 110 15:36 25.05.2022
1285 Clouds 27 1009 15 10000 5.07 116 14:50 25.05.2022
1286 Clouds 27 1009 15 10000 5.1 116 14:32 25.05.2022
1287 Clouds 26 1025 31 10000 6.17 130 13:23 25.05.2022
1288 Clouds 26 1025 31 10000 6.17 130 13:23 25.05.2022
1289 Clouds 27 1011 21 10000 4.41 147 11:50 25.05.2022
1290 Clouds 24 1028 31 10000 6.17 120 10:42 25.05.2022
1291 Clouds 23 1028 35 10000 4.12 210 09:45 25.05.2022
1292 Clouds 20 1017 46 10000 1.82 183 07:42 25.05.2022
1293 Clear 16 1018 42 10000 0.39 304 05:57 25.05.2022
1294 Clouds 19 1025 37 10000 2.06 320 02:44 25.05.2022
1295 Clouds 16 1016 35 10000 0.95 2 23:52 24.05.2022
1296 Clouds 16 1016 34 10000 0.49 359 22:59 24.05.2022
1297 Clouds 17 1016 35 10000 1.72 57 22:18 24.05.2022
1298 Clouds 17 1016 35 10000 1.72 57 21:38 24.05.2022
1299 Clouds 17 1015 35 10000 2.63 77 21:19 24.05.2022
1300 Clouds 24 1024 27 10000 8.23 100 19:28 24.05.2022
1301 Clouds 25 1023 23 10000 6.17 90 18:38 24.05.2022
1302 Clouds 27 1009 22 10000 8.23 80 16:40 24.05.2022
1303 Clouds 28 1021 20 10000 5.14 60 15:54 24.05.2022
1304 Clouds 29 1021 20 10000 4.12 90 14:45 24.05.2022
1305 Clouds 27 1023 22 10000 2.06 50 13:48 24.05.2022
1306 Clouds 26 1024 25 10000 7.72 50 12:35 24.05.2022
1307 Haze 22 1026 33 9000 4.12 160 09:52 24.05.2022
1308 Haze 22 1026 33 9000 4.12 160 09:27 24.05.2022
1309 Haze 21 1026 37 9000 2.06 100 08:42 24.05.2022
1310 Clouds 19 1015 29 10000 1.08 136 06:42 24.05.2022
1311 Clouds 14 1023 51 10000 3.09 270 03:48 24.05.2022
1312 Clouds 15 1023 47 10000 3.09 20 01:47 24.05.2022
1313 Clouds 16 1023 44 10000 4.12 20 00:57 24.05.2022
1314 Clouds 18 1014 24 10000 1.9 22 22:29 23.05.2022
1315 Clouds 20 1024 37 10000 3.09 90 21:53 23.05.2022
1316 Clouds 20 1024 37 10000 3.09 90 20:55 23.05.2022
1317 Clouds 19 1013 21 10000 2.8 64 20:21 23.05.2022
1318 Clouds 23 1023 28 10000 5.14 80 19:31 23.05.2022
1319 Clouds 24 1022 25 10000 5.14 130 18:42 23.05.2022
1320 Clouds 24 1022 25 10000 5.14 130 18:22 23.05.2022
1321 Clouds 25 1008 14 10000 6.67 105 16:51 23.05.2022
1322 Clouds 28 1022 18 10000 5.14 110 14:49 23.05.2022
1323 Clouds 28 1008 11 10000 5.78 120 12:30 23.05.2022
1324 Clouds 25 1025 23 10000 6.17 130 11:25 23.05.2022
1325 Clouds 25 1012 14 10000 3.98 123 09:49 23.05.2022
1326 Clouds 23 1014 18 10000 3.27 134 09:23 23.05.2022
1327 Clouds 22 1015 20 10000 1.99 149 07:48 23.05.2022
1328 Clouds 16 1026 48 10000 1.03 320 06:45 23.05.2022
1329 Clouds 15 1025 51 10000 2.06 340 05:21 23.05.2022
1330 Clear 16 1025 48 10000 0 0 02:19 23.05.2022
1331 Clear 17 1025 48 10000 0 0 01:35 23.05.2022
1332 Clouds 16 1015 26 10000 2.21 339 23:42 22.05.2022
1333 Clouds 17 1015 24 10000 1.47 25 22:35 22.05.2022
1334 Clouds 22 1026 33 10000 2.06 60 21:54 22.05.2022
1335 Clouds 22 1026 33 10000 2.06 60 20:53 22.05.2022
1336 Clouds 23 1025 28 10000 4.12 70 20:27 22.05.2022
1337 Clouds 23 1025 28 10000 4.12 70 19:56 22.05.2022
1338 Clouds 23 1024 28 10000 4.12 80 18:55 22.05.2022
1339 Clouds 24 1024 27 10000 5.14 90 18:24 22.05.2022
1340 Clouds 25 1023 27 10000 5.14 100 17:32 22.05.2022
1341 Clouds 24 1023 27 10000 4.63 100 16:25 22.05.2022
1342 Clouds 28 1007 12 10000 6.66 112 14:48 22.05.2022
1343 Clouds 26 1024 25 10000 2.06 90 13:45 22.05.2022
1344 Clouds 25 1025 29 10000 3.09 60 12:50 22.05.2022
1345 Clouds 25 1026 29 10000 4.12 80 11:42 22.05.2022
1346 Clear 23 1027 33 10000 6.17 90 09:43 22.05.2022
1347 Clouds 20 1028 40 7000 3.09 230 08:35 22.05.2022
1348 Clouds 16 1028 48 10000 2.06 300 07:21 22.05.2022
1349 Clouds 16 1028 48 10000 2.06 300 07:21 22.05.2022
1350 Clouds 13 1017 58 10000 0 0 05:44 22.05.2022
1351 Clouds 16 1016 29 10000 2.04 15 01:43 22.05.2022
1352 Clouds 16 1016 51 10000 4.12 240 00:43 22.05.2022
1353 Clouds 17 1016 26 10000 2.11 331 23:54 21.05.2022
1354 Clouds 18 1016 45 10000 2.06 160 22:57 21.05.2022
1355 Clouds 19 1016 45 10000 3.09 150 21:43 21.05.2022
1356 Clouds 19 1016 45 10000 3.09 150 21:23 21.05.2022
1357 Clouds 19 1015 23 10000 4.45 77 20:24 21.05.2022
1358 Clouds 23 1025 31 10000 6.17 70 19:30 21.05.2022
1359 Clouds 21 1012 20 10000 4.35 94 17:51 21.05.2022
1360 Clouds 24 1010 18 10000 5.73 103 16:46 21.05.2022
1361 Clouds 27 1008 16 10000 4.32 120 14:38 21.05.2022
1362 Clouds 28 1008 15 10000 5.33 119 13:52 21.05.2022
1363 Clouds 26 1026 27 10000 1.03 100 12:50 21.05.2022
1364 Clouds 26 1026 27 10000 1.03 100 12:26 21.05.2022
1365 Clouds 24 1027 27 10000 2.06 140 10:34 21.05.2022
1366 Clouds 23 1027 31 10000 3.09 90 09:44 21.05.2022
1367 Clouds 21 1027 32 10000 1.54 115 08:57 21.05.2022
1368 Clouds 19 1016 37 10000 1.54 140 07:54 21.05.2022
1369 Clouds 15 1016 36 10000 1.52 41 04:29 21.05.2022
1370 Clouds 16 1015 31 10000 0.85 53 23:54 20.05.2022
1371 Clouds 21 1026 35 10000 2.06 30 22:57 20.05.2022
1372 Clouds 17 1015 28 10000 2.55 55 22:24 20.05.2022
1373 Clouds 22 1026 30 10000 3.09 50 21:43 20.05.2022
1374 Clouds 23 1025 31 10000 4.12 50 20:56 20.05.2022
1375 Clouds 18 1014 27 10000 3.2 70 19:59 20.05.2022
1376 Clouds 19 1013 25 10000 3.77 89 19:26 20.05.2022
1377 Clouds 25 1024 20 10000 6.17 100 18:46 20.05.2022
1378 Clouds 26 1023 25 10000 4.12 90 17:24 20.05.2022
1379 Clouds 26 1009 17 10000 6.57 111 16:19 20.05.2022
1380 Clouds 26 1009 17 10000 6.57 111 15:47 20.05.2022
1381 Clouds 27 1008 16 10000 6.15 118 14:30 20.05.2022
1382 Clouds 28 1008 16 10000 5.44 133 13:55 20.05.2022
1383 Clouds 27 1010 17 10000 4.1 142 11:34 20.05.2022
1384 Clouds 24 1013 20 10000 3.33 124 09:52 20.05.2022
1385 Clouds 22 1015 23 10000 2.57 117 08:44 20.05.2022
1386 Clouds 15 1026 51 10000 1.54 330 06:50 20.05.2022
1387 Clouds 15 1026 51 10000 1.54 330 06:31 20.05.2022
1388 Clouds 15 1025 51 10000 1.54 130 04:42 20.05.2022
1389 Clouds 17 1025 51 10000 3.09 40 00:48 20.05.2022
1390 Clouds 18 1026 45 10000 3.09 270 22:47 19.05.2022
1391 Clouds 19 1026 45 10000 3.09 270 22:19 19.05.2022
1392 Clouds 17 1016 31 10000 2.92 53 21:42 19.05.2022
1393 Clouds 17 1016 30 10000 3.68 69 21:22 19.05.2022
1394 Clouds 20 1025 40 10000 6.17 80 20:32 19.05.2022
1395 Clouds 22 1025 33 10000 4.12 110 19:50 19.05.2022
1396 Clouds 23 1025 31 10000 4.12 110 18:22 19.05.2022
1397 Clouds 26 1023 25 10000 5.14 110 16:35 19.05.2022
1398 Clouds 27 1024 28 10000 6.17 130 14:52 19.05.2022
1399 Clouds 27 1024 28 10000 6.17 130 14:24 19.05.2022
1400 Clouds 28 1009 12 10000 3.99 148 13:20 19.05.2022
1401 Clouds 24 1027 38 10000 4.12 210 11:25 19.05.2022
1402 Clouds 22 1015 22 10000 2.24 130 09:27 19.05.2022
1403 Clouds 19 1028 39 10000 1.54 130 07:49 19.05.2022
1404 Clouds 16 1017 32 10000 1.05 29 05:32 19.05.2022
1405 Clouds 15 1016 33 10000 1.02 13 01:59 19.05.2022
1406 Clouds 15 1016 32 10000 0.9 16 23:55 18.05.2022
1407 Clouds 16 1016 31 10000 1.47 341 22:47 18.05.2022
1408 Clouds 20 1025 45 10000 6.69 50 21:50 18.05.2022
1409 Clouds 20 1025 45 10000 6.69 50 21:29 18.05.2022
1410 Clouds 17 1015 29 10000 3.25 70 20:41 18.05.2022
1411 Clouds 18 1015 29 10000 3.8 76 20:18 18.05.2022
1412 Clouds 24 1024 33 10000 5.66 100 18:28 18.05.2022
1413 Clouds 25 1023 36 10000 2.06 140 17:41 18.05.2022
1414 Clouds 25 1023 36 10000 2.06 140 17:23 18.05.2022
1415 Clouds 24 1010 21 10000 5.55 112 16:31 18.05.2022
1416 Clouds 27 1022 29 10000 4.12 130 15:40 18.05.2022
1417 Clouds 26 1023 29 10000 3.09 160 14:35 18.05.2022
1418 Clouds 24 1023 33 10000 5.14 180 13:35 18.05.2022
1419 Clouds 24 1024 38 10000 6.17 170 12:42 18.05.2022
1420 Clouds 24 1025 38 10000 2.57 120 11:34 18.05.2022
1421 Clouds 24 1026 38 10000 4.12 130 10:56 18.05.2022
1422 Clouds 22 1027 43 10000 3.09 160 09:24 18.05.2022
1423 Clouds 20 1016 40 10000 2.82 148 07:32 18.05.2022
1424 Clouds 15 1017 61 10000 1.03 100 05:34 18.05.2022
1425 Clouds 22 1025 40 10000 2.06 130 00:52 18.05.2022
1426 Clouds 22 1025 40 10000 2.06 130 00:21 18.05.2022
1427 Clouds 18 1016 29 10000 1.64 166 21:39 17.05.2022
1428 Clouds 18 1016 27 10000 0.23 232 21:19 17.05.2022
1429 Clouds 23 1025 33 10000 4.12 90 19:52 17.05.2022
1430 Clouds 24 1025 33 10000 4.12 90 19:27 17.05.2022
1431 Clouds 25 1023 29 10000 4.12 120 17:50 17.05.2022
1432 Clouds 25 1023 33 10000 1.03 220 16:58 17.05.2022
1433 Clouds 25 1023 33 10000 1.03 220 16:29 17.05.2022
1434 Clouds 26 1023 31 10000 2.06 130 15:24 17.05.2022
1435 Clouds 27 1023 32 10000 2.06 100 14:30 17.05.2022
1436 Clouds 27 1023 32 10000 2.06 100 14:30 17.05.2022
1437 Clouds 27 1023 32 10000 2.06 100 14:30 17.05.2022
1438 Clouds 27 1023 32 10000 2.06 100 14:30 17.05.2022
1439 Clouds 27 1023 32 10000 2.06 100 14:30 17.05.2022
1440 Clouds 26 1025 34 10000 6.17 130 13:32 17.05.2022
1441 Clouds 26 1027 34 10000 4.12 150 11:21 17.05.2022
1442 Clear 22 1016 32 10000 2.06 165 09:23 17.05.2022
1443 Clouds 20 1028 49 10000 3.09 220 08:23 17.05.2022
1444 Clear 18 1018 46 10000 1.51 198 06:45 17.05.2022
1445 Clouds 14 1026 62 10000 2.06 310 02:55 17.05.2022
1446 Clear 15 1017 32 10000 0.59 202 00:36 17.05.2022
1447 Clouds 18 1027 45 10000 1.54 80 22:42 16.05.2022
1448 Clouds 19 1027 39 10000 2.57 60 21:37 16.05.2022
1449 Clouds 17 1017 27 10000 3.12 56 20:46 16.05.2022
1450 Clouds 19 1015 25 10000 3.84 96 19:22 16.05.2022
1451 Clouds 23 1025 35 10000 5.66 110 18:18 16.05.2022
1452 Clouds 26 1023 26 10000 4.63 130 15:49 16.05.2022
1453 Clouds 24 1025 33 10000 1.03 210 13:49 16.05.2022
1454 Clouds 24 1025 33 10000 1.03 210 13:20 16.05.2022
1455 Clouds 26 1013 13 10000 3.42 132 10:53 16.05.2022
1456 Clouds 22 1017 23 10000 2.13 128 09:23 16.05.2022
1457 Clear 12 1028 58 10000 0 310 06:47 16.05.2022
1458 Clouds 14 1018 36 10000 1.45 38 03:31 16.05.2022
1459 Clear 19 1029 39 10000 2.06 270 23:26 15.05.2022
1460 Clear 19 1029 39 10000 5.14 50 22:29 15.05.2022
1461 Clear 20 1028 37 10000 4.12 50 21:44 15.05.2022
1462 Clear 21 1027 35 10000 5.14 70 20:54 15.05.2022
1463 Clear 23 1027 28 10000 7.2 90 19:28 15.05.2022
1464 Clouds 27 1025 19 10000 7.2 100 17:51 15.05.2022
1465 Clouds 27 1024 21 10000 7.2 120 15:59 15.05.2022
1466 Clouds 27 1025 19 10000 7.2 50 13:54 15.05.2022
1467 Clouds 27 1012 11 10000 5.06 111 12:26 15.05.2022
1468 Clouds 26 1027 21 10000 5.06 111 11:38 15.05.2022
1469 Clouds 24 1028 23 10000 4.7 101 10:25 15.05.2022
1470 Clouds 23 1016 16 10000 4.76 91 08:32 15.05.2022
1471 Clouds 13 1027 54 10000 1.03 350 06:58 15.05.2022
1472 Clouds 15 1019 29 10000 2.26 27 05:47 15.05.2022
1473 Clear 16 1016 35 10000 3.67 52 00:49 15.05.2022
1474 Clouds 21 1027 46 10000 4.12 60 23:38 14.05.2022
1475 Clouds 21 1028 46 10000 5.14 60 22:47 14.05.2022
1476 Clear 17 1017 31 10000 4.4 49 21:29 14.05.2022
1477 Clouds 22 1027 33 10000 5.14 80 20:51 14.05.2022
1478 Clouds 23 1026 35 10000 5.14 90 19:38 14.05.2022
1479 Clouds 23 1026 35 10000 5.14 90 19:19 14.05.2022
1480 Clouds 24 1025 33 10000 6.17 110 18:41 14.05.2022
1481 Clouds 25 1024 27 10000 7.2 60 16:38 14.05.2022
1482 Clouds 25 1024 29 10000 5.66 90 15:23 14.05.2022
1483 Clouds 26 1024 25 10000 7.72 90 14:33 14.05.2022
1484 Clouds 27 1012 15 10000 6.97 98 12:23 14.05.2022
1485 Clouds 26 1013 19 10000 6.62 101 10:58 14.05.2022
1486 Clouds 25 1014 23 10000 5.63 103 10:21 14.05.2022
1487 Clouds 25 1014 23 10000 5.63 102 09:53 14.05.2022
1488 Clear 23 1015 24 10000 5.41 93 08:49 14.05.2022
1489 Clouds 13 1026 62 10000 1.03 180 05:47 14.05.2022
1490 Clouds 14 1017 53 10000 2.06 5 02:39 14.05.2022
1491 Clear 18 1027 45 10000 4.12 30 23:36 13.05.2022
1492 Clear 18 1017 45 10000 7.2 40 22:58 13.05.2022
1493 Clear 18 1017 45 10000 7.2 40 22:25 13.05.2022
1494 Clear 19 1027 48 10000 6.17 50 21:39 13.05.2022
1495 Clear 19 1027 48 10000 4.12 60 20:45 13.05.2022
1496 Clear 19 1027 48 10000 4.12 60 20:27 13.05.2022
1497 Clouds 21 1026 43 10000 6.69 100 19:28 13.05.2022
1498 Clouds 24 1024 33 10000 8.23 70 17:50 13.05.2022
1499 Clouds 24 1024 33 10000 8.23 70 17:27 13.05.2022
1500 Clear 26 1010 20 10000 8.32 102 16:18 13.05.2022
1501 Clear 27 1009 17 10000 8.14 106 15:28 13.05.2022
1502 Clear 28 1009 14 10000 7.57 110 13:41 13.05.2022
1503 Clear 25 1026 31 10000 5.92 112 12:28 13.05.2022
1504 Clear 24 1028 35 10000 5.04 107 10:53 13.05.2022
1505 Clouds 25 1014 19 10000 4.18 101 09:34 13.05.2022
1506 Clear 22 1029 43 10000 5.14 50 08:24 13.05.2022
1507 Clouds 21 1017 28 10000 2.79 95 07:48 13.05.2022
1508 Clouds 17 1028 55 10000 0.51 360 06:33 13.05.2022
1509 Clouds 15 1027 55 10000 2.13 13 02:48 13.05.2022
1510 Clear 19 1028 39 10000 2.57 30 23:56 12.05.2022
1511 Clear 16 1017 33 10000 2.92 59 22:44 12.05.2022
1512 Clear 16 1018 31 10000 3.12 53 21:54 12.05.2022
1513 Clouds 24 1028 27 10000 3.09 50 20:27 12.05.2022
1514 Clouds 24 1026 27 10000 5.14 90 18:50 12.05.2022
1515 Clouds 26 1025 21 10000 8.23 90 16:58 12.05.2022
1516 Clouds 24 1012 18 10000 7.56 97 15:50 12.05.2022
1517 Clouds 25 1011 17 10000 7.71 98 14:39 12.05.2022
1518 Clouds 26 1025 21 10000 8.23 60 13:34 12.05.2022
1519 Clouds 21 1027 28 10000 8.23 100 10:45 12.05.2022
1520 Clouds 22 1016 27 10000 6.44 82 09:24 12.05.2022
1521 Clouds 22 1016 27 10000 6.44 82 08:50 12.05.2022
1522 Clouds 18 1027 34 10000 6.17 70 07:38 12.05.2022
1523 Clouds 16 1026 41 10000 2.06 20 05:35 12.05.2022
1524 Clear 14 1016 51 10000 2.58 21 02:49 12.05.2022
1525 Clear 15 1016 48 10000 2.75 22 00:35 12.05.2022
1526 Clouds 22 1027 43 10000 6.17 50 22:34 11.05.2022
1527 Clear 16 1017 45 10000 3.04 31 21:38 11.05.2022
1528 Clouds 25 1027 33 10000 4.12 60 20:55 11.05.2022
1529 Clouds 20 1014 31 10000 7.13 83 18:27 11.05.2022
1530 Clouds 22 1012 26 10000 7.88 85 16:53 11.05.2022
1531 Clouds 26 1024 29 10000 4.12 50 14:58 11.05.2022
1532 Clouds 26 1024 29 10000 4.12 50 14:38 11.05.2022
1533 Clouds 26 1024 29 10000 4.12 50 14:18 11.05.2022
1534 Clear 27 1011 21 10000 8.5 92 11:52 11.05.2022
1535 Clear 26 1012 23 10000 8.07 93 10:32 11.05.2022
1536 Clear 23 1014 29 10000 6.36 94 08:37 11.05.2022
1537 Clouds 14 1026 72 10000 3.09 60 05:27 11.05.2022
1538 Clouds 17 1026 55 10000 4.12 40 00:42 11.05.2022
1539 Clouds 19 1027 48 10000 4.12 50 22:30 10.05.2022
1540 Clouds 19 1027 52 10000 5.14 60 21:56 10.05.2022
1541 Clouds 21 1026 46 10000 4.12 60 20:56 10.05.2022
1542 Clouds 22 1026 43 10000 6.17 90 19:27 10.05.2022
1543 Clouds 25 1024 31 10000 10.29 100 17:54 10.05.2022
1544 Clouds 25 1024 31 10000 10.29 100 16:56 10.05.2022
1545 Clouds 26 1023 31 10000 6.17 100 15:28 10.05.2022
1546 Clouds 28 1009 18 10000 7.54 101 12:39 10.05.2022
1547 Clouds 27 1010 20 10000 7.02 104 11:50 10.05.2022
1548 Clouds 26 1012 23 10000 6.44 106 11:20 10.05.2022
1549 Clouds 23 1026 35 10000 8.23 80 10:22 10.05.2022
1550 Clouds 23 1015 28 10000 5.13 98 09:25 10.05.2022
1551 Clouds 19 1017 48 10000 1.78 70 06:54 10.05.2022
1552 Clouds 17 1025 59 10000 2.06 140 03:30 10.05.2022
1553 Clouds 15 1016 55 10000 1.89 3 00:38 10.05.2022
1554 Clouds 19 1027 52 10000 7.2 50 22:52 09.05.2022
1555 Clouds 20 1027 49 10000 7.2 40 21:50 09.05.2022
1556 Clouds 21 1026 46 10000 4.12 70 20:52 09.05.2022
1557 Clouds 20 1014 40 10000 5.11 95 19:23 09.05.2022
1558 Clouds 25 1023 33 10000 6.17 100 17:51 09.05.2022
1559 Clouds 25 1023 33 10000 7.2 110 16:33 09.05.2022
1560 Clouds 24 1010 27 10000 5.95 74 15:52 09.05.2022
1561 Clouds 26 1009 23 10000 7.88 98 15:21 09.05.2022
1562 Clouds 25 1024 31 10000 6.17 100 14:29 09.05.2022
1563 Clouds 27 1009 20 10000 6.73 113 13:49 09.05.2022
1564 Clouds 26 1011 21 10000 5.77 109 12:21 09.05.2022
1565 Clouds 26 1026 31 10000 2.57 320 11:32 09.05.2022
1566 Clouds 25 1013 23 10000 5.38 107 10:42 09.05.2022
1567 Clear 22 1027 40 10000 4.63 70 08:45 09.05.2022
1568 Clear 20 1027 49 10000 5.14 80 07:54 09.05.2022
1569 Clouds 17 1024 63 10000 3.09 240 03:21 09.05.2022
1570 Clouds 21 1025 46 10000 4.12 40 23:34 08.05.2022
1571 Clouds 22 1026 49 10000 3.6 70 22:55 08.05.2022
1572 Clouds 22 1026 49 10000 4.12 50 21:55 08.05.2022
1573 Clouds 22 1026 49 10000 4.12 50 21:55 08.05.2022
1574 Clouds 23 1025 43 10000 5.14 50 20:35 08.05.2022
1575 Clouds 23 1025 43 10000 6.17 60 19:45 08.05.2022
1576 Clouds 23 1024 43 10000 4.12 100 18:54 08.05.2022
1577 Clouds 24 1023 38 10000 7.2 90 17:59 08.05.2022
1578 Clouds 25 1023 36 10000 8.23 100 16:43 08.05.2022
1579 Clouds 25 1023 38 10000 6.65 98 15:31 08.05.2022
1580 Clouds 27 1023 32 10000 10.29 110 14:45 08.05.2022
1581 Clouds 27 1010 24 10000 4.97 111 12:27 08.05.2022
1582 Clouds 26 1011 25 10000 3.13 114 10:32 08.05.2022
1583 Clouds 24 1013 29 10000 2.5 124 09:57 08.05.2022
1584 Clouds 22 1015 32 10000 2.3 118 08:56 08.05.2022
1585 Clouds 19 1016 41 10000 0.82 60 06:58 08.05.2022
1586 Clouds 16 1024 63 10000 0 0 03:35 08.05.2022
1587 Clouds 17 1014 43 10000 1.65 43 02:45 08.05.2022
1588 Clouds 18 1025 42 10000 3.6 30 00:24 08.05.2022
1589 Clouds 19 1025 42 10000 3.09 10 23:49 07.05.2022
1590 Clouds 19 1026 45 10000 2.06 40 22:46 07.05.2022
1591 Clouds 20 1025 42 10000 2.57 40 21:58 07.05.2022
1592 Clouds 20 1025 42 10000 2.57 40 21:33 07.05.2022
1593 Clouds 20 1025 42 10000 6.17 70 20:28 07.05.2022
1594 Clouds 22 1024 37 10000 6.17 90 19:22 07.05.2022
1595 Clouds 24 1022 35 10000 8.23 110 17:34 07.05.2022
1596 Clouds 26 1021 31 10000 6.17 90 15:41 07.05.2022
1597 Clouds 25 1024 33 10000 6.17 150 12:50 07.05.2022
1598 Clouds 24 1026 33 10000 6.17 90 10:33 07.05.2022
1599 Clear 22 1026 30 10000 3.6 130 08:52 07.05.2022
1600 Clouds 19 1026 37 10000 2.06 120 07:43 07.05.2022
1601 Clouds 16 1026 41 10000 2.06 320 06:43 07.05.2022
1602 Clouds 15 1025 55 10000 0 0 04:35 07.05.2022
1603 Clouds 18 1024 48 10000 1.03 60 00:56 07.05.2022
1604 Clouds 16 1015 45 10000 0.64 45 23:28 06.05.2022
1605 Clouds 19 1025 52 10000 2.06 40 22:21 06.05.2022
1606 Clouds 16 1015 43 10000 1.37 39 21:36 06.05.2022
1607 Clouds 22 1025 49 10000 3.09 90 20:20 06.05.2022
1608 Clouds 22 1024 46 10000 6.17 100 19:29 06.05.2022
1609 Clouds 22 1024 46 10000 6.17 100 19:29 06.05.2022
1610 Clouds 24 1023 41 10000 6.17 90 18:54 06.05.2022
1611 Clouds 25 1023 38 10000 8.23 90 17:38 06.05.2022
1612 Clouds 25 1022 23 10000 7.2 100 15:56 06.05.2022
1613 Clouds 26 1008 13 10000 7.19 104 15:38 06.05.2022
1614 Clouds 28 1008 11 10000 5.84 112 14:23 06.05.2022
1615 Clouds 27 1009 12 10000 4.27 116 12:53 06.05.2022
1616 Clouds 27 1009 12 10000 4.23 115 12:30 06.05.2022
1617 Clouds 26 1011 12 10000 3.4 107 11:33 06.05.2022
1618 Clear 22 1027 30 10000 4.12 80 09:49 06.05.2022
1619 Clear 22 1027 30 10000 4.12 80 09:19 06.05.2022
1620 Clear 21 1016 25 10000 2.08 73 07:56 06.05.2022
1621 Clear 15 1018 44 10000 1.8 12 06:28 06.05.2022
1622 Clear 14 1017 45 10000 1.79 9 04:29 06.05.2022
1623 Clouds 14 1017 43 10000 1.59 14 02:40 06.05.2022
1624 Clouds 15 1017 35 10000 2.16 29 23:25 05.05.2022
1625 Clouds 16 1017 33 10000 3.14 45 21:51 05.05.2022
1626 Clouds 23 1027 43 10000 4.12 40 20:37 05.05.2022
1627 Clouds 24 1026 33 10000 5.14 80 19:20 05.05.2022
1628 Clouds 24 1025 41 10000 6.69 60 16:51 05.05.2022
1629 Clouds 25 1024 41 10000 8.23 70 15:48 05.05.2022
1630 Clouds 26 1025 38 10000 6.69 40 14:34 05.05.2022
1631 Clear 26 1025 38 10000 2.06 70 13:18 05.05.2022
1632 Clear 22 1027 49 10000 2.06 100 11:46 05.05.2022
1633 Clear 22 1028 53 10000 3.6 70 10:28 05.05.2022
1634 Clear 21 1029 52 10000 4.63 100 09:32 05.05.2022
1635 Clouds 14 1028 63 10000 0 300 06:49 05.05.2022
1636 Clouds 16 1027 63 10000 2.06 80 02:28 05.05.2022
1637 Clouds 17 1017 55 10000 3.09 60 01:47 05.05.2022
1638 Clouds 17 1017 55 10000 3.09 60 01:19 05.05.2022
1639 Clouds 19 1027 48 10000 6.17 70 23:27 04.05.2022
1640 Clouds 19 1028 52 10000 5.14 40 22:23 04.05.2022
1641 Clouds 19 1028 48 10000 5.14 50 21:46 04.05.2022
1642 Clear 17 1017 42 10000 4.33 53 21:18 04.05.2022
1643 Clouds 20 1027 45 10000 4.12 50 20:20 04.05.2022
1644 Clouds 17 1017 39 10000 4.46 58 19:44 04.05.2022
1645 Clouds 22 1026 43 10000 6.17 70 18:44 04.05.2022
1646 Clouds 22 1026 43 10000 6.17 70 18:20 04.05.2022
1647 Clouds 23 1025 31 10000 6.17 60 17:22 04.05.2022
1648 Clouds 23 1012 26 10000 7.77 81 15:35 04.05.2022
1649 Clouds 26 1026 41 10000 12 90 14:46 04.05.2022
1650 Clouds 25 1012 23 10000 7.49 92 14:20 04.05.2022
1651 Clouds 25 1012 23 10000 7.51 93 14:20 04.05.2022
1652 Clouds 26 1026 44 10000 6.17 50 12:58 04.05.2022
1653 Clouds 25 1014 24 10000 6.41 89 12:24 04.05.2022
1654 Clouds 24 1015 26 10000 5.91 87 10:30 04.05.2022
1655 Clouds 20 1028 56 10000 9.26 80 09:23 04.05.2022
1656 Clouds 18 1028 59 10000 5.14 90 08:26 04.05.2022
1657 Clouds 12 1026 82 10000 1.03 310 05:44 04.05.2022
1658 Clouds 14 1026 72 10000 0 0 02:43 04.05.2022
1659 Clouds 15 1017 63 10000 1.54 25 23:31 03.05.2022
1660 Clouds 19 1026 63 10000 4.12 50 22:00 03.05.2022
1661 Clouds 19 1026 63 10000 4.12 50 21:32 03.05.2022
1662 Clouds 16 1017 58 10000 2.44 81 20:52 03.05.2022
1663 Clouds 17 1016 57 10000 3.41 93 19:39 03.05.2022
1664 Clouds 17 1015 54 10000 3.56 87 18:48 03.05.2022
1665 Clouds 19 1014 47 10000 4.12 95 17:34 03.05.2022
1666 Clouds 22 1011 37 10000 4.88 88 16:28 03.05.2022
1667 Clouds 23 1011 34 10000 5.46 97 14:43 03.05.2022
1668 Clouds 27 1009 22 10000 5.24 111 12:46 03.05.2022
1669 Clouds 26 1011 22 10000 5.02 116 12:22 03.05.2022
1670 Clouds 25 1012 23 10000 4.86 111 10:50 03.05.2022
1671 Clouds 20 1028 56 10000 2.06 80 08:38 03.05.2022
1672 Clouds 16 1027 72 10000 1.03 310 06:46 03.05.2022
1673 Clouds 16 1027 72 10000 1.03 310 06:46 03.05.2022
1674 Clouds 17 1026 72 10000 2.06 260 03:34 03.05.2022
1675 Clouds 20 1026 60 10000 2.06 160 23:32 02.05.2022
1676 Clouds 21 1026 52 10000 3.09 70 22:34 02.05.2022
1677 Clouds 20 1026 52 10000 4.12 70 21:48 02.05.2022
1678 Clouds 22 1025 49 10000 5.14 80 20:48 02.05.2022
1679 Clouds 24 1023 43 10000 5.14 100 18:28 02.05.2022
1680 Clouds 24 1012 43 10000 6.17 120 17:44 02.05.2022
1681 Clouds 24 1022 43 10000 5.14 60 16:47 02.05.2022
1682 Clouds 25 1023 41 10000 2.06 60 15:52 02.05.2022
1683 Clouds 24 1024 46 10000 3.09 150 14:56 02.05.2022
1684 Clouds 23 1010 35 10000 4.92 103 13:47 02.05.2022
1685 Clouds 25 1011 26 10000 4.04 144 11:51 02.05.2022
1686 Clouds 22 1014 33 10000 3.16 130 10:18 02.05.2022
1687 Clouds 21 1016 40 10000 2.55 125 08:44 02.05.2022
1688 Clouds 9 1027 100 10000 0 0 07:23 02.05.2022
1689 Clouds 16 1026 72 10000 0 0 00:48 02.05.2022
1690 Clouds 16 1026 72 10000 0 0 00:23 02.05.2022
1691 Clouds 16 1015 51 10000 0.79 324 23:43 01.05.2022
1692 Clouds 17 1026 72 10000 4.12 80 21:46 01.05.2022
1693 Clouds 17 1026 72 10000 3.09 80 20:50 01.05.2022
1694 Clouds 18 1025 68 10000 4.12 70 19:40 01.05.2022
1695 Clouds 19 1024 68 10000 3.09 70 18:53 01.05.2022
1696 Clouds 20 1024 68 10000 3.09 250 17:57 01.05.2022
1697 Clouds 20 1023 60 10000 2.57 260 16:46 01.05.2022
1698 Clouds 20 1023 60 10000 2.57 260 16:23 01.05.2022
1699 Clouds 23 1012 46 10000 3.09 80 14:58 01.05.2022
1700 Clouds 23 1025 46 10000 6.17 90 13:23 01.05.2022
1701 Clouds 21 1027 52 10000 2.06 150 10:46 01.05.2022
1702 Rain 20 1017 50 10000 1.94 135 08:51 01.05.2022
1703 Clouds 17 1018 63 10000 1.11 106 06:53 01.05.2022
1704 Clouds 13 1017 77 10000 0.28 6 02:51 01.05.2022
1705 Clouds 15 1017 69 10000 1.18 66 22:52 30.04.2022
1706 Clouds 20 1017 60 10000 3.09 70 21:34 30.04.2022
1707 Clouds 16 1016 68 10000 1.59 20 20:24 30.04.2022
1708 Clouds 21 1025 52 10000 4.12 90 19:31 30.04.2022
1709 Clouds 18 1014 57 10000 2.66 38 17:38 30.04.2022
1710 Clouds 23 1023 49 10000 1.54 100 16:30 30.04.2022
1711 Clouds 23 1023 49 10000 0.51 220 15:19 30.04.2022
1712 Clouds 24 1024 43 9000 1.54 220 14:30 30.04.2022
1713 Clouds 22 1025 46 10000 4.12 120 12:28 30.04.2022
1714 Clouds 22 1028 46 10000 6.17 90 11:32 30.04.2022
1715 Clouds 22 1014 40 10000 3.14 123 10:30 30.04.2022
1716 Clouds 16 1028 72 10000 3.09 100 08:26 30.04.2022
1717 Clouds 14 1026 82 10000 2.06 90 05:19 30.04.2022
1718 Clouds 9 1026 100 10000 3.09 70 00:35 30.04.2022
1719 Clouds 9 1026 100 10000 0.51 290 23:29 29.04.2022
1720 Clouds 16 1027 88 10000 2.57 300 22:29 29.04.2022
1721 Clouds 16 1027 88 10000 2.57 300 22:29 29.04.2022
1722 Clouds 17 1026 88 10000 3.09 80 21:26 29.04.2022
1723 Clouds 17 1026 82 10000 2.06 60 20:36 29.04.2022
1724 Clouds 19 1025 82 10000 0 0 19:33 29.04.2022
1725 Clouds 21 1023 68 10000 4.12 250 17:38 29.04.2022
1726 Clouds 17 1014 60 10000 2.07 52 16:43 29.04.2022
1727 Rain 24 1023 50 8000 6.17 70 14:38 29.04.2022
1728 Rain 24 1023 50 8000 6.17 70 14:38 29.04.2022
1729 Rain 24 1023 50 8000 6.17 70 14:38 29.04.2022
1730 Clouds 23 1010 38 10000 4.48 118 13:59 29.04.2022
1731 Clouds 23 1025 43 10000 1.54 120 12:41 29.04.2022
1732 Clouds 20 1027 52 10000 1.54 120 10:57 29.04.2022
1733 Clouds 18 1028 63 10000 1.03 180 08:18 29.04.2022
1734 Clouds 17 1027 63 10000 0.51 130 07:27 29.04.2022
1735 Clouds 15 1026 72 10000 0 140 06:34 29.04.2022
1736 Clouds 14 1025 82 10000 1.03 20 03:23 29.04.2022
1737 Clouds 15 1015 70 10000 1.88 334 00:18 29.04.2022
1738 Clouds 16 1026 88 10000 4.12 300 23:26 28.04.2022
1739 Clouds 16 1026 88 10000 3.6 350 22:37 28.04.2022
1740 Clouds 17 1026 88 10000 3.09 350 21:44 28.04.2022
1741 Rain 16 1016 72 10000 1.67 329 20:49 28.04.2022
1742 Clouds 19 1023 77 10000 3.6 50 19:57 28.04.2022
1743 Clouds 19 1023 77 10000 3.6 50 19:39 28.04.2022
1744 Clouds 19 1023 77 10000 3.6 50 19:19 28.04.2022
1745 Clouds 18 1012 60 10000 1.28 0 17:56 28.04.2022
1746 Rain 19 1011 56 10000 0.51 111 16:58 28.04.2022
1747 Rain 21 1010 43 10000 1.62 60 16:21 28.04.2022
1748 Rain 21 1010 43 10000 1.62 60 15:52 28.04.2022
1749 Clouds 23 1008 35 10000 2.1 147 15:18 28.04.2022
1750 Clouds 21 1010 42 10000 0.69 166 13:43 28.04.2022
1751 Clouds 21 1011 44 10000 1.39 138 12:32 28.04.2022
1752 Clouds 22 1024 53 10000 4.12 190 11:38 28.04.2022
1753 Clouds 22 1025 49 10000 5.14 100 10:27 28.04.2022
1754 Clouds 20 1025 52 10000 5.14 130 09:50 28.04.2022
1755 Clouds 17 1025 63 10000 3.6 90 07:43 28.04.2022
1756 Clouds 16 1025 72 10000 2.06 150 06:53 28.04.2022
1757 Clouds 15 1024 77 10000 2.06 330 05:53 28.04.2022
1758 Clouds 14 1014 77 10000 1.09 22 04:43 28.04.2022
1759 Clouds 16 1023 77 10000 2.06 280 02:45 28.04.2022
1760 Clouds 15 1013 72 10000 0.85 36 23:36 27.04.2022
1761 Clouds 16 1014 68 10000 0.95 29 22:22 27.04.2022
1762 Clouds 18 1024 72 10000 3.09 60 21:47 27.04.2022
1763 Clouds 19 1023 68 10000 3.09 60 20:47 27.04.2022
1764 Clouds 19 1023 68 10000 3.09 60 20:29 27.04.2022
1765 Clouds 20 1023 73 10000 2.06 70 19:36 27.04.2022
1766 Clouds 20 1022 73 10000 3.09 90 18:42 27.04.2022
1767 Clouds 20 1022 73 10000 3.09 90 18:21 27.04.2022
1768 Clouds 21 1022 73 9000 7.2 100 16:20 27.04.2022
1769 Clouds 20 1011 50 10000 2 88 13:21 27.04.2022
1770 Clouds 21 1012 44 10000 2.84 149 11:26 27.04.2022
1771 Clouds 23 1026 53 10000 1.03 200 10:51 27.04.2022
1772 Clouds 20 1026 64 10000 1.03 140 08:31 27.04.2022
1773 Clouds 18 1015 68 10000 2.57 150 06:44 27.04.2022
1774 Clouds 16 1023 72 10000 1.03 320 02:40 27.04.2022
1775 Clouds 16 1023 72 10000 2.06 280 01:24 27.04.2022
1776 Clouds 16 1024 63 10000 2.06 310 00:34 27.04.2022
1777 Clouds 15 1014 65 10000 1.27 77 23:24 26.04.2022
1778 Clouds 17 1025 63 10000 2.06 220 22:52 26.04.2022
1779 Clouds 17 1025 63 10000 2.06 220 22:32 26.04.2022
1780 Clouds 18 1025 68 10000 2.06 110 21:25 26.04.2022
1781 Clouds 19 1025 59 10000 4.12 50 20:39 26.04.2022
1782 Clouds 19 1024 68 10000 2.06 100 19:48 26.04.2022
1783 Clouds 19 1024 68 10000 2.06 100 19:26 26.04.2022
1784 Clouds 18 1012 56 10000 2.65 54 18:40 26.04.2022
1785 Clouds 18 1011 53 10000 2.79 49 17:42 26.04.2022
1786 Clouds 21 1009 44 10000 2.98 46 15:59 26.04.2022
1787 Clouds 21 1010 41 10000 2.1 110 13:55 26.04.2022
1788 Clouds 21 1011 44 10000 2.72 127 13:29 26.04.2022
1789 Rain 19 1025 68 9000 3.6 300 11:29 26.04.2022
1790 Clouds 21 1012 43 10000 3.14 128 10:30 26.04.2022
1791 Clouds 9 1027 100 10000 2.06 110 08:38 26.04.2022
1792 Clouds 14 1025 88 10000 0 0 05:29 26.04.2022
1793 Clouds 14 1024 88 10000 0 0 04:23 26.04.2022
1794 Rain 14 1014 86 10000 0.17 296 00:52 26.04.2022
1795 Clouds 15 1025 88 10000 0 0 23:51 25.04.2022
1796 Clouds 16 1026 88 10000 2.06 140 21:57 25.04.2022
1797 Clouds 16 1026 88 10000 2.06 140 21:33 25.04.2022
1798 Rain 15 1015 86 10000 0.76 115 19:58 25.04.2022
1799 Clouds 18 1023 88 10000 4.12 240 18:48 25.04.2022
1800 Clouds 18 1022 88 10000 4.63 240 17:40 25.04.2022
1801 Clouds 19 1022 72 10000 3.6 250 16:44 25.04.2022
1802 Clouds 19 1010 58 10000 1.32 256 15:23 25.04.2022
1803 Clouds 20 1022 52 10000 6.17 320 14:34 25.04.2022
1804 Clouds 18 1024 72 10000 4.12 340 12:49 25.04.2022
1805 Clouds 18 1024 72 10000 4.12 300 10:44 25.04.2022
1806 Clouds 16 1026 77 10000 4.12 260 09:42 25.04.2022
1807 Clouds 16 1025 77 10000 2.06 300 07:49 25.04.2022
1808 Clouds 16 1023 88 10000 1.03 210 05:54 25.04.2022
1809 Rain 16 1012 72 10000 0.53 25 01:28 25.04.2022
1810 Clouds 16 1024 88 10000 1.03 200 23:54 24.04.2022
1811 Rain 16 1013 71 10000 0.52 78 23:24 24.04.2022
1812 Rain 16 1013 71 10000 0.52 78 22:39 24.04.2022
1813 Rain 18 1024 88 8000 0 0 21:56 24.04.2022
1814 Rain 18 1024 88 8000 0 0 21:22 24.04.2022
1815 Rain 19 1024 82 8000 2.06 210 20:46 24.04.2022
1816 Rain 19 1024 82 8000 2.06 210 20:20 24.04.2022
1817 Clouds 21 1021 60 10000 3.09 4 18:38 24.04.2022
1818 Clouds 22 1021 56 10000 4.12 350 17:42 24.04.2022
1819 Clouds 22 1021 56 10000 4.12 350 17:21 24.04.2022
1820 Clouds 22 1020 53 10000 7.72 60 16:51 24.04.2022
1821 Clouds 22 1020 53 10000 7.72 60 16:23 24.04.2022
1822 Clouds 22 1008 41 10000 2.68 135 15:39 24.04.2022
1823 Clouds 24 1020 43 10000 2.06 120 14:33 24.04.2022
1824 Clouds 23 1021 43 10000 4.12 140 13:26 24.04.2022
1825 Clouds 23 1023 43 10000 3.09 260 12:46 24.04.2022
1826 Clouds 21 1009 49 10000 3.09 80 11:46 24.04.2022
1827 Clouds 21 1025 49 10000 3.09 120 10:37 24.04.2022
1828 Clouds 21 1025 49 10000 3.09 120 10:37 24.04.2022
1829 Clouds 20 1025 52 10000 3.09 160 09:42 24.04.2022
1830 Clouds 17 1025 63 10000 3.09 110 07:41 24.04.2022
1831 Clouds 9 1024 100 10000 0 0 05:32 24.04.2022
1832 Clouds 18 1023 72 10000 1.03 100 01:51 24.04.2022
1833 Clouds 18 1023 72 10000 3.09 80 00:45 24.04.2022
1834 Clouds 19 1024 72 10000 2.06 100 23:46 23.04.2022
1835 Clouds 19 1024 72 10000 2.06 100 23:25 23.04.2022
1836 Clouds 17 1014 57 10000 1.59 102 21:56 23.04.2022
1837 Clouds 17 1014 57 10000 1.59 102 21:36 23.04.2022
1838 Clouds 21 1024 64 10000 4.12 270 20:58 23.04.2022
1839 Clouds 22 1024 53 10000 5.14 310 19:54 23.04.2022
1840 Clouds 17 1013 58 10000 3.55 81 19:19 23.04.2022
1841 Clouds 22 1023 56 10000 6.17 90 18:53 23.04.2022
1842 Clouds 23 1012 49 10000 7.2 100 18:28 23.04.2022
1843 Clouds 23 1012 49 10000 7.2 100 17:43 23.04.2022
1844 Clouds 23 1012 56 10000 6.17 90 16:43 23.04.2022
1845 Clouds 24 1009 41 10000 5.14 90 15:32 23.04.2022
1846 Clouds 23 1024 46 10000 2.57 110 12:50 23.04.2022
1847 Clouds 21 1025 52 10000 3.14 136 10:52 23.04.2022
1848 Clouds 21 1026 49 10000 2.06 120 09:38 23.04.2022
1849 Clouds 17 1026 51 8000 1.03 80 07:38 23.04.2022
1850 Clouds 14 1014 65 10000 1.59 56 03:54 23.04.2022
1851 Clouds 17 1024 45 10000 2.06 350 01:32 23.04.2022
1852 Clouds 19 1025 45 10000 3.09 90 23:32 22.04.2022
1853 Clouds 16 1015 61 10000 2.49 65 22:22 22.04.2022
1854 Clouds 20 1025 52 10000 3.09 80 21:44 22.04.2022
1855 Clouds 21 1024 40 10000 4.12 80 20:54 22.04.2022
1856 Clouds 21 1024 40 10000 4.12 80 20:27 22.04.2022
1857 Clouds 23 1023 43 10000 6.17 90 19:21 22.04.2022
1858 Clouds 23 1023 43 10000 7.2 110 18:45 22.04.2022
1859 Clouds 24 1022 41 10000 6.17 70 17:48 22.04.2022
1860 Clouds 21 1022 46 10000 6.17 90 16:46 22.04.2022
1861 Clouds 24 1021 33 10000 5.14 50 15:44 22.04.2022
1862 Clouds 24 1007 27 10000 4.01 81 15:18 22.04.2022
1863 Clouds 25 1023 38 10000 3.09 40 13:54 22.04.2022
1864 Clouds 24 1024 41 10000 7.72 70 12:58 22.04.2022
1865 Clouds 23 1025 43 10000 3.05 139 11:52 22.04.2022
1866 Clouds 23 1025 43 10000 3.11 130 11:22 22.04.2022
1867 Clouds 22 1026 49 10000 9.26 120 10:50 22.04.2022
1868 Clouds 22 1026 49 10000 9.26 120 10:30 22.04.2022
1869 Clouds 19 1027 59 10000 7.72 90 09:50 22.04.2022
1870 Clouds 18 1026 63 10000 4.12 110 08:50 22.04.2022
1871 Clouds 17 1016 51 10000 0.61 101 07:21 22.04.2022
1872 Clouds 14 1014 58 10000 0.65 33 03:47 22.04.2022
1873 Clouds 17 1024 55 10000 2.06 160 00:52 22.04.2022
1874 Clouds 18 1024 52 10000 2.06 300 23:25 21.04.2022
1875 Clouds 18 1025 52 10000 6 80 22:29 21.04.2022
1876 Clouds 21 1023 43 10000 6.17 60 20:43 21.04.2022
1877 Clouds 21 1023 43 10000 6.17 60 20:24 21.04.2022
1878 Clouds 23 1022 53 10000 4.05 92 18:44 21.04.2022
1879 Clouds 23 1022 53 10000 5.81 97 18:18 21.04.2022
1880 Clouds 22 1008 29 10000 6.56 103 16:44 21.04.2022
1881 Clouds 24 1007 29 10000 5.65 108 15:22 21.04.2022
1882 Clouds 24 1007 29 10000 5.65 108 14:50 21.04.2022
1883 Clouds 28 1006 20 10000 5.48 134 13:23 21.04.2022
1884 Clouds 27 1006 19 10000 5.33 133 12:59 21.04.2022
1885 Clouds 24 1011 25 10000 3.22 135 10:57 21.04.2022
1886 Clouds 20 1025 45 10000 2.57 140 08:57 21.04.2022
1887 Clear 17 1025 55 10000 1.03 250 07:49 21.04.2022
1888 Clouds 13 1015 76 10000 1.03 320 05:44 21.04.2022
1889 Clouds 15 1023 72 10000 1.03 50 03:32 21.04.2022
1890 Clouds 16 1013 67 10000 2.06 60 02:47 21.04.2022
1891 Clouds 15 1014 55 10000 0.85 33 00:47 21.04.2022
1892 Clouds 19 1025 68 10000 2.06 60 23:51 20.04.2022
1893 Clouds 19 1025 68 10000 2.06 60 23:22 20.04.2022
1894 Clouds 16 1014 52 10000 0.65 100 22:51 20.04.2022
1895 Clouds 16 1014 52 10000 0.65 100 22:31 20.04.2022
1896 Clouds 21 1025 60 10000 5.14 30 21:33 20.04.2022
1897 Clouds 22 1024 53 10000 3.09 50 20:37 20.04.2022
1898 Clouds 23 1023 46 10000 4.05 87 19:53 20.04.2022
1899 Clouds 19 1011 38 10000 5.56 94 19:22 20.04.2022
1900 Clouds 21 1010 32 10000 7.01 93 18:23 20.04.2022
1901 Clouds 26 1021 34 10000 9.26 90 16:56 20.04.2022
1902 Clouds 26 1021 34 10000 9.26 90 16:37 20.04.2022
1903 Clouds 27 1021 32 10000 10.29 120 14:21 20.04.2022
1904 Clouds 26 1010 19 10000 5.35 112 11:55 20.04.2022
1905 Clear 25 1012 21 10000 4.85 105 11:25 20.04.2022
1906 Clear 23 1013 25 10000 4.37 97 10:24 20.04.2022
1907 Clear 22 1014 28 10000 4.26 94 09:25 20.04.2022
1908 Clouds 20 1015 31 10000 3.78 90 08:22 20.04.2022
1909 Clouds 20 1015 34 10000 3.96 86 08:22 20.04.2022
1910 Clouds 20 1015 34 10000 3.96 86 07:37 20.04.2022
1911 Clouds 14 1024 67 10000 2.06 220 03:49 20.04.2022
1912 Clouds 16 1015 57 10000 1.8 50 00:24 20.04.2022
1913 Clouds 17 1025 59 10000 4.12 50 23:59 19.04.2022
1914 Clouds 18 1026 52 10000 6.17 80 22:28 19.04.2022
1915 Clouds 18 1025 52 10000 5.14 70 21:57 19.04.2022
1916 Clouds 18 1025 52 10000 5.14 70 21:33 19.04.2022
1917 Clouds 19 1025 52 10000 4.12 80 20:48 19.04.2022
1918 Clouds 19 1025 52 10000 4.12 80 20:26 19.04.2022
1919 Clouds 19 1013 45 10000 6.27 98 19:19 19.04.2022
1920 Clouds 20 1012 39 10000 7.54 99 17:51 19.04.2022
1921 Clouds 24 1022 31 10000 7.2 100 16:43 19.04.2022
1922 Clouds 24 1022 31 10000 7.2 100 16:24 19.04.2022
1923 Clouds 25 1022 27 10000 7.2 100 14:51 19.04.2022
1924 Clouds 25 1022 27 10000 7.2 100 14:30 19.04.2022
1925 Clouds 25 1024 23 10000 10.29 90 12:51 19.04.2022
1926 Clouds 25 1024 23 10000 10.29 90 12:26 19.04.2022
1927 Clouds 25 1013 20 10000 4.11 104 10:50 19.04.2022
1928 Clouds 22 1016 28 10000 3.64 82 09:23 19.04.2022
1929 Clouds 17 1026 51 10000 1.03 70 06:30 19.04.2022
1930 Clouds 14 1015 58 10000 1.67 2 03:59 19.04.2022
1931 Clouds 18 1025 72 10000 2.06 100 00:56 19.04.2022
1932 Clouds 19 1025 68 10000 3.09 40 23:38 18.04.2022
1933 Clouds 17 1015 53 10000 2.04 29 21:38 18.04.2022
1934 Clouds 18 1015 51 10000 1.98 58 21:20 18.04.2022
1935 Clouds 18 1015 51 10000 1.98 58 20:36 18.04.2022
1936 Clouds 19 1014 46 10000 2.3 93 19:57 18.04.2022
1937 Clouds 23 1023 56 10000 4.12 80 18:58 18.04.2022
1938 Clouds 19 1013 45 10000 1.94 80 18:32 18.04.2022
1939 Clouds 20 1012 39 10000 2.39 83 17:38 18.04.2022
1940 Clouds 22 1010 34 10000 4.34 102 17:18 18.04.2022
1941 Clouds 22 1010 34 10000 4.34 102 16:34 18.04.2022
1942 Clouds 23 1009 31 10000 4.75 67 15:18 18.04.2022
1943 Clouds 25 1008 24 10000 4.65 111 13:42 18.04.2022
1944 Clouds 25 1008 24 10000 4.61 110 13:42 18.04.2022
1945 Clouds 24 1009 25 10000 5.61 117 12:40 18.04.2022
1946 Clouds 23 1011 31 10000 6.17 80 11:42 18.04.2022
1947 Clouds 22 1026 43 10000 6.17 120 10:42 18.04.2022
1948 Clouds 20 1014 52 10000 5.14 130 09:31 18.04.2022
1949 Clouds 18 1016 55 10000 1.8 115 08:28 18.04.2022
1950 Clouds 15 1025 72 10000 0 0 05:51 18.04.2022
1951 Clouds 15 1014 75 10000 1.03 6 01:34 18.04.2022
1952 Mist 13 1026 82 9000 0 0 22:43 17.04.2022
1953 Clouds 16 1015 75 10000 1.18 351 21:51 17.04.2022
1954 Clouds 16 1015 75 10000 1.18 351 21:32 17.04.2022
1955 Clouds 16 1015 76 10000 0.87 344 20:50 17.04.2022
1956 Clouds 15 1015 75 10000 2.12 297 19:52 17.04.2022
1957 Clouds 15 1015 76 10000 2.49 289 18:32 17.04.2022
1958 Rain 15 1014 79 10000 1.77 341 16:33 17.04.2022
1959 Rain 15 1014 82 10000 3.36 278 15:32 17.04.2022
1960 Rain 18 1012 61 10000 2.21 86 14:27 17.04.2022
1961 Clouds 20 1012 50 10000 3.21 114 13:20 17.04.2022
1962 Clouds 19 1013 50 10000 3.57 117 12:29 17.04.2022
1963 Clouds 20 1013 48 10000 4.09 128 10:47 17.04.2022
1964 Rain 21 1013 44 10000 3.58 132 10:29 17.04.2022
1965 Rain 21 1013 44 10000 3.58 132 09:49 17.04.2022
1966 Rain 20 1014 49 10000 2.91 126 08:54 17.04.2022
1967 Clouds 19 1015 56 10000 2.06 127 08:26 17.04.2022
1968 Clouds 14 1024 72 10000 3.09 270 04:52 17.04.2022
1969 Rain 15 1013 70 10000 1.18 108 01:39 17.04.2022
1970 Clouds 18 1026 68 10000 2.06 160 23:57 16.04.2022
1971 Clouds 18 1026 68 10000 3.09 160 22:41 16.04.2022
1972 Rain 18 1015 61 10000 1.85 102 21:42 16.04.2022
1973 Rain 17 1015 63 10000 0.58 156 20:45 16.04.2022
1974 Clouds 19 1012 43 10000 4.03 77 19:20 16.04.2022
1975 Clouds 19 1012 43 10000 4.03 77 18:32 16.04.2022
1976 Clouds 22 1009 37 10000 4.08 103 16:41 16.04.2022
1977 Clouds 22 1009 37 10000 3.43 79 15:46 16.04.2022
1978 Clouds 23 1008 33 10000 3.03 84 14:57 16.04.2022
1979 Clouds 25 1007 28 10000 2.91 147 13:58 16.04.2022
1980 Clouds 24 1007 28 10000 2.83 148 13:37 16.04.2022
1981 Clouds 25 1007 26 10000 3.28 151 12:33 16.04.2022
1982 Clouds 23 1011 34 10000 3.48 136 11:19 16.04.2022
1983 Clouds 22 1013 41 10000 3.28 137 09:57 16.04.2022
1984 Clouds 21 1014 50 10000 2.66 123 08:59 16.04.2022
1985 Rain 19 1015 57 10000 1.33 97 08:18 16.04.2022
1986 Rain 17 1016 66 10000 0.12 71 06:59 16.04.2022
1987 Clouds 11 1024 50 10000 0.51 220 03:36 16.04.2022
1988 Rain 16 1013 72 10000 0.36 110 00:35 16.04.2022
1989 Clouds 18 1025 82 10000 5.14 130 23:27 15.04.2022
1990 Clouds 19 1025 77 10000 4.12 100 22:37 15.04.2022
1991 Clouds 19 1024 77 10000 3.09 80 21:58 15.04.2022
1992 Clouds 17 1014 66 10000 0.77 83 21:18 15.04.2022
1993 Rain 18 1013 64 10000 3.2 86 20:24 15.04.2022
1994 Clouds 20 1022 77 10000 8.23 40 19:40 15.04.2022
1995 Clouds 20 1022 77 10000 4.12 60 18:54 15.04.2022
1996 Clouds 20 1022 77 10000 4.12 60 18:25 15.04.2022
1997 Clouds 22 1021 64 10000 5.14 60 17:35 15.04.2022
1998 Clouds 23 1020 38 9000 3.09 80 16:53 15.04.2022
1999 Clouds 23 1020 38 9000 3.09 80 16:19 15.04.2022
2000 Clouds 24 1007 32 10000 4.42 98 15:24 15.04.2022
2001 Clouds 26 1006 26 10000 2.18 115 13:42 15.04.2022
2002 Clouds 26 1007 27 10000 0.21 88 12:43 15.04.2022
2003 Clouds 24 1009 30 10000 0.58 95 11:57 15.04.2022
2004 Clouds 24 1009 30 10000 0.58 95 11:35 15.04.2022
2005 Clouds 24 1010 33 10000 2.7 119 10:45 15.04.2022
2006 Clouds 23 1012 37 10000 3.39 122 09:47 15.04.2022
2007 Clouds 21 1013 43 10000 2.87 121 09:21 15.04.2022
2008 Clouds 9 1024 100 10000 0.51 220 07:44 15.04.2022
2009 Clouds 9 1024 100 10000 0 0 06:37 15.04.2022
2010 Clouds 16 1013 65 10000 0.88 74 03:21 15.04.2022
2011 Clouds 18 1024 72 10000 8.23 70 23:32 14.04.2022
2012 Clouds 16 1014 66 10000 2.27 94 22:49 14.04.2022
2013 Clouds 16 1014 66 10000 2.27 94 22:31 14.04.2022
2014 Clouds 17 1014 64 10000 1.53 96 21:59 14.04.2022
2015 Clouds 18 1014 61 10000 0.31 187 20:57 14.04.2022
2016 Rain 18 1013 58 10000 2.76 63 19:23 14.04.2022
2017 Rain 18 1013 58 10000 2.76 63 18:30 14.04.2022
2018 Rain 19 1011 52 10000 4.35 77 17:44 14.04.2022
2019 Clouds 24 1020 33 10000 3.09 90 16:46 14.04.2022
2020 Clouds 24 1020 38 10000 6.17 90 15:26 14.04.2022
2021 Clouds 25 1021 33 10000 6.17 150 13:47 14.04.2022
2022 Clouds 25 1021 33 10000 6.17 150 12:57 14.04.2022
2023 Clouds 22 1009 38 10000 5.46 81 12:31 14.04.2022
2024 Clouds 24 1023 33 10000 6.17 130 11:29 14.04.2022
2025 Clouds 23 1024 38 10000 6.17 80 10:53 14.04.2022
2026 Clouds 23 1024 38 10000 6.17 80 10:27 14.04.2022
2027 Clouds 22 1024 43 10000 6.17 90 09:25 14.04.2022
2028 Clouds 19 1014 46 10000 5.36 95 07:33 14.04.2022
2029 Clouds 9 1023 100 10000 2.06 120 04:28 14.04.2022
2030 Clouds 16 1014 55 10000 2.25 97 23:29 13.04.2022
2031 Clouds 17 1014 54 10000 2.11 61 22:23 13.04.2022
2032 Clouds 17 1014 54 10000 2.11 61 21:37 13.04.2022
2033 Clouds 18 1012 47 10000 2.66 92 20:24 13.04.2022
2034 Clouds 18 1012 47 10000 2.66 92 19:39 13.04.2022
2035 Clouds 18 1012 52 10000 3 91 18:36 13.04.2022
2036 Clouds 21 1020 52 10000 2.57 30 17:24 13.04.2022
2037 Clouds 22 1020 46 10000 2.57 40 16:41 13.04.2022
2038 Clouds 23 1008 32 10000 4.46 100 15:43 13.04.2022
2039 Clouds 25 1020 33 10000 2.57 140 14:53 13.04.2022
2040 Clouds 25 1020 33 10000 2.57 140 14:30 13.04.2022
2041 Clouds 25 1021 33 10000 4.12 70 13:29 13.04.2022
2042 Clouds 25 1008 25 10000 5.07 113 12:30 13.04.2022
2043 Clouds 21 1025 46 10000 3.09 140 10:58 13.04.2022
2044 Clouds 20 1025 45 10000 4.12 100 09:45 13.04.2022
2045 Clouds 19 1025 52 10000 5.14 80 08:43 13.04.2022
2046 Clouds 17 1015 45 10000 0.98 64 07:18 13.04.2022
2047 Clouds 17 1015 45 10000 0.98 64 06:46 13.04.2022
2048 Clouds 15 1015 57 10000 1.47 20 06:18 13.04.2022
2049 Clouds 17 1024 67 10000 3.09 40 00:24 13.04.2022
2050 Clouds 17 1024 72 10000 2.06 100 23:46 12.04.2022
2051 Clouds 18 1025 68 10000 6.17 40 22:19 12.04.2022
2052 Clouds 19 1024 63 10000 4.12 50 21:39 12.04.2022
2053 Clouds 20 1024 60 10000 5.14 60 20:42 12.04.2022
2054 Clouds 20 1023 56 10000 4.12 80 19:54 12.04.2022
2055 Clouds 20 1023 56 10000 4.12 80 19:33 12.04.2022
2056 Clouds 21 1022 52 10000 4.12 60 18:50 12.04.2022
2057 Clouds 22 1021 49 10000 6.17 40 17:34 12.04.2022
2058 Rain 18 1012 59 10000 3.64 61 16:25 12.04.2022
2059 Clouds 22 1021 49 10000 2.06 360 15:33 12.04.2022
2060 Clouds 25 1021 31 10000 2.57 70 14:33 12.04.2022
2061 Clouds 22 1009 38 10000 2.54 71 13:39 12.04.2022
2062 Clouds 22 1010 39 10000 2.48 105 12:59 12.04.2022
2063 Clouds 21 1011 39 10000 3.55 149 11:47 12.04.2022
2064 Clouds 21 1012 38 10000 3.47 148 11:24 12.04.2022
2065 Clouds 20 1014 43 10000 2.5 138 09:25 12.04.2022
2066 Clouds 19 1016 49 10000 2.08 137 08:18 12.04.2022
2067 Clouds 17 1016 58 10000 1.66 128 06:33 12.04.2022
2068 Clouds 15 1016 69 10000 1.14 103 05:36 12.04.2022
2069 Clouds 17 1024 72 10000 1.54 140 01:47 12.04.2022
2070 Rain 15 1016 73 10000 1.38 84 23:19 11.04.2022
2071 Rain 15 1016 70 10000 1.28 96 21:49 11.04.2022
2072 Rain 16 1015 67 10000 1.75 95 21:18 11.04.2022
2073 Rain 16 1015 67 10000 1.75 95 20:30 11.04.2022
2074 Rain 17 1014 62 10000 2.66 108 19:56 11.04.2022
2075 Clouds 18 1013 50 10000 3.15 113 19:21 11.04.2022
2076 Clouds 18 1013 50 10000 3.14 113 18:48 11.04.2022
2077 Clouds 19 1012 47 10000 2.1 59 17:57 11.04.2022
2078 Clouds 20 1011 45 10000 3.34 44 16:57 11.04.2022
2079 Rain 20 1010 45 10000 4.64 45 15:58 11.04.2022
2080 Rain 23 1009 36 10000 5.08 53 14:35 11.04.2022
2081 Clouds 23 1024 46 10000 3.09 110 12:53 11.04.2022
2082 Clouds 23 1024 46 10000 3.09 110 12:35 11.04.2022
2083 Clouds 23 1025 40 10000 3.09 100 11:37 11.04.2022
2084 Clouds 22 1013 35 10000 3.89 110 10:31 11.04.2022
2085 Clouds 21 1015 41 10000 3.71 105 09:20 11.04.2022
2086 Clouds 17 1016 57 10000 2.33 98 06:51 11.04.2022
2087 Clouds 15 1013 63 10000 5.14 90 02:30 11.04.2022
2088 Clouds 18 1025 59 10000 4.12 70 22:38 10.04.2022
2089 Clouds 19 1025 55 10000 4.12 50 21:55 10.04.2022
2090 Clouds 19 1025 55 10000 4.12 50 21:32 10.04.2022
2091 Clouds 20 1024 56 10000 6.17 80 20:31 10.04.2022
2092 Clouds 20 1023 52 10000 6.17 80 19:45 10.04.2022
2093 Clouds 20 1023 52 10000 6.17 80 19:22 10.04.2022
2094 Clouds 17 1014 56 10000 2.08 48 18:43 10.04.2022
2095 Clouds 16 1014 60 10000 4.77 69 17:54 10.04.2022
2096 Clouds 16 1014 60 10000 4.77 69 17:34 10.04.2022
2097 Clouds 25 1007 26 10000 4.43 81 16:22 10.04.2022
2098 Clouds 26 1007 25 10000 1.89 81 15:20 10.04.2022
2099 Clouds 25 1008 26 10000 2.33 54 14:22 10.04.2022
2100 Clouds 25 1023 31 10000 4.12 70 12:34 10.04.2022
2101 Clouds 24 1024 33 10000 3.09 60 11:46 10.04.2022
2102 Clouds 24 1024 33 10000 3.09 60 11:28 10.04.2022
2103 Clouds 23 1025 31 10000 8.23 100 10:48 10.04.2022
2104 Clouds 22 1026 40 10000 8.23 90 09:56 10.04.2022
2105 Clouds 22 1026 40 10000 8.23 90 09:28 10.04.2022
2106 Clouds 19 1015 47 10000 4.07 105 08:22 10.04.2022
2107 Clouds 15 1026 63 10000 2.06 100 07:21 10.04.2022
2108 Clouds 14 1015 58 10000 1.18 31 05:27 10.04.2022
2109 Clouds 15 1014 55 10000 0.87 4 02:21 10.04.2022
2110 Clouds 16 1015 62 10000 0.98 35 00:25 10.04.2022
2111 Clouds 16 1015 62 10000 0.98 35 23:43 09.04.2022
2112 Clouds 16 1016 65 10000 0.79 52 22:45 09.04.2022
2113 Clouds 16 1016 66 10000 0.83 43 21:34 09.04.2022
2114 Clouds 16 1016 65 10000 2.66 82 20:48 09.04.2022
2115 Rain 16 1016 68 10000 4.42 90 20:23 09.04.2022
2116 Clouds 22 1024 40 10000 6.17 80 19:41 09.04.2022
2117 Clouds 23 1024 40 10000 5.18 67 18:54 09.04.2022
2118 Clouds 23 1024 40 10000 3.46 61 18:18 09.04.2022
2119 Clouds 23 1022 40 10000 4.12 90 17:34 09.04.2022
2120 Clouds 24 1021 38 10000 5.14 100 16:47 09.04.2022
2121 Clouds 25 1021 38 10000 6.17 110 15:55 09.04.2022
2122 Clouds 25 1021 38 10000 6.17 110 15:28 09.04.2022
2123 Clouds 26 1007 20 10000 5.72 162 14:27 09.04.2022
2124 Clouds 26 1007 20 10000 5.72 162 14:27 09.04.2022
2125 Clouds 26 1007 21 10000 5.9 159 13:47 09.04.2022
2126 Clear 26 1008 21 10000 5.49 160 12:59 09.04.2022
2127 Clear 25 1010 22 10000 4.94 152 11:56 09.04.2022
2128 Clear 24 1012 25 10000 4.23 142 10:56 09.04.2022
2129 Clear 23 1014 27 10000 4.2 130 10:19 09.04.2022
2130 Clear 23 1014 27 10000 4.25 130 09:37 09.04.2022
2131 Clear 21 1015 31 10000 3.93 120 08:50 09.04.2022
2132 Clear 14 1017 40 10000 1.73 31 05:58 09.04.2022
2133 Clouds 15 1016 37 10000 1.54 65 00:38 09.04.2022
2134 Clouds 16 1016 32 10000 3.07 88 23:25 08.04.2022
2135 Clouds 17 1017 29 10000 3.37 88 21:58 08.04.2022
2136 Clear 17 1017 28 10000 3.16 83 20:47 08.04.2022
2137 Clouds 17 1016 29 10000 2.76 82 19:58 08.04.2022
2138 Clouds 19 1015 27 10000 4.01 94 19:18 08.04.2022
2139 Clouds 20 1014 23 10000 5.26 104 18:25 08.04.2022
2140 Clouds 20 1014 23 10000 5.26 105 17:38 08.04.2022
2141 Clouds 22 1012 20 10000 6.59 115 17:19 08.04.2022
2142 Clouds 22 1012 20 10000 6.59 115 16:38 08.04.2022
2143 Clouds 24 1010 19 10000 7.26 125 15:53 08.04.2022
2144 Clouds 26 1009 17 10000 7.31 129 15:23 08.04.2022
2145 Clouds 26 1010 16 10000 6.38 129 14:26 08.04.2022
2146 Clouds 24 1024 29 10000 7.2 100 13:41 08.04.2022
2147 Clouds 26 1010 17 10000 5.88 122 13:22 08.04.2022
2148 Clouds 22 1026 28 10000 7.72 80 11:53 08.04.2022
2149 Clouds 22 1028 30 10000 10.29 120 10:32 08.04.2022
2150 Clouds 20 1028 56 10000 10.29 120 09:26 08.04.2022
2151 Clouds 16 1028 39 10000 8.23 60 08:30 08.04.2022
2152 Clouds 17 1018 33 10000 2.41 96 06:47 08.04.2022
2153 Clouds 13 1018 43 10000 1.27 11 04:34 08.04.2022
2154 Clouds 14 1016 38 10000 1.82 82 00:42 08.04.2022
2155 Clouds 15 1017 36 10000 1.8 77 00:19 08.04.2022
2156 Clouds 15 1017 34 10000 2.47 77 22:58 07.04.2022
2157 Clouds 15 1017 34 10000 2.46 77 22:37 07.04.2022
2158 Clouds 16 1018 32 10000 3.03 91 22:19 07.04.2022
2159 Clouds 16 1018 32 10000 3.03 91 21:49 07.04.2022
2160 Clouds 16 1018 29 10000 3.43 98 20:58 07.04.2022
2161 Clouds 16 1018 29 10000 3.43 98 20:30 07.04.2022
2162 Clouds 20 1014 28 10000 4.89 113 18:29 07.04.2022
2163 Clouds 22 1013 24 10000 4.8 103 17:25 07.04.2022
2164 Clouds 22 1013 24 10000 4.8 103 16:44 07.04.2022
2165 Clouds 23 1012 23 10000 6.62 107 16:20 07.04.2022
2166 Clouds 24 1011 22 10000 6.92 117 14:36 07.04.2022
2167 Clouds 25 1011 21 10000 6.87 119 13:42 07.04.2022
2168 Clouds 25 1012 21 10000 6.1 115 12:41 07.04.2022
2169 Clouds 23 1015 25 10000 5.23 107 11:29 07.04.2022
2170 Clouds 22 1016 28 10000 5.42 105 09:36 07.04.2022
2171 Clouds 20 1017 31 10000 5.68 104 08:37 07.04.2022
2172 Clouds 20 1017 31 10000 5.68 104 08:37 07.04.2022
2173 Clouds 17 1018 27 10000 3.3 90 06:42 07.04.2022
2174 Clouds 14 1016 38 10000 2.25 11 02:43 07.04.2022
2175 Clear 14 1016 37 10000 2.84 7 02:18 07.04.2022
2176 Clear 15 1016 35 10000 2.45 80 23:57 06.04.2022
2177 Clear 15 1016 34 10000 3.58 99 22:48 06.04.2022
2178 Clear 16 1017 35 10000 2.87 96 22:25 06.04.2022
2179 Clear 16 1017 35 10000 2.87 96 21:32 06.04.2022
2180 Clouds 17 1016 37 10000 4.07 103 20:28 06.04.2022
2181 Clouds 17 1016 37 10000 4.07 103 19:53 06.04.2022
2182 Clouds 18 1015 36 10000 6.16 107 18:51 06.04.2022
2183 Clouds 20 1013 29 10000 6.5 106 17:57 06.04.2022
2184 Clouds 20 1013 29 10000 6.5 106 17:35 06.04.2022
2185 Clouds 22 1011 26 10000 7.37 106 16:36 06.04.2022
2186 Clouds 24 1010 24 10000 7.51 107 15:48 06.04.2022
2187 Clouds 25 1009 21 10000 8.05 111 14:35 06.04.2022
2188 Clear 26 1010 20 10000 7.07 117 13:23 06.04.2022
2189 Clear 26 1011 22 10000 6.6 114 12:22 06.04.2022
2190 Clear 24 1013 24 10000 5.9 112 10:47 06.04.2022
2191 Clear 23 1014 27 10000 5.57 106 10:24 06.04.2022
2192 Clear 23 1014 27 10000 5.57 106 09:40 06.04.2022
2193 Clear 22 1016 31 10000 5.28 100 08:32 06.04.2022
2194 Clear 20 1017 33 10000 4.92 90 07:49 06.04.2022
2195 Clear 14 1017 38 10000 1.75 13 03:53 06.04.2022
2196 Clear 16 1016 33 10000 1.24 64 23:52 05.04.2022
2197 Clouds 18 1027 42 10000 5.14 60 22:31 05.04.2022
2198 Clear 17 1017 28 10000 3.05 72 21:20 05.04.2022
2199 Clouds 18 1016 26 10000 3.75 84 20:25 05.04.2022
2200 Clouds 22 1026 35 10000 14 80 19:42 05.04.2022
2201 Clouds 23 1025 31 10000 8.23 90 18:18 05.04.2022
2202 Clouds 24 1012 19 10000 7.24 108 16:54 05.04.2022
2203 Clouds 25 1010 18 10000 7.15 112 15:56 05.04.2022
2204 Clouds 25 1010 18 10000 7.15 112 15:34 05.04.2022
2205 Clouds 27 1009 17 10000 6.65 116 14:35 05.04.2022
2206 Clouds 27 1009 15 10000 5.72 112 13:21 05.04.2022
2207 Clouds 27 1011 14 10000 4.55 106 11:51 05.04.2022
2208 Clouds 27 1011 14 10000 4.55 106 11:51 05.04.2022
2209 Clouds 27 1011 14 10000 4.55 106 11:32 05.04.2022
2210 Clouds 24 1014 21 10000 3.87 106 09:55 05.04.2022
2211 Clouds 22 1016 26 10000 4.35 103 08:52 05.04.2022
2212 Clouds 18 1017 35 10000 3.58 95 06:58 05.04.2022
2213 Clouds 17 1015 40 10000 0.92 28 01:55 05.04.2022
2214 Clouds 16 1016 43 10000 1.63 87 22:42 04.04.2022
2215 Clouds 18 1016 41 10000 2.29 95 22:24 04.04.2022
2216 Clouds 19 1016 39 10000 2.66 95 21:21 04.04.2022
2217 Clouds 19 1016 39 10000 2.66 95 20:49 04.04.2022
2218 Clouds 18 1016 41 10000 2.94 100 19:57 04.04.2022
2219 Clouds 19 1015 36 10000 4.14 100 19:26 04.04.2022
2220 Clouds 19 1015 36 10000 4.13 99 18:33 04.04.2022
2221 Rain 20 1013 39 10000 3.77 153 16:36 04.04.2022
2222 Clouds 22 1011 34 10000 2.81 156 15:47 04.04.2022
2223 Clouds 23 1010 31 10000 3.28 147 15:29 04.04.2022
2224 Clouds 23 1010 31 10000 3.28 147 14:46 04.04.2022
2225 Clouds 24 1010 27 10000 3.15 150 13:31 04.04.2022
2226 Clouds 23 1012 30 10000 5.31 119 11:56 04.04.2022
2227 Clouds 24 1013 27 10000 2.62 117 11:29 04.04.2022
2228 Clouds 21 1016 35 10000 3.04 94 09:18 04.04.2022
2229 Clouds 14 1016 58 10000 1.37 33 05:21 04.04.2022
2230 Clouds 16 1015 51 10000 2.64 88 01:36 04.04.2022
2231 Clouds 16 1017 54 10000 2.9 73 22:45 03.04.2022
2232 Clouds 16 1017 51 10000 3.35 96 21:47 03.04.2022
2233 Clouds 17 1016 45 10000 4.09 94 20:57 03.04.2022
2234 Clouds 18 1015 43 10000 4.55 95 19:51 03.04.2022
2235 Clouds 19 1014 42 10000 4.9 99 18:33 03.04.2022
2236 Clouds 20 1012 35 10000 5.49 98 17:48 03.04.2022
2237 Clouds 22 1010 32 10000 4.74 99 17:21 03.04.2022
2238 Clouds 22 1010 32 10000 4.74 99 16:42 03.04.2022
2239 Clouds 25 1008 26 10000 6.21 110 15:18 03.04.2022
2240 Clouds 26 1008 24 10000 6.9 122 13:57 03.04.2022
2241 Clouds 26 1009 24 10000 6.42 121 12:48 03.04.2022
2242 Clouds 25 1011 26 10000 6.15 115 11:33 03.04.2022
2243 Clouds 22 1014 36 10000 5.5 104 09:40 03.04.2022
2244 Clouds 20 1016 43 10000 5.2 97 08:50 03.04.2022
2245 Clouds 14 1017 71 10000 2.19 73 05:42 03.04.2022
2246 Clouds 14 1016 73 10000 2.76 64 02:54 03.04.2022
2247 Clouds 15 1017 64 10000 2.9 80 23:22 02.04.2022
2248 Clouds 15 1017 64 10000 2.9 80 23:22 02.04.2022
2249 Clouds 15 1017 64 10000 2.9 80 22:40 02.04.2022
2250 Clouds 16 1017 61 10000 3.05 83 21:54 02.04.2022
2251 Clouds 16 1017 59 10000 3.41 83 21:19 02.04.2022
2252 Clouds 16 1017 59 10000 3.41 83 20:35 02.04.2022
2253 Clouds 17 1015 56 10000 4.96 87 18:45 02.04.2022
2254 Clouds 19 1013 44 10000 7.1 103 18:18 02.04.2022
2255 Clouds 22 1011 35 10000 7.52 107 16:39 02.04.2022
2256 Clouds 25 1009 27 10000 7.53 113 15:23 02.04.2022
2257 Clouds 25 1009 27 10000 7.53 113 14:52 02.04.2022
2258 Clouds 25 1009 25 10000 7.44 116 14:20 02.04.2022
2259 Clouds 25 1010 25 10000 4.93 110 13:29 02.04.2022
2260 Clouds 23 1012 31 10000 4.53 100 11:56 02.04.2022
2261 Clouds 22 1015 37 10000 6.47 106 09:57 02.04.2022
2262 Clouds 18 1017 47 10000 5.19 105 07:48 02.04.2022
2263 Clouds 14 1016 54 10000 2.3 73 04:25 02.04.2022
2264 Clouds 15 1016 49 10000 1.76 66 01:21 02.04.2022
2265 Clouds 16 1017 47 10000 1.43 50 23:54 01.04.2022
2266 Clouds 16 1017 44 10000 3.18 90 22:46 01.04.2022
2267 Clouds 17 1017 39 10000 3.71 83 20:55 01.04.2022
2268 Clouds 17 1017 39 10000 3.71 83 20:35 01.04.2022
2269 Clouds 18 1016 34 10000 3.47 96 19:41 01.04.2022
2270 Clouds 19 1015 34 10000 3.43 95 19:23 01.04.2022
2271 Clouds 19 1015 34 10000 3.43 95 18:37 01.04.2022
2272 Clouds 20 1014 31 10000 4.39 97 17:38 01.04.2022
2273 Clouds 24 1010 25 10000 6.31 116 15:46 01.04.2022
2274 Clouds 24 1010 25 10000 6.31 116 15:46 01.04.2022
2275 Clouds 25 1009 23 10000 6.81 131 14:53 01.04.2022
2276 Clouds 26 1009 22 10000 6.33 140 13:39 01.04.2022
2277 Clouds 25 1010 22 10000 5.83 142 13:20 01.04.2022
2278 Clouds 24 1012 24 10000 5.13 135 12:24 01.04.2022
2279 Clouds 23 1014 26 10000 5.05 124 10:50 01.04.2022
2280 Clouds 22 1016 29 10000 5.31 114 09:39 01.04.2022
2281 Clouds 19 1017 28 10000 3.97 99 07:31 01.04.2022
2282 Clouds 13 1018 37 10000 1.47 88 05:38 01.04.2022
2283 Clouds 13 1017 37 10000 1.45 112 04:41 01.04.2022
2284 Clear 13 1016 35 10000 0.74 53 03:18 01.04.2022
2285 Clouds 13 1016 36 10000 1.02 72 01:34 01.04.2022
2286 Clear 15 1017 33 10000 2.26 102 22:31 31.03.2022
2287 Clouds 15 1017 32 10000 2.91 93 21:40 31.03.2022
2288 Clouds 16 1017 32 10000 2.6 90 20:51 31.03.2022
2289 Clouds 16 1017 31 10000 2.24 91 20:28 31.03.2022
2290 Clouds 17 1016 29 10000 2.94 90 19:29 31.03.2022
2291 Clouds 17 1016 29 10000 2.94 90 18:33 31.03.2022
2292 Clouds 21 1012 24 10000 6.31 113 16:47 31.03.2022
2293 Clouds 23 1010 22 10000 6.49 129 15:55 31.03.2022
2294 Clouds 25 1009 21 10000 6.33 142 15:26 31.03.2022
2295 Clouds 25 1009 21 10000 6.33 142 14:45 31.03.2022
2296 Clouds 25 1010 22 10000 4.95 153 13:28 31.03.2022
2297 Clear 24 1012 23 10000 4.31 142 11:31 31.03.2022
2298 Clear 21 1015 26 10000 4.91 121 10:26 31.03.2022
2299 Clear 21 1015 26 10000 4.91 121 09:39 31.03.2022
2300 Clouds 18 1017 32 10000 4.73 110 07:48 31.03.2022
2301 Clear 13 1015 41 10000 1.43 116 02:33 31.03.2022
2302 Clear 14 1016 36 10000 1.89 106 23:24 30.03.2022
2303 Clear 15 1017 34 10000 1.96 99 21:55 30.03.2022
2304 Clear 15 1017 34 10000 1.96 99 21:30 30.03.2022
2305 Clear 15 1017 34 10000 2.21 89 20:37 30.03.2022
2306 Clouds 16 1016 32 10000 2.75 88 19:47 30.03.2022
2307 Clouds 17 1015 31 10000 3.26 93 18:41 30.03.2022
2308 Clouds 18 1014 28 10000 5.48 105 17:51 30.03.2022
2309 Clouds 21 1012 24 10000 6.45 115 17:20 30.03.2022
2310 Clouds 21 1012 24 10000 6.45 115 16:40 30.03.2022
2311 Clouds 23 1009 21 10000 6.38 128 15:55 30.03.2022
2312 Clear 25 1008 20 10000 5.69 141 14:35 30.03.2022
2313 Clouds 24 1010 21 10000 4.61 151 13:21 30.03.2022
2314 Clouds 23 1012 22 10000 3.93 147 12:22 30.03.2022
2315 Clouds 22 1014 23 10000 4.21 134 10:48 30.03.2022
2316 Clouds 21 1016 25 10000 4.23 131 09:43 30.03.2022
2317 Clouds 17 1018 32 10000 2.85 114 08:20 30.03.2022
2318 Clouds 14 1019 40 10000 1.54 113 06:50 30.03.2022
2319 Clouds 12 1019 45 10000 0.92 118 05:40 30.03.2022
2320 Clouds 12 1016 42 10000 0.73 146 01:48 30.03.2022
2321 Clouds 14 1017 39 10000 1.45 100 22:39 29.03.2022
2322 Clouds 14 1018 38 10000 2.04 97 21:48 29.03.2022
2323 Clouds 14 1018 37 10000 2.46 95 21:20 29.03.2022
2324 Clouds 15 1017 36 10000 3.08 94 20:25 29.03.2022
2325 Clouds 15 1017 36 10000 3.08 94 19:31 29.03.2022
2326 Clouds 16 1016 35 10000 3.25 102 18:53 29.03.2022
2327 Clouds 17 1015 32 10000 4.76 105 17:48 29.03.2022
2328 Clouds 20 1013 27 10000 6.01 111 17:18 29.03.2022
2329 Clouds 20 1013 27 10000 6.01 111 16:52 29.03.2022
2330 Clouds 23 1010 23 10000 5.41 135 15:20 29.03.2022
2331 Clouds 23 1010 23 10000 5.41 135 14:43 29.03.2022
2332 Clouds 24 1010 20 10000 5.23 153 13:34 29.03.2022
2333 Clouds 23 1012 21 10000 4.86 135 12:21 29.03.2022
2334 Clouds 22 1014 22 10000 5.03 126 10:59 29.03.2022
2335 Clouds 21 1015 23 10000 4.79 127 09:51 29.03.2022
2336 Clouds 19 1017 26 10000 4.1 124 08:43 29.03.2022
2337 Clouds 12 1018 39 10000 1.42 110 06:21 29.03.2022
2338 Clouds 13 1016 37 10000 0.21 17 02:19 29.03.2022
2339 Clear 14 1017 36 10000 1.14 106 23:26 28.03.2022
2340 Clear 14 1017 36 10000 1.14 105 23:26 28.03.2022
2341 Clear 14 1017 36 10000 1.14 105 22:56 28.03.2022
2342 Clear 14 1017 36 10000 1.14 105 22:31 28.03.2022
2343 Clear 14 1018 36 10000 2.22 85 21:38 28.03.2022
2344 Clear 15 1018 35 10000 2.76 78 20:32 28.03.2022
2345 Clouds 15 1018 36 10000 2.66 78 20:32 28.03.2022
2346 Clouds 15 1018 35 10000 3.21 83 19:48 28.03.2022
2347 Clouds 15 1018 35 10000 3.21 83 19:30 28.03.2022
2348 Clouds 16 1017 34 10000 4.42 102 18:44 28.03.2022
2349 Clouds 18 1016 33 10000 5.94 114 17:41 28.03.2022
2350 Clouds 20 1013 30 10000 6.57 114 16:47 28.03.2022
2351 Clouds 23 1011 26 10000 5.68 124 14:53 28.03.2022
2352 Clouds 24 1011 24 10000 5.47 135 14:23 28.03.2022
2353 Clouds 24 1011 24 10000 5.1 145 12:51 28.03.2022
2354 Clouds 23 1013 26 10000 4.46 150 11:42 28.03.2022
2355 Clouds 20 1017 36 10000 2.75 149 09:47 28.03.2022
2356 Clouds 18 1019 45 10000 2.47 154 09:20 28.03.2022
2357 Clouds 16 1020 55 10000 2.21 161 08:23 28.03.2022
2358 Clouds 16 1019 54 10000 2.57 156 07:56 28.03.2022
2359 Clouds 12 1019 67 10000 0.9 190 05:55 28.03.2022
2360 Clouds 14 1017 57 10000 2.32 96 23:53 27.03.2022
2361 Clear 15 1018 49 10000 2.57 101 22:25 27.03.2022
2362 Clear 15 1018 49 10000 2.56 101 21:42 27.03.2022
2363 Clear 16 1018 48 10000 2.6 81 20:58 27.03.2022
2364 Clouds 16 1017 52 10000 2.86 95 20:18 27.03.2022
2365 Clouds 16 1017 52 10000 2.86 95 19:34 27.03.2022
2366 Clouds 18 1015 42 10000 6.03 106 18:29 27.03.2022
2367 Clouds 18 1015 42 10000 6.03 106 17:55 27.03.2022
2368 Clouds 18 1015 42 10000 6.03 106 17:35 27.03.2022
2369 Clouds 23 1011 26 10000 7.47 112 15:46 27.03.2022
2370 Clouds 25 1011 20 10000 6.14 114 13:57 27.03.2022
2371 Clouds 24 1011 20 10000 6.14 111 12:50 27.03.2022
2372 Clear 24 1013 22 10000 5.55 107 11:30 27.03.2022
2373 Clear 21 1016 30 10000 5.39 108 09:37 27.03.2022
2374 Clear 15 1019 61 10000 1.16 101 06:54 27.03.2022
2375 Clear 12 1017 78 10000 0.95 62 01:55 27.03.2022
2376 Clouds 13 1017 75 10000 0.56 110 00:25 27.03.2022
2377 Clouds 13 1017 74 10000 1.03 123 22:45 26.03.2022
2378 Clouds 14 1018 70 10000 1.45 117 21:50 26.03.2022
2379 Clouds 14 1018 66 10000 2.01 109 21:28 26.03.2022
2380 Clouds 15 1018 62 10000 2.59 105 19:31 26.03.2022
2381 Clouds 16 1016 54 10000 2.69 101 18:25 26.03.2022
2382 Clouds 16 1016 54 10000 2.69 101 17:33 26.03.2022
2383 Clouds 18 1015 49 10000 4.48 105 16:30 26.03.2022
2384 Clouds 20 1013 40 10000 6.65 104 15:35 26.03.2022
2385 Clouds 23 1010 31 10000 7.18 103 13:55 26.03.2022
2386 Clouds 24 1010 30 10000 6.17 106 13:19 26.03.2022
2387 Clouds 21 1012 43 10000 4.56 130 11:42 26.03.2022
2388 Clouds 21 1012 41 10000 4.28 137 10:32 26.03.2022
2389 Clear 20 1015 48 10000 3.69 122 08:44 26.03.2022
2390 Clouds 17 1017 64 10000 2.67 133 06:30 26.03.2022
2391 Clouds 13 1018 83 10000 1.28 104 05:29 26.03.2022
2392 Clouds 13 1016 81 10000 1.2 149 00:41 26.03.2022
2393 Clouds 15 1017 76 10000 1.33 178 21:56 25.03.2022
2394 Clouds 15 1017 75 10000 0.99 147 20:46 25.03.2022
2395 Clouds 15 1017 73 10000 1.82 105 20:20 25.03.2022
2396 Clouds 16 1016 71 10000 2.31 101 18:51 25.03.2022
2397 Clouds 16 1015 66 10000 2.72 116 17:53 25.03.2022
2398 Clouds 17 1014 59 10000 3.16 116 17:27 25.03.2022
2399 Clouds 20 1012 49 10000 4.89 109 16:19 25.03.2022
2400 Clouds 21 1011 44 10000 5.23 110 14:54 25.03.2022
2401 Clouds 23 1010 35 10000 5.46 119 13:26 25.03.2022
2402 Clouds 25 1011 29 10000 4.64 133 10:35 25.03.2022
2403 Clouds 21 1015 43 10000 3.42 141 09:28 25.03.2022
2404 Clear 19 1016 51 10000 2.99 136 08:24 25.03.2022
2405 Clear 19 1016 51 10000 2.99 136 07:30 25.03.2022
2406 Clouds 16 1017 69 10000 0.91 139 06:29 25.03.2022
2407 Clouds 16 1017 69 10000 0.91 139 06:29 25.03.2022
2408 Clouds 13 1016 81 10000 0.93 263 01:32 25.03.2022
2409 Clouds 14 1017 79 10000 1.27 316 22:55 24.03.2022
2410 Rain 14 1017 80 10000 1.05 337 21:52 24.03.2022
2411 Rain 14 1018 81 10000 1.18 23 20:40 24.03.2022
2412 Rain 15 1017 79 10000 1.65 60 19:48 24.03.2022
2413 Rain 16 1016 71 10000 1.88 99 17:50 24.03.2022
2414 Rain 17 1015 62 10000 1.59 116 17:23 24.03.2022
2415 Rain 18 1014 59 10000 1.41 134 15:52 24.03.2022
2416 Rain 19 1013 54 10000 0.52 167 14:50 24.03.2022
2417 Rain 16 1014 65 10000 1.58 303 14:20 24.03.2022
2418 Clouds 19 1014 46 10000 4.09 62 13:24 24.03.2022
2419 Clouds 19 1015 46 10000 4.91 57 11:52 24.03.2022
2420 Rain 21 1016 46 10000 4.7 106 10:18 24.03.2022
2421 Rain 19 1017 51 10000 3.67 108 08:49 24.03.2022
2422 Rain 18 1017 57 10000 2.51 126 06:55 24.03.2022
2423 Clouds 14 1017 73 10000 0.62 125 03:59 24.03.2022
2424 Rain 14 1018 76 10000 0.74 62 23:20 23.03.2022
2425 Rain 15 1019 77 10000 1.09 103 21:45 23.03.2022
2426 Rain 15 1019 75 10000 1.65 140 21:20 23.03.2022
2427 Rain 16 1018 72 10000 2.18 138 19:46 23.03.2022
2428 Rain 16 1017 68 10000 1.67 191 18:59 23.03.2022
2429 Rain 17 1017 65 10000 0.8 295 17:38 23.03.2022
2430 Rain 17 1016 62 10000 1.06 342 16:50 23.03.2022
2431 Rain 18 1014 56 10000 1.04 20 14:52 23.03.2022
2432 Rain 18 1014 56 10000 1.04 20 14:32 23.03.2022
2433 Rain 18 1015 57 10000 1.95 19 13:21 23.03.2022
2434 Clouds 20 1016 44 10000 1.42 119 10:20 23.03.2022
2435 Clouds 17 1018 57 10000 0.94 197 06:55 23.03.2022
2436 Clouds 16 1017 63 10000 0.67 296 05:27 23.03.2022
2437 Clouds 16 1015 58 10000 0.1 20 00:35 23.03.2022
2438 Clouds 17 1015 56 10000 1.15 103 23:41 22.03.2022
2439 Clouds 17 1016 58 10000 1.41 32 21:30 22.03.2022
2440 Clouds 17 1017 59 10000 1.28 31 20:49 22.03.2022
2441 Clouds 17 1016 59 10000 1.17 160 19:51 22.03.2022
2442 Clouds 17 1016 58 10000 0.93 115 19:24 22.03.2022
2443 Clouds 18 1016 53 10000 0.87 73 18:45 22.03.2022
2444 Clouds 18 1015 55 10000 1.63 62 17:38 22.03.2022
2445 Clouds 19 1013 51 10000 2.22 36 16:28 22.03.2022
2446 Clouds 19 1012 48 10000 1.87 21 15:23 22.03.2022
2447 Clouds 19 1012 48 10000 1.87 21 14:57 22.03.2022
2448 Clouds 19 1012 48 10000 1.87 21 14:38 22.03.2022
2449 Clouds 20 1012 45 10000 2.16 43 13:36 22.03.2022
2450 Clouds 22 1011 38 10000 3.66 106 11:52 22.03.2022
2451 Clouds 23 1011 36 10000 2.88 144 10:46 22.03.2022
2452 Clouds 19 1015 48 10000 1.12 142 08:38 22.03.2022
2453 Clouds 17 1016 54 10000 2.26 132 06:53 22.03.2022
2454 Clouds 16 1015 63 10000 0.32 200 03:52 22.03.2022
2455 Clouds 15 1015 68 10000 1.69 278 00:29 22.03.2022
2456 Clouds 15 1015 67 10000 1.14 316 22:42 21.03.2022
2457 Clouds 16 1017 65 10000 1.31 341 21:18 21.03.2022
2458 Clouds 16 1017 65 10000 1.31 341 21:18 21.03.2022
2459 Clouds 16 1017 65 10000 1.31 341 20:41 21.03.2022
2460 Clouds 16 1017 64 10000 1.22 24 19:59 21.03.2022
2461 Rain 16 1017 69 10000 0.74 130 19:34 21.03.2022
2462 Rain 17 1016 64 10000 1.6 94 18:36 21.03.2022
2463 Clouds 20 1012 44 10000 1.13 100 17:19 21.03.2022
2464 Clouds 20 1012 44 10000 1.13 100 16:51 21.03.2022
2465 Clouds 22 1010 36 10000 1.5 137 16:00 21.03.2022
2466 Clouds 23 1009 32 10000 0.56 107 15:21 21.03.2022
2467 Clouds 23 1009 31 10000 1.6 45 14:28 21.03.2022
2468 Clouds 22 1010 35 10000 0.89 245 12:43 21.03.2022
2469 Clouds 21 1011 38 10000 0.9 299 11:54 21.03.2022
2470 Clouds 20 1013 41 10000 1.65 21 10:45 21.03.2022
2471 Clouds 18 1015 50 10000 2.65 68 08:56 21.03.2022
2472 Clouds 19 1015 49 10000 2.16 133 06:57 21.03.2022
2473 Clouds 16 1014 62 10000 0.7 207 02:55 21.03.2022
2474 Clouds 16 1014 59 10000 1.24 341 00:35 21.03.2022
2475 Clouds 15 1015 58 10000 1.08 353 22:55 20.03.2022
2476 Clouds 16 1015 57 10000 1.59 32 21:57 20.03.2022
2477 Clouds 16 1016 55 10000 1.32 46 21:29 20.03.2022
2478 Clouds 16 1016 55 10000 1.32 46 20:45 20.03.2022
2479 Clouds 17 1015 54 10000 0.65 109 19:59 20.03.2022
2480 Clouds 17 1015 54 10000 0.65 109 19:38 20.03.2022
2481 Clouds 18 1015 49 10000 1.36 147 18:40 20.03.2022
2482 Clouds 18 1014 47 10000 1.59 9 17:35 20.03.2022
2483 Clouds 19 1013 43 10000 2.33 6 16:57 20.03.2022
2484 Clouds 20 1012 41 10000 1.46 350 15:43 20.03.2022
2485 Clouds 20 1012 40 10000 1.35 263 14:35 20.03.2022
2486 Clouds 21 1011 37 10000 0.72 46 13:18 20.03.2022
2487 Clouds 21 1011 36 10000 2.69 112 11:32 20.03.2022
2488 Clouds 21 1014 37 10000 3.78 165 09:39 20.03.2022
2489 Clouds 18 1017 47 10000 2.9 149 07:49 20.03.2022
2490 Clouds 17 1017 53 10000 1.73 143 05:48 20.03.2022
2491 Clouds 16 1015 55 10000 0.65 93 02:45 20.03.2022
2492 Clouds 16 1015 54 10000 1.03 37 00:47 20.03.2022
2493 Clouds 17 1016 52 10000 1.39 75 23:20 19.03.2022
2494 Clouds 17 1016 50 10000 1.75 77 21:32 19.03.2022
2495 Clouds 17 1017 49 10000 1.32 77 20:58 19.03.2022
2496 Clouds 17 1016 49 10000 1.69 48 18:59 19.03.2022
2497 Clouds 18 1016 49 10000 2.31 68 18:25 19.03.2022
2498 Clouds 18 1016 49 10000 2.31 68 17:40 19.03.2022
2499 Clouds 19 1014 45 10000 2.6 74 16:24 19.03.2022
2500 Clouds 19 1013 45 10000 3.05 55 15:19 19.03.2022
2501 Clouds 20 1013 41 10000 2.65 76 13:20 19.03.2022
2502 Clouds 20 1013 41 10000 2.65 76 12:41 19.03.2022
2503 Clouds 20 1013 41 10000 3.16 100 11:54 19.03.2022
2504 Clouds 20 1014 43 10000 3.71 106 11:25 19.03.2022
2505 Rain 18 1017 51 10000 4.27 130 07:59 19.03.2022
2506 Rain 15 1016 70 10000 1.7 95 03:53 19.03.2022
2507 Rain 15 1016 71 10000 1.3 86 02:30 19.03.2022
2508 Rain 14 1016 73 10000 1.44 100 23:46 18.03.2022
2509 Clouds 15 1017 67 10000 2.21 98 22:29 18.03.2022
2510 Clouds 15 1017 67 10000 2.21 98 21:55 18.03.2022
2511 Clouds 16 1017 60 10000 1.71 90 19:54 18.03.2022
2512 Clouds 16 1017 60 10000 2.35 77 19:22 18.03.2022
2513 Clouds 17 1016 55 10000 2.93 81 18:27 18.03.2022
2514 Clouds 18 1015 50 10000 4 91 16:52 18.03.2022
2515 Clouds 21 1013 39 10000 4.94 96 15:43 18.03.2022
2516 Clouds 21 1013 39 10000 4.94 96 15:43 18.03.2022
2517 Clouds 21 1012 37 10000 4.27 103 14:24 18.03.2022
2518 Clouds 22 1011 34 10000 2.79 118 12:39 18.03.2022
2519 Clouds 21 1013 37 10000 3.33 136 11:21 18.03.2022
2520 Clouds 21 1014 37 10000 4.46 132 09:34 18.03.2022
2521 Clouds 21 1015 39 10000 4.81 131 08:42 18.03.2022
2522 Clouds 18 1017 51 10000 3.83 113 06:40 18.03.2022
2523 Clouds 13 1016 78 10000 1.28 109 03:30 18.03.2022
2524 Clouds 14 1015 66 10000 0.76 164 00:53 18.03.2022
2525 Clouds 16 1014 59 10000 1.28 116 23:44 17.03.2022
2526 Clouds 16 1016 58 10000 1.82 107 22:25 17.03.2022
2527 Clouds 16 1016 58 10000 1.82 107 21:51 17.03.2022
2528 Clouds 16 1016 57 10000 2.04 101 21:27 17.03.2022
2529 Clouds 16 1016 57 10000 2.04 101 20:51 17.03.2022
2530 Clouds 16 1016 58 10000 2.61 96 19:53 17.03.2022
2531 Clouds 16 1016 58 10000 2.61 96 19:33 17.03.2022
2532 Clouds 17 1015 54 10000 3.11 95 18:51 17.03.2022
2533 Clouds 19 1012 39 10000 4.7 99 17:26 17.03.2022
2534 Clouds 22 1011 31 10000 5.71 105 15:52 17.03.2022
2535 Clouds 22 1011 31 10000 5.71 105 15:33 17.03.2022
2536 Clouds 23 1009 28 10000 5.03 113 14:48 17.03.2022
2537 Clouds 22 1010 32 10000 3.74 96 12:59 17.03.2022
2538 Clouds 22 1010 32 10000 3.72 97 12:37 17.03.2022
2539 Clouds 22 1011 31 10000 4.49 129 11:30 17.03.2022
2540 Clouds 23 1011 30 10000 5.24 144 10:34 17.03.2022
2541 Clear 21 1014 36 10000 3.72 141 08:41 17.03.2022
2542 Clear 19 1016 43 10000 3.35 138 07:52 17.03.2022
2543 Clouds 15 1017 60 10000 1.71 120 05:48 17.03.2022
2544 Clouds 13 1015 70 10000 0.74 112 03:41 17.03.2022
2545 Clouds 14 1014 62 10000 2.18 152 23:57 16.03.2022
2546 Clouds 16 1014 56 10000 2.49 163 22:51 16.03.2022
2547 Clouds 16 1014 56 10000 2.49 163 22:33 16.03.2022
2548 Clouds 16 1014 54 10000 1.45 148 21:46 16.03.2022
2549 Clouds 17 1014 47 10000 2.5 93 20:28 16.03.2022
2550 Clouds 18 1013 44 10000 2.94 89 19:22 16.03.2022
2551 Clouds 18 1013 46 10000 2.87 97 18:40 16.03.2022
2552 Clouds 19 1012 42 10000 3.35 80 17:43 16.03.2022
2553 Clouds 21 1010 36 10000 5.25 89 17:25 16.03.2022
2554 Clouds 23 1009 28 10000 4.26 110 15:56 16.03.2022
2555 Clouds 25 1007 23 10000 4.95 146 14:31 16.03.2022
2556 Clouds 25 1007 21 10000 5.24 159 13:32 16.03.2022
2557 Clouds 26 1008 20 10000 4.51 157 11:58 16.03.2022
2558 Clouds 25 1010 21 10000 4.23 148 11:21 16.03.2022
2559 Clouds 23 1012 24 10000 4.01 137 10:27 16.03.2022
2560 Clouds 23 1012 24 10000 4.01 137 09:42 16.03.2022
2561 Clouds 16 1017 44 10000 1.06 104 06:27 16.03.2022
2562 Clear 13 1015 51 10000 0.92 215 01:56 16.03.2022
2563 Clouds 15 1015 46 10000 0.83 129 22:44 15.03.2022
2564 Clouds 16 1015 44 10000 1.34 131 22:18 15.03.2022
2565 Clouds 17 1016 41 10000 1.01 165 20:33 15.03.2022
2566 Clouds 17 1015 40 10000 2.91 97 18:58 15.03.2022
2567 Clouds 19 1013 36 10000 4.48 91 17:24 15.03.2022
2568 Clouds 19 1013 36 10000 4.48 91 16:32 15.03.2022
2569 Clouds 24 1008 23 10000 6.24 142 15:21 15.03.2022
2570 Clouds 24 1008 23 10000 6.23 142 15:21 15.03.2022
2571 Clouds 24 1008 23 10000 6.24 142 14:40 15.03.2022
2572 Clouds 26 1008 20 10000 6.36 155 13:46 15.03.2022
2573 Clouds 25 1010 22 10000 4.71 158 12:24 15.03.2022
2574 Clouds 25 1010 22 10000 4.71 158 11:31 15.03.2022
2575 Clear 23 1013 27 10000 4.4 144 09:45 15.03.2022
2576 Clear 21 1015 30 10000 3.93 131 08:42 15.03.2022
2577 Clear 20 1016 33 10000 3.62 124 07:51 15.03.2022
2578 Clear 20 1016 33 10000 3.62 124 07:32 15.03.2022
2579 Clouds 13 1017 54 10000 0.57 231 03:41 15.03.2022
2580 Clouds 14 1016 56 10000 0.63 264 23:44 14.03.2022
2581 Clouds 14 1016 55 10000 0.7 86 23:23 14.03.2022
2582 Clouds 15 1016 54 10000 2.12 105 22:26 14.03.2022
2583 Clouds 15 1016 54 10000 2.12 105 21:30 14.03.2022
2584 Clouds 15 1017 53 10000 2.75 116 20:41 14.03.2022
2585 Clouds 16 1016 53 10000 2.74 113 20:19 14.03.2022
2586 Clouds 17 1016 45 10000 2.65 101 18:42 14.03.2022
2587 Clouds 17 1015 42 10000 2.87 102 17:54 14.03.2022
2588 Clouds 19 1013 38 10000 5.52 105 16:58 14.03.2022
2589 Clouds 21 1011 32 10000 6.87 108 15:43 14.03.2022
2590 Clouds 24 1009 25 10000 7.01 123 14:40 14.03.2022
2591 Clouds 26 1009 18 10000 5.24 147 12:22 14.03.2022
2592 Clouds 25 1011 20 10000 4.45 140 10:51 14.03.2022
2593 Clouds 23 1013 22 10000 4.2 131 09:44 14.03.2022
2594 Clouds 22 1015 27 10000 4.22 126 09:21 14.03.2022
2595 Clouds 22 1015 27 10000 4.22 126 08:55 14.03.2022
2596 Clouds 18 1017 35 10000 3.6 124 07:28 14.03.2022
2597 Clouds 16 1017 42 10000 1.98 116 05:44 14.03.2022
2598 Clouds 13 1015 54 10000 0.71 288 01:52 14.03.2022
2599 Clouds 14 1015 54 10000 0.34 1 01:24 14.03.2022
2600 Clouds 14 1015 49 10000 1.22 100 22:43 13.03.2022
2601 Clouds 15 1015 45 10000 2.36 116 21:29 13.03.2022
2602 Clouds 16 1015 45 10000 2.37 115 20:55 13.03.2022
2603 Clouds 16 1015 45 10000 2.37 115 20:30 13.03.2022
2604 Clouds 16 1015 43 10000 2.47 110 19:49 13.03.2022
2605 Clouds 17 1014 41 10000 2.76 104 19:27 13.03.2022
2606 Clouds 17 1014 41 10000 2.76 104 18:59 13.03.2022
2607 Clouds 17 1014 42 10000 2.8 103 18:31 13.03.2022
2608 Clouds 18 1013 40 10000 3.09 97 17:40 13.03.2022
2609 Clouds 19 1012 36 10000 5.5 101 16:57 13.03.2022
2610 Clouds 22 1009 31 10000 7.25 110 16:29 13.03.2022
2611 Clouds 22 1009 31 10000 7.25 110 15:44 13.03.2022
2612 Clouds 25 1007 24 10000 7.4 127 14:51 13.03.2022
2613 Clouds 26 1006 19 10000 6.14 147 13:33 13.03.2022
2614 Clouds 27 1006 18 10000 5.18 154 12:37 13.03.2022
2615 Clouds 26 1008 19 10000 4.52 152 11:51 13.03.2022
2616 Clouds 26 1008 19 10000 4.52 152 11:31 13.03.2022
2617 Clouds 26 1008 19 10000 4.52 152 11:31 13.03.2022
2618 Clouds 25 1009 22 10000 3.86 147 10:46 13.03.2022
2619 Clouds 23 1011 25 10000 3.79 138 09:59 13.03.2022
2620 Clouds 23 1011 25 10000 3.79 138 09:40 13.03.2022
2621 Clouds 22 1013 30 10000 3.85 130 08:45 13.03.2022
2622 Clouds 20 1014 36 10000 3.78 124 07:40 13.03.2022
2623 Clouds 16 1016 46 10000 1.51 141 05:40 13.03.2022
2624 Clouds 14 1014 53 10000 0.57 168 02:39 13.03.2022
2625 Clouds 15 1013 51 10000 2.01 45 23:33 12.03.2022
2626 Clouds 16 1014 50 10000 2.36 83 21:53 12.03.2022
2627 Clouds 18 1013 45 10000 2.82 109 20:29 12.03.2022
2628 Clouds 18 1013 45 10000 2.82 109 19:47 12.03.2022
2629 Clouds 18 1013 45 10000 1.75 95 18:55 12.03.2022
2630 Clouds 18 1012 44 10000 2.93 98 18:21 12.03.2022
2631 Clouds 20 1011 39 10000 4.6 100 17:23 12.03.2022
2632 Clouds 22 1009 34 10000 5.7 107 16:23 12.03.2022
2633 Clouds 23 1008 30 10000 4.64 104 15:22 12.03.2022
2634 Clouds 25 1007 25 10000 4.81 132 13:55 12.03.2022
2635 Clouds 26 1006 22 10000 6.46 140 12:35 12.03.2022
2636 Clouds 26 1007 22 10000 6.26 144 11:56 12.03.2022
2637 Clouds 26 1007 22 10000 6.31 144 11:34 12.03.2022
2638 Clouds 25 1008 24 10000 5.05 144 10:44 12.03.2022
2639 Clouds 24 1010 27 10000 3.81 131 09:44 12.03.2022
2640 Clouds 22 1012 31 10000 4.07 116 08:41 12.03.2022
2641 Clouds 18 1015 48 10000 3.36 112 06:44 12.03.2022
2642 Clouds 14 1013 58 10000 1.68 101 01:44 12.03.2022
2643 Clouds 15 1013 54 10000 1.18 103 23:46 11.03.2022
2644 Clouds 15 1013 51 10000 2.12 109 22:36 11.03.2022
2645 Clear 17 1015 44 10000 2.83 99 21:24 11.03.2022
2646 Clear 17 1015 44 10000 2.83 99 20:48 11.03.2022
2647 Clear 17 1015 43 10000 2.76 86 20:26 11.03.2022
2648 Clear 17 1015 43 10000 2.76 86 19:35 11.03.2022
2649 Clouds 18 1014 38 10000 2.86 76 18:33 11.03.2022
2650 Clouds 21 1012 28 10000 5.07 102 17:26 11.03.2022
2651 Clouds 23 1010 20 10000 5.43 98 16:26 11.03.2022
2652 Clouds 23 1010 20 10000 5.43 98 15:50 11.03.2022
2653 Clouds 26 1007 19 10000 7.34 116 13:45 11.03.2022
2654 Clouds 27 1006 17 10000 6.96 137 12:41 11.03.2022
2655 Clouds 27 1007 18 10000 5.66 153 12:19 11.03.2022
2656 Clouds 26 1009 21 10000 4.3 162 10:53 11.03.2022
2657 Clouds 24 1011 25 10000 3.18 158 09:35 11.03.2022
2658 Clouds 21 1014 34 10000 3.1 129 08:28 11.03.2022
2659 Clouds 21 1014 34 10000 3.1 129 07:48 11.03.2022
2660 Clouds 19 1015 39 10000 2.97 121 06:44 11.03.2022
2661 Clouds 14 1015 53 10000 1.25 95 04:40 11.03.2022
2662 Clouds 15 1013 47 10000 1.43 100 01:48 11.03.2022
2663 Clouds 17 1013 39 10000 1.75 112 22:33 10.03.2022
2664 Clouds 17 1014 36 10000 1.98 110 21:54 10.03.2022
2665 Clouds 18 1014 35 10000 2.03 98 21:25 10.03.2022
2666 Clouds 18 1014 35 10000 2.03 98 20:36 10.03.2022
2667 Clouds 19 1014 33 10000 2.59 72 19:20 10.03.2022
2668 Clouds 19 1013 29 10000 3.23 90 17:55 10.03.2022
2669 Clouds 21 1012 25 10000 4.59 107 16:53 10.03.2022
2670 Clouds 25 1008 21 10000 7.22 114 15:29 10.03.2022
2671 Clouds 27 1006 19 10000 7.17 123 13:45 10.03.2022
2672 Clouds 27 1006 17 10000 6.31 143 12:41 10.03.2022
2673 Clouds 26 1008 19 10000 4.42 162 11:28 10.03.2022
2674 Clouds 25 1010 23 10000 3.15 164 09:42 10.03.2022
2675 Clouds 21 1014 32 10000 2.94 130 07:48 10.03.2022
2676 Clouds 17 1015 42 10000 2.3 109 05:32 10.03.2022
2677 Clouds 14 1013 44 10000 1.59 81 02:33 10.03.2022
2678 Clouds 15 1014 51 10000 0.6 62 23:32 09.03.2022
2679 Clouds 16 1015 52 10000 1.68 126 22:22 09.03.2022
2680 Clouds 16 1015 52 10000 1.67 125 21:44 09.03.2022
2681 Clouds 17 1015 49 10000 1.99 128 20:36 09.03.2022
2682 Clouds 19 1014 35 10000 2.69 76 18:50 09.03.2022
2683 Clouds 21 1011 31 10000 4.64 97 17:28 09.03.2022
2684 Clouds 21 1011 31 10000 4.64 97 16:39 09.03.2022
2685 Clouds 23 1009 27 10000 5.96 101 15:32 09.03.2022
2686 Clouds 27 1006 17 10000 6.19 140 14:19 09.03.2022
2687 Clouds 27 1006 16 10000 5.88 160 12:59 09.03.2022
2688 Clouds 27 1007 18 10000 4.47 168 12:20 09.03.2022
2689 Clouds 27 1007 18 10000 4.43 167 11:45 09.03.2022
2690 Clouds 26 1009 21 10000 3.24 170 10:50 09.03.2022
2691 Clouds 23 1013 26 10000 2.47 148 09:22 09.03.2022
2692 Clouds 23 1013 26 10000 2.47 148 08:42 09.03.2022
2693 Clouds 14 1015 49 10000 1.04 112 04:49 09.03.2022
2694 Clouds 15 1013 46 10000 1.19 87 00:55 09.03.2022
2695 Clouds 15 1014 43 10000 1.1 70 23:21 08.03.2022
2696 Clouds 15 1014 43 10000 1.1 70 22:45 08.03.2022
2697 Clouds 17 1014 36 10000 3.1 99 21:26 08.03.2022
2698 Clouds 17 1014 36 10000 3.1 99 20:54 08.03.2022
2699 Clouds 17 1014 34 10000 3.07 88 19:55 08.03.2022
2700 Clouds 18 1013 29 10000 2.77 68 18:45 08.03.2022
2701 Clouds 19 1013 28 10000 3.02 78 17:50 08.03.2022
2702 Clouds 20 1011 25 10000 4.57 97 16:33 08.03.2022
2703 Clouds 27 1006 12 10000 6.46 141 14:22 08.03.2022
2704 Clouds 27 1006 14 10000 5.18 155 12:44 08.03.2022
2705 Clouds 26 1007 17 10000 4.22 165 11:53 08.03.2022
2706 Clouds 26 1007 17 10000 4.22 165 11:34 08.03.2022
2707 Clouds 24 1011 22 10000 2.67 176 10:22 08.03.2022
2708 Clouds 20 1014 27 10000 2.39 159 07:34 08.03.2022
2709 Clouds 16 1015 34 10000 1.38 140 05:47 08.03.2022
2710 Clear 15 1013 37 10000 1.53 99 00:43 08.03.2022
2711 Clear 16 1014 38 10000 1.99 125 22:23 07.03.2022
2712 Clear 16 1014 38 10000 1.99 125 21:35 07.03.2022
2713 Clear 17 1015 37 10000 2.26 121 20:52 07.03.2022
2714 Clear 17 1014 35 10000 2.46 101 20:20 07.03.2022
2715 Clear 17 1014 35 10000 2.46 101 19:34 07.03.2022
2716 Clouds 18 1014 35 10000 2.82 94 18:46 07.03.2022
2717 Clouds 18 1013 34 10000 3.14 101 17:54 07.03.2022
2718 Clouds 20 1012 31 10000 5.05 106 16:56 07.03.2022
2719 Clouds 22 1010 26 10000 6.36 110 16:20 07.03.2022
2720 Clouds 26 1006 17 10000 6.78 141 14:18 07.03.2022
2721 Clouds 27 1006 14 10000 6.19 150 12:33 07.03.2022
2722 Clouds 25 1008 18 10000 3.37 160 10:39 07.03.2022
2723 Clouds 22 1012 21 10000 2.1 165 09:25 07.03.2022
2724 Clouds 16 1015 34 10000 0.94 130 06:19 07.03.2022
2725 Clouds 14 1014 43 10000 0.84 153 00:23 07.03.2022
2726 Clouds 14 1014 43 10000 0.84 153 23:35 06.03.2022
2727 Clouds 14 1014 43 10000 0.84 153 23:35 06.03.2022
2728 Clouds 14 1015 43 10000 1.2 131 22:52 06.03.2022
2729 Clouds 15 1015 43 10000 1.8 120 22:19 06.03.2022
2730 Clouds 16 1016 42 10000 1.86 115 20:50 06.03.2022
2731 Clouds 16 1016 41 10000 2.3 107 20:23 06.03.2022
2732 Clouds 17 1015 34 10000 2.85 90 19:21 06.03.2022
2733 Clouds 18 1014 33 10000 3.15 92 18:25 06.03.2022
2734 Clouds 19 1013 30 10000 5.99 104 17:21 06.03.2022
2735 Clouds 19 1013 30 10000 5.99 104 16:42 06.03.2022
2736 Clouds 22 1011 25 10000 7.08 112 15:54 06.03.2022
2737 Clouds 24 1009 20 10000 7.35 123 14:49 06.03.2022
2738 Clouds 24 1009 20 10000 7.35 123 14:31 06.03.2022
2739 Clouds 27 1007 14 10000 5.46 154 13:29 06.03.2022
2740 Clouds 27 1007 15 10000 5.93 154 12:35 06.03.2022
2741 Clear 25 1009 17 10000 3.57 173 10:59 06.03.2022
2742 Clear 24 1011 19 10000 2.53 165 10:27 06.03.2022
2743 Clouds 22 1013 21 10000 2.45 140 08:30 06.03.2022
2744 Clouds 20 1015 24 10000 2.65 132 07:35 06.03.2022
2745 Clear 15 1016 34 10000 1.51 115 05:40 06.03.2022
2746 Clouds 13 1015 45 10000 0.44 354 00:51 06.03.2022
2747 Clouds 13 1015 45 10000 0.44 354 00:30 06.03.2022
2748 Clouds 14 1016 44 10000 1.41 102 23:21 05.03.2022
2749 Clouds 14 1016 44 10000 1.41 102 22:47 05.03.2022
2750 Clouds 14 1016 43 10000 2.21 102 21:46 05.03.2022
2751 Clouds 15 1016 43 10000 2.22 99 21:21 05.03.2022
2752 Clouds 16 1016 41 10000 2.96 93 19:26 05.03.2022
2753 Clouds 16 1016 41 10000 2.96 93 18:54 05.03.2022
2754 Clouds 17 1015 40 10000 3.15 100 18:27 05.03.2022
2755 Clouds 18 1014 35 10000 4.9 105 16:34 05.03.2022
2756 Clouds 21 1012 27 10000 6.59 109 15:31 05.03.2022
2757 Clouds 23 1010 23 10000 7.4 120 14:47 05.03.2022
2758 Clouds 25 1008 20 10000 7.21 131 14:29 05.03.2022
2759 Clouds 26 1008 19 10000 6.35 144 13:21 05.03.2022
2760 Clouds 25 1010 20 10000 4.72 153 11:48 05.03.2022
2761 Clouds 24 1011 21 10000 3.86 152 11:18 05.03.2022
2762 Clouds 23 1013 23 10000 3.4 145 09:59 05.03.2022
2763 Clouds 21 1015 25 10000 3.5 132 08:59 05.03.2022
2764 Clouds 20 1016 26 10000 3.66 129 07:38 05.03.2022
2765 Clouds 16 1017 36 10000 1.67 112 05:43 05.03.2022
2766 Clouds 14 1015 44 10000 0.81 108 02:27 05.03.2022
2767 Clouds 15 1015 43 10000 0.19 42 23:37 04.03.2022
2768 Clouds 15 1016 43 10000 0.41 140 22:42 04.03.2022
2769 Clouds 15 1016 42 10000 1.11 160 21:48 04.03.2022
2770 Clouds 16 1016 41 10000 1.9 131 20:54 04.03.2022
2771 Clouds 16 1016 39 10000 2.28 103 20:24 04.03.2022
2772 Clouds 16 1016 39 10000 2.28 103 19:36 04.03.2022
2773 Clouds 17 1016 36 10000 2.33 98 18:44 04.03.2022
2774 Clouds 18 1015 35 10000 2.81 102 17:32 04.03.2022
2775 Clouds 19 1013 32 10000 4 99 16:46 04.03.2022
2776 Clouds 24 1010 23 10000 5.61 124 15:29 04.03.2022
2777 Clouds 25 1008 20 10000 5.93 141 14:29 04.03.2022
2778 Clouds 26 1008 18 10000 4.59 151 13:26 04.03.2022
2779 Clouds 25 1009 19 10000 3.09 152 11:41 04.03.2022
2780 Clouds 24 1011 21 10000 2.52 155 10:50 04.03.2022
2781 Clouds 23 1013 22 10000 1.82 160 09:42 04.03.2022
2782 Clouds 22 1015 24 10000 1.56 158 08:39 04.03.2022
2783 Clouds 20 1017 25 10000 1.75 148 07:34 04.03.2022
2784 Clouds 13 1017 38 10000 0.62 113 03:53 04.03.2022
2785 Clouds 14 1016 36 10000 0.41 96 00:24 04.03.2022
2786 Clouds 15 1017 33 10000 1.4 111 22:26 03.03.2022
2787 Clouds 15 1017 33 10000 1.4 111 21:42 03.03.2022
2788 Clouds 15 1018 32 10000 2.36 96 21:24 03.03.2022
2789 Clouds 16 1018 31 10000 2.42 95 19:52 03.03.2022
2790 Clouds 17 1017 30 10000 2.36 99 18:54 03.03.2022
2791 Clouds 17 1016 29 10000 3.09 100 18:23 03.03.2022
2792 Clouds 17 1016 29 10000 3.1 100 17:30 03.03.2022
2793 Clouds 21 1013 25 10000 5.35 106 16:24 03.03.2022
2794 Clouds 23 1011 23 10000 5.8 112 15:21 03.03.2022
2795 Clouds 23 1011 23 10000 5.8 112 14:42 03.03.2022
2796 Clouds 25 1009 20 10000 4.9 151 13:24 03.03.2022
2797 Clouds 24 1011 21 10000 4.55 154 11:54 03.03.2022
2798 Clouds 24 1012 22 10000 3.68 148 10:42 03.03.2022
2799 Clouds 21 1016 27 10000 3.55 127 08:57 03.03.2022
2800 Clouds 19 1018 30 10000 3.54 122 07:45 03.03.2022
2801 Clouds 17 1018 34 10000 3.34 112 06:35 03.03.2022
2802 Clouds 12 1017 46 10000 1.4 81 02:23 03.03.2022
2803 Clear 13 1016 44 10000 1.61 107 23:31 02.03.2022
2804 Clear 14 1017 43 10000 1.63 96 22:52 02.03.2022
2805 Clear 14 1018 42 10000 2 91 21:32 02.03.2022
2806 Clear 15 1018 40 10000 2.65 91 20:46 02.03.2022
2807 Clear 15 1018 38 10000 3.17 88 20:24 02.03.2022
2808 Clear 15 1018 38 10000 3.17 88 19:36 02.03.2022
2809 Clouds 16 1018 35 10000 3.56 81 18:46 02.03.2022
2810 Clouds 16 1017 34 10000 3.82 83 17:59 02.03.2022
2811 Clouds 16 1017 34 10000 3.82 83 17:32 02.03.2022
2812 Clouds 17 1016 30 10000 5.04 98 16:51 02.03.2022
2813 Clear 22 1012 22 10000 7.38 104 14:48 02.03.2022
2814 Clouds 23 1011 21 10000 7.75 110 13:25 02.03.2022
2815 Clouds 23 1011 19 10000 7.97 113 12:44 02.03.2022
2816 Clouds 23 1012 20 10000 7.56 113 11:51 02.03.2022
2817 Clouds 23 1012 22 10000 7.02 105 11:24 02.03.2022
2818 Clouds 23 1012 22 10000 7.02 105 11:24 02.03.2022
2819 Clouds 22 1014 28 10000 5.58 100 09:47 02.03.2022
2820 Clouds 21 1016 33 10000 5.25 105 09:23 02.03.2022
2821 Clear 19 1017 41 10000 4.13 104 07:51 02.03.2022
2822 Clouds 16 1018 49 10000 2.67 107 06:54 02.03.2022
2823 Clouds 12 1017 64 10000 1.41 34 02:54 02.03.2022
2824 Clouds 12 1017 65 10000 1.24 14 00:33 02.03.2022
2825 Clouds 13 1017 62 10000 1.29 42 22:50 01.03.2022
2826 Clouds 13 1017 62 10000 1.29 42 22:31 01.03.2022
2827 Clouds 14 1017 58 10000 2.21 85 21:25 01.03.2022
2828 Clouds 14 1017 58 10000 2.21 85 20:32 01.03.2022
2829 Clouds 14 1017 58 10000 2.82 90 19:45 01.03.2022
2830 Clouds 15 1017 57 10000 3.21 85 18:51 01.03.2022
2831 Clouds 16 1017 53 10000 3.99 95 18:21 01.03.2022
2832 Clouds 16 1017 53 10000 3.99 95 17:30 01.03.2022
2833 Clouds 17 1015 44 10000 5.72 104 16:35 01.03.2022
2834 Clouds 20 1014 33 10000 7.17 105 15:42 01.03.2022
2835 Clouds 21 1013 31 10000 8.09 107 14:41 01.03.2022
2836 Clouds 21 1012 32 10000 7.08 114 14:23 01.03.2022
2837 Clouds 21 1012 35 10000 5.57 99 13:25 01.03.2022
2838 Clouds 21 1012 38 10000 5.4 98 12:34 01.03.2022
2839 Clouds 21 1013 40 10000 6.01 106 10:37 01.03.2022
2840 Clouds 21 1016 43 10000 5.18 108 09:18 01.03.2022
2841 Clouds 19 1017 49 10000 4.32 104 07:54 01.03.2022
2842 Clouds 15 1018 66 10000 1.9 94 06:26 01.03.2022
2843 Clouds 13 1017 75 10000 1.15 40 02:45 01.03.2022
2844 Clouds 13 1017 78 10000 1.04 30 00:39 01.03.2022
2845 Clouds 14 1016 76 10000 1.45 71 23:33 28.02.2022
2846 Clouds 15 1017 69 10000 2.63 99 22:24 28.02.2022
2847 Clouds 15 1017 69 10000 2.63 99 21:41 28.02.2022
2848 Clouds 15 1018 69 10000 4.65 75 20:28 28.02.2022
2849 Clouds 15 1018 69 10000 4.65 75 19:41 28.02.2022
2850 Clouds 16 1017 68 10000 5.36 86 18:49 28.02.2022
2851 Clouds 17 1015 63 10000 5.24 103 17:33 28.02.2022
2852 Clouds 17 1015 64 10000 5.21 103 16:53 28.02.2022
2853 Clouds 18 1014 56 10000 6.75 97 15:31 28.02.2022
2854 Clouds 20 1012 49 10000 7.1 106 14:32 28.02.2022
2855 Clouds 21 1012 46 10000 6.62 115 13:48 28.02.2022
2856 Clouds 20 1012 48 10000 5.26 110 12:50 28.02.2022
2857 Clouds 20 1012 47 10000 5.61 110 11:59 28.02.2022
2858 Clouds 21 1013 45 10000 6.43 115 11:18 28.02.2022
2859 Clouds 22 1013 43 10000 6.26 112 10:22 28.02.2022
2860 Clouds 22 1013 43 10000 6.26 112 09:41 28.02.2022
2861 Clouds 21 1015 46 10000 5.49 108 08:48 28.02.2022
2862 Clear 19 1016 52 10000 4.36 112 07:43 28.02.2022
2863 Clouds 15 1017 71 10000 1.82 134 05:52 28.02.2022
2864 Clouds 15 1017 72 10000 1.51 140 04:30 28.02.2022
2865 Clouds 15 1017 72 10000 1.51 140 04:30 28.02.2022
2866 Clouds 15 1017 72 10000 1.51 140 04:30 28.02.2022
2867 Clouds 15 1016 69 10000 1.09 131 00:34 28.02.2022
2868 Clouds 16 1016 64 10000 0.81 125 22:38 27.02.2022
2869 Clouds 16 1017 61 10000 1.34 115 21:55 27.02.2022
2870 Clouds 16 1017 61 10000 1.34 115 21:35 27.02.2022
2871 Clouds 17 1016 58 10000 1.43 98 20:40 27.02.2022
2872 Clouds 18 1017 56 10000 1.43 59 19:59 27.02.2022
2873 Clouds 19 1016 53 10000 0.74 52 19:27 27.02.2022
2874 Clouds 19 1016 53 10000 0.74 52 18:56 27.02.2022
2875 Rain 19 1015 52 10000 2.67 72 17:57 27.02.2022
2876 Rain 19 1014 46 10000 5.42 91 17:26 27.02.2022
2877 Clouds 22 1012 36 10000 6.11 108 16:22 27.02.2022
2878 Clouds 25 1010 28 10000 5.6 126 13:49 27.02.2022
2879 Clouds 25 1010 27 10000 4.49 129 12:35 27.02.2022
2880 Clear 23 1013 32 10000 4.24 124 11:28 27.02.2022
2881 Clear 22 1015 35 10000 4.19 124 10:24 27.02.2022
2882 Clear 22 1015 35 10000 4.19 124 09:51 27.02.2022
2883 Clear 21 1017 40 10000 3.96 123 09:21 27.02.2022
2884 Clear 21 1017 40 10000 3.96 123 08:38 27.02.2022
2885 Clouds 15 1019 59 10000 1.34 124 05:41 27.02.2022
2886 Clouds 14 1017 66 10000 0.69 353 02:57 27.02.2022
2887 Clouds 15 1017 58 10000 0.72 203 23:36 26.02.2022
2888 Clouds 15 1017 57 10000 0.38 144 22:34 26.02.2022
2889 Clouds 16 1018 59 10000 1.66 358 21:19 26.02.2022
2890 Clouds 16 1018 59 10000 1.66 358 20:33 26.02.2022
2891 Rain 15 1019 64 10000 2.38 337 19:52 26.02.2022
2892 Rain 15 1019 64 10000 2.38 337 19:33 26.02.2022
2893 Rain 16 1018 64 10000 4.45 45 17:58 26.02.2022
2894 Rain 16 1018 64 10000 4.45 45 17:30 26.02.2022
2895 Rain 17 1017 58 10000 3.58 38 16:34 26.02.2022
2896 Clouds 22 1012 33 10000 4.33 78 15:26 26.02.2022
2897 Clouds 22 1012 33 10000 4.33 78 14:57 26.02.2022
2898 Clouds 22 1012 33 10000 4.33 78 14:38 26.02.2022
2899 Clouds 23 1012 29 10000 4.56 98 13:40 26.02.2022
2900 Clouds 23 1011 28 10000 5.09 122 12:53 26.02.2022
2901 Clouds 25 1012 26 10000 5.9 130 11:39 26.02.2022
2902 Clouds 24 1013 27 10000 4.57 128 10:59 26.02.2022
2903 Clouds 21 1017 33 10000 4.64 110 09:22 26.02.2022
2904 Clouds 20 1018 39 10000 4.66 104 07:57 26.02.2022
2905 Clouds 14 1018 52 10000 1.03 61 04:21 26.02.2022
2906 Clouds 15 1016 48 10000 0.8 65 23:35 25.02.2022
2907 Clouds 17 1017 41 10000 1.14 51 22:18 25.02.2022
2908 Clouds 17 1017 41 10000 1.96 55 21:29 25.02.2022
2909 Clouds 17 1017 41 10000 1.96 55 20:33 25.02.2022
2910 Clouds 17 1017 41 10000 2.64 72 19:53 25.02.2022
2911 Clouds 19 1016 39 10000 5.43 108 17:48 25.02.2022
2912 Clouds 20 1014 31 10000 6.02 108 16:46 25.02.2022
2913 Clouds 22 1012 24 10000 6.13 105 15:49 25.02.2022
2914 Clouds 24 1011 22 10000 6.07 114 15:23 25.02.2022
2915 Clouds 24 1011 22 10000 6.07 114 15:23 25.02.2022
2916 Clouds 24 1011 22 10000 6.07 114 14:49 25.02.2022
2917 Clouds 25 1010 21 10000 6.68 128 14:18 25.02.2022
2918 Clouds 25 1010 21 10000 6.8 136 13:23 25.02.2022
2919 Clouds 25 1011 20 10000 5.13 139 11:52 25.02.2022
2920 Clouds 24 1013 23 10000 4.27 139 11:18 25.02.2022
2921 Clouds 23 1014 26 10000 4.01 132 10:23 25.02.2022
2922 Clouds 23 1014 26 10000 4.01 132 09:42 25.02.2022
2923 Clouds 23 1014 26 10000 4.01 132 09:42 25.02.2022
2924 Clouds 20 1017 34 10000 4.12 123 07:48 25.02.2022
2925 Clouds 18 1018 40 10000 3.3 113 06:54 25.02.2022
2926 Clouds 16 1018 42 10000 2.37 97 05:40 25.02.2022
2927 Clouds 14 1017 39 10000 0.67 85 01:23 25.02.2022
2928 Clouds 16 1017 38 10000 2.03 118 22:31 24.02.2022
2929 Clouds 16 1017 39 10000 1.85 112 21:43 24.02.2022
2930 Clouds 17 1017 39 10000 1.9 98 21:21 24.02.2022
2931 Clouds 17 1017 39 10000 1.9 98 20:44 24.02.2022
2932 Clouds 18 1017 36 10000 1.84 62 19:31 24.02.2022
2933 Clouds 18 1016 34 10000 3.37 92 18:20 24.02.2022
2934 Clouds 18 1016 34 10000 3.37 92 17:52 24.02.2022
2935 Clouds 20 1014 30 10000 5.14 103 17:19 24.02.2022
2936 Clouds 22 1012 25 10000 5.88 126 16:25 24.02.2022
2937 Clouds 22 1012 25 10000 5.88 126 15:42 24.02.2022
2938 Clouds 24 1011 21 10000 5.79 143 14:45 24.02.2022
2939 Clouds 25 1011 20 10000 5.23 152 13:57 24.02.2022
2940 Clouds 25 1011 20 10000 5.23 152 13:35 24.02.2022
2941 Clouds 24 1012 21 10000 4.55 151 11:32 24.02.2022
2942 Clouds 23 1013 23 10000 4.12 148 10:31 24.02.2022
2943 Clouds 21 1017 26 10000 3.34 134 08:43 24.02.2022
2944 Clouds 17 1018 29 10000 2.87 110 06:45 24.02.2022
2945 Clouds 16 1018 31 10000 1.72 116 05:40 24.02.2022
2946 Clouds 16 1016 32 10000 1.57 166 00:30 24.02.2022
2947 Clouds 17 1017 30 10000 1.93 131 22:19 23.02.2022
2948 Clouds 17 1017 30 10000 1.87 144 20:44 23.02.2022
2949 Clouds 18 1017 30 10000 1.8 138 20:23 23.02.2022
2950 Clouds 18 1017 30 10000 1.8 138 19:35 23.02.2022
2951 Clouds 17 1016 32 10000 3.2 94 18:22 23.02.2022
2952 Clouds 21 1012 29 10000 5.66 131 16:28 23.02.2022
2953 Clouds 24 1010 25 10000 5.82 154 13:58 23.02.2022
2954 Clouds 24 1011 28 10000 3.12 162 12:31 23.02.2022
2955 Clouds 23 1013 30 10000 4.08 159 10:58 23.02.2022
2956 Clouds 22 1014 32 10000 4.13 157 09:49 23.02.2022
2957 Clouds 20 1016 34 10000 4 146 08:54 23.02.2022
2958 Clouds 19 1017 37 10000 3.62 134 07:55 23.02.2022
2959 Clouds 14 1016 55 10000 1.42 125 02:58 23.02.2022
2960 Clouds 15 1015 53 10000 1.6 119 00:18 23.02.2022
2961 Clouds 15 1015 53 10000 1.6 119 23:33 22.02.2022
2962 Clouds 16 1016 51 10000 1.65 149 22:28 22.02.2022
2963 Clouds 16 1016 51 10000 1.65 149 21:45 22.02.2022
2964 Clouds 16 1016 49 10000 2.18 130 21:21 22.02.2022
2965 Clouds 16 1016 49 10000 2.18 130 20:43 22.02.2022
2966 Clouds 17 1016 47 10000 2.4 133 20:25 22.02.2022
2967 Clouds 17 1016 47 10000 2.4 133 19:34 22.02.2022
2968 Clouds 16 1016 49 10000 2.56 97 18:42 22.02.2022
2969 Clouds 18 1013 43 10000 5 104 17:35 22.02.2022
2970 Clouds 18 1013 43 10000 5.02 104 16:57 22.02.2022
2971 Clouds 21 1011 33 10000 5.71 123 16:22 22.02.2022
2972 Clouds 21 1011 33 10000 5.71 123 15:31 22.02.2022
2973 Clouds 23 1010 28 10000 5.2 144 14:33 22.02.2022
2974 Clouds 24 1010 24 10000 4.88 165 11:41 22.02.2022
2975 Clouds 22 1014 30 10000 3 160 09:48 22.02.2022
2976 Clouds 18 1017 41 10000 2.81 142 07:40 22.02.2022
2977 Clouds 16 1018 49 10000 2.19 146 07:19 22.02.2022
2978 Clouds 13 1016 60 10000 1.07 179 02:51 22.02.2022
2979 Clouds 15 1016 52 10000 0.47 169 23:48 21.02.2022
2980 Clouds 15 1016 51 10000 1.31 138 22:37 21.02.2022
2981 Clouds 16 1016 51 10000 1.56 94 21:23 21.02.2022
2982 Clouds 16 1017 52 10000 2.45 122 19:36 21.02.2022
2983 Clouds 17 1016 44 10000 2.05 137 18:39 21.02.2022
2984 Clouds 18 1014 40 10000 3.73 120 16:37 21.02.2022
2985 Clouds 22 1010 31 10000 6.12 129 14:24 21.02.2022
2986 Clouds 22 1010 31 10000 6.12 129 13:54 21.02.2022
2987 Clouds 23 1010 28 10000 6.41 152 12:57 21.02.2022
2988 Clouds 23 1010 29 10000 5.65 165 12:21 21.02.2022
2989 Clouds 23 1012 30 10000 4.96 164 10:31 21.02.2022
2990 Clouds 18 1017 49 10000 2.35 146 07:52 21.02.2022
2991 Clouds 12 1017 81 10000 1.24 216 00:36 21.02.2022
2992 Clouds 13 1017 81 10000 1.29 133 22:37 20.02.2022
2993 Clouds 13 1017 78 10000 2.04 127 21:51 20.02.2022
2994 Clouds 14 1018 75 10000 1.79 127 21:25 20.02.2022
2995 Clouds 14 1018 75 10000 1.79 127 20:45 20.02.2022
2996 Clouds 15 1017 70 10000 2.46 129 19:51 20.02.2022
2997 Clouds 16 1017 65 10000 2.64 123 18:57 20.02.2022
2998 Clouds 16 1017 64 10000 2.71 121 18:37 20.02.2022
2999 Clouds 16 1016 60 10000 2.47 108 17:56 20.02.2022
3000 Clouds 17 1015 52 10000 3.42 114 17:24 20.02.2022
3001 Clouds 22 1011 29 10000 6.34 124 15:29 20.02.2022
3002 Clouds 23 1010 26 10000 6.18 131 14:20 20.02.2022
3003 Clouds 24 1010 25 10000 6.35 134 12:49 20.02.2022
3004 Clouds 23 1011 29 10000 5.98 136 11:56 20.02.2022
3005 Clouds 22 1014 33 10000 5.31 136 10:21 20.02.2022
3006 Clouds 22 1014 33 10000 5.31 136 09:51 20.02.2022
3007 Clouds 16 1018 48 10000 2.36 128 06:30 20.02.2022
3008 Clouds 15 1014 50 10000 1.2 128 00:33 20.02.2022
3009 Clouds 15 1014 47 10000 1.53 106 23:39 19.02.2022
3010 Clouds 17 1015 44 10000 1.93 91 22:24 19.02.2022
3011 Clouds 17 1015 44 10000 1.93 91 21:52 19.02.2022
3012 Clouds 18 1016 41 10000 1.96 72 20:45 19.02.2022
3013 Clouds 18 1016 39 10000 1.95 72 19:36 19.02.2022
3014 Clouds 18 1015 37 10000 2.57 65 18:41 19.02.2022
3015 Clouds 19 1014 34 10000 3.6 82 17:59 19.02.2022
3016 Clouds 19 1014 34 10000 3.61 82 17:32 19.02.2022
3017 Clouds 23 1010 21 10000 4.98 120 15:59 19.02.2022
3018 Clouds 25 1009 19 10000 4.6 150 14:55 19.02.2022
3019 Clouds 25 1008 20 10000 3.87 170 13:58 19.02.2022
3020 Clouds 24 1010 24 10000 2.98 190 11:58 19.02.2022
3021 Clouds 23 1012 27 10000 2.98 197 11:29 19.02.2022
3022 Clouds 20 1015 37 10000 2.27 186 09:21 19.02.2022
3023 Clouds 17 1017 46 10000 1.01 157 06:49 19.02.2022
3024 Clouds 15 1014 54 10000 0.38 241 00:55 19.02.2022
3025 Clouds 16 1014 52 10000 1.53 187 22:41 18.02.2022
3026 Clear 17 1015 51 10000 1.32 69 21:27 18.02.2022
3027 Clear 17 1014 48 10000 2.8 93 20:25 18.02.2022
3028 Clear 17 1014 48 10000 2.8 93 19:51 18.02.2022
3029 Clear 17 1014 48 10000 2.8 93 19:51 18.02.2022
3030 Clouds 18 1013 43 10000 4.01 110 18:38 18.02.2022
3031 Clouds 19 1012 36 10000 4.94 116 18:18 18.02.2022
3032 Clouds 21 1009 29 10000 3.88 128 17:20 18.02.2022
3033 Clouds 24 1007 19 10000 4.51 143 14:31 18.02.2022
3034 Clouds 25 1007 20 10000 4.82 152 13:47 18.02.2022
3035 Clouds 25 1007 21 10000 4.82 163 12:50 18.02.2022
3036 Clouds 25 1008 23 10000 4.05 168 11:57 18.02.2022
3037 Clouds 23 1010 27 10000 3.7 170 10:47 18.02.2022
3038 Clouds 21 1013 35 10000 3.5 163 09:20 18.02.2022
3039 Clouds 18 1015 42 10000 2.34 157 06:48 18.02.2022
3040 Clouds 16 1015 50 10000 0.57 179 05:34 18.02.2022
3041 Clouds 15 1013 50 10000 0.89 125 22:39 17.02.2022
3042 Clouds 16 1013 48 10000 1.63 106 21:41 17.02.2022
3043 Clouds 16 1013 46 10000 2.43 97 20:44 17.02.2022
3044 Clouds 17 1013 43 10000 2.61 73 19:56 17.02.2022
3045 Clouds 18 1013 40 10000 2.96 73 19:26 17.02.2022
3046 Clouds 19 1011 34 10000 3.52 93 18:29 17.02.2022
3047 Clouds 19 1011 34 10000 3.52 93 17:45 17.02.2022
3048 Clouds 23 1007 22 10000 4.65 154 15:58 17.02.2022
3049 Clouds 24 1007 21 10000 4.36 158 14:30 17.02.2022
3050 Clouds 25 1006 21 10000 4.21 160 13:47 17.02.2022
3051 Clouds 24 1008 23 10000 3.83 162 11:55 17.02.2022
3052 Clouds 23 1010 26 10000 4.08 161 10:57 17.02.2022
3053 Clouds 19 1014 36 10000 3.7 140 07:56 17.02.2022
3054 Clouds 14 1013 56 10000 0.6 222 23:50 16.02.2022
3055 Clouds 15 1014 54 10000 1.29 119 22:36 16.02.2022
3056 Clouds 17 1014 46 10000 2.25 110 20:24 16.02.2022
3057 Clouds 18 1014 42 10000 2.53 101 19:23 16.02.2022
3058 Clouds 18 1014 41 10000 2.58 103 18:34 16.02.2022
3059 Clouds 20 1011 36 10000 4.16 101 17:24 16.02.2022
3060 Clouds 24 1008 25 10000 5.69 129 15:23 16.02.2022
3061 Clouds 25 1007 22 10000 5.79 149 13:46 16.02.2022
3062 Clouds 25 1008 23 10000 4.6 166 12:27 16.02.2022
3063 Clouds 25 1008 23 10000 4.6 166 11:46 16.02.2022
3064 Clouds 24 1010 26 10000 3.66 171 10:35 16.02.2022
3065 Clouds 22 1012 30 10000 3.1 172 09:39 16.02.2022
3066 Clouds 17 1016 48 10000 1.71 156 06:44 16.02.2022
3067 Clouds 13 1015 59 10000 0.77 121 02:47 16.02.2022
3068 Clouds 15 1015 53 10000 1.26 157 22:34 15.02.2022
3069 Clouds 16 1016 51 10000 1.82 129 21:50 15.02.2022
3070 Clouds 16 1016 51 10000 1.82 129 21:30 15.02.2022
3071 Clouds 16 1016 49 10000 1.9 109 20:58 15.02.2022
3072 Clouds 17 1016 48 10000 2.05 87 20:26 15.02.2022
3073 Clouds 17 1016 48 10000 2.05 87 19:45 15.02.2022
3074 Clouds 18 1015 43 10000 2.79 88 18:26 15.02.2022
3075 Clouds 18 1015 43 10000 2.79 88 17:53 15.02.2022
3076 Clouds 18 1015 43 10000 2.79 88 17:32 15.02.2022
3077 Clouds 22 1011 29 10000 5.58 132 15:43 15.02.2022
3078 Clouds 25 1008 22 10000 5.35 159 13:57 15.02.2022
3079 Clouds 25 1009 22 10000 4.67 169 13:25 15.02.2022
3080 Clouds 24 1010 24 10000 4.33 170 11:41 15.02.2022
3081 Clouds 22 1014 32 10000 3.4 171 10:27 15.02.2022
3082 Clear 20 1015 37 10000 2.84 154 08:42 15.02.2022
3083 Clouds 17 1017 47 10000 2.49 118 06:45 15.02.2022
3084 Clouds 13 1015 63 10000 0.67 127 23:35 14.02.2022
3085 Clear 14 1016 58 10000 1.81 131 21:56 14.02.2022
3086 Clear 15 1016 55 10000 2.2 106 20:53 14.02.2022
3087 Clear 16 1016 53 10000 2.33 94 19:49 14.02.2022
3088 Clear 16 1015 51 10000 2.72 92 19:29 14.02.2022
3089 Clear 17 1015 44 10000 3.83 102 18:23 14.02.2022
3090 Clear 19 1013 38 10000 6.11 108 17:28 14.02.2022
3091 Clear 19 1013 38 10000 6.11 108 16:33 14.02.2022
3092 Clear 24 1008 21 10000 5.74 136 14:43 14.02.2022
3093 Clear 25 1007 19 10000 5.16 145 13:34 14.02.2022
3094 Clouds 25 1008 19 10000 4.38 154 12:58 14.02.2022
3095 Clouds 24 1009 22 10000 4.08 165 11:57 14.02.2022
3096 Clouds 24 1009 22 10000 4.11 165 11:38 14.02.2022
3097 Clouds 21 1013 29 10000 3.4 159 09:37 14.02.2022
3098 Clouds 18 1016 44 10000 2.5 153 07:37 14.02.2022
3099 Clouds 16 1017 57 10000 2 151 07:19 14.02.2022
3100 Clouds 13 1015 66 10000 1.26 153 22:48 13.02.2022
3101 Clouds 14 1016 64 10000 1.32 137 22:29 13.02.2022
3102 Clouds 14 1016 64 10000 1.32 137 21:57 13.02.2022
3103 Clouds 14 1016 61 10000 1.75 118 21:20 13.02.2022
3104 Clouds 15 1016 59 10000 2.09 99 20:27 13.02.2022
3105 Clouds 16 1016 55 10000 2.59 105 18:58 13.02.2022
3106 Clouds 16 1016 55 10000 2.59 105 18:40 13.02.2022
3107 Clouds 18 1013 45 10000 5.21 117 16:53 13.02.2022
3108 Clouds 20 1011 37 10000 6.52 114 15:51 13.02.2022
3109 Clouds 22 1010 30 10000 6.75 123 14:50 13.02.2022
3110 Clouds 25 1008 24 10000 5.39 152 13:27 13.02.2022
3111 Clouds 25 1008 24 10000 5.39 152 12:42 13.02.2022
3112 Clouds 23 1011 27 10000 3.37 165 10:44 13.02.2022
3113 Clouds 21 1013 31 10000 2.75 165 10:25 13.02.2022
3114 Clouds 19 1015 37 10000 2.29 160 08:56 13.02.2022
3115 Clear 12 1016 68 10000 0.53 204 02:49 13.02.2022
3116 Clear 13 1016 65 10000 0.51 201 00:32 13.02.2022
3117 Clear 13 1017 62 10000 0.54 178 22:55 12.02.2022
3118 Clear 13 1017 62 10000 0.54 178 22:30 12.02.2022
3119 Clear 14 1017 58 10000 2 98 20:55 12.02.2022
3120 Clear 15 1017 54 10000 2.54 106 20:23 12.02.2022
3121 Clouds 16 1017 52 10000 2.57 103 18:54 12.02.2022
3122 Clouds 15 1017 54 10000 2.44 109 18:36 12.02.2022
3123 Clouds 16 1016 51 10000 3.11 113 17:40 12.02.2022
3124 Clouds 17 1015 46 10000 4.32 120 16:46 12.02.2022
3125 Clouds 19 1013 39 10000 5.73 117 15:59 12.02.2022
3126 Clouds 21 1011 35 10000 6.37 124 15:21 12.02.2022
3127 Clouds 22 1010 31 10000 6.24 135 14:29 12.02.2022
3128 Clouds 24 1010 26 10000 4.91 161 11:34 12.02.2022
3129 Clouds 23 1012 28 10000 4.3 169 10:33 12.02.2022
3130 Clear 21 1014 31 10000 3.15 168 09:38 12.02.2022
3131 Clear 20 1015 34 10000 2.33 166 08:47 12.02.2022
3132 Clear 18 1017 38 10000 2.13 160 07:47 12.02.2022
3133 Clear 13 1018 49 10000 0.97 140 05:31 12.02.2022
3134 Clouds 12 1016 52 10000 0.32 160 02:19 12.02.2022
3135 Clouds 13 1016 52 10000 0.78 187 23:56 11.02.2022
3136 Clouds 13 1017 51 10000 1.23 109 22:24 11.02.2022
3137 Clouds 13 1017 51 10000 1.23 109 21:37 11.02.2022
3138 Clouds 14 1017 49 10000 1.82 111 20:37 11.02.2022
3139 Clouds 14 1017 48 10000 2.08 100 19:31 11.02.2022
3140 Clouds 15 1017 46 10000 2.64 100 18:47 11.02.2022
3141 Clouds 17 1014 39 10000 4.19 108 17:27 11.02.2022
3142 Clouds 17 1014 39 10000 4.19 108 16:56 11.02.2022
3143 Clouds 20 1012 36 10000 2.52 115 15:26 11.02.2022
3144 Clouds 20 1012 36 10000 2.52 115 14:38 11.02.2022
3145 Clouds 20 1011 36 10000 4.03 100 14:20 11.02.2022
3146 Clouds 20 1011 36 10000 4.03 100 13:47 11.02.2022
3147 Clouds 21 1011 34 10000 3.55 119 13:28 11.02.2022
3148 Clouds 22 1013 33 10000 2.18 145 11:26 11.02.2022
3149 Clouds 20 1014 36 10000 2.45 129 09:38 11.02.2022
3150 Clouds 18 1016 40 10000 2.48 131 08:36 11.02.2022
3151 Clouds 17 1017 42 10000 2.08 144 07:47 11.02.2022
3152 Clouds 16 1017 43 10000 2.05 152 06:31 11.02.2022
3153 Clouds 15 1015 47 10000 1.13 151 02:24 11.02.2022
3154 Clouds 15 1015 46 10000 0.95 173 00:44 11.02.2022
3155 Clouds 15 1016 47 10000 1.17 171 22:45 10.02.2022
3156 Clouds 15 1017 47 10000 1.34 155 21:44 10.02.2022
3157 Clouds 16 1017 45 10000 1.85 132 20:52 10.02.2022
3158 Clouds 16 1017 46 10000 2.04 117 20:24 10.02.2022
3159 Clouds 17 1016 48 10000 1.77 87 19:24 10.02.2022
3160 Clouds 17 1016 47 10000 1.68 95 18:33 10.02.2022
3161 Clouds 18 1014 43 10000 2.48 77 17:25 10.02.2022
3162 Clouds 18 1014 43 10000 2.48 77 16:47 10.02.2022
3163 Clouds 21 1012 35 10000 3.19 115 15:45 10.02.2022
3164 Clouds 21 1011 32 10000 3.09 110 15:25 10.02.2022
3165 Clouds 21 1011 32 10000 3.09 110 14:44 10.02.2022
3166 Clouds 22 1010 31 10000 4.15 102 14:22 10.02.2022
3167 Clouds 23 1009 27 10000 3.53 122 13:20 10.02.2022
3168 Clouds 24 1010 26 10000 3.08 141 11:58 10.02.2022
3169 Clouds 23 1011 27 10000 2.85 157 11:32 10.02.2022
3170 Clouds 23 1011 27 10000 2.79 156 10:32 10.02.2022
3171 Clouds 22 1013 29 10000 2.13 159 09:46 10.02.2022
3172 Clouds 20 1015 32 10000 1.85 143 08:42 10.02.2022
3173 Clouds 15 1018 44 10000 1.5 137 06:34 10.02.2022
3174 Clouds 13 1016 51 10000 0.63 155 03:33 10.02.2022
3175 Clouds 13 1015 50 10000 0.47 215 00:57 10.02.2022
3176 Clouds 14 1015 51 10000 0.88 204 00:38 10.02.2022
3177 Clouds 14 1016 51 10000 1.01 207 00:20 10.02.2022
3178 Clouds 15 1016 49 10000 1.51 171 22:57 09.02.2022
3179 Clouds 15 1016 49 10000 1.51 171 22:33 09.02.2022
3180 Clouds 16 1017 47 10000 1.52 131 21:48 09.02.2022
3181 Clouds 16 1017 47 10000 1.72 123 21:27 09.02.2022
3182 Clouds 16 1017 47 10000 1.72 123 20:45 09.02.2022
3183 Clouds 16 1017 47 10000 1.75 115 20:22 09.02.2022
3184 Clouds 16 1017 47 10000 1.75 115 19:42 09.02.2022
3185 Clouds 16 1017 46 10000 2.14 92 18:50 09.02.2022
3186 Clouds 18 1014 42 10000 4.61 99 17:24 09.02.2022
3187 Clouds 21 1012 34 10000 6.02 122 16:20 09.02.2022
3188 Clouds 23 1010 26 10000 5.77 146 15:24 09.02.2022
3189 Clouds 24 1010 26 10000 3.58 149 12:54 09.02.2022
3190 Clouds 23 1012 28 10000 3.22 154 11:36 09.02.2022
3191 Clouds 22 1013 30 10000 3.11 152 10:35 09.02.2022
3192 Clouds 21 1015 34 10000 2.96 141 09:53 09.02.2022
3193 Clouds 19 1017 39 10000 3.28 135 09:22 09.02.2022
3194 Clouds 19 1017 39 10000 3.28 135 08:46 09.02.2022
3195 Clouds 16 1019 53 10000 2.84 116 06:52 09.02.2022
3196 Clouds 13 1018 68 10000 1.35 118 04:30 09.02.2022
3197 Clouds 12 1018 70 10000 1.05 84 03:48 09.02.2022
3198 Clouds 13 1017 68 10000 1.61 110 23:45 08.02.2022
3199 Clouds 14 1017 65 10000 1.79 117 23:19 08.02.2022
3200 Clouds 14 1017 65 10000 1.79 117 23:19 08.02.2022
3201 Clouds 14 1017 65 10000 1.79 117 22:38 08.02.2022
3202 Clouds 14 1018 60 10000 2.18 127 22:20 08.02.2022
3203 Clouds 16 1017 53 10000 2.66 127 21:22 08.02.2022
3204 Clouds 16 1017 53 10000 2.66 127 20:58 08.02.2022
3205 Clouds 16 1017 53 10000 2.66 127 20:37 08.02.2022
3206 Clouds 16 1017 53 10000 2.66 127 20:37 08.02.2022
3207 Clouds 16 1018 54 10000 2.65 98 19:28 08.02.2022
3208 Clouds 16 1017 57 10000 3.02 98 18:24 08.02.2022
3209 Clouds 16 1017 57 10000 3.02 98 17:30 08.02.2022
3210 Clouds 19 1014 46 10000 6.09 109 15:47 08.02.2022
3211 Clouds 21 1012 39 10000 6.76 123 15:27 08.02.2022
3212 Clouds 22 1011 33 10000 6.77 135 13:50 08.02.2022
3213 Clouds 23 1012 30 10000 4.84 152 12:24 08.02.2022
3214 Clouds 22 1014 34 10000 4.1 149 10:49 08.02.2022
3215 Clouds 20 1016 39 10000 3.32 138 09:49 08.02.2022
3216 Clouds 18 1017 46 10000 3.15 125 08:39 08.02.2022
3217 Clouds 14 1020 70 10000 2.55 100 06:38 08.02.2022
3218 Clouds 11 1019 85 10000 1.74 98 04:40 08.02.2022
3219 Clouds 11 1019 85 10000 1.23 102 04:22 08.02.2022
3220 Clouds 11 1019 85 10000 1.23 102 03:36 08.02.2022
3221 Clouds 11 1018 85 10000 1.11 104 03:18 08.02.2022
3222 Clouds 11 1018 85 10000 1.11 104 02:59 08.02.2022
3223 Clouds 11 1018 85 10000 1.11 104 02:36 08.02.2022
3224 Clouds 11 1018 85 10000 1.09 124 02:18 08.02.2022
3225 Clouds 11 1018 85 10000 1.09 124 01:44 08.02.2022
3226 Clouds 11 1018 84 10000 1.27 82 01:25 08.02.2022
3227 Clouds 11 1018 84 10000 1.27 82 00:55 08.02.2022
3228 Clouds 13 1018 76 10000 2.28 100 00:21 08.02.2022
3229 Clouds 13 1018 76 10000 2.28 100 23:44 07.02.2022
3230 Clouds 14 1018 70 10000 3.07 120 23:18 07.02.2022
3231 Clouds 14 1018 70 10000 3.07 120 22:59 07.02.2022
3232 Clouds 14 1018 65 10000 2.99 121 22:19 07.02.2022
3233 Clouds 14 1018 65 10000 2.99 121 21:50 07.02.2022
3234 Clouds 15 1019 63 10000 2.67 113 21:27 07.02.2022
3235 Clouds 15 1019 63 10000 2.67 113 20:45 07.02.2022
3236 Clouds 15 1019 62 10000 2.47 106 20:27 07.02.2022
3237 Clouds 14 1019 62 10000 2.47 106 19:47 07.02.2022
3238 Clouds 15 1018 60 10000 2.44 109 18:35 07.02.2022
3239 Clouds 17 1015 49 10000 4.74 107 17:18 07.02.2022
3240 Clouds 17 1015 49 10000 4.74 107 16:46 07.02.2022
3241 Clouds 20 1013 35 10000 5.67 120 15:48 07.02.2022
3242 Clouds 23 1011 29 10000 5.87 141 13:58 07.02.2022
3243 Clouds 23 1011 28 10000 5.66 145 13:27 07.02.2022
3244 Clouds 23 1012 29 10000 4.94 144 12:18 07.02.2022
3245 Clouds 23 1012 29 10000 4.94 144 11:38 07.02.2022
3246 Clouds 22 1013 32 10000 4.44 146 10:59 07.02.2022
3247 Clouds 22 1013 32 10000 4.44 146 10:41 07.02.2022
3248 Clouds 20 1015 36 10000 4.1 149 10:22 07.02.2022
3249 Clouds 20 1015 36 10000 4.1 149 09:47 07.02.2022
3250 Clouds 18 1017 44 10000 3.15 142 09:18 07.02.2022
3251 Clouds 16 1019 56 10000 2.59 127 07:44 07.02.2022
3252 Clouds 13 1020 71 10000 2.56 114 06:34 07.02.2022
3253 Clouds 10 1019 89 10000 1.84 107 04:31 07.02.2022
3254 Clouds 11 1017 85 10000 1.43 122 01:37 07.02.2022
3255 Clouds 12 1017 78 10000 1.63 115 23:51 06.02.2022
3256 Clouds 13 1018 74 10000 1.89 122 23:20 06.02.2022
3257 Clouds 13 1018 74 10000 1.89 122 22:41 06.02.2022
3258 Clouds 14 1018 69 10000 2.34 119 21:38 06.02.2022
3259 Clouds 14 1018 64 10000 2.43 112 21:20 06.02.2022
3260 Clouds 14 1018 64 10000 2.43 112 20:48 06.02.2022
3261 Clouds 15 1018 60 10000 2.38 119 20:21 06.02.2022
3262 Clouds 16 1017 56 10000 2.72 110 18:54 06.02.2022
3263 Clouds 17 1016 48 10000 3.21 109 18:27 06.02.2022
3264 Clouds 17 1016 48 10000 3.21 109 17:30 06.02.2022
3265 Clouds 18 1015 39 10000 4 110 16:51 06.02.2022
3266 Clouds 21 1013 30 10000 5.84 121 15:51 06.02.2022
3267 Clouds 23 1011 24 10000 6.93 132 15:28 06.02.2022
3268 Clouds 23 1011 24 10000 6.93 132 14:59 06.02.2022
3269 Clouds 24 1010 19 10000 5.98 147 13:57 06.02.2022
3270 Clouds 24 1010 20 10000 5.07 156 13:20 06.02.2022
3271 Clouds 24 1011 20 10000 3.95 155 12:19 06.02.2022
3272 Clouds 23 1013 22 10000 3.3 146 10:33 06.02.2022
3273 Clouds 21 1015 25 10000 3.09 141 09:36 06.02.2022
3274 Clouds 20 1017 29 10000 2.73 141 08:41 06.02.2022
3275 Clouds 15 1019 37 10000 1.68 130 06:31 06.02.2022
3276 Clouds 12 1019 41 10000 0.81 121 05:28 06.02.2022
3277 Clouds 12 1017 34 10000 0.84 216 02:25 06.02.2022
3278 Clouds 12 1017 33 10000 0.61 199 00:32 06.02.2022
3279 Clear 13 1017 31 10000 0.51 183 23:38 05.02.2022
3280 Clear 14 1018 27 10000 1.22 129 21:46 05.02.2022
3281 Clear 14 1018 25 10000 1.79 104 20:39 05.02.2022
3282 Clear 15 1018 24 10000 2.57 87 20:19 05.02.2022
3283 Clear 15 1018 24 10000 2.57 87 19:41 05.02.2022
3284 Clouds 16 1016 22 10000 3.1 95 18:26 05.02.2022
3285 Clouds 16 1016 22 10000 3.1 95 17:34 05.02.2022
3286 Clouds 20 1012 16 10000 5.81 118 15:51 05.02.2022
3287 Clouds 23 1010 14 10000 5.66 142 15:29 05.02.2022
3288 Clouds 24 1010 14 10000 2.92 186 13:25 05.02.2022
3289 Clouds 24 1010 14 10000 2.92 186 13:25 05.02.2022
3290 Clouds 24 1010 14 10000 2.92 186 12:42 05.02.2022
3291 Clouds 22 1013 16 10000 3.59 166 11:29 05.02.2022
3292 Clouds 22 1013 16 10000 3.59 166 10:43 05.02.2022
3293 Clouds 21 1015 16 10000 3.51 157 09:49 05.02.2022
3294 Clouds 20 1016 16 10000 3.02 138 08:34 05.02.2022
3295 Clouds 16 1018 18 10000 1.87 133 06:58 05.02.2022
3296 Clouds 14 1018 25 10000 0.36 139 05:44 05.02.2022
3297 Clouds 12 1016 30 10000 0.49 295 02:31 05.02.2022
3298 Clouds 13 1015 29 10000 0.76 298 01:18 05.02.2022
3299 Clouds 13 1016 31 10000 1.15 300 00:36 05.02.2022
3300 Clouds 13 1016 30 10000 0.35 284 23:33 04.02.2022
3301 Clouds 14 1016 30 10000 0.95 103 22:37 04.02.2022
3302 Clouds 14 1017 30 10000 1.56 124 21:36 04.02.2022
3303 Clear 15 1017 30 10000 1.81 113 21:18 04.02.2022
3304 Clear 15 1017 30 10000 2.36 92 20:28 04.02.2022
3305 Clear 15 1017 28 10000 2.57 82 18:30 04.02.2022
3306 Clear 20 1012 25 10000 5.66 119 15:57 04.02.2022
3307 Clouds 23 1010 20 10000 6.39 135 14:56 04.02.2022
3308 Clear 24 1009 17 10000 5.59 151 14:24 04.02.2022
3309 Clouds 24 1009 18 10000 4.17 170 12:43 04.02.2022
3310 Clouds 24 1011 19 10000 3.1 177 11:43 04.02.2022
3311 Clouds 23 1013 21 10000 2.56 180 10:51 04.02.2022
3312 Clouds 22 1015 23 10000 2.12 174 09:31 04.02.2022
3313 Clouds 18 1018 32 10000 1.61 159 07:35 04.02.2022
3314 Clouds 11 1018 49 10000 0.99 35 02:54 04.02.2022
3315 Clouds 12 1017 50 10000 0.98 41 02:20 04.02.2022
3316 Clouds 12 1018 51 10000 0.35 71 23:32 03.02.2022
3317 Clouds 12 1018 50 10000 0.89 107 22:48 03.02.2022
3318 Clouds 13 1019 49 10000 1.68 116 21:50 03.02.2022
3319 Clouds 13 1020 49 10000 1.98 113 20:50 03.02.2022
3320 Clouds 14 1020 48 10000 2.2 108 20:20 03.02.2022
3321 Clouds 14 1020 48 10000 2.2 108 19:34 03.02.2022
3322 Clouds 14 1019 46 10000 2.38 104 18:48 03.02.2022
3323 Clouds 15 1019 44 10000 2.61 108 17:47 03.02.2022
3324 Clouds 16 1017 40 10000 4.05 111 16:39 03.02.2022
3325 Clouds 20 1014 32 10000 6.36 115 14:54 03.02.2022
3326 Clouds 22 1012 30 10000 5.79 133 13:19 03.02.2022
3327 Clouds 22 1013 33 10000 5.02 153 11:43 03.02.2022
3328 Clouds 19 1018 45 10000 2.2 151 08:40 03.02.2022
3329 Clouds 15 1020 62 10000 1.2 161 07:20 03.02.2022
3330 Clouds 13 1017 68 10000 0.87 115 00:33 03.02.2022
3331 Clouds 14 1018 65 10000 1.12 111 23:45 02.02.2022
3332 Clouds 14 1018 63 10000 1.81 118 22:36 02.02.2022
3333 Clouds 15 1018 59 10000 2 121 21:37 02.02.2022
3334 Clouds 16 1018 55 10000 2.25 120 20:56 02.02.2022
3335 Clouds 17 1018 53 10000 2.47 107 20:00 02.02.2022
3336 Clouds 17 1018 53 10000 2.47 107 19:41 02.02.2022
3337 Clouds 17 1017 52 10000 2.81 87 18:53 02.02.2022
3338 Clouds 16 1017 54 10000 2.91 92 18:22 02.02.2022
3339 Clouds 17 1016 51 10000 3.64 102 17:20 02.02.2022
3340 Clouds 17 1016 51 10000 3.64 102 17:20 02.02.2022
3341 Clouds 17 1016 51 10000 3.64 102 16:46 02.02.2022
3342 Clouds 22 1012 34 10000 6.8 125 13:57 02.02.2022
3343 Clouds 22 1012 29 10000 4.01 167 12:25 02.02.2022
3344 Clouds 22 1012 29 10000 4.01 167 11:37 02.02.2022
3345 Clouds 21 1014 33 10000 3.14 166 10:38 02.02.2022
3346 Clouds 16 1019 44 10000 2.43 153 07:40 02.02.2022
3347 Clouds 13 1017 41 10000 1.93 128 22:53 01.02.2022
3348 Clouds 14 1018 40 10000 2.02 85 21:52 01.02.2022
3349 Clouds 14 1018 40 10000 2.03 103 20:47 01.02.2022
3350 Clouds 15 1016 40 10000 2.76 84 17:59 01.02.2022
3351 Clouds 17 1015 36 10000 3.69 101 16:42 01.02.2022
3352 Clouds 22 1010 23 10000 5.63 155 14:49 01.02.2022
3353 Clouds 22 1010 22 10000 4.09 164 12:47 01.02.2022
3354 Clouds 22 1011 24 10000 3.4 150 11:34 01.02.2022
3355 Clouds 14 1018 36 10000 2.01 136 05:43 01.02.2022
3356 Clouds 14 1015 41 10000 1.01 108 23:51 31.01.2022
3357 Clouds 14 1015 40 10000 1.32 97 23:28 31.01.2022
3358 Clouds 15 1015 39 10000 1.41 109 21:59 31.01.2022
3359 Clouds 15 1015 39 10000 1.41 109 21:32 31.01.2022
3360 Clouds 15 1016 40 10000 1.99 120 20:33 31.01.2022
3361 Clouds 15 1016 40 10000 2.07 92 19:45 31.01.2022
3362 Clouds 16 1015 37 10000 2.23 95 18:26 31.01.2022
3363 Clouds 16 1014 38 10000 2.45 96 17:43 31.01.2022
3364 Clouds 18 1012 31 10000 3.42 116 16:43 31.01.2022
3365 Clouds 21 1010 23 10000 2.86 148 15:43 31.01.2022
3366 Clouds 23 1009 21 10000 2.65 178 14:22 31.01.2022
3367 Clouds 23 1010 21 10000 2.89 185 12:39 31.01.2022
3368 Clouds 22 1011 22 10000 3.05 190 11:56 31.01.2022
3369 Clouds 21 1012 24 10000 2.99 189 10:50 31.01.2022
3370 Clouds 21 1012 24 10000 2.99 189 10:32 31.01.2022
3371 Clouds 19 1015 27 10000 2.63 174 09:27 31.01.2022
3372 Clouds 19 1015 27 10000 2.63 174 08:51 31.01.2022
3373 Clouds 17 1016 30 10000 2.41 165 08:20 31.01.2022
3374 Clouds 13 1017 38 10000 0.76 138 06:18 31.01.2022
3375 Clouds 11 1016 43 10000 0.67 42 02:18 31.01.2022
3376 Clouds 12 1016 43 10000 1.17 133 23:19 30.01.2022
3377 Clouds 13 1017 42 10000 1.28 126 22:29 30.01.2022
3378 Clouds 13 1017 42 10000 1.28 126 21:42 30.01.2022
3379 Clear 13 1017 43 10000 1.63 104 21:19 30.01.2022
3380 Clear 13 1017 43 10000 1.63 104 21:19 30.01.2022
3381 Clear 13 1017 43 10000 1.63 104 20:47 30.01.2022
3382 Clear 14 1017 42 10000 2.13 99 20:28 30.01.2022
3383 Clear 14 1017 42 10000 2.13 99 19:52 30.01.2022
3384 Clouds 14 1017 40 10000 2.54 92 18:44 30.01.2022
3385 Clouds 15 1016 37 10000 3.07 103 18:20 30.01.2022
3386 Clouds 17 1014 32 10000 3.74 110 17:27 30.01.2022
3387 Clouds 17 1014 32 10000 3.74 110 16:40 30.01.2022
3388 Clouds 20 1012 25 10000 5.34 116 16:22 30.01.2022
3389 Clouds 20 1012 25 10000 5.34 116 15:50 30.01.2022
3390 Clouds 20 1012 25 10000 5.34 116 15:31 30.01.2022
3391 Clouds 22 1011 21 10000 5.49 125 14:46 30.01.2022
3392 Clouds 23 1010 20 10000 4.37 140 12:47 30.01.2022
3393 Clouds 22 1011 21 10000 4.32 146 11:59 30.01.2022
3394 Clouds 20 1014 26 10000 3.6 142 10:36 30.01.2022
3395 Clouds 20 1014 26 10000 3.61 142 09:51 30.01.2022
3396 Clouds 19 1016 30 10000 3.43 134 08:55 30.01.2022
3397 Clouds 15 1018 41 10000 2.05 130 07:28 30.01.2022
3398 Clouds 11 1017 58 10000 1.25 111 01:56 30.01.2022
3399 Clouds 11 1017 58 10000 0.94 119 00:34 30.01.2022
3400 Clouds 12 1018 57 10000 1.04 119 23:20 29.01.2022
3401 Clear 12 1019 56 10000 1.38 110 21:50 29.01.2022
3402 Clear 13 1019 56 10000 1.61 93 21:24 29.01.2022
3403 Clear 13 1019 56 10000 1.61 93 20:32 29.01.2022
3404 Clear 13 1019 54 10000 2.19 88 19:34 29.01.2022
3405 Clouds 14 1019 56 10000 2.87 101 18:52 29.01.2022
3406 Clear 15 1018 48 10000 3.03 105 18:23 29.01.2022
3407 Clear 15 1018 48 10000 3.03 105 17:31 29.01.2022
3408 Clear 19 1014 29 10000 5.24 115 16:25 29.01.2022
3409 Clear 22 1012 20 10000 4.66 141 14:23 29.01.2022
3410 Clear 22 1012 20 10000 4.66 141 13:44 29.01.2022
3411 Clouds 23 1012 19 10000 4.52 146 13:24 29.01.2022
3412 Clouds 22 1013 20 10000 4.24 146 11:49 29.01.2022
3413 Clouds 21 1015 22 10000 3.84 144 11:24 29.01.2022
3414 Clouds 19 1018 27 10000 3.55 134 08:57 29.01.2022
3415 Clouds 14 1020 43 10000 1.81 131 06:55 29.01.2022
3416 Clouds 11 1017 59 10000 0.97 142 00:36 29.01.2022
3417 Clouds 12 1017 58 10000 1.39 142 23:52 28.01.2022
3418 Clouds 12 1018 57 10000 1.49 148 22:50 28.01.2022
3419 Clouds 13 1018 56 10000 1.39 129 22:21 28.01.2022
3420 Clouds 12 1018 56 10000 1.4 130 21:37 28.01.2022
3421 Clouds 13 1018 55 10000 1.52 116 20:30 28.01.2022
3422 Clouds 14 1018 50 10000 2.53 104 19:31 28.01.2022
3423 Clouds 14 1018 50 10000 2.54 103 18:43 28.01.2022
3424 Clouds 16 1016 38 10000 4.26 111 16:54 28.01.2022
3425 Clear 22 1011 19 10000 5.23 147 15:20 28.01.2022
3426 Clear 23 1011 17 10000 4.47 162 13:50 28.01.2022
3427 Clear 23 1011 22 10000 4.04 174 12:30 28.01.2022
3428 Clouds 21 1014 24 10000 2.96 176 11:24 28.01.2022
3429 Clouds 20 1016 27 10000 2.63 165 09:52 28.01.2022
3430 Clouds 16 1019 35 10000 2.03 149 08:22 28.01.2022
3431 Clouds 16 1019 35 10000 2.03 149 07:34 28.01.2022
3432 Clouds 10 1019 61 10000 0.71 116 03:57 28.01.2022
3433 Clouds 10 1018 60 10000 1.05 124 03:20 28.01.2022
3434 Clear 10 1018 59 10000 1.09 135 02:22 28.01.2022
3435 Clear 10 1018 59 10000 1.09 135 01:31 28.01.2022
3436 Clouds 12 1018 53 10000 1.64 146 22:48 27.01.2022
3437 Clouds 12 1018 51 10000 1.57 143 21:46 27.01.2022
3438 Clouds 13 1018 50 10000 1.51 117 21:28 27.01.2022
3439 Clouds 14 1018 47 10000 1.97 110 20:25 27.01.2022
3440 Clouds 15 1017 45 10000 3 99 18:26 27.01.2022
3441 Clouds 15 1017 45 10000 2.99 99 17:34 27.01.2022
3442 Clouds 21 1012 28 10000 6.24 125 14:35 27.01.2022
3443 Clouds 22 1011 22 10000 4.37 160 13:26 27.01.2022
3444 Clouds 22 1011 22 10000 4.4 160 12:39 27.01.2022
3445 Clouds 20 1015 26 10000 2.22 166 09:56 27.01.2022
3446 Clouds 18 1017 29 10000 2.1 155 08:48 27.01.2022
3447 Clouds 16 1017 32 10000 2.02 143 08:28 27.01.2022
3448 Clear 11 1017 45 10000 1.05 52 03:47 27.01.2022
3449 Clear 11 1017 45 10000 1.16 133 00:25 27.01.2022
3450 Clear 11 1017 45 10000 1.16 133 00:25 27.01.2022
3451 Clear 12 1017 45 10000 1.49 144 22:39 26.01.2022
3452 Clear 12 1018 46 10000 0.93 148 21:45 26.01.2022
3453 Clear 13 1018 46 10000 0.73 101 21:26 26.01.2022
3454 Clear 13 1018 46 10000 0.73 101 20:35 26.01.2022
3455 Clear 13 1018 47 10000 1.51 86 19:52 26.01.2022
3456 Clear 14 1018 46 10000 2.43 99 19:18 26.01.2022
3457 Clear 14 1016 42 10000 3.01 103 18:26 26.01.2022
3458 Clear 14 1016 42 10000 3.01 103 17:49 26.01.2022
3459 Clear 16 1015 37 10000 3.48 111 17:19 26.01.2022
3460 Clear 19 1013 28 10000 4.27 115 16:26 26.01.2022
3461 Clear 21 1012 23 10000 5.04 110 15:24 26.01.2022
3462 Clear 22 1011 21 10000 4.78 123 12:52 26.01.2022
3463 Clear 21 1013 23 10000 3.9 132 10:57 26.01.2022
3464 Clear 20 1015 27 10000 3.47 134 09:59 26.01.2022
3465 Clear 20 1015 27 10000 3.48 134 09:40 26.01.2022
3466 Clear 14 1018 46 10000 2.2 124 07:28 26.01.2022
3467 Clear 10 1017 67 10000 1.19 114 00:44 26.01.2022
3468 Clear 11 1017 65 10000 1.15 125 23:44 25.01.2022
3469 Clear 11 1018 63 10000 0.96 120 22:50 25.01.2022
3470 Clear 12 1019 61 10000 1.07 110 22:20 25.01.2022
3471 Clear 12 1019 61 10000 1.07 110 21:35 25.01.2022
3472 Clear 12 1019 59 10000 1.41 97 20:46 25.01.2022
3473 Clear 13 1019 57 10000 1.98 96 19:59 25.01.2022
3474 Clear 13 1019 57 10000 1.98 96 19:34 25.01.2022
3475 Clouds 14 1017 49 10000 2.85 104 18:20 25.01.2022
3476 Clouds 14 1017 49 10000 2.84 104 17:39 25.01.2022
3477 Clouds 15 1016 44 10000 3.33 115 16:35 25.01.2022
3478 Clouds 18 1014 36 10000 5.03 116 15:39 25.01.2022
3479 Clouds 21 1012 28 10000 5.56 123 15:20 25.01.2022
3480 Clouds 21 1012 28 10000 5.56 123 14:56 25.01.2022
3481 Clouds 23 1011 21 10000 4.17 136 12:32 25.01.2022
3482 Clouds 19 1015 38 10000 3.25 149 09:58 25.01.2022
3483 Clouds 16 1018 56 10000 2.5 138 08:29 25.01.2022
3484 Clouds 14 1019 67 10000 2.14 128 07:28 25.01.2022
3485 Clouds 12 1019 76 10000 1.55 109 05:54 25.01.2022
3486 Clouds 11 1017 79 10000 1.18 155 00:58 25.01.2022
3487 Clouds 11 1017 76 10000 1.04 148 23:36 24.01.2022
3488 Clouds 12 1018 75 10000 1.42 141 23:18 24.01.2022
3489 Clouds 12 1018 75 10000 1.42 141 22:53 24.01.2022
3490 Clouds 12 1018 75 10000 1.42 141 22:35 24.01.2022
3491 Clouds 12 1018 73 10000 1.54 137 21:42 24.01.2022
3492 Clouds 13 1019 71 10000 1.6 125 21:24 24.01.2022
3493 Clouds 13 1019 69 10000 2.17 106 20:28 24.01.2022
3494 Clouds 13 1019 69 10000 2.17 106 19:38 24.01.2022
3495 Clouds 14 1018 66 10000 2.61 105 18:50 24.01.2022
3496 Clouds 14 1017 59 10000 3.15 106 17:42 24.01.2022
3497 Clouds 16 1016 53 10000 4.63 108 17:22 24.01.2022
3498 Clouds 16 1016 53 10000 4.63 108 16:31 24.01.2022
3499 Clouds 18 1014 45 10000 5.87 114 15:35 24.01.2022
3500 Clouds 22 1011 27 10000 3.05 164 13:59 24.01.2022
3501 Clouds 22 1011 27 10000 2.63 166 12:34 24.01.2022
3502 Clouds 21 1013 28 10000 2.44 163 11:41 24.01.2022
3503 Clouds 19 1016 34 10000 2.22 146 10:19 24.01.2022
3504 Clouds 19 1016 34 10000 2.17 146 09:45 24.01.2022
3505 Clouds 16 1019 44 10000 2.27 123 08:18 24.01.2022
3506 Clouds 11 1017 53 10000 0.86 96 02:26 24.01.2022
3507 Clouds 11 1017 52 10000 1.28 116 01:26 24.01.2022
3508 Clouds 11 1017 52 10000 1.28 116 01:26 24.01.2022
3509 Clouds 11 1017 51 10000 1.35 110 00:31 24.01.2022
3510 Clouds 11 1017 50 10000 1.29 136 23:40 23.01.2022
3511 Clear 13 1018 47 10000 1.55 130 22:20 23.01.2022
3512 Clear 13 1018 47 10000 1.57 132 21:40 23.01.2022
3513 Clear 13 1018 45 10000 1.67 107 21:20 23.01.2022
3514 Clear 14 1019 46 10000 2.24 100 20:22 23.01.2022
3515 Clouds 14 1018 45 10000 2.36 102 18:56 23.01.2022
3516 Clouds 14 1017 43 10000 2.45 107 18:24 23.01.2022
3517 Clouds 15 1016 39 10000 3.46 111 17:19 23.01.2022
3518 Clouds 18 1014 33 10000 4.94 122 15:59 23.01.2022
3519 Clouds 20 1012 22 10000 4.66 141 14:52 23.01.2022
3520 Clouds 22 1011 19 10000 3.9 155 14:18 23.01.2022
3521 Clouds 22 1012 19 10000 2.91 159 12:46 23.01.2022
3522 Clouds 21 1013 19 10000 2.66 163 12:20 23.01.2022
3523 Clouds 21 1015 21 10000 2.54 158 11:26 23.01.2022
3524 Clouds 21 1015 21 10000 2.54 158 10:57 23.01.2022
3525 Clouds 19 1016 22 10000 2.18 139 10:25 23.01.2022
3526 Clouds 19 1016 22 10000 2.18 139 09:31 23.01.2022
3527 Clouds 18 1017 23 10000 2.46 135 08:49 23.01.2022
3528 Clouds 11 1018 41 10000 1.23 73 03:49 23.01.2022
3529 Clouds 11 1018 43 10000 1.54 79 01:38 23.01.2022
3530 Clouds 11 1018 43 10000 1.31 83 00:47 23.01.2022
3531 Clouds 12 1018 44 10000 1.41 81 23:59 22.01.2022
3532 Clouds 12 1019 49 10000 1.67 85 22:55 22.01.2022
3533 Clouds 12 1019 49 10000 1.67 85 22:33 22.01.2022
3534 Clouds 12 1020 55 10000 1.56 85 20:46 22.01.2022
3535 Clouds 13 1020 56 10000 2.19 98 19:46 22.01.2022
3536 Clouds 13 1020 53 10000 2.57 106 18:38 22.01.2022
3537 Clouds 14 1019 52 10000 2.73 123 17:49 22.01.2022
3538 Clouds 15 1017 49 10000 3.01 119 17:29 22.01.2022
3539 Clouds 15 1017 49 10000 3.01 119 16:54 22.01.2022
3540 Clouds 17 1015 44 10000 4.87 114 15:45 22.01.2022
3541 Clouds 20 1013 34 10000 4.91 122 14:55 22.01.2022
3542 Clouds 21 1012 29 10000 4.48 127 13:31 22.01.2022
3543 Clouds 21 1012 28 10000 4.18 127 12:40 22.01.2022
3544 Clouds 21 1013 28 10000 3.77 130 12:20 22.01.2022
3545 Clouds 20 1015 30 10000 3.46 134 10:55 22.01.2022
3546 Clouds 19 1016 35 10000 2.97 123 10:26 22.01.2022
3547 Clouds 17 1018 41 10000 3.34 122 09:25 22.01.2022
3548 Clouds 17 1018 41 10000 3.34 122 08:50 22.01.2022
3549 Clouds 13 1020 57 10000 2.52 94 06:56 22.01.2022
3550 Clouds 10 1019 73 10000 1.59 101 02:40 22.01.2022
3551 Clouds 11 1019 66 10000 1.04 111 00:31 22.01.2022
3552 Clouds 12 1020 60 10000 1.72 118 23:21 21.01.2022
3553 Clouds 12 1020 60 10000 2.05 90 22:19 21.01.2022
3554 Clouds 12 1021 69 10000 2.45 83 19:52 21.01.2022
3555 Clouds 13 1020 67 10000 2.78 91 18:21 21.01.2022
3556 Clouds 14 1018 61 10000 3.65 106 16:54 21.01.2022
3557 Clouds 19 1015 43 10000 6.15 116 15:24 21.01.2022
3558 Clouds 21 1013 31 10000 5.04 120 12:51 21.01.2022
3559 Clouds 20 1016 36 10000 3.74 131 11:29 21.01.2022
3560 Clouds 20 1016 36 10000 3.79 132 10:51 21.01.2022
3561 Clouds 17 1019 51 10000 2.32 135 09:26 21.01.2022
3562 Clouds 15 1020 60 10000 2.03 142 08:20 21.01.2022
3563 Clouds 11 1020 82 10000 1.17 106 04:36 21.01.2022
3564 Clouds 12 1019 71 10000 1.86 116 22:52 20.01.2022
3565 Clouds 13 1019 67 10000 2.12 116 21:49 20.01.2022
3566 Clouds 14 1020 63 10000 2.57 121 21:28 20.01.2022
3567 Rain 15 1020 64 10000 3.03 119 19:56 20.01.2022
3568 Rain 15 1019 70 10000 3.04 119 19:19 20.01.2022
3569 Rain 14 1019 73 10000 2.27 115 17:38 20.01.2022
3570 Clouds 15 1017 68 10000 3.56 115 16:35 20.01.2022
3571 Clouds 17 1015 57 10000 4.92 117 15:40 20.01.2022
3572 Clouds 19 1013 45 10000 5.52 124 14:40 20.01.2022
3573 Clouds 21 1012 34 10000 3.72 137 13:21 20.01.2022
3574 Clear 21 1013 35 10000 3.89 134 12:31 20.01.2022
3575 Clear 20 1016 39 10000 3.6 128 11:20 20.01.2022
3576 Clouds 19 1017 45 10000 3.28 127 10:19 20.01.2022
3577 Clouds 17 1019 53 10000 3.45 128 09:19 20.01.2022
3578 Clouds 14 1021 70 10000 2.27 115 07:24 20.01.2022
3579 Clouds 11 1019 75 10000 0.81 111 00:41 20.01.2022
3580 Clouds 12 1019 69 10000 1.33 90 22:50 19.01.2022
3581 Clouds 12 1020 67 10000 2.05 96 21:44 19.01.2022
3582 Clouds 13 1020 70 10000 2.33 85 21:22 19.01.2022
3583 Clouds 13 1020 70 10000 2.33 85 20:45 19.01.2022
3584 Rain 14 1020 73 10000 3.16 96 19:26 19.01.2022
3585 Rain 14 1019 78 10000 2.95 105 17:51 19.01.2022
3586 Clouds 15 1017 72 10000 3.43 113 17:28 19.01.2022
3587 Clouds 17 1016 58 10000 4.66 117 15:44 19.01.2022
3588 Clouds 20 1013 43 10000 5.09 121 13:38 19.01.2022
3589 Clouds 19 1015 49 10000 3.37 129 12:24 19.01.2022
3590 Clouds 19 1015 49 10000 3.37 129 11:38 19.01.2022
3591 Clouds 18 1017 57 10000 2.6 140 10:20 19.01.2022
3592 Clouds 18 1017 57 10000 2.6 140 09:33 19.01.2022
3593 Clouds 14 1021 79 10000 1.73 151 06:34 19.01.2022
3594 Clouds 12 1019 88 10000 0.11 116 01:40 19.01.2022
3595 Clouds 13 1019 83 10000 1.32 128 23:18 18.01.2022
3596 Rain 13 1020 84 10000 1.32 149 21:56 18.01.2022
3597 Rain 14 1020 83 10000 1.41 162 20:47 18.01.2022
3598 Rain 14 1020 80 10000 1.39 132 19:54 18.01.2022
3599 Rain 14 1020 80 10000 1.36 133 19:35 18.01.2022
3600 Rain 14 1020 82 10000 0.85 89 18:36 18.01.2022
3601 Clouds 14 1020 79 10000 1.2 91 17:48 18.01.2022
3602 Rain 14 1019 78 10000 1.43 90 16:35 18.01.2022
3603 Rain 14 1018 76 10000 1.94 52 15:26 18.01.2022
3604 Rain 14 1018 76 10000 1.94 52 14:54 18.01.2022
3605 Rain 16 1017 68 10000 3.19 129 11:52 18.01.2022
3606 Rain 17 1017 67 10000 2.12 156 10:41 18.01.2022
3607 Rain 14 1020 79 10000 0.17 155 08:49 18.01.2022
3608 Rain 14 1021 83 10000 0.25 114 07:46 18.01.2022
3609 Rain 13 1018 83 10000 0.8 44 02:20 18.01.2022
3610 Rain 13 1018 87 7717 1.83 51 23:22 17.01.2022
3611 Rain 13 1018 84 10000 1.76 57 22:19 17.01.2022
3612 Rain 13 1018 84 10000 1.76 57 21:32 17.01.2022
3613 Rain 15 1019 77 10000 2.79 99 19:51 17.01.2022
3614 Rain 15 1017 75 10000 1.83 94 18:28 17.01.2022
3615 Rain 16 1016 69 10000 2.13 98 17:24 17.01.2022
3616 Rain 18 1015 61 10000 2.66 100 16:24 17.01.2022
3617 Rain 19 1013 53 10000 2.42 118 14:59 17.01.2022
3618 Rain 19 1013 53 10000 2.42 118 14:33 17.01.2022
3619 Rain 20 1012 47 10000 1.96 171 13:19 17.01.2022
3620 Rain 20 1012 47 10000 1.96 171 12:52 17.01.2022
3621 Rain 19 1013 50 10000 1.89 167 11:47 17.01.2022
3622 Rain 18 1016 56 10000 2.71 138 10:21 17.01.2022
3623 Rain 17 1017 60 10000 2.55 142 08:44 17.01.2022
3624 Rain 16 1018 67 10000 2.25 145 07:22 17.01.2022
3625 Rain 16 1018 67 10000 2.25 145 07:22 17.01.2022
3626 Rain 14 1015 77 10000 1.43 147 02:20 17.01.2022
3627 Rain 14 1015 77 10000 1.86 168 00:53 17.01.2022
3628 Clouds 15 1017 65 10000 1.91 221 21:26 16.01.2022
3629 Clouds 15 1017 65 10000 1.91 221 20:30 16.01.2022
3630 Rain 16 1016 60 10000 0.15 89 18:48 16.01.2022
3631 Clouds 17 1015 56 10000 0.81 102 17:51 16.01.2022
3632 Clouds 18 1013 49 10000 1.68 120 16:56 16.01.2022
3633 Clouds 20 1012 45 10000 2.58 86 15:50 16.01.2022
3634 Clouds 21 1011 41 10000 3.25 113 14:30 16.01.2022
3635 Clouds 20 1011 44 10000 4.25 113 13:33 16.01.2022
3636 Clouds 22 1011 33 10000 3.53 166 12:22 16.01.2022
3637 Clouds 22 1012 34 10000 3.72 176 11:29 16.01.2022
3638 Clouds 22 1012 34 10000 3.72 176 10:43 16.01.2022
3639 Clouds 21 1013 37 10000 3.75 165 09:58 16.01.2022
3640 Clouds 21 1013 37 10000 3.75 165 09:38 16.01.2022
3641 Clouds 20 1015 42 10000 3.62 151 09:19 16.01.2022
3642 Clouds 17 1017 53 10000 2.15 153 07:21 16.01.2022
3643 Clouds 14 1014 60 10000 0.94 150 00:36 16.01.2022
3644 Clouds 16 1015 53 10000 1.5 183 22:53 15.01.2022
3645 Clouds 16 1015 50 10000 1.83 79 21:22 15.01.2022
3646 Clouds 16 1015 50 10000 1.83 79 20:45 15.01.2022
3647 Clouds 17 1015 47 10000 1.93 89 20:22 15.01.2022
3648 Clouds 17 1015 47 10000 1.27 74 19:27 15.01.2022
3649 Clouds 17 1015 50 10000 1.25 51 18:20 15.01.2022
3650 Clouds 17 1014 50 10000 0.81 352 16:49 15.01.2022
3651 Clouds 18 1013 46 10000 1.55 50 14:38 15.01.2022
3652 Clouds 20 1012 39 10000 1.85 353 12:40 15.01.2022
3653 Clouds 21 1013 37 10000 2.6 201 11:26 15.01.2022
3654 Clouds 20 1014 40 10000 2.78 198 09:46 15.01.2022
3655 Rain 13 1018 73 10000 0.77 69 04:46 15.01.2022
3656 Rain 14 1017 63 10000 1.84 319 23:21 14.01.2022
3657 Clouds 15 1017 61 10000 1.64 24 21:18 14.01.2022
3658 Clouds 15 1017 59 10000 2.45 70 20:25 14.01.2022
3659 Clouds 15 1017 59 10000 2.45 70 20:25 14.01.2022
3660 Clouds 15 1017 59 10000 2.45 70 19:50 14.01.2022
3661 Rain 16 1017 56 10000 2.42 119 18:41 14.01.2022
3662 Clouds 17 1016 46 10000 2.32 145 17:36 14.01.2022
3663 Clouds 18 1014 40 10000 0.6 149 16:42 14.01.2022
3664 Clouds 20 1012 34 10000 0.95 314 15:32 14.01.2022
3665 Clouds 21 1011 31 10000 2.32 332 14:26 14.01.2022
3666 Clouds 22 1011 29 10000 1.89 322 12:58 14.01.2022
3667 Clouds 22 1011 28 10000 1.92 256 11:52 14.01.2022
3668 Clouds 22 1012 27 10000 2.02 210 10:39 14.01.2022
3669 Clouds 20 1016 30 10000 1.18 195 08:53 14.01.2022
3670 Clouds 19 1017 33 10000 1.48 149 07:30 14.01.2022
3671 Clouds 12 1017 53 10000 0.71 54 02:27 14.01.2022
3672 Clouds 13 1017 52 10000 0.52 97 00:21 14.01.2022
3673 Clouds 14 1018 52 10000 0.75 101 21:47 13.01.2022
3674 Clouds 14 1018 52 10000 0.75 101 21:47 13.01.2022
3675 Clouds 14 1019 50 10000 1.56 110 21:29 13.01.2022
3676 Clouds 15 1019 49 10000 1.96 108 19:47 13.01.2022
3677 Clouds 15 1018 48 10000 2.15 97 19:28 13.01.2022
3678 Clouds 15 1018 48 10000 2.15 97 18:37 13.01.2022
3679 Clouds 17 1016 43 10000 2.74 107 16:52 13.01.2022
3680 Clouds 19 1014 35 10000 5.12 117 15:39 13.01.2022
3681 Clouds 22 1012 27 10000 5.87 129 15:20 13.01.2022
3682 Clouds 23 1011 23 10000 4.73 155 13:28 13.01.2022
3683 Clouds 23 1014 23 10000 3.94 140 10:49 13.01.2022
3684 Clouds 20 1017 29 10000 3.48 122 09:23 13.01.2022
3685 Clouds 18 1018 34 10000 3.22 117 08:29 13.01.2022
3686 Clouds 18 1018 34 10000 3.22 117 07:58 13.01.2022
3687 Clouds 16 1019 40 10000 2.51 110 07:18 13.01.2022
3688 Clouds 11 1020 53 10000 1.46 80 05:20 13.01.2022
3689 Clouds 11 1019 52 10000 1.66 92 03:34 13.01.2022
3690 Clouds 12 1017 59 10000 1.35 65 01:38 13.01.2022
3691 Clouds 12 1018 62 10000 1.32 73 23:53 12.01.2022
3692 Clouds 12 1018 62 10000 1.32 73 23:34 12.01.2022
3693 Clouds 13 1019 59 10000 2.1 95 22:22 12.01.2022
3694 Clouds 13 1019 59 10000 2.1 95 21:43 12.01.2022
3695 Clouds 14 1019 57 10000 2.04 106 21:18 12.01.2022
3696 Clouds 14 1019 57 10000 2.04 106 20:44 12.01.2022
3697 Clouds 15 1019 53 10000 1.99 98 18:48 12.01.2022
3698 Clouds 16 1018 47 10000 2.27 99 17:54 12.01.2022
3699 Clouds 17 1017 45 10000 3.04 105 16:43 12.01.2022
3700 Clouds 19 1015 44 10000 3.27 83 14:49 12.01.2022
3701 Clouds 19 1014 43 10000 4.14 100 13:40 12.01.2022
3702 Clouds 22 1013 33 10000 5.75 126 12:57 12.01.2022
3703 Clouds 19 1018 43 10000 3.01 101 09:26 12.01.2022
3704 Clouds 17 1019 50 10000 2.95 104 07:57 12.01.2022
3705 Clouds 17 1019 50 10000 2.95 104 07:33 12.01.2022
3706 Clouds 12 1018 70 10000 1.05 64 02:20 12.01.2022
3707 Clouds 13 1018 67 10000 1.66 48 23:26 11.01.2022
3708 Clouds 14 1019 65 10000 1.97 84 22:25 11.01.2022
3709 Clouds 14 1019 61 10000 1.73 139 21:28 11.01.2022
3710 Clouds 14 1019 61 10000 1.73 139 20:36 11.01.2022
3711 Clouds 15 1019 57 10000 1.41 140 19:31 11.01.2022
3712 Clouds 16 1017 52 10000 2.25 113 17:53 11.01.2022
3713 Rain 17 1016 53 10000 2.59 77 16:39 11.01.2022
3714 Rain 18 1015 50 10000 3.43 81 16:18 11.01.2022
3715 Clouds 19 1013 44 10000 3.12 91 14:50 11.01.2022
3716 Clouds 19 1013 44 10000 3.12 91 14:32 11.01.2022
3717 Clouds 21 1011 38 10000 4.02 93 13:48 11.01.2022
3718 Clouds 22 1011 36 10000 4.57 111 13:25 11.01.2022
3719 Clouds 23 1011 32 10000 4.41 141 12:25 11.01.2022
3720 Clouds 23 1013 32 10000 3.7 157 10:31 11.01.2022
3721 Clear 18 1017 47 10000 2.64 118 07:54 11.01.2022
3722 Clouds 13 1017 76 10000 1.89 89 03:51 11.01.2022
3723 Clear 13 1017 69 10000 1.04 118 00:27 11.01.2022
3724 Clear 13 1017 69 10000 1.04 118 23:39 10.01.2022
3725 Clear 13 1017 65 10000 1.75 91 22:39 10.01.2022
3726 Clouds 14 1017 61 10000 2.25 83 22:18 10.01.2022
3727 Clouds 14 1017 61 10000 2.25 83 21:33 10.01.2022
3728 Clouds 14 1017 57 10000 2.22 83 20:59 10.01.2022
3729 Clouds 14 1017 57 10000 2.23 82 20:41 10.01.2022
3730 Clouds 15 1017 55 10000 2.24 80 20:19 10.01.2022
3731 Clouds 15 1017 55 10000 2.24 80 19:38 10.01.2022
3732 Clouds 15 1017 49 10000 2.52 79 19:19 10.01.2022
3733 Clouds 15 1017 49 10000 2.52 79 18:46 10.01.2022
3734 Clouds 17 1014 44 10000 3.45 90 16:48 10.01.2022
3735 Clouds 20 1013 36 10000 5.02 106 16:26 10.01.2022
3736 Clouds 21 1011 33 10000 5.6 122 14:43 10.01.2022
3737 Clouds 23 1010 30 10000 5.07 136 13:22 10.01.2022
3738 Clouds 23 1011 32 10000 4.73 138 11:56 10.01.2022
3739 Clouds 22 1012 34 10000 4.3 136 10:49 10.01.2022
3740 Clear 21 1014 39 10000 4.14 128 09:37 10.01.2022
3741 Clouds 13 1018 70 10000 1.32 133 05:51 10.01.2022
3742 Clouds 12 1017 73 10000 0.64 85 02:32 10.01.2022
3743 Clouds 12 1016 73 10000 0.93 35 01:21 10.01.2022
3744 Clouds 13 1017 72 10000 1.04 101 00:21 10.01.2022
3745 Clouds 14 1017 72 10000 1.87 82 22:47 09.01.2022
3746 Clouds 13 1018 73 10000 2.45 66 22:18 09.01.2022
3747 Clouds 13 1018 73 10000 2.45 66 21:41 09.01.2022
3748 Clouds 13 1018 73 10000 2.45 66 21:41 09.01.2022
3749 Clouds 14 1018 74 10000 2.33 81 21:22 09.01.2022
3750 Clouds 14 1018 74 10000 2.33 81 20:46 09.01.2022
3751 Clouds 14 1019 74 10000 2.08 94 20:28 09.01.2022
3752 Clouds 14 1019 74 10000 2.08 94 19:39 09.01.2022
3753 Clouds 14 1018 74 10000 2.28 93 19:20 09.01.2022
3754 Clouds 15 1018 70 10000 2.06 89 18:38 09.01.2022
3755 Clouds 15 1017 71 10000 2.51 94 18:18 09.01.2022
3756 Clouds 15 1017 71 10000 2.51 94 17:30 09.01.2022
3757 Clouds 15 1016 66 10000 2.98 106 16:49 09.01.2022
3758 Rain 18 1014 56 10000 4.66 113 15:46 09.01.2022
3759 Clouds 20 1013 47 10000 5.29 122 15:25 09.01.2022
3760 Clouds 20 1013 47 10000 5.29 122 14:39 09.01.2022
3761 Clouds 20 1012 43 10000 5.05 123 13:48 09.01.2022
3762 Clouds 22 1011 35 10000 5.34 136 12:19 09.01.2022
3763 Clouds 22 1011 35 10000 5.34 136 11:38 09.01.2022
3764 Clear 21 1014 41 10000 4.78 127 09:55 09.01.2022
3765 Clear 19 1016 48 10000 4.6 117 09:24 09.01.2022
3766 Clear 18 1017 56 10000 4.28 118 07:54 09.01.2022
3767 Clouds 12 1017 73 10000 1.58 89 01:30 09.01.2022
3768 Clouds 12 1017 73 10000 1.43 94 00:50 09.01.2022
3769 Clouds 13 1017 73 10000 1.45 120 23:36 08.01.2022
3770 Clouds 13 1017 69 10000 1.46 118 22:56 08.01.2022
3771 Clouds 15 1017 61 10000 2 110 21:32 08.01.2022
3772 Clouds 15 1018 57 10000 2.19 108 20:44 08.01.2022
3773 Clouds 17 1017 55 10000 2.49 102 20:23 08.01.2022
3774 Clouds 17 1017 54 10000 2.45 97 19:22 08.01.2022
3775 Clouds 16 1017 56 10000 2.73 93 17:49 08.01.2022
3776 Clouds 17 1015 51 10000 3.12 104 16:57 08.01.2022
3777 Clouds 19 1014 40 10000 5.3 115 15:35 08.01.2022
3778 Clouds 22 1012 32 10000 5.66 122 14:33 08.01.2022
3779 Clear 23 1011 30 10000 5.41 138 12:35 08.01.2022
3780 Clear 22 1013 33 10000 4.15 133 10:46 08.01.2022
3781 Clear 21 1015 38 10000 4.04 123 10:24 08.01.2022
3782 Clear 21 1015 38 10000 4.04 123 09:34 08.01.2022
3783 Clear 21 1015 38 10000 4.04 123 09:34 08.01.2022
3784 Clouds 16 1018 59 10000 3.59 106 07:18 08.01.2022
3785 Clouds 14 1017 75 10000 1.61 79 01:49 08.01.2022
3786 Clouds 13 1018 77 10000 1.6 104 00:23 08.01.2022
3787 Clouds 13 1018 74 10000 1.9 80 22:21 07.01.2022
3788 Clouds 14 1018 71 10000 1.95 88 20:40 07.01.2022
3789 Clouds 14 1019 69 10000 1.84 101 19:34 07.01.2022
3790 Clouds 15 1018 66 10000 1.9 100 18:50 07.01.2022
3791 Clouds 15 1017 63 10000 2.25 88 18:26 07.01.2022
3792 Clouds 16 1016 58 10000 2.74 97 17:24 07.01.2022
3793 Clouds 18 1015 48 10000 4.67 105 15:55 07.01.2022
3794 Clouds 22 1011 33 10000 6.03 136 13:52 07.01.2022
3795 Clouds 23 1011 30 10000 5.64 146 12:57 07.01.2022
3796 Clouds 23 1012 31 10000 4.66 154 12:25 07.01.2022
3797 Clouds 16 1019 61 10000 2.04 118 06:47 07.01.2022
3798 Clouds 12 1018 84 10000 0.81 54 02:54 07.01.2022
3799 Clouds 12 1018 83 10000 0.92 75 01:52 07.01.2022
3800 Clouds 12 1018 82 10000 1.2 82 01:27 07.01.2022
3801 Clouds 12 1018 83 10000 1.16 82 00:34 07.01.2022
3802 Clouds 13 1018 79 10000 1.54 49 22:42 06.01.2022
3803 Clouds 14 1019 75 10000 2.41 62 21:22 06.01.2022
3804 Clouds 14 1018 72 10000 2.77 67 20:19 06.01.2022
3805 Clouds 14 1018 72 10000 2.77 67 19:40 06.01.2022
3806 Clouds 15 1017 71 10000 2.79 86 17:52 06.01.2022
3807 Clouds 15 1017 71 10000 2.8 86 17:31 06.01.2022
3808 Clouds 16 1016 67 10000 3.12 101 16:39 06.01.2022
3809 Clouds 18 1014 54 10000 3.91 118 15:45 06.01.2022
3810 Clouds 20 1013 47 10000 4.14 132 15:23 06.01.2022
3811 Clouds 20 1013 46 10000 4.37 137 14:20 06.01.2022
3812 Clouds 20 1013 46 10000 4.38 137 13:46 06.01.2022
3813 Clouds 19 1013 47 10000 3.92 128 12:40 06.01.2022
3814 Clouds 19 1013 46 10000 4.27 131 11:41 06.01.2022
3815 Clouds 21 1014 42 10000 4.51 140 11:20 06.01.2022
3816 Clouds 19 1017 49 10000 3.77 138 08:31 06.01.2022
3817 Clouds 12 1018 82 10000 1.17 80 00:39 06.01.2022
3818 Clouds 13 1018 81 10000 1.26 90 23:36 05.01.2022
3819 Clouds 13 1019 79 10000 1.48 89 22:51 05.01.2022
3820 Clouds 13 1019 75 10000 1.75 86 22:29 05.01.2022
3821 Clouds 13 1019 75 10000 1.75 86 21:45 05.01.2022
3822 Clouds 14 1019 72 10000 1.9 97 20:45 05.01.2022
3823 Clouds 14 1019 68 10000 2.37 86 19:58 05.01.2022
3824 Clouds 15 1018 64 10000 2.79 83 18:33 05.01.2022
3825 Clouds 17 1015 56 10000 3.49 102 17:23 05.01.2022
3826 Clouds 20 1014 43 10000 3.59 121 16:24 05.01.2022
3827 Clouds 21 1013 39 10000 3.95 124 15:20 05.01.2022
3828 Clouds 21 1013 40 10000 4.32 123 13:39 05.01.2022
3829 Clouds 21 1013 40 10000 4.68 133 12:51 05.01.2022
3830 Clouds 18 1017 55 10000 2.8 133 08:58 05.01.2022
3831 Clouds 15 1019 68 10000 2.38 112 07:34 05.01.2022
3832 Clouds 12 1019 89 10000 2.16 70 03:33 05.01.2022
3833 Rain 13 1017 85 10000 2.27 77 00:33 05.01.2022
3834 Clouds 14 1017 75 10000 1.95 109 23:26 04.01.2022
3835 Rain 15 1017 72 10000 1.86 116 22:27 04.01.2022
3836 Clouds 15 1018 72 10000 2.03 125 20:50 04.01.2022
3837 Rain 16 1018 69 10000 2.08 114 19:19 04.01.2022
3838 Clouds 15 1017 71 10000 2.39 86 17:39 04.01.2022
3839 Clouds 16 1016 64 10000 2.96 102 16:41 04.01.2022
3840 Clouds 18 1014 53 10000 3.34 118 16:22 04.01.2022
3841 Clouds 19 1014 49 10000 3.08 129 14:52 04.01.2022
3842 Clouds 19 1014 49 10000 3.08 129 14:34 04.01.2022
3843 Clouds 19 1013 48 10000 2.89 132 13:27 04.01.2022
3844 Clouds 20 1014 48 10000 3.95 151 10:41 04.01.2022
3845 Rain 19 1017 52 10000 2.96 150 09:20 04.01.2022
3846 Clouds 18 1018 58 10000 2.63 142 08:25 04.01.2022
3847 Clouds 13 1016 81 10000 1.32 94 02:28 04.01.2022
3848 Clouds 13 1016 79 10000 1.72 87 00:40 04.01.2022
3849 Clouds 14 1017 72 10000 2.35 95 23:18 03.01.2022
3850 Clouds 15 1016 66 10000 2.44 102 21:50 03.01.2022
3851 Clouds 15 1016 66 10000 2.44 102 21:32 03.01.2022
3852 Clouds 17 1016 60 10000 2.45 97 19:47 03.01.2022
3853 Clouds 17 1016 57 10000 2.42 92 18:47 03.01.2022
3854 Clouds 18 1015 53 10000 2.33 91 18:24 03.01.2022
3855 Clouds 18 1014 49 10000 2.99 103 16:58 03.01.2022
3856 Clouds 20 1012 42 10000 4.07 133 14:56 03.01.2022
3857 Clouds 20 1012 42 10000 4.07 133 14:30 03.01.2022
3858 Clouds 20 1012 45 10000 4.27 156 12:39 03.01.2022
3859 Clouds 20 1012 43 10000 5.16 151 11:35 03.01.2022
3860 Clouds 21 1013 42 10000 4.88 135 10:26 03.01.2022
3861 Clouds 20 1015 46 10000 4.68 130 08:47 03.01.2022
3862 Clouds 18 1016 53 10000 3.78 123 07:34 03.01.2022
3863 Clouds 15 1015 65 10000 1.67 185 23:55 02.01.2022
3864 Clouds 15 1015 65 10000 1.87 187 23:20 02.01.2022
3865 Clouds 15 1015 65 10000 1.87 187 22:43 02.01.2022
3866 Clouds 15 1015 62 10000 0.41 82 21:39 02.01.2022
3867 Clouds 16 1015 61 10000 0.83 15 20:31 02.01.2022
3868 Clouds 17 1015 58 10000 0.97 341 19:53 02.01.2022
3869 Clouds 18 1015 54 10000 1.11 343 19:26 02.01.2022
3870 Clouds 19 1015 47 10000 1.19 65 18:38 02.01.2022
3871 Clouds 19 1014 45 10000 1.62 81 17:43 02.01.2022
3872 Clouds 19 1013 42 10000 0.73 101 17:22 02.01.2022
3873 Clouds 19 1013 42 10000 0.73 101 16:53 02.01.2022
3874 Clouds 20 1012 38 10000 0.9 179 16:23 02.01.2022
3875 Clouds 23 1010 30 10000 3.13 162 14:19 02.01.2022
3876 Clouds 23 1010 30 10000 3.15 185 12:34 02.01.2022
3877 Clouds 23 1010 30 10000 3.65 180 11:57 02.01.2022
3878 Clouds 22 1012 31 10000 3.39 174 11:20 02.01.2022
3879 Clouds 22 1012 31 10000 3.43 173 10:37 02.01.2022
3880 Clear 19 1016 42 10000 1.86 133 08:27 02.01.2022
3881 Clouds 15 1016 64 10000 0.85 166 03:22 02.01.2022
3882 Clouds 15 1015 61 10000 1.81 157 23:56 01.01.2022
3883 Clouds 15 1015 61 10000 1.81 157 23:36 01.01.2022
3884 Clouds 15 1016 61 10000 0.23 217 22:45 01.01.2022
3885 Clouds 15 1017 64 10000 1.02 15 22:18 01.01.2022
3886 Clouds 15 1017 64 10000 1.02 15 21:43 01.01.2022
3887 Rain 16 1017 62 10000 1.92 56 20:52 01.01.2022
3888 Clouds 16 1017 62 10000 2.37 53 19:55 01.01.2022
3889 Clouds 17 1017 58 10000 1.77 56 18:58 01.01.2022
3890 Clouds 17 1016 58 10000 2.16 54 17:56 01.01.2022
3891 Clouds 17 1015 55 10000 2.24 63 16:35 01.01.2022
3892 Clouds 18 1014 50 10000 0.84 89 15:57 01.01.2022
3893 Clouds 20 1012 42 10000 1.73 205 14:56 01.01.2022
3894 Clouds 21 1011 35 10000 2.32 234 13:42 01.01.2022
3895 Clouds 22 1011 32 10000 3.52 232 12:43 01.01.2022
3896 Clouds 23 1012 33 10000 3.65 228 11:47 01.01.2022
3897 Clouds 22 1013 34 10000 3.38 223 11:19 01.01.2022
3898 Clouds 21 1015 36 10000 2.71 216 09:49 01.01.2022
3899 Clouds 20 1017 39 10000 1.38 208 09:20 01.01.2022
3900 Clouds 17 1018 43 10000 1.3 161 08:24 01.01.2022
3901 Clouds 17 1018 43 10000 1.3 161 07:41 01.01.2022
3902 Clouds 15 1019 50 10000 1.09 142 06:45 01.01.2022
3903 Clouds 13 1019 64 10000 1.35 69 05:26 01.01.2022
3904 Clouds 13 1019 64 10000 1.35 69 04:37 01.01.2022
3905 Clouds 14 1017 60 10000 1.48 49 00:41 01.01.2022
3906 Clouds 13 1018 60 10000 1.96 94 23:22 31.12.2021
3907 Clouds 14 1018 58 10000 1.94 112 21:52 31.12.2021
3908 Clouds 14 1018 55 10000 2.31 88 20:32 31.12.2021
3909 Clouds 15 1017 51 10000 2.92 67 19:29 31.12.2021
3910 Clouds 15 1017 51 10000 2.9 67 18:30 31.12.2021
3911 Clouds 16 1016 47 10000 3.02 82 17:38 31.12.2021
3912 Clouds 18 1015 40 10000 3.65 119 17:18 31.12.2021
3913 Clouds 20 1013 34 10000 3.93 139 16:21 31.12.2021
3914 Clouds 20 1013 34 10000 3.93 139 15:53 31.12.2021
3915 Clouds 21 1012 31 10000 3.98 150 15:28 31.12.2021
3916 Clouds 21 1012 31 10000 3.98 150 14:47 31.12.2021
3917 Clouds 22 1011 30 10000 4.37 154 14:28 31.12.2021
3918 Clouds 22 1011 30 10000 4.24 155 13:36 31.12.2021
3919 Clouds 22 1011 30 10000 4.24 157 12:45 31.12.2021
3920 Clouds 22 1012 30 10000 4.25 155 11:43 31.12.2021
3921 Clouds 21 1013 31 10000 4.14 149 11:24 31.12.2021
3922 Clouds 21 1013 31 10000 4.14 149 10:34 31.12.2021
3923 Clouds 20 1015 33 10000 3.85 136 09:52 31.12.2021
3924 Clouds 19 1017 36 10000 3.54 124 09:32 31.12.2021
3925 Clouds 17 1018 41 10000 3.29 115 08:25 31.12.2021
3926 Clouds 17 1018 41 10000 3.29 115 07:30 31.12.2021
3927 Clouds 14 1016 59 10000 1.59 104 23:23 30.12.2021
3928 Clouds 14 1016 59 10000 1.59 104 22:33 30.12.2021
3929 Clouds 14 1016 59 10000 1.59 104 22:33 30.12.2021
3930 Clouds 14 1017 58 10000 2.69 77 21:56 30.12.2021
3931 Clouds 14 1017 58 10000 2.69 77 21:36 30.12.2021
3932 Clouds 14 1017 56 10000 1.95 110 20:46 30.12.2021
3933 Clouds 14 1017 54 10000 2.05 81 20:25 30.12.2021
3934 Clouds 14 1017 54 10000 2.06 81 19:45 30.12.2021
3935 Clouds 15 1016 54 10000 2.68 67 18:45 30.12.2021
3936 Clouds 16 1015 51 10000 3.09 75 18:18 30.12.2021
3937 Clouds 20 1012 34 10000 4.64 135 16:19 30.12.2021
3938 Clouds 20 1012 34 10000 4.64 135 15:51 30.12.2021
3939 Clouds 21 1010 30 10000 4.32 158 14:39 30.12.2021
3940 Clouds 23 1010 28 10000 4.35 172 13:55 30.12.2021
3941 Clouds 22 1010 29 10000 4.27 180 12:40 30.12.2021
3942 Clouds 22 1012 31 10000 3.2 182 10:58 30.12.2021
3943 Clouds 21 1014 33 10000 2.41 178 09:59 30.12.2021
3944 Clouds 19 1015 36 10000 1.79 153 08:58 30.12.2021
3945 Clouds 16 1018 49 10000 1.42 117 06:52 30.12.2021
3946 Clouds 11 1018 73 10000 1.17 106 03:43 30.12.2021
3947 Clouds 11 1017 71 10000 0.84 88 03:23 30.12.2021
3948 Clouds 13 1017 70 10000 1 110 23:50 29.12.2021
3949 Clouds 13 1017 67 10000 1.5 117 23:23 29.12.2021
3950 Clouds 14 1017 64 10000 1.83 110 22:22 29.12.2021
3951 Clouds 14 1017 64 10000 1.83 110 21:43 29.12.2021
3952 Clouds 14 1017 60 10000 1.84 96 20:39 29.12.2021
3953 Clouds 14 1017 60 10000 1.6 92 19:50 29.12.2021
3954 Clouds 14 1017 55 10000 1.96 92 18:54 29.12.2021
3955 Clouds 15 1017 52 10000 2.29 90 17:57 29.12.2021
3956 Clouds 16 1016 46 10000 3.1 98 17:28 29.12.2021
3957 Clouds 16 1016 46 10000 3.1 98 16:44 29.12.2021
3958 Clouds 19 1013 34 10000 4.69 120 16:19 29.12.2021
3959 Clouds 23 1011 23 10000 4.25 169 14:24 29.12.2021
3960 Clouds 23 1011 24 10000 3.81 178 12:42 29.12.2021
3961 Clouds 23 1012 25 10000 3.39 180 12:20 29.12.2021
3962 Clouds 22 1013 26 10000 2.96 180 10:31 29.12.2021
3963 Clear 18 1017 34 10000 2.43 146 07:52 29.12.2021
3964 Clouds 16 1018 43 10000 1.8 135 06:43 29.12.2021
3965 Clouds 14 1018 52 10000 0.93 35 06:23 29.12.2021
3966 Clouds 14 1018 52 10000 0.93 35 05:40 29.12.2021
3967 Clouds 11 1017 58 10000 0.7 28 03:18 29.12.2021
3968 Clouds 13 1017 48 10000 1.34 98 00:24 29.12.2021
3969 Clouds 13 1017 48 10000 1.34 98 23:45 28.12.2021
3970 Clouds 13 1017 44 10000 1.38 86 22:42 28.12.2021
3971 Clouds 13 1018 41 10000 1.53 76 22:24 28.12.2021
3972 Clouds 13 1018 41 10000 1.53 76 21:52 28.12.2021
3973 Clouds 14 1018 38 10000 1.92 66 20:47 28.12.2021
3974 Clear 14 1018 38 10000 2.15 59 19:39 28.12.2021
3975 Clear 15 1017 40 10000 2.73 66 18:44 28.12.2021
3976 Clear 15 1017 38 10000 2.9 85 18:19 28.12.2021
3977 Clear 16 1015 34 10000 3.24 97 16:35 28.12.2021
3978 Clear 19 1013 27 10000 4.8 112 15:51 28.12.2021
3979 Clear 21 1012 22 10000 5.56 120 15:23 28.12.2021
3980 Clear 21 1012 22 10000 5.56 120 14:50 28.12.2021
3981 Clear 23 1011 20 10000 5.11 123 14:21 28.12.2021
3982 Clear 23 1011 20 10000 5.11 123 14:21 28.12.2021
3983 Clear 23 1011 20 10000 5.11 123 13:51 28.12.2021
3984 Clouds 23 1011 20 10000 4.57 122 13:27 28.12.2021
3985 Clouds 23 1011 20 10000 4.57 122 12:49 28.12.2021
3986 Clouds 23 1012 20 10000 3.98 129 11:51 28.12.2021
3987 Clouds 19 1017 32 10000 3.58 117 09:27 28.12.2021
3988 Clouds 16 1020 49 10000 2.91 105 07:28 28.12.2021
3989 Clouds 11 1019 66 10000 1.6 66 00:59 28.12.2021
3990 Clouds 12 1019 62 10000 1.63 83 23:26 27.12.2021
3991 Clouds 12 1020 60 10000 1.39 87 21:54 27.12.2021
3992 Clouds 13 1020 58 10000 1.42 90 21:26 27.12.2021
3993 Clouds 13 1019 54 10000 1.89 95 20:24 27.12.2021
3994 Clouds 13 1019 54 10000 1.88 96 19:43 27.12.2021
3995 Clouds 14 1019 50 10000 2.49 86 18:54 27.12.2021
3996 Clouds 15 1018 48 10000 2.92 83 17:50 27.12.2021
3997 Clouds 15 1017 43 10000 3.12 94 16:57 27.12.2021
3998 Clouds 18 1015 37 10000 3.92 106 15:53 27.12.2021
3999 Clouds 20 1014 30 10000 5.65 113 14:34 27.12.2021
4000 Clouds 21 1012 27 10000 6.03 120 13:40 27.12.2021
4001 Clouds 22 1012 26 10000 5.68 120 12:47 27.12.2021
4002 Clouds 22 1014 28 10000 5.07 116 10:32 27.12.2021
4003 Clouds 21 1015 30 10000 4.56 115 09:57 27.12.2021
4004 Clouds 18 1018 37 10000 4.18 113 08:39 27.12.2021
4005 Clouds 18 1018 37 10000 4.2 113 07:32 27.12.2021
4006 Clouds 12 1018 48 10000 1.98 81 02:24 27.12.2021
4007 Clouds 13 1018 46 10000 1.58 99 23:58 26.12.2021
4008 Clouds 13 1018 46 10000 1.58 99 23:58 26.12.2021
4009 Clouds 13 1018 46 10000 1.58 99 23:40 26.12.2021
4010 Clouds 14 1018 45 10000 1.41 96 22:47 26.12.2021
4011 Clouds 15 1018 42 10000 2.25 98 21:29 26.12.2021
4012 Clouds 17 1017 39 10000 2.34 101 19:49 26.12.2021
4013 Clouds 16 1017 42 10000 2.59 79 18:25 26.12.2021
4014 Clouds 16 1017 42 10000 2.59 79 17:44 26.12.2021
4015 Clouds 21 1012 28 10000 5.52 117 14:38 26.12.2021
4016 Clouds 23 1011 27 10000 5.46 127 13:43 26.12.2021
4017 Clouds 23 1011 27 10000 4.59 128 13:21 26.12.2021
4018 Clouds 23 1011 28 10000 3.86 135 12:33 26.12.2021
4019 Clouds 22 1014 32 10000 3.73 126 10:48 26.12.2021
4020 Clouds 20 1017 40 10000 4.63 115 09:29 26.12.2021
4021 Clouds 20 1017 40 10000 4.63 115 08:44 26.12.2021
4022 Clouds 18 1018 45 10000 4.5 109 07:59 26.12.2021
4023 Clouds 12 1018 51 10000 1.5 91 01:36 26.12.2021
4024 Clouds 13 1017 46 10000 1.41 122 00:20 26.12.2021
4025 Clouds 13 1018 46 10000 1.18 125 23:28 25.12.2021
4026 Clouds 14 1018 45 10000 1.35 122 22:29 25.12.2021
4027 Clouds 15 1018 44 10000 1.54 106 21:25 25.12.2021
4028 Clouds 14 1018 46 10000 2.14 93 19:28 25.12.2021
4029 Clouds 14 1018 47 10000 2.35 94 18:57 25.12.2021
4030 Clouds 15 1017 46 10000 2.61 104 18:25 25.12.2021
4031 Clouds 16 1016 44 10000 3 111 16:46 25.12.2021
4032 Clouds 18 1014 39 10000 5.12 115 15:30 25.12.2021
4033 Clouds 23 1011 29 10000 5.24 138 13:47 25.12.2021
4034 Clouds 23 1011 27 10000 4.34 145 12:19 25.12.2021
4035 Clouds 23 1013 28 10000 3.78 137 10:36 25.12.2021
4036 Clouds 22 1014 31 10000 3.26 130 09:48 25.12.2021
4037 Clouds 17 1018 43 10000 2.17 114 07:21 25.12.2021
4038 Clouds 12 1017 49 10000 1.02 100 01:34 25.12.2021
4039 Clouds 13 1016 44 10000 1.01 108 00:19 25.12.2021
4040 Clouds 14 1017 40 10000 1.15 100 21:51 24.12.2021
4041 Clouds 15 1017 36 10000 2.54 78 19:27 24.12.2021
4042 Clouds 15 1017 38 10000 2.5 81 18:41 24.12.2021
4043 Clouds 16 1015 34 10000 3.05 102 16:43 24.12.2021
4044 Clouds 19 1013 29 10000 4.21 116 15:50 24.12.2021
4045 Clouds 22 1011 23 10000 4.56 142 15:20 24.12.2021
4046 Clouds 22 1011 23 10000 4.56 142 14:33 24.12.2021
4047 Clouds 23 1010 22 10000 3.6 159 13:50 24.12.2021
4048 Clouds 23 1010 22 10000 3.6 159 13:32 24.12.2021
4049 Clouds 23 1010 22 10000 3.55 160 12:39 24.12.2021
4050 Clouds 23 1011 24 10000 3.34 163 11:42 24.12.2021
4051 Clouds 23 1013 26 10000 3.06 156 11:24 24.12.2021
4052 Clouds 23 1013 26 10000 3.06 156 10:33 24.12.2021
4053 Clouds 20 1016 33 10000 2.67 131 08:48 24.12.2021
4054 Clouds 18 1017 37 10000 2.68 131 07:58 24.12.2021
4055 Clouds 16 1018 41 10000 2.27 115 06:59 24.12.2021
4056 Clouds 13 1017 71 10000 1.43 90 00:22 24.12.2021
4057 Clouds 13 1017 71 10000 1.43 90 23:49 23.12.2021
4058 Clouds 13 1017 70 10000 1.14 84 22:51 23.12.2021
4059 Clouds 14 1017 67 10000 1.32 106 22:24 23.12.2021
4060 Clouds 14 1017 67 10000 1.32 106 21:39 23.12.2021
4061 Clouds 14 1017 63 10000 1.69 107 20:30 23.12.2021
4062 Clouds 15 1017 61 10000 1.95 89 19:30 23.12.2021
4063 Clouds 15 1016 56 10000 2.76 95 18:18 23.12.2021
4064 Clouds 15 1016 56 10000 2.76 95 17:45 23.12.2021
4065 Clouds 19 1013 43 10000 5.23 106 16:27 23.12.2021
4066 Clouds 19 1013 43 10000 5.23 106 15:40 23.12.2021
4067 Clouds 21 1011 35 10000 6.13 111 15:22 23.12.2021
4068 Clouds 21 1011 35 10000 6.13 111 14:40 23.12.2021
4069 Clouds 23 1010 30 10000 5.72 117 13:43 23.12.2021
4070 Clouds 23 1011 31 10000 4.5 130 11:52 23.12.2021
4071 Clouds 21 1015 38 10000 4.19 122 09:53 23.12.2021
4072 Clouds 21 1015 38 10000 4.14 122 09:34 23.12.2021
4073 Clouds 20 1016 44 10000 4.12 120 08:38 23.12.2021
4074 Clouds 13 1019 75 10000 2.19 91 05:43 23.12.2021
4075 Clouds 11 1018 83 10000 1.78 65 02:56 23.12.2021
4076 Clouds 12 1019 79 10000 1.33 109 22:53 22.12.2021
4077 Clouds 12 1019 76 10000 1.38 108 22:19 22.12.2021
4078 Clouds 12 1019 76 10000 1.38 108 21:36 22.12.2021
4079 Clouds 13 1019 72 10000 1.52 89 21:18 22.12.2021
4080 Clouds 13 1019 72 10000 1.52 89 20:40 22.12.2021
4081 Clouds 13 1019 69 10000 2 70 19:57 22.12.2021
4082 Clouds 14 1019 65 10000 2.66 82 18:55 22.12.2021
4083 Clouds 13 1019 68 10000 2.52 93 18:55 22.12.2021
4084 Clouds 14 1018 63 10000 2.81 99 17:38 22.12.2021
4085 Clouds 17 1015 45 10000 4.21 105 16:22 22.12.2021
4086 Clouds 22 1013 29 10000 5.38 107 14:28 22.12.2021
4087 Clouds 22 1012 28 10000 5.25 109 12:55 22.12.2021
4088 Clouds 22 1013 31 10000 5.45 112 11:48 22.12.2021
4089 Clouds 21 1016 40 10000 4.74 118 09:52 22.12.2021
4090 Clouds 18 1018 56 10000 4.33 113 08:23 22.12.2021
4091 Clouds 13 1020 82 10000 2.07 99 05:54 22.12.2021
4092 Clouds 13 1020 82 10000 2.07 99 05:36 22.12.2021
4093 Clouds 11 1020 90 10000 1.52 104 05:18 22.12.2021
4094 Clouds 11 1020 90 10000 1.52 104 04:37 22.12.2021
4095 Clouds 11 1020 90 10000 1.73 94 03:52 22.12.2021
4096 Clouds 11 1020 90 10000 1.73 94 03:31 22.12.2021
4097 Clouds 12 1019 87 10000 1.74 90 23:48 21.12.2021
4098 Clouds 12 1020 85 10000 1.53 105 22:41 21.12.2021
4099 Clouds 13 1020 82 10000 1.78 105 21:57 21.12.2021
4100 Clouds 13 1020 82 10000 1.78 105 21:33 21.12.2021
4101 Clouds 13 1020 77 10000 2.25 99 20:39 21.12.2021
4102 Clouds 14 1020 73 10000 2.92 90 20:18 21.12.2021
4103 Clouds 14 1020 73 10000 2.92 90 19:34 21.12.2021
4104 Clouds 15 1019 60 10000 3.33 91 18:28 21.12.2021
4105 Clouds 15 1019 60 10000 3.33 91 17:58 21.12.2021
4106 Clouds 15 1019 60 10000 3.33 91 17:39 21.12.2021
4107 Clouds 18 1016 41 10000 4.19 96 15:39 21.12.2021
4108 Clouds 22 1013 29 10000 5.75 103 14:21 21.12.2021
4109 Clouds 22 1013 29 10000 5.75 103 13:42 21.12.2021
4110 Clouds 23 1014 29 10000 5.91 117 12:29 21.12.2021
4111 Clouds 22 1015 33 10000 5.65 117 10:39 21.12.2021
4112 Clouds 21 1016 38 10000 5.68 117 09:56 21.12.2021
4113 Clouds 20 1017 45 10000 5.45 117 08:57 21.12.2021
4114 Clouds 18 1018 53 10000 4.93 116 07:44 21.12.2021
4115 Clouds 16 1020 65 10000 4 108 07:22 21.12.2021
4116 Clouds 12 1019 87 10000 2.05 82 03:26 21.12.2021
4117 Clouds 12 1019 87 10000 2.05 82 02:30 21.12.2021
4118 Clouds 13 1019 79 10000 1.82 83 23:54 20.12.2021
4119 Clouds 13 1019 77 10000 1.75 96 22:35 20.12.2021
4120 Clouds 13 1020 75 10000 1.98 91 21:59 20.12.2021
4121 Clouds 14 1020 73 10000 2 89 21:27 20.12.2021
4122 Clouds 14 1020 73 10000 2 89 20:54 20.12.2021
4123 Clouds 14 1020 72 10000 2.31 84 20:23 20.12.2021
4124 Clouds 14 1020 72 10000 2.59 78 19:38 20.12.2021
4125 Clouds 14 1020 72 10000 2.6 78 19:19 20.12.2021
4126 Clouds 15 1019 67 10000 2.75 71 18:33 20.12.2021
4127 Clouds 16 1018 63 10000 3.09 89 17:50 20.12.2021
4128 Clouds 16 1017 61 10000 3.54 104 16:47 20.12.2021
4129 Clouds 18 1015 54 10000 5.09 112 15:57 20.12.2021
4130 Clouds 18 1015 54 10000 5.09 112 15:35 20.12.2021
4131 Clouds 23 1012 34 10000 5.58 123 13:32 20.12.2021
4132 Clouds 23 1012 34 10000 5.58 123 13:32 20.12.2021
4133 Clouds 23 1012 35 10000 5.75 121 12:30 20.12.2021
4134 Clouds 23 1014 35 10000 4.96 125 10:46 20.12.2021
4135 Clouds 22 1016 38 10000 4.37 119 09:40 20.12.2021
4136 Clouds 21 1017 43 10000 4.11 110 08:50 20.12.2021
4137 Clouds 21 1017 43 10000 4.11 110 08:31 20.12.2021
4138 Clouds 19 1018 53 10000 4.03 105 07:32 20.12.2021
4139 Clouds 16 1019 63 10000 2.99 105 06:39 20.12.2021
4140 Clouds 13 1018 81 10000 1.74 87 00:20 20.12.2021
4141 Clouds 13 1018 80 10000 1.53 86 22:56 19.12.2021
4142 Clouds 13 1018 80 10000 1.54 85 22:32 19.12.2021
4143 Clouds 13 1019 79 10000 2.19 89 21:32 19.12.2021
4144 Clouds 14 1019 79 10000 2.39 96 20:42 19.12.2021
4145 Clouds 14 1019 78 10000 2.46 95 20:23 19.12.2021
4146 Clouds 14 1019 78 10000 2.46 95 19:41 19.12.2021
4147 Clouds 14 1018 74 10000 2.7 104 18:42 19.12.2021
4148 Clouds 15 1017 70 10000 3.06 104 17:53 19.12.2021
4149 Clouds 15 1017 70 10000 3.06 104 17:30 19.12.2021
4150 Clouds 16 1016 63 10000 3.19 107 16:41 19.12.2021
4151 Clouds 18 1014 53 10000 5.15 106 15:52 19.12.2021
4152 Clouds 21 1012 41 10000 5.81 109 15:24 19.12.2021
4153 Clouds 21 1012 41 10000 5.81 109 14:45 19.12.2021
4154 Clouds 23 1011 33 10000 5.28 119 13:27 19.12.2021
4155 Clouds 23 1011 33 10000 5.28 119 12:59 19.12.2021
4156 Clouds 23 1012 33 10000 5.08 123 12:29 19.12.2021
4157 Clouds 23 1012 33 10000 5.08 123 11:37 19.12.2021
4158 Clouds 23 1013 35 10000 4.98 124 10:49 19.12.2021
4159 Clouds 22 1015 38 10000 4.86 125 10:22 19.12.2021
4160 Clouds 21 1016 42 10000 4.34 124 08:46 19.12.2021
4161 Clouds 17 1018 56 10000 2.81 108 06:30 19.12.2021
4162 Clouds 13 1017 75 10000 0.97 68 01:51 19.12.2021
4163 Clouds 13 1017 74 10000 1.22 88 00:54 19.12.2021
4164 Clouds 14 1018 72 10000 1.02 105 22:59 18.12.2021
4165 Clouds 14 1018 70 10000 1.23 99 22:24 18.12.2021
4166 Clouds 14 1018 70 10000 1.23 99 21:43 18.12.2021
4167 Clouds 14 1019 70 10000 1.83 87 21:22 18.12.2021
4168 Clouds 15 1019 68 10000 2.35 82 20:25 18.12.2021
4169 Clouds 15 1019 68 10000 2.35 82 19:34 18.12.2021
4170 Clouds 16 1017 58 10000 2.75 100 18:24 18.12.2021
4171 Clouds 16 1017 58 10000 2.75 100 17:49 18.12.2021
4172 Clouds 19 1014 43 10000 5.11 115 16:28 18.12.2021
4173 Clouds 19 1014 43 10000 5.11 115 15:48 18.12.2021
4174 Clouds 22 1012 33 10000 4.96 143 14:54 18.12.2021
4175 Clouds 23 1011 30 10000 4.14 156 13:44 18.12.2021
4176 Clouds 23 1012 31 10000 1.99 188 11:55 18.12.2021
4177 Clouds 21 1015 36 10000 2.55 153 09:54 18.12.2021
4178 Clouds 21 1015 36 10000 2.55 153 09:30 18.12.2021
4179 Clouds 19 1018 48 10000 2.54 128 08:36 18.12.2021
4180 Clouds 19 1018 48 10000 2.54 128 08:36 18.12.2021
4181 Clouds 14 1019 66 10000 0.95 89 06:27 18.12.2021
4182 Clouds 12 1017 77 10000 1.37 101 00:58 18.12.2021
4183 Clouds 13 1017 73 10000 1.52 109 23:47 17.12.2021
4184 Clouds 14 1018 68 10000 1.57 104 22:37 17.12.2021
4185 Clouds 14 1018 64 10000 1.39 85 21:28 17.12.2021
4186 Clouds 14 1018 64 10000 1.39 85 20:42 17.12.2021
4187 Clouds 14 1019 63 10000 1.62 89 19:50 17.12.2021
4188 Clouds 14 1018 62 10000 1.98 93 18:39 17.12.2021
4189 Clouds 15 1017 58 10000 2.52 99 17:47 17.12.2021
4190 Clouds 16 1016 53 10000 2.96 99 16:50 17.12.2021
4191 Clouds 18 1015 44 10000 4.18 107 16:26 17.12.2021
4192 Clouds 20 1013 36 10000 5.33 120 15:27 17.12.2021
4193 Clouds 20 1013 36 10000 5.33 120 14:42 17.12.2021
4194 Clouds 22 1011 31 10000 5.66 131 13:35 17.12.2021
4195 Clouds 23 1011 30 10000 3.97 152 12:28 17.12.2021
4196 Clouds 22 1013 33 10000 3.02 150 10:41 17.12.2021
4197 Clouds 21 1014 37 10000 2.34 144 09:47 17.12.2021
4198 Clouds 21 1014 37 10000 2.34 144 09:47 17.12.2021
4199 Clouds 19 1016 43 10000 2.29 137 08:31 17.12.2021
4200 Clouds 16 1019 59 10000 2.16 126 07:20 17.12.2021
4201 Clouds 11 1019 80 10000 1.37 64 04:40 17.12.2021
4202 Clouds 12 1018 80 10000 1.68 95 23:58 16.12.2021
4203 Clouds 12 1018 75 10000 1.5 82 22:24 16.12.2021
4204 Clouds 12 1018 75 10000 1.5 82 21:51 16.12.2021
4205 Clouds 12 1018 75 10000 1.5 82 21:30 16.12.2021
4206 Clouds 13 1018 71 10000 1.9 94 20:31 16.12.2021
4207 Clouds 14 1018 65 10000 2.06 101 19:49 16.12.2021
4208 Clouds 15 1018 56 10000 2.27 97 18:41 16.12.2021
4209 Clouds 15 1017 54 10000 2.47 84 17:57 16.12.2021
4210 Clouds 15 1017 54 10000 2.47 84 17:31 16.12.2021
4211 Clouds 18 1014 42 10000 4.3 106 16:23 16.12.2021
4212 Clouds 21 1012 33 10000 5.74 114 14:54 16.12.2021
4213 Clouds 22 1011 30 10000 5.73 127 13:43 16.12.2021
4214 Clouds 23 1012 32 10000 3.74 148 11:21 16.12.2021
4215 Clouds 23 1012 32 10000 3.74 148 10:59 16.12.2021
4216 Clouds 21 1014 36 10000 3.08 137 10:22 16.12.2021
4217 Clouds 20 1015 41 10000 2.89 120 08:37 16.12.2021
4218 Clouds 14 1018 62 10000 2.45 95 06:22 16.12.2021
4219 Clouds 12 1018 72 10000 0.94 76 02:54 16.12.2021
4220 Clouds 12 1017 69 10000 1.4 121 23:35 15.12.2021
4221 Clouds 14 1017 62 10000 1.83 125 22:44 15.12.2021
4222 Clouds 15 1017 58 10000 1.59 134 21:57 15.12.2021
4223 Clouds 15 1017 57 10000 1.94 117 21:27 15.12.2021
4224 Clouds 14 1017 58 10000 2.27 93 20:19 15.12.2021
4225 Clouds 14 1017 58 10000 2.27 93 19:51 15.12.2021
4226 Clouds 15 1017 59 10000 2.68 86 18:38 15.12.2021
4227 Clouds 15 1016 58 10000 2.92 82 17:55 15.12.2021
4228 Clouds 15 1016 58 10000 2.92 82 17:37 15.12.2021
4229 Clouds 17 1015 52 10000 3.34 95 16:34 15.12.2021
4230 Clouds 19 1013 42 10000 3.94 124 15:47 15.12.2021
4231 Clouds 21 1011 35 10000 4.23 152 15:28 15.12.2021
4232 Clouds 21 1011 35 10000 4.23 152 14:42 15.12.2021
4233 Clouds 23 1010 31 10000 1.73 176 12:46 15.12.2021
4234 Clouds 21 1012 34 10000 2.7 168 10:44 15.12.2021
4235 Clouds 19 1015 45 10000 3.01 139 08:55 15.12.2021
4236 Clouds 17 1017 52 10000 2.8 133 07:43 15.12.2021
4237 Clouds 12 1016 77 10000 1.29 61 01:39 15.12.2021
4238 Clouds 12 1016 72 10000 1.43 85 23:42 14.12.2021
4239 Clouds 13 1016 70 10000 1.34 105 22:49 14.12.2021
4240 Clouds 13 1017 69 10000 1.29 103 22:25 14.12.2021
4241 Clouds 14 1017 67 10000 1.56 90 20:55 14.12.2021
4242 Clouds 14 1017 64 10000 2.26 69 19:44 14.12.2021
4243 Clouds 14 1016 61 10000 2.7 71 19:20 14.12.2021
4244 Clouds 15 1015 57 10000 2.89 80 18:28 14.12.2021
4245 Clouds 15 1015 57 10000 2.91 79 17:33 14.12.2021
4246 Clouds 16 1014 48 10000 3.2 94 16:42 14.12.2021
4247 Clouds 19 1012 38 10000 3.99 134 15:36 14.12.2021
4248 Clouds 23 1009 28 10000 4.18 169 13:31 14.12.2021
4249 Clouds 23 1010 29 10000 3.18 174 12:21 14.12.2021
4250 Clouds 22 1012 32 10000 2.78 172 11:24 14.12.2021
4251 Clouds 21 1013 37 10000 2.49 168 10:24 14.12.2021
4252 Clouds 21 1013 37 10000 2.49 168 09:51 14.12.2021
4253 Clouds 17 1016 51 10000 1.97 149 08:28 14.12.2021
4254 Clouds 17 1016 51 10000 1.97 149 07:43 14.12.2021
4255 Clouds 13 1018 65 10000 1.23 117 05:38 14.12.2021
4256 Clouds 12 1017 74 10000 1.27 82 22:59 13.12.2021
4257 Clouds 12 1018 73 10000 1.2 89 21:53 13.12.2021
4258 Clouds 12 1018 73 10000 1.2 89 21:33 13.12.2021
4259 Clouds 12 1018 71 10000 1.49 76 20:45 13.12.2021
4260 Clouds 13 1018 69 10000 1.96 63 19:57 13.12.2021
4261 Clouds 13 1018 65 10000 2.58 71 19:19 13.12.2021
4262 Clouds 15 1016 47 10000 3.05 104 17:26 13.12.2021
4263 Clouds 17 1014 39 10000 3.66 141 15:56 13.12.2021
4264 Clouds 17 1014 39 10000 3.66 141 15:38 13.12.2021
4265 Clouds 21 1012 29 10000 3.97 161 13:49 13.12.2021
4266 Clouds 22 1012 29 10000 3.69 163 13:18 13.12.2021
4267 Clouds 21 1013 28 10000 3.42 163 12:22 13.12.2021
4268 Clouds 21 1013 28 10000 3.42 163 11:36 13.12.2021
4269 Clouds 21 1014 30 10000 3.22 156 10:53 13.12.2021
4270 Clouds 20 1015 34 10000 3.1 145 10:21 13.12.2021
4271 Clouds 17 1019 47 10000 3.12 130 08:28 13.12.2021
4272 Clouds 12 1020 64 10000 1.77 93 05:37 13.12.2021
4273 Clouds 9 1020 75 10000 1.48 85 03:31 13.12.2021
4274 Clouds 10 1019 66 10000 1.36 53 23:27 12.12.2021
4275 Clouds 11 1020 65 10000 1.31 59 21:52 12.12.2021
4276 Clouds 11 1020 67 10000 1.41 56 20:45 12.12.2021
4277 Clouds 11 1020 67 10000 1.9 75 19:30 12.12.2021
4278 Clouds 12 1019 65 10000 2.63 93 17:46 12.12.2021
4279 Clouds 15 1016 48 10000 3.52 111 16:28 12.12.2021
4280 Clouds 15 1016 48 10000 3.52 111 15:51 12.12.2021
4281 Clouds 18 1014 34 10000 5.05 115 15:26 12.12.2021
4282 Clouds 18 1014 34 10000 5.05 115 14:37 12.12.2021
4283 Clouds 20 1013 30 10000 5.39 121 13:34 12.12.2021
4284 Clouds 21 1013 26 10000 5.02 124 12:32 12.12.2021
4285 Clouds 21 1013 25 10000 4.52 126 11:44 12.12.2021
4286 Clouds 20 1014 26 10000 4 129 11:25 12.12.2021
4287 Clouds 20 1014 26 10000 4 129 10:32 12.12.2021
4288 Clear 19 1016 29 10000 3.54 129 09:44 12.12.2021
4289 Clear 17 1018 34 10000 3.56 125 08:38 12.12.2021
4290 Clouds 13 1020 47 10000 2.61 121 06:34 12.12.2021
4291 Clear 8 1021 57 10000 1.38 86 05:22 12.12.2021
4292 Clear 7 1020 54 10000 1.46 84 03:57 12.12.2021
4293 Clear 8 1020 35 10000 0.99 54 23:48 11.12.2021
4294 Clouds 9 1021 37 10000 1.44 63 22:24 11.12.2021
4295 Clouds 9 1021 37 10000 1.44 63 21:52 11.12.2021
4296 Clouds 9 1021 37 10000 1.56 70 21:21 11.12.2021
4297 Clouds 10 1021 37 10000 1.86 76 19:37 11.12.2021
4298 Clouds 11 1021 37 10000 2.01 81 18:53 11.12.2021
4299 Clouds 11 1021 37 10000 2.01 81 18:30 11.12.2021
4300 Clouds 11 1019 37 10000 2.5 91 17:37 11.12.2021
4301 Clear 14 1016 32 10000 3.18 117 15:55 11.12.2021
4302 Clear 14 1016 32 10000 3.18 117 15:35 11.12.2021
4303 Clear 19 1013 23 10000 5 124 13:46 11.12.2021
4304 Clear 21 1013 19 10000 4.4 139 11:55 11.12.2021
4305 Clear 19 1016 20 10000 3.45 146 09:57 11.12.2021
4306 Clear 18 1017 22 10000 3.07 140 09:34 11.12.2021
4307 Clear 8 1019 49 10000 1.16 60 03:25 11.12.2021
4308 Clear 8 1019 52 10000 1.26 40 00:44 11.12.2021
4309 Clear 9 1020 51 10000 0.7 70 23:39 10.12.2021
4310 Clear 10 1020 47 10000 0.68 112 22:26 10.12.2021
4311 Clear 10 1020 47 10000 0.68 112 21:37 10.12.2021
4312 Clear 11 1020 37 10000 1.91 75 19:23 10.12.2021
4313 Clear 11 1020 37 10000 1.91 75 18:57 10.12.2021
4314 Clear 13 1018 32 10000 2.84 96 17:23 10.12.2021
4315 Clear 13 1018 32 10000 2.84 96 16:32 10.12.2021
4316 Clear 15 1016 27 10000 3.35 109 15:42 10.12.2021
4317 Clear 19 1014 20 10000 4.83 117 15:23 10.12.2021
4318 Clear 20 1013 17 10000 5.09 121 13:53 10.12.2021
4319 Clear 20 1013 17 10000 5.09 121 13:31 10.12.2021
4320 Clear 21 1013 15 10000 5.09 122 12:47 10.12.2021
4321 Clear 21 1014 14 10000 4.86 128 11:34 10.12.2021
4322 Clear 21 1015 14 10000 4.54 128 10:50 10.12.2021
4323 Clear 20 1016 15 10000 4.16 121 09:30 10.12.2021
4324 Clear 15 1019 22 10000 2.54 117 07:24 10.12.2021
4325 Clear 9 1019 24 10000 1.55 78 02:53 10.12.2021
4326 Clear 9 1019 25 10000 1.39 66 01:32 10.12.2021
4327 Clear 9 1020 35 10000 0.47 43 23:39 09.12.2021
4328 Clear 10 1020 36 10000 0.51 75 22:41 09.12.2021
4329 Clear 10 1020 36 10000 0.79 77 22:20 09.12.2021
4330 Clear 11 1020 36 10000 1.22 83 21:20 09.12.2021
4331 Clear 11 1020 36 10000 1.22 83 20:34 09.12.2021
4332 Clear 12 1020 34 10000 2.11 78 19:22 09.12.2021
4333 Clear 12 1020 35 10000 2.23 72 18:53 09.12.2021
4334 Clear 13 1020 35 10000 2.6 73 17:58 09.12.2021
4335 Clear 14 1019 33 10000 2.81 92 17:28 09.12.2021
4336 Clear 14 1019 33 10000 2.81 92 16:57 09.12.2021
4337 Clear 16 1017 29 10000 4.13 108 16:20 09.12.2021
4338 Clear 19 1014 24 10000 5.85 115 14:58 09.12.2021
4339 Clear 21 1013 17 10000 5.7 121 13:51 09.12.2021
4340 Clear 22 1012 15 10000 4.99 129 12:47 09.12.2021
4341 Clear 22 1014 18 10000 3.94 138 11:25 09.12.2021
4342 Clear 21 1016 20 10000 3.41 137 10:19 09.12.2021
4343 Clear 16 1020 35 10000 2.15 125 06:53 09.12.2021
4344 Clear 9 1020 55 10000 1.13 27 03:50 09.12.2021
4345 Clear 10 1020 51 10000 0.26 44 00:24 09.12.2021
4346 Clear 10 1020 51 10000 0.26 44 23:32 08.12.2021
4347 Clear 11 1020 52 10000 0.56 132 22:56 08.12.2021
4348 Clear 11 1021 51 10000 0.97 132 21:50 08.12.2021
4349 Clear 11 1021 51 10000 0.97 132 21:31 08.12.2021
4350 Clear 12 1021 51 10000 1.11 140 20:31 08.12.2021
4351 Clear 12 1021 51 10000 0.85 101 19:48 08.12.2021
4352 Clear 13 1020 46 10000 1.44 69 18:57 08.12.2021
4353 Clear 13 1019 44 10000 2.29 78 18:22 08.12.2021
4354 Clear 14 1018 41 10000 2.77 95 16:44 08.12.2021
4355 Clear 14 1018 41 10000 2.77 95 16:44 08.12.2021
4356 Clear 16 1017 35 10000 3.63 107 15:40 08.12.2021
4357 Clear 16 1017 35 10000 3.63 107 15:40 08.12.2021
4358 Clear 20 1014 26 10000 5.24 117 15:21 08.12.2021
4359 Clear 23 1013 18 10000 4.51 145 13:21 08.12.2021
4360 Clear 22 1015 19 10000 3.37 148 10:42 08.12.2021
4361 Clear 21 1016 21 10000 3.04 144 09:32 08.12.2021
4362 Clear 21 1016 21 10000 3.04 144 09:32 08.12.2021
4363 Clear 18 1019 29 10000 2.5 132 07:50 08.12.2021
4364 Clouds 10 1021 34 10000 1.11 57 05:22 08.12.2021
4365 Clouds 10 1021 38 10000 0.91 76 00:21 08.12.2021
4366 Clouds 11 1021 39 10000 0.57 71 22:48 07.12.2021
4367 Clouds 11 1022 40 10000 0.6 54 21:25 07.12.2021
4368 Clouds 12 1022 39 10000 0.78 69 20:25 07.12.2021
4369 Clouds 12 1021 36 10000 1.49 63 18:59 07.12.2021
4370 Clouds 13 1020 34 10000 2.14 73 18:20 07.12.2021
4371 Clouds 14 1019 32 10000 2.52 96 17:23 07.12.2021
4372 Clouds 14 1019 32 10000 2.51 97 16:41 07.12.2021
4373 Clouds 16 1017 30 10000 3.19 112 15:59 07.12.2021
4374 Clouds 19 1015 25 10000 4.36 118 14:37 07.12.2021
4375 Clouds 22 1013 20 10000 4.87 121 13:29 07.12.2021
4376 Clouds 22 1014 19 10000 4.63 126 12:21 07.12.2021
4377 Clouds 22 1015 20 10000 4.34 131 10:45 07.12.2021
4378 Clouds 19 1018 27 10000 3.46 129 09:20 07.12.2021
4379 Clouds 15 1020 32 10000 2.18 126 06:40 07.12.2021
4380 Clouds 13 1021 37 10000 1.32 87 05:47 07.12.2021
4381 Clear 9 1020 56 10000 1.18 46 01:43 07.12.2021
4382 Clouds 10 1021 55 10000 0.7 77 23:21 06.12.2021
4383 Clouds 10 1021 55 10000 0.7 77 22:40 06.12.2021
4384 Clouds 11 1021 55 10000 1.02 68 21:59 06.12.2021
4385 Clear 11 1021 55 10000 1.22 83 21:21 06.12.2021
4386 Clear 11 1021 55 10000 1.22 83 20:32 06.12.2021
4387 Clouds 12 1021 51 10000 2.1 84 19:24 06.12.2021
4388 Clouds 13 1021 51 10000 2.1 80 18:31 06.12.2021
4389 Clouds 13 1020 49 10000 2.34 81 17:53 06.12.2021
4390 Clouds 14 1019 45 10000 2.56 98 17:20 06.12.2021
4391 Clouds 16 1017 39 10000 3.9 112 15:51 06.12.2021
4392 Clouds 22 1013 23 10000 5.34 131 13:53 06.12.2021
4393 Clear 23 1012 19 10000 4.63 139 12:40 06.12.2021
4394 Clear 23 1013 20 10000 3.93 147 11:54 06.12.2021
4395 Clear 21 1015 23 10000 2.73 148 09:37 06.12.2021
4396 Clear 15 1020 37 10000 1.78 126 06:59 06.12.2021
4397 Clear 10 1019 56 10000 0.79 55 00:33 06.12.2021
4398 Clear 11 1020 57 10000 0.93 106 21:54 05.12.2021
4399 Clear 11 1021 57 10000 1.06 106 21:25 05.12.2021
4400 Clear 12 1021 55 10000 1.38 101 20:20 05.12.2021
4401 Clear 12 1021 55 10000 1.38 101 19:57 05.12.2021
4402 Clear 13 1020 54 10000 1.92 83 19:22 05.12.2021
4403 Clear 13 1019 50 10000 2.56 80 18:25 05.12.2021
4404 Clear 13 1019 50 10000 2.55 81 17:49 05.12.2021
4405 Clear 14 1018 46 10000 2.67 97 16:57 05.12.2021
4406 Clear 16 1016 41 10000 3.45 114 16:28 05.12.2021
4407 Clear 16 1016 41 10000 3.46 114 15:58 05.12.2021
4408 Clear 20 1014 30 10000 5.2 118 14:45 05.12.2021
4409 Clear 22 1012 23 10000 5.04 130 14:27 05.12.2021
4410 Clear 23 1012 21 10000 4.45 142 13:28 05.12.2021
4411 Clear 23 1012 21 10000 4.11 147 12:41 05.12.2021
4412 Clear 22 1013 23 10000 3.36 158 12:23 05.12.2021
4413 Clear 22 1013 23 10000 3.36 158 11:37 05.12.2021
4414 Clear 21 1016 28 10000 2.43 161 10:21 05.12.2021
4415 Clear 19 1017 32 10000 2.33 150 08:50 05.12.2021
4416 Clear 10 1021 59 10000 1.07 53 04:56 05.12.2021
4417 Clear 10 1019 64 10000 0.75 60 01:23 05.12.2021
4418 Clear 11 1020 65 10000 1.1 80 22:32 04.12.2021
4419 Clear 11 1021 65 10000 0.83 97 21:36 04.12.2021
4420 Clear 11 1021 64 10000 0.74 85 20:32 04.12.2021
4421 Clear 11 1021 63 10000 1.32 84 19:33 04.12.2021
4422 Clear 13 1020 57 10000 2.55 90 18:23 04.12.2021
4423 Clear 13 1020 57 10000 2.55 90 17:45 04.12.2021
4424 Clear 14 1018 53 10000 2.87 101 17:20 04.12.2021
4425 Clear 14 1018 53 10000 2.87 101 16:46 04.12.2021
4426 Clear 16 1017 45 10000 3.52 110 16:27 04.12.2021
4427 Clear 22 1013 26 10000 4.54 132 12:44 04.12.2021
4428 Clear 21 1015 28 10000 4.26 130 11:34 04.12.2021
4429 Clear 21 1015 28 10000 4.23 131 10:57 04.12.2021
4430 Clear 20 1016 31 10000 4.16 128 09:40 04.12.2021
4431 Clear 17 1019 37 10000 3.8 124 08:28 04.12.2021
4432 Clear 10 1021 59 10000 1.47 82 04:43 04.12.2021
4433 Clear 10 1019 57 10000 1.06 84 00:49 04.12.2021
4434 Clouds 11 1019 54 10000 0.79 103 23:33 03.12.2021
4435 Clouds 11 1019 52 10000 0.91 112 22:51 03.12.2021
4436 Clouds 11 1020 51 10000 1.09 100 21:54 03.12.2021
4437 Clouds 12 1020 50 10000 1.02 82 21:20 03.12.2021
4438 Clouds 12 1020 48 10000 1.77 80 20:28 03.12.2021
4439 Clouds 13 1020 46 10000 2.4 75 19:20 03.12.2021
4440 Clouds 14 1019 42 10000 2.68 82 18:22 03.12.2021
4441 Clouds 14 1019 42 10000 2.68 82 17:30 03.12.2021
4442 Clear 21 1013 24 10000 4.48 131 13:35 03.12.2021
4443 Clear 22 1013 22 10000 3.96 143 12:21 03.12.2021
4444 Clear 22 1014 24 10000 3.71 143 11:19 03.12.2021
4445 Clear 19 1017 29 10000 3.38 132 08:40 03.12.2021
4446 Clear 18 1018 31 10000 3.12 126 07:43 03.12.2021
4447 Clouds 16 1019 36 10000 2.29 130 06:41 03.12.2021
4448 Clouds 11 1017 55 10000 0.68 90 00:49 03.12.2021
4449 Clouds 11 1017 53 10000 0.38 110 23:48 02.12.2021
4450 Clouds 12 1018 51 10000 0.65 99 22:54 02.12.2021
4451 Clouds 12 1018 48 10000 0.97 100 21:41 02.12.2021
4452 Clouds 13 1018 45 10000 1.32 91 20:45 02.12.2021
4453 Clouds 14 1018 46 10000 2.06 78 20:22 02.12.2021
4454 Clouds 13 1018 46 10000 2.58 68 18:50 02.12.2021
4455 Clouds 15 1017 42 10000 3.07 82 16:43 02.12.2021
4456 Clouds 17 1014 35 10000 4.36 110 15:41 02.12.2021
4457 Clouds 17 1014 35 10000 4.36 110 15:41 02.12.2021
4458 Clouds 21 1012 28 10000 4.99 143 14:52 02.12.2021
4459 Clouds 22 1010 24 10000 4.39 165 13:39 02.12.2021
4460 Clear 22 1010 24 10000 3.55 176 12:36 02.12.2021
4461 Clear 22 1012 27 10000 3.22 180 10:42 02.12.2021
4462 Clear 20 1015 31 10000 2.39 158 09:27 02.12.2021
4463 Clouds 16 1017 40 10000 2.01 134 07:20 02.12.2021
4464 Clouds 11 1017 54 10000 0.86 59 01:28 02.12.2021
4465 Clouds 11 1017 54 10000 0.86 59 00:35 02.12.2021
4466 Clouds 11 1018 52 10000 1.15 67 22:32 01.12.2021
4467 Clouds 12 1018 51 10000 0.99 71 21:44 01.12.2021
4468 Clouds 12 1018 49 10000 1.4 68 20:24 01.12.2021
4469 Clouds 12 1018 49 10000 1.4 68 19:43 01.12.2021
4470 Clouds 13 1018 49 10000 2.05 61 18:55 01.12.2021
4471 Clouds 13 1017 48 10000 2.62 69 17:31 01.12.2021
4472 Clouds 14 1016 45 10000 2.97 86 16:34 01.12.2021
4473 Clouds 19 1012 30 10000 4.25 140 14:35 01.12.2021
4474 Clouds 21 1011 24 10000 4.24 154 13:37 01.12.2021
4475 Clouds 21 1012 23 10000 2.79 157 10:45 01.12.2021
4476 Clouds 20 1014 25 10000 2.59 143 10:27 01.12.2021
4477 Clouds 19 1015 28 10000 2.57 131 08:52 01.12.2021
4478 Clouds 17 1017 32 10000 2.51 131 07:59 01.12.2021
4479 Clouds 17 1017 32 10000 2.51 131 07:31 01.12.2021
4480 Clouds 9 1020 45 10000 1.28 41 03:59 01.12.2021
4481 Clouds 9 1019 46 10000 0.82 7 03:28 01.12.2021
4482 Clouds 9 1018 45 10000 0.91 19 00:45 01.12.2021
4483 Clouds 10 1018 44 10000 0.51 43 23:33 30.11.2021
4484 Clouds 10 1018 44 10000 0.51 43 23:33 30.11.2021
4485 Clouds 10 1019 43 10000 0.83 79 22:34 30.11.2021
4486 Clouds 11 1019 41 10000 1.04 75 20:47 30.11.2021
4487 Clouds 11 1020 40 10000 1.47 70 20:26 30.11.2021
4488 Clouds 11 1020 40 10000 1.47 70 19:39 30.11.2021
4489 Clouds 12 1020 39 10000 1.91 67 18:57 30.11.2021
4490 Clouds 12 1019 37 10000 2.26 71 17:47 30.11.2021
4491 Clouds 15 1016 33 10000 2.87 109 16:25 30.11.2021
4492 Clouds 18 1014 27 10000 4.33 117 14:35 30.11.2021
4493 Clouds 20 1013 22 10000 4.91 115 13:41 30.11.2021
4494 Clear 21 1012 20 10000 5 116 13:22 30.11.2021
4495 Clear 21 1012 19 10000 5.02 119 12:41 30.11.2021
4496 Clear 21 1014 19 10000 4.84 120 11:26 30.11.2021
4497 Clear 21 1014 19 10000 4.84 120 10:37 30.11.2021
4498 Clear 19 1017 23 10000 3.23 117 08:59 30.11.2021
4499 Clear 19 1017 23 10000 3.23 117 08:40 30.11.2021
4500 Clear 17 1018 28 10000 2.73 105 08:19 30.11.2021
4501 Clear 15 1019 39 10000 2 103 06:39 30.11.2021
4502 Clear 9 1020 49 10000 1.11 56 01:52 30.11.2021
4503 Clouds 10 1019 47 10000 1.33 61 01:28 30.11.2021
4504 Clouds 10 1019 45 10000 1.36 51 23:51 29.11.2021
4505 Clouds 10 1020 43 10000 1.61 37 23:20 29.11.2021
4506 Clouds 10 1020 43 10000 1.61 37 22:42 29.11.2021
4507 Clouds 11 1020 42 10000 1.71 42 22:24 29.11.2021
4508 Clouds 11 1020 42 10000 1.72 47 21:21 29.11.2021
4509 Clouds 11 1020 42 10000 1.72 47 20:55 29.11.2021
4510 Clouds 12 1021 42 10000 2.14 51 20:21 29.11.2021
4511 Clouds 12 1021 42 10000 2.14 51 19:43 29.11.2021
4512 Clear 12 1021 42 10000 2.66 64 19:25 29.11.2021
4513 Clear 12 1021 42 10000 2.58 69 18:45 29.11.2021
4514 Clear 13 1019 40 10000 3.53 79 17:22 29.11.2021
4515 Clear 13 1019 40 10000 3.53 79 16:54 29.11.2021
4516 Clear 15 1017 37 10000 4.06 96 16:25 29.11.2021
4517 Clear 18 1015 31 10000 5.27 100 14:52 29.11.2021
4518 Clear 20 1014 27 10000 6.05 101 14:29 29.11.2021
4519 Clear 20 1013 26 10000 6.5 105 13:23 29.11.2021
4520 Clear 21 1014 26 10000 6.59 107 12:20 29.11.2021
4521 Clear 21 1014 26 10000 6.59 107 11:31 29.11.2021
4522 Clear 20 1016 29 10000 6.06 103 10:27 29.11.2021
4523 Clear 18 1018 38 10000 4.15 101 07:48 29.11.2021
4524 Clear 13 1020 54 10000 1.7 50 05:52 29.11.2021
4525 Clear 9 1020 69 10000 1.57 26 01:30 29.11.2021
4526 Clear 10 1020 68 10000 1.78 17 23:59 28.11.2021
4527 Clear 10 1020 68 10000 1.78 17 23:40 28.11.2021
4528 Clear 11 1020 62 10000 2.11 17 22:29 28.11.2021
4529 Clear 11 1020 62 10000 2.11 17 21:40 28.11.2021
4530 Clear 12 1020 60 10000 2.25 22 20:44 28.11.2021
4531 Clear 12 1020 58 10000 2.52 39 19:53 28.11.2021
4532 Clouds 13 1020 57 10000 3.11 59 18:40 28.11.2021
4533 Clouds 13 1019 55 10000 3.59 72 18:22 28.11.2021
4534 Clouds 13 1019 55 10000 3.59 72 17:46 28.11.2021
4535 Clouds 14 1018 52 10000 4.04 92 17:18 28.11.2021
4536 Clouds 16 1016 46 10000 5.59 102 16:28 28.11.2021
4537 Clouds 16 1016 46 10000 5.59 102 16:28 28.11.2021
4538 Clouds 16 1016 46 10000 5.59 102 15:51 28.11.2021
4539 Clouds 19 1014 40 10000 6.59 101 14:56 28.11.2021
4540 Clouds 21 1013 35 10000 6.76 99 14:29 28.11.2021
4541 Clear 21 1013 33 10000 6.47 100 12:54 28.11.2021
4542 Clear 21 1013 33 10000 6.58 102 11:51 28.11.2021
4543 Clear 21 1014 34 10000 6.21 100 10:37 28.11.2021
4544 Clear 20 1016 36 10000 5.99 97 09:56 28.11.2021
4545 Clear 20 1016 36 10000 5.99 97 09:36 28.11.2021
4546 Clouds 11 1019 80 10000 1.17 20 00:53 28.11.2021
4547 Clouds 13 1019 73 10000 0.86 46 22:58 27.11.2021
4548 Clouds 13 1020 77 10000 1.59 51 20:28 27.11.2021
4549 Clouds 14 1019 70 10000 2.25 71 18:44 27.11.2021
4550 Clouds 16 1017 61 10000 3.19 92 16:19 27.11.2021
4551 Rain 17 1015 58 10000 2.98 88 15:32 27.11.2021
4552 Clouds 18 1015 56 10000 3.19 86 13:41 27.11.2021
4553 Clouds 20 1014 44 10000 4.24 104 12:27 27.11.2021
4554 Clouds 21 1014 38 10000 3.86 137 10:30 27.11.2021
4555 Clouds 19 1017 47 10000 2.79 143 09:25 27.11.2021
4556 Clouds 17 1019 55 10000 2.6 138 07:43 27.11.2021
4557 Clouds 10 1021 71 10000 0.99 97 04:55 27.11.2021
4558 Clouds 10 1019 69 10000 0.66 55 00:31 27.11.2021
4559 Clouds 11 1020 65 10000 0.64 112 22:52 26.11.2021
4560 Clouds 11 1020 62 10000 1.08 74 22:24 26.11.2021
4561 Clouds 11 1020 62 10000 1.08 73 21:34 26.11.2021
4562 Clear 12 1020 60 10000 1.43 67 20:42 26.11.2021
4563 Clear 12 1020 57 10000 1.57 70 19:56 26.11.2021
4564 Clouds 13 1020 54 10000 2.08 69 19:27 26.11.2021
4565 Clouds 13 1019 49 10000 2.7 74 17:55 26.11.2021
4566 Clouds 14 1018 45 10000 3.06 91 17:21 26.11.2021
4567 Clouds 16 1017 40 10000 3.67 101 15:46 26.11.2021
4568 Clouds 20 1014 29 10000 5.09 106 13:35 26.11.2021
4569 Clouds 21 1014 28 10000 5.4 110 11:58 26.11.2021
4570 Clouds 21 1015 28 10000 5.31 114 10:37 26.11.2021
4571 Clouds 20 1017 33 10000 4.18 131 08:57 26.11.2021
4572 Clouds 18 1018 37 10000 3.26 130 08:21 26.11.2021
4573 Clouds 16 1019 42 10000 2.17 117 07:25 26.11.2021
4574 Clouds 14 1019 48 10000 1.55 74 06:26 26.11.2021
4575 Clouds 10 1020 60 10000 1.38 43 03:59 26.11.2021
4576 Clouds 10 1018 59 10000 1.06 10 01:55 26.11.2021
4577 Clouds 11 1018 55 10000 0.98 26 22:48 25.11.2021
4578 Clouds 12 1019 53 10000 1.91 57 21:26 25.11.2021
4579 Clear 12 1019 52 10000 2.31 61 20:27 25.11.2021
4580 Clouds 13 1019 50 10000 2.45 70 18:47 25.11.2021
4581 Clouds 14 1018 45 10000 2.46 75 17:47 25.11.2021
4582 Clouds 16 1017 41 10000 3.48 97 17:25 25.11.2021
4583 Clouds 16 1017 41 10000 3.48 97 16:33 25.11.2021
4584 Clouds 18 1014 43 10000 4.51 93 14:59 25.11.2021
4585 Clouds 19 1013 39 10000 4.76 102 13:37 25.11.2021
4586 Clouds 20 1013 39 10000 2.99 99 12:27 25.11.2021
4587 Clouds 20 1013 39 10000 2.99 99 11:50 25.11.2021
4588 Clouds 20 1016 41 10000 2.82 144 09:28 25.11.2021
4589 Clouds 15 1018 55 10000 0.99 133 06:18 25.11.2021
4590 Clouds 13 1016 62 10000 0.56 56 02:50 25.11.2021
4591 Clouds 14 1017 55 10000 0.57 137 23:28 24.11.2021
4592 Clouds 14 1018 54 10000 1.36 109 22:25 24.11.2021
4593 Clouds 14 1018 54 10000 1.36 109 21:37 24.11.2021
4594 Clouds 15 1018 51 10000 1.72 105 20:52 24.11.2021
4595 Clouds 15 1018 48 10000 1.93 99 20:26 24.11.2021
4596 Clouds 15 1017 41 10000 2.34 83 18:31 24.11.2021
4597 Clouds 16 1017 40 10000 2.89 82 17:58 24.11.2021
4598 Clouds 18 1014 40 10000 3.62 103 15:47 24.11.2021
4599 Clouds 20 1012 40 10000 2.78 143 14:53 24.11.2021
4600 Clouds 21 1011 35 10000 3.01 183 14:20 24.11.2021
4601 Clouds 22 1010 32 10000 3.9 193 12:47 24.11.2021
4602 Clear 22 1013 34 10000 3 183 11:21 24.11.2021
4603 Clear 22 1013 34 10000 3 183 10:49 24.11.2021
4604 Clear 20 1014 37 10000 2.56 173 10:23 24.11.2021
4605 Clear 17 1018 49 10000 2.02 150 07:55 24.11.2021
4606 Clouds 16 1018 54 10000 1.7 142 06:55 24.11.2021
4607 Clouds 9 1019 76 10000 0.6 11 03:55 24.11.2021
4608 Clouds 10 1018 73 10000 0.88 9 00:53 24.11.2021
4609 Clouds 11 1019 72 10000 0.88 52 22:40 23.11.2021
4610 Clouds 11 1020 70 10000 1.22 63 22:20 23.11.2021
4611 Clouds 11 1020 70 10000 1.22 63 21:44 23.11.2021
4612 Clouds 11 1020 70 10000 1.22 63 21:44 23.11.2021
4613 Clouds 12 1021 66 10000 1.82 78 19:43 23.11.2021
4614 Clouds 13 1020 63 10000 2.04 86 18:43 23.11.2021
4615 Clouds 13 1019 60 10000 2.74 93 18:22 23.11.2021
4616 Clouds 14 1018 53 10000 3.1 92 17:19 23.11.2021
4617 Clouds 14 1018 53 10000 3.1 92 16:34 23.11.2021
4618 Clouds 20 1014 32 10000 3.76 116 15:22 23.11.2021
4619 Clouds 21 1012 24 10000 3.73 123 14:26 23.11.2021
4620 Clouds 22 1012 18 10000 2.74 147 11:48 23.11.2021
4621 Clouds 21 1015 19 10000 2.12 143 10:19 23.11.2021
4622 Clouds 19 1017 21 10000 2.17 133 09:22 23.11.2021
4623 Clouds 16 1020 25 10000 1.43 112 06:46 23.11.2021
4624 Clouds 9 1020 32 10000 1.56 10 03:54 23.11.2021
4625 Clouds 9 1020 33 10000 1.51 15 02:57 23.11.2021
4626 Clouds 10 1020 37 10000 1.59 8 23:21 22.11.2021
4627 Clouds 10 1020 37 10000 1.59 8 23:21 22.11.2021
4628 Clouds 11 1020 37 10000 1.6 8 22:53 22.11.2021
4629 Clouds 11 1020 38 10000 1.61 16 22:27 22.11.2021
4630 Clouds 11 1020 38 10000 1.61 16 21:42 22.11.2021
4631 Clouds 11 1021 39 10000 1.71 25 20:52 22.11.2021
4632 Clouds 12 1021 39 10000 2.21 42 19:57 22.11.2021
4633 Clouds 13 1020 39 10000 2.73 52 19:19 22.11.2021
4634 Clouds 13 1020 42 10000 2.71 53 18:39 22.11.2021
4635 Clouds 13 1019 41 10000 3.12 60 17:43 22.11.2021
4636 Clouds 16 1016 38 10000 4.09 96 16:22 22.11.2021
4637 Clouds 21 1013 25 10000 5.61 108 14:20 22.11.2021
4638 Clouds 22 1013 23 10000 5.45 109 12:26 22.11.2021
4639 Clouds 22 1014 24 10000 5.08 108 10:43 22.11.2021
4640 Clouds 21 1015 26 10000 4.66 105 09:43 22.11.2021
4641 Clouds 20 1017 28 10000 4.95 104 08:40 22.11.2021
4642 Clouds 14 1019 37 10000 1.82 84 06:22 22.11.2021
4643 Clouds 11 1018 41 10000 1.69 7 23:30 21.11.2021
4644 Clouds 11 1018 42 10000 1.79 13 22:50 21.11.2021
4645 Clouds 12 1018 42 10000 1.53 33 21:57 21.11.2021
4646 Clouds 12 1018 39 10000 1.62 49 20:42 21.11.2021
4647 Clouds 13 1018 38 10000 2.04 48 19:59 21.11.2021
4648 Clouds 14 1017 37 10000 2.8 53 18:25 21.11.2021
4649 Clouds 14 1017 37 10000 2.8 53 17:39 21.11.2021
4650 Clouds 15 1016 35 10000 2.95 75 16:42 21.11.2021
4651 Clouds 20 1012 29 10000 5.33 108 14:46 21.11.2021
4652 Clouds 22 1011 24 10000 5.51 112 13:47 21.11.2021
4653 Clouds 23 1011 22 10000 4.95 115 12:37 21.11.2021
4654 Clouds 23 1011 22 10000 4.41 117 11:54 21.11.2021
4655 Clouds 23 1011 22 10000 4.41 117 11:35 21.11.2021
4656 Clouds 22 1013 24 10000 4.01 111 10:19 21.11.2021
4657 Clear 21 1015 25 10000 3.56 120 08:56 21.11.2021
4658 Clear 19 1016 27 10000 3.49 120 08:26 21.11.2021
4659 Clear 19 1016 27 10000 3.49 120 07:49 21.11.2021
4660 Clouds 15 1017 35 10000 1.27 86 06:18 21.11.2021
4661 Clouds 12 1018 42 10000 1.36 36 05:26 21.11.2021
4662 Clouds 11 1016 41 10000 1.25 28 03:19 21.11.2021
4663 Clouds 11 1016 41 10000 1.25 28 02:52 21.11.2021
4664 Clouds 12 1015 39 10000 1.02 35 00:59 21.11.2021
4665 Clouds 12 1015 38 10000 0.4 27 23:59 20.11.2021
4666 Clouds 13 1016 37 10000 0.88 66 21:49 20.11.2021
4667 Clouds 13 1016 38 10000 1.33 35 21:28 20.11.2021
4668 Clouds 14 1016 36 10000 2.06 43 19:22 20.11.2021
4669 Clouds 14 1016 36 10000 2.06 43 18:45 20.11.2021
4670 Clouds 15 1016 36 10000 2.52 56 18:19 20.11.2021
4671 Clouds 16 1014 35 10000 2.77 77 17:18 20.11.2021
4672 Clouds 21 1010 28 10000 3.49 142 14:49 20.11.2021
4673 Clouds 23 1009 22 10000 3.5 153 14:28 20.11.2021
4674 Clouds 23 1009 22 10000 3.5 153 13:32 20.11.2021
4675 Clouds 23 1011 26 10000 3.44 160 11:20 20.11.2021
4676 Clear 22 1013 28 10000 2.67 164 09:53 20.11.2021
4677 Clear 19 1016 32 10000 1.07 172 08:25 20.11.2021
4678 Clouds 12 1018 49 10000 1.31 19 05:29 20.11.2021
4679 Clouds 12 1018 49 10000 1.31 19 04:51 20.11.2021
4680 Clear 11 1017 51 10000 1.16 4 03:24 20.11.2021
4681 Clear 11 1017 50 10000 0.67 20 00:42 20.11.2021
4682 Clear 12 1017 50 10000 0.63 33 23:43 19.11.2021
4683 Clear 12 1017 50 10000 0.68 5 22:52 19.11.2021
4684 Clear 13 1018 48 10000 1.21 24 21:22 19.11.2021
4685 Clear 13 1018 48 10000 1.21 24 20:37 19.11.2021
4686 Clear 13 1018 47 10000 1.37 41 19:56 19.11.2021
4687 Clear 13 1018 47 10000 1.37 41 19:34 19.11.2021
4688 Clouds 14 1018 44 10000 1.79 45 18:43 19.11.2021
4689 Clouds 14 1018 44 10000 2.08 58 17:38 19.11.2021
4690 Clouds 16 1014 40 10000 3.35 103 15:58 19.11.2021
4691 Clouds 22 1011 26 10000 3.99 135 14:19 19.11.2021
4692 Clouds 22 1013 23 10000 2.85 131 10:52 19.11.2021
4693 Clouds 21 1014 25 10000 2.65 125 09:58 19.11.2021
4694 Clouds 20 1016 28 10000 2.73 120 08:32 19.11.2021
4695 Clear 11 1020 48 10000 1.36 45 04:55 19.11.2021
4696 Clear 10 1019 48 10000 1.27 12 03:00 19.11.2021
4697 Clouds 11 1019 47 10000 1.22 11 23:53 18.11.2021
4698 Clouds 11 1019 47 10000 1.33 11 22:38 18.11.2021
4699 Clouds 12 1020 48 10000 1.75 23 20:56 18.11.2021
4700 Clouds 12 1020 48 10000 1.75 23 20:34 18.11.2021
4701 Clear 12 1020 49 10000 2.04 39 19:59 18.11.2021
4702 Clear 12 1020 49 10000 2.04 39 19:35 18.11.2021
4703 Clouds 13 1020 48 10000 2.47 44 18:35 18.11.2021
4704 Clouds 13 1019 47 10000 2.82 63 17:51 18.11.2021
4705 Clouds 14 1017 45 10000 3.16 85 16:45 18.11.2021
4706 Clouds 16 1016 42 10000 4.02 100 15:52 18.11.2021
4707 Clouds 22 1012 30 10000 4.96 107 14:19 18.11.2021
4708 Clear 22 1012 29 10000 4.48 108 12:53 18.11.2021
4709 Clouds 22 1012 29 10000 4.25 108 11:44 18.11.2021
4710 Clear 22 1014 30 10000 4.58 107 11:25 18.11.2021
4711 Clear 21 1015 32 10000 4.55 107 10:21 18.11.2021
4712 Clear 18 1018 39 10000 4.18 108 07:42 18.11.2021
4713 Clouds 14 1020 46 10000 1.16 97 06:20 18.11.2021
4714 Clouds 14 1020 46 10000 1.16 97 05:41 18.11.2021
4715 Clouds 10 1018 46 10000 1.45 7 01:25 18.11.2021
4716 Clear 11 1019 47 10000 1.42 21 23:27 17.11.2021
4717 Clear 11 1019 47 10000 1.42 21 22:39 17.11.2021
4718 Clear 11 1019 47 10000 1.57 26 22:18 17.11.2021
4719 Clear 11 1019 47 10000 1.57 26 21:35 17.11.2021
4720 Clear 12 1019 45 10000 2.05 40 19:31 17.11.2021
4721 Clouds 14 1017 42 10000 3.36 68 17:35 17.11.2021
4722 Clouds 16 1015 39 10000 3.85 90 15:54 17.11.2021
4723 Clouds 22 1011 26 10000 5.6 106 12:56 17.11.2021
4724 Clouds 22 1011 24 10000 4.95 106 12:36 17.11.2021
4725 Clouds 22 1012 24 10000 4.82 105 10:52 17.11.2021
4726 Clouds 21 1013 24 10000 4.61 103 09:37 17.11.2021
4727 Clouds 19 1016 30 10000 4.43 101 07:46 17.11.2021
4728 Clouds 17 1017 35 10000 2.88 108 06:54 17.11.2021
4729 Clouds 11 1017 60 10000 1.12 18 02:48 17.11.2021
4730 Clouds 11 1016 57 10000 0.96 41 23:58 16.11.2021
4731 Clouds 13 1016 55 10000 0.97 100 22:25 16.11.2021
4732 Clouds 14 1017 51 10000 1.79 80 20:19 16.11.2021
4733 Clouds 14 1017 51 10000 1.79 80 19:37 16.11.2021
4734 Clouds 15 1017 50 10000 1.97 77 18:43 16.11.2021
4735 Clouds 15 1016 49 10000 2.28 83 17:56 16.11.2021
4736 Clouds 15 1015 48 10000 3.26 94 16:59 16.11.2021
4737 Clouds 18 1013 41 10000 4.52 103 16:19 16.11.2021
4738 Clouds 18 1013 41 10000 4.52 103 15:42 16.11.2021
4739 Clouds 21 1010 37 10000 2.5 141 13:46 16.11.2021
4740 Clouds 21 1012 36 10000 2.8 155 10:27 16.11.2021
4741 Clouds 21 1012 36 10000 2.8 155 09:41 16.11.2021
4742 Clouds 19 1016 42 10000 2.01 136 07:47 16.11.2021
4743 Clouds 17 1017 47 10000 1.6 139 06:43 16.11.2021
4744 Clouds 14 1015 54 10000 1.05 84 23:53 15.11.2021
4745 Clouds 14 1016 56 10000 0.94 87 22:41 15.11.2021
4746 Clouds 14 1016 56 10000 1.38 82 22:19 15.11.2021
4747 Clouds 14 1016 56 10000 1.38 82 21:31 15.11.2021
4748 Clouds 15 1016 52 10000 2.2 93 20:43 15.11.2021
4749 Clouds 16 1017 51 10000 1.78 76 19:26 15.11.2021
4750 Clouds 16 1016 51 10000 2.27 79 17:35 15.11.2021
4751 Clouds 17 1014 49 10000 4.2 98 15:55 15.11.2021
4752 Clouds 17 1014 49 10000 4.2 98 15:35 15.11.2021
4753 Clouds 19 1012 45 10000 4.32 109 14:32 15.11.2021
4754 Clouds 21 1011 42 10000 2.12 119 12:38 15.11.2021
4755 Clouds 22 1012 38 10000 3.64 153 10:33 15.11.2021
4756 Clouds 20 1015 45 10000 2.28 149 09:22 15.11.2021
4757 Clouds 16 1018 56 10000 1.57 132 07:23 15.11.2021
4758 Clouds 12 1017 72 10000 1.7 48 00:56 15.11.2021
4759 Clouds 12 1018 69 10000 1.85 66 22:44 14.11.2021
4760 Clouds 13 1019 67 10000 2.17 76 21:45 14.11.2021
4761 Clouds 16 1018 55 10000 2.95 86 19:22 14.11.2021
4762 Clouds 16 1018 55 10000 2.95 86 18:55 14.11.2021
4763 Clouds 16 1018 55 10000 2.95 86 18:36 14.11.2021
4764 Clouds 16 1018 55 10000 2.85 86 18:18 14.11.2021
4765 Clouds 16 1018 55 10000 2.85 86 17:58 14.11.2021
4766 Clouds 16 1018 55 10000 2.85 86 17:40 14.11.2021
4767 Clouds 16 1017 54 10000 3.43 93 17:22 14.11.2021
4768 Clouds 16 1016 55 10000 3.23 90 16:58 14.11.2021
4769 Clouds 16 1016 55 10000 3.23 90 16:40 14.11.2021
4770 Clouds 18 1015 50 10000 3.92 104 16:18 14.11.2021
4771 Clouds 20 1013 46 10000 3.54 113 15:19 14.11.2021
4772 Clouds 20 1013 46 10000 3.54 113 14:45 14.11.2021
4773 Clouds 21 1012 42 10000 3.16 105 14:20 14.11.2021
4774 Clouds 21 1012 42 10000 3.16 105 13:51 14.11.2021
4775 Clouds 21 1012 43 10000 3.07 97 13:27 14.11.2021
4776 Clouds 20 1013 44 10000 3.81 103 12:22 14.11.2021
4777 Clouds 20 1013 44 10000 4.1 109 10:58 14.11.2021
4778 Clouds 20 1013 44 10000 4.1 109 10:36 14.11.2021
4779 Clouds 20 1016 48 10000 5.18 111 09:26 14.11.2021
4780 Clouds 20 1016 48 10000 5.18 111 08:51 14.11.2021
4781 Clouds 14 1018 64 10000 1.74 123 04:46 14.11.2021
4782 Clouds 14 1017 66 10000 1.61 70 22:50 13.11.2021
4783 Clouds 14 1017 65 10000 1.75 81 21:59 13.11.2021
4784 Clouds 15 1017 61 10000 2.52 88 21:32 13.11.2021
4785 Clouds 15 1017 61 10000 2.53 88 20:43 13.11.2021
4786 Clouds 16 1017 57 10000 2.88 87 18:56 13.11.2021
4787 Clouds 16 1017 57 10000 2.88 87 18:32 13.11.2021
4788 Clouds 16 1016 56 10000 3.23 88 17:38 13.11.2021
4789 Clouds 17 1015 56 10000 3.29 87 15:53 13.11.2021
4790 Clouds 18 1014 55 10000 3.35 91 14:43 13.11.2021
4791 Clouds 18 1013 53 10000 3.19 92 13:47 13.11.2021
4792 Clouds 19 1012 48 10000 3.27 85 12:43 13.11.2021
4793 Clouds 20 1012 42 10000 3.54 99 11:48 13.11.2021
4794 Clouds 21 1013 39 10000 3.65 110 11:21 13.11.2021
4795 Clouds 21 1013 39 10000 3.65 110 10:33 13.11.2021
4796 Clouds 21 1014 40 10000 3.82 113 09:45 13.11.2021
4797 Clouds 20 1015 42 10000 4.33 114 09:22 13.11.2021
4798 Clouds 20 1015 42 10000 4.33 114 08:48 13.11.2021
4799 Clouds 19 1017 45 10000 4.23 116 07:47 13.11.2021
4800 Clouds 12 1019 64 10000 1.46 55 04:42 13.11.2021
4801 Clouds 11 1018 66 10000 1.72 47 04:20 13.11.2021
4802 Clouds 12 1017 62 10000 1.29 43 23:35 12.11.2021
4803 Clouds 13 1018 59 10000 1.61 47 21:56 12.11.2021
4804 Clouds 13 1017 56 10000 2.11 53 20:47 12.11.2021
4805 Clouds 14 1017 53 10000 2.48 59 19:32 12.11.2021
4806 Clouds 14 1017 53 10000 2.48 59 19:32 12.11.2021
4807 Clouds 16 1017 49 10000 2.65 71 18:57 12.11.2021
4808 Clouds 16 1016 49 10000 2.94 86 18:19 12.11.2021
4809 Clouds 17 1014 52 10000 3.26 78 15:55 12.11.2021
4810 Clouds 19 1012 46 10000 2.58 89 13:28 12.11.2021
4811 Clouds 20 1013 39 10000 3.91 117 11:26 12.11.2021
4812 Clouds 20 1013 39 10000 3.91 117 10:40 12.11.2021
4813 Clouds 19 1015 41 10000 3.8 111 08:56 12.11.2021
4814 Clouds 18 1016 43 10000 3.69 105 07:49 12.11.2021
4815 Clouds 12 1016 54 10000 0.94 85 00:21 12.11.2021
4816 Clouds 12 1016 54 10000 0.94 85 23:30 11.11.2021
4817 Clouds 14 1016 49 10000 2.08 105 22:21 11.11.2021
4818 Clouds 15 1017 48 10000 2.27 96 21:26 11.11.2021
4819 Clouds 15 1017 47 10000 2.43 82 19:56 11.11.2021
4820 Clouds 16 1016 46 10000 2.49 78 18:40 11.11.2021
4821 Clouds 16 1016 46 10000 2.69 87 17:42 11.11.2021
4822 Clouds 17 1014 44 10000 4.29 105 15:51 11.11.2021
4823 Clouds 18 1012 44 10000 4.51 108 14:42 11.11.2021
4824 Clouds 20 1011 40 10000 4.6 116 14:22 11.11.2021
4825 Clouds 20 1011 40 10000 4.6 116 13:35 11.11.2021
4826 Clouds 21 1011 37 10000 4.67 122 12:27 11.11.2021
4827 Clouds 20 1014 38 10000 4.29 114 09:59 11.11.2021
4828 Clouds 19 1015 41 10000 4.31 109 09:23 11.11.2021
4829 Clouds 18 1016 44 10000 4.33 106 07:34 11.11.2021
4830 Clouds 14 1016 48 10000 0.76 93 00:40 11.11.2021
4831 Clouds 14 1017 46 10000 1.18 97 22:46 10.11.2021
4832 Clouds 15 1017 45 10000 1.75 104 21:54 10.11.2021
4833 Clouds 15 1017 44 10000 2.15 96 20:57 10.11.2021
4834 Clouds 15 1017 44 10000 2.15 96 20:33 10.11.2021
4835 Clouds 15 1017 44 10000 2.31 81 19:45 10.11.2021
4836 Clouds 15 1018 42 10000 2.37 79 17:39 10.11.2021
4837 Clouds 17 1016 42 10000 4.26 104 16:21 10.11.2021
4838 Clouds 19 1013 46 10000 3.68 113 14:25 10.11.2021
4839 Clouds 19 1013 46 10000 3.68 113 13:40 10.11.2021
4840 Clouds 20 1013 43 10000 3.48 118 12:39 10.11.2021
4841 Clouds 20 1015 42 10000 4.06 116 09:41 10.11.2021
4842 Clouds 19 1017 44 10000 4.2 107 08:44 10.11.2021
4843 Clouds 16 1019 52 10000 4.16 99 06:59 10.11.2021
4844 Clouds 14 1020 56 10000 2.6 97 05:58 10.11.2021
4845 Clouds 13 1020 59 10000 1.7 101 04:58 10.11.2021
4846 Clouds 14 1019 53 10000 1.18 103 22:45 09.11.2021
4847 Clouds 14 1019 54 10000 1.46 73 21:46 09.11.2021
4848 Clouds 14 1020 55 10000 2.1 74 19:51 09.11.2021
4849 Clouds 14 1019 55 10000 2.31 82 18:59 09.11.2021
4850 Clouds 16 1017 50 10000 3.75 98 17:24 09.11.2021
4851 Clouds 17 1016 49 10000 4 96 15:38 09.11.2021
4852 Clouds 19 1013 45 10000 3.49 101 13:55 09.11.2021
4853 Clouds 20 1013 41 10000 3.21 103 12:50 09.11.2021
4854 Clouds 21 1013 39 10000 4.03 111 11:34 09.11.2021
4855 Clouds 21 1014 39 10000 4.61 113 10:41 09.11.2021
4856 Clouds 19 1016 41 10000 4.03 108 09:22 09.11.2021
4857 Clouds 18 1017 44 10000 3.24 110 07:55 09.11.2021
4858 Clouds 13 1018 56 10000 1.02 108 05:23 09.11.2021
4859 Clouds 13 1016 51 10000 0.53 139 01:58 09.11.2021
4860 Clouds 13 1016 51 10000 0.53 139 01:39 09.11.2021
4861 Clouds 14 1016 48 10000 0.74 164 23:34 08.11.2021
4862 Clouds 14 1016 47 10000 0.67 101 22:47 08.11.2021
4863 Clouds 14 1017 46 10000 0.63 95 21:46 08.11.2021
4864 Clouds 14 1017 42 10000 1.36 67 20:38 08.11.2021
4865 Clouds 14 1017 42 10000 1.87 62 19:46 08.11.2021
4866 Clouds 14 1016 40 10000 3.11 72 17:48 08.11.2021
4867 Clouds 17 1013 39 10000 3.6 87 15:58 08.11.2021
4868 Clouds 18 1012 44 10000 2.91 85 14:57 08.11.2021
4869 Clouds 18 1012 44 10000 2.91 85 14:34 08.11.2021
4870 Clouds 21 1010 34 10000 2.23 96 13:20 08.11.2021
4871 Clouds 22 1010 33 10000 2.43 115 11:56 08.11.2021
4872 Clouds 22 1011 32 10000 2.56 126 10:50 08.11.2021
4873 Clouds 21 1013 32 10000 2.42 123 09:31 08.11.2021
4874 Clouds 20 1014 33 10000 2.59 114 08:52 08.11.2021
4875 Clouds 17 1017 37 10000 2.72 114 06:57 08.11.2021
4876 Clouds 11 1017 51 10000 1.02 32 03:38 08.11.2021
4877 Clouds 11 1016 51 10000 0.86 26 03:19 08.11.2021
4878 Clouds 13 1015 46 10000 1.14 26 23:33 07.11.2021
4879 Clouds 14 1015 44 10000 0.64 77 21:31 07.11.2021
4880 Clouds 14 1016 45 10000 1.06 54 20:36 07.11.2021
4881 Clouds 16 1016 41 10000 1.98 43 19:19 07.11.2021
4882 Clouds 16 1015 42 10000 2.28 47 17:47 07.11.2021
4883 Clouds 16 1014 45 10000 2.75 62 16:44 07.11.2021
4884 Clouds 17 1012 46 10000 3.01 66 15:42 07.11.2021
4885 Clouds 19 1010 45 10000 3.34 61 14:28 07.11.2021
4886 Clouds 20 1010 39 10000 2.93 63 12:57 07.11.2021
4887 Clouds 21 1010 35 10000 2.31 97 11:42 07.11.2021
4888 Clear 20 1014 37 10000 2.58 142 09:22 07.11.2021
4889 Clouds 12 1017 58 10000 1.17 25 04:33 07.11.2021
4890 Clouds 11 1016 55 10000 1.11 18 02:28 07.11.2021
4891 Clouds 13 1016 50 10000 0.28 335 22:57 06.11.2021
4892 Clouds 14 1016 48 10000 0.49 327 22:29 06.11.2021
4893 Clouds 14 1017 47 10000 0.68 28 21:27 06.11.2021
4894 Clouds 14 1017 47 10000 0.68 28 20:30 06.11.2021
4895 Clouds 15 1017 45 10000 2.94 70 17:50 06.11.2021
4896 Clouds 17 1015 43 10000 3.43 80 16:38 06.11.2021
4897 Clouds 19 1012 42 10000 2.64 128 14:31 06.11.2021
4898 Clouds 21 1011 36 10000 3.1 163 13:37 06.11.2021
4899 Clear 22 1012 32 10000 3.04 166 11:25 06.11.2021
4900 Clear 20 1016 35 10000 2.12 135 09:21 06.11.2021
4901 Clear 11 1019 52 10000 0.8 12 04:55 06.11.2021
4902 Clouds 11 1017 50 10000 1.22 15 00:58 06.11.2021
4903 Clouds 11 1017 49 10000 0.84 11 23:33 05.11.2021
4904 Clouds 12 1017 48 10000 0.8 25 22:33 05.11.2021
4905 Clouds 14 1018 43 10000 1.59 74 20:42 05.11.2021
4906 Clouds 14 1018 43 10000 1.8 67 20:19 05.11.2021
4907 Clouds 14 1018 40 10000 2.52 56 18:59 05.11.2021
4908 Clouds 14 1018 40 10000 2.52 56 18:38 05.11.2021
4909 Clouds 15 1016 42 10000 3.45 80 16:50 05.11.2021
4910 Clouds 19 1013 40 10000 2.65 108 14:54 05.11.2021
4911 Clouds 21 1012 33 10000 2.74 136 13:33 05.11.2021
4912 Clear 21 1015 31 10000 2.96 119 09:59 05.11.2021
4913 Clear 20 1017 32 10000 3.23 115 08:38 05.11.2021
4914 Clear 17 1019 34 10000 2.01 129 06:50 05.11.2021
4915 Clear 11 1020 45 10000 1.01 21 04:42 05.11.2021
4916 Clear 10 1018 43 10000 1.36 34 02:22 05.11.2021
4917 Clear 11 1018 42 10000 1.01 33 00:30 05.11.2021
4918 Clear 11 1019 42 10000 1.38 44 22:56 04.11.2021
4919 Clear 11 1019 41 10000 1.31 39 22:18 04.11.2021
4920 Clear 12 1020 40 10000 1.53 48 21:29 04.11.2021
4921 Clear 12 1020 39 10000 1.74 50 20:29 04.11.2021
4922 Clear 12 1020 39 10000 1.74 50 19:50 04.11.2021
4923 Clouds 13 1020 39 10000 2.04 59 19:28 04.11.2021
4924 Clouds 13 1020 39 10000 2.04 59 18:42 04.11.2021
4925 Clouds 15 1018 38 10000 2.76 84 17:28 04.11.2021
4926 Clouds 16 1016 39 10000 3.04 98 16:23 04.11.2021
4927 Clouds 16 1016 39 10000 3.04 98 16:23 04.11.2021
4928 Clouds 20 1013 36 10000 3.58 126 14:19 04.11.2021
4929 Clear 21 1014 30 10000 2.72 134 10:52 04.11.2021
4930 Clear 19 1017 32 10000 2.89 119 08:58 04.11.2021
4931 Clear 18 1019 34 10000 2.99 118 08:28 04.11.2021
4932 Clear 18 1019 34 10000 2.99 118 07:33 04.11.2021
4933 Clouds 10 1019 43 10000 1.11 32 23:43 03.11.2021
4934 Clouds 11 1019 43 10000 0.91 28 22:49 03.11.2021
4935 Clouds 11 1019 43 10000 1.32 21 21:45 03.11.2021
4936 Clouds 11 1020 43 10000 1.75 35 20:45 03.11.2021
4937 Clear 12 1020 41 10000 2.08 41 20:27 03.11.2021
4938 Clear 12 1020 41 10000 2.08 41 19:38 03.11.2021
4939 Clear 12 1020 40 10000 2.4 49 18:33 03.11.2021
4940 Clear 13 1019 40 10000 2.61 55 17:58 03.11.2021
4941 Clear 13 1018 40 10000 2.89 63 16:53 03.11.2021
4942 Clear 15 1017 40 10000 3.49 87 15:52 03.11.2021
4943 Clear 15 1017 40 10000 3.49 87 15:31 03.11.2021
4944 Clear 20 1014 28 10000 4.88 111 13:43 03.11.2021
4945 Clouds 21 1014 24 10000 3.75 115 11:38 03.11.2021
4946 Clouds 21 1015 24 10000 3.68 112 10:52 03.11.2021
4947 Clouds 20 1017 25 10000 3.47 118 10:18 03.11.2021
4948 Clouds 19 1018 27 10000 3.08 124 09:27 03.11.2021
4949 Clouds 17 1019 32 10000 2.77 128 08:20 03.11.2021
4950 Clouds 17 1019 32 10000 2.77 128 07:38 03.11.2021
4951 Clouds 9 1020 50 10000 1.11 23 04:23 03.11.2021
4952 Clouds 9 1019 48 10000 1.05 348 01:42 03.11.2021
4953 Clouds 10 1019 48 10000 1.42 25 23:32 02.11.2021
4954 Clouds 11 1020 47 10000 1.2 50 22:21 02.11.2021
4955 Clouds 11 1021 48 10000 1.4 47 20:48 02.11.2021
4956 Clouds 11 1021 47 10000 1.95 53 20:23 02.11.2021
4957 Clouds 11 1021 47 10000 1.95 53 19:40 02.11.2021
4958 Clouds 12 1020 49 10000 2.25 56 18:36 02.11.2021
4959 Clouds 12 1020 50 10000 2.43 65 17:56 02.11.2021
4960 Clouds 12 1020 50 10000 2.43 65 17:31 02.11.2021
4961 Clouds 15 1017 52 10000 3.2 96 16:27 02.11.2021
4962 Clouds 18 1015 49 10000 3.45 105 14:58 02.11.2021
4963 Rain 19 1014 47 10000 2.58 100 13:44 02.11.2021
4964 Rain 19 1015 49 10000 2.43 101 13:26 02.11.2021
4965 Clouds 18 1015 52 10000 3.06 112 12:28 02.11.2021
4966 Clouds 19 1016 52 10000 3.22 124 11:28 02.11.2021
4967 Clouds 19 1016 52 10000 3.22 124 10:50 02.11.2021
4968 Rain 19 1016 52 10000 2.86 136 10:23 02.11.2021
4969 Clouds 17 1019 59 10000 2.47 126 08:25 02.11.2021
4970 Clouds 15 1020 68 10000 2 118 06:42 02.11.2021
4971 Clouds 9 1021 89 10000 1.02 62 03:32 02.11.2021
4972 Clouds 10 1019 83 10000 1.08 68 00:55 02.11.2021
4973 Clouds 11 1020 79 10000 1.26 30 22:28 01.11.2021
4974 Clouds 11 1020 78 10000 1.53 32 20:50 01.11.2021
4975 Clouds 11 1020 78 10000 1.53 32 20:32 01.11.2021
4976 Clouds 11 1021 78 10000 1.9 28 19:44 01.11.2021
4977 Clouds 12 1020 80 10000 2.39 53 18:55 01.11.2021
4978 Clouds 12 1020 81 10000 2.55 51 17:59 01.11.2021
4979 Clouds 12 1019 80 10000 2.94 56 17:18 01.11.2021
4980 Clouds 12 1019 80 10000 2.94 56 16:34 01.11.2021
4981 Clouds 14 1018 73 10000 3.4 79 15:44 01.11.2021
4982 Clouds 17 1016 61 10000 4.63 102 15:19 01.11.2021
4983 Clouds 17 1016 61 10000 4.62 102 14:40 01.11.2021
4984 Clouds 18 1015 54 10000 6.26 105 14:19 01.11.2021
4985 Clouds 18 1015 54 10000 6.35 107 12:53 01.11.2021
4986 Clouds 19 1015 51 10000 6.42 104 11:39 01.11.2021
4987 Clouds 18 1016 52 10000 6.47 100 10:22 01.11.2021
4988 Clouds 18 1018 57 10000 6.51 102 08:26 01.11.2021
4989 Clouds 18 1018 57 10000 6.51 102 07:47 01.11.2021
4990 Clear 9 1020 84 10000 1.74 48 03:55 01.11.2021
4991 Clear 9 1020 84 10000 1.74 48 03:36 01.11.2021
4992 Clouds 10 1020 83 10000 1.68 29 23:58 31.10.2021
4993 Clouds 11 1021 77 10000 2.42 72 20:59 31.10.2021
4994 Clouds 12 1021 71 10000 2.76 74 20:24 31.10.2021
4995 Clouds 12 1021 76 10000 2.92 58 18:43 31.10.2021
4996 Clouds 12 1021 77 10000 3.09 61 18:21 31.10.2021
4997 Clouds 12 1020 76 10000 3.2 72 16:48 31.10.2021
4998 Clouds 16 1017 57 10000 6.49 105 14:53 31.10.2021
4999 Clouds 20 1015 42 10000 6.23 97 12:58 31.10.2021
5000 Clouds 20 1015 41 10000 5.9 102 12:19 31.10.2021
5001 Clouds 20 1016 41 10000 5.56 107 10:51 31.10.2021
5002 Clear 18 1019 44 10000 3.84 118 09:26 31.10.2021
5003 Clear 18 1019 44 10000 3.84 118 08:46 31.10.2021
5004 Clouds 9 1021 69 10000 1.78 8 02:59 31.10.2021
5005 Clouds 9 1021 59 10000 2.33 17 23:43 30.10.2021
5006 Clouds 10 1021 52 10000 2.53 14 21:46 30.10.2021
5007 Clouds 11 1021 48 10000 2.58 26 21:25 30.10.2021
5008 Clear 11 1020 45 10000 2.87 43 19:40 30.10.2021
5009 Clouds 12 1019 44 10000 3.42 71 17:48 30.10.2021
5010 Clear 19 1014 30 10000 5.1 98 15:34 30.10.2021
5011 Clear 20 1014 27 10000 4.75 98 13:58 30.10.2021
5012 Clear 20 1014 27 10000 4.74 99 13:38 30.10.2021
5013 Clear 20 1014 27 10000 5.06 101 13:19 30.10.2021
5014 Clear 20 1015 28 10000 5.02 100 11:49 30.10.2021
5015 Clear 20 1016 30 10000 4.91 98 10:34 30.10.2021
5016 Clear 17 1018 34 10000 4.44 98 08:56 30.10.2021
5017 Clear 16 1019 37 10000 3.86 96 07:55 30.10.2021
5018 Clear 10 1020 52 10000 1.58 22 05:46 30.10.2021
5019 Clouds 10 1018 47 10000 1.68 21 02:26 30.10.2021
5020 Clouds 11 1018 48 10000 1.97 27 23:20 29.10.2021
5021 Clouds 11 1018 48 10000 1.97 27 22:33 29.10.2021
5022 Clouds 11 1019 47 10000 2.12 47 20:59 29.10.2021
5023 Clouds 11 1019 47 10000 2.12 47 20:32 29.10.2021
5024 Clouds 12 1018 45 10000 2.6 71 19:18 29.10.2021
5025 Clouds 16 1015 44 10000 3.37 106 17:28 29.10.2021
5026 Clouds 18 1013 45 10000 2.58 100 15:26 29.10.2021
5027 Clouds 17 1014 48 10000 4.04 102 12:30 29.10.2021
5028 Clouds 20 1015 42 10000 4.16 115 10:46 29.10.2021
5029 Clouds 18 1017 44 10000 3.49 123 09:27 29.10.2021
5030 Clouds 10 1018 51 10000 1.64 9 02:22 29.10.2021
5031 Clouds 11 1018 49 10000 1.08 1 23:47 28.10.2021
5032 Clouds 12 1019 48 10000 1.22 47 22:27 28.10.2021
5033 Clouds 12 1019 48 10000 1.76 53 20:59 28.10.2021
5034 Clouds 14 1018 42 10000 2.23 76 19:52 28.10.2021
5035 Clouds 14 1018 42 10000 2.23 76 19:52 28.10.2021
5036 Clouds 14 1017 42 10000 2.51 85 18:36 28.10.2021
5037 Clouds 16 1015 46 10000 3.26 99 17:27 28.10.2021
5038 Clouds 16 1015 46 10000 3.26 99 16:38 28.10.2021
5039 Clouds 18 1013 46 10000 3.11 101 14:40 28.10.2021
5040 Clouds 19 1013 46 10000 3.17 95 13:33 28.10.2021
5041 Clouds 20 1013 42 10000 3.51 107 12:49 28.10.2021
5042 Clouds 20 1014 40 10000 3.32 122 11:37 28.10.2021
5043 Clouds 19 1017 43 10000 2.9 127 10:23 28.10.2021
5044 Clouds 19 1017 43 10000 2.9 127 09:37 28.10.2021
5045 Clouds 17 1018 47 10000 2.63 130 08:36 28.10.2021
5046 Clouds 16 1019 52 10000 2.21 138 07:41 28.10.2021
5047 Clouds 11 1018 64 10000 0.93 12 01:48 28.10.2021
5048 Clouds 12 1018 62 10000 1.43 18 22:49 27.10.2021
5049 Clouds 12 1019 62 10000 1.67 30 21:53 27.10.2021
5050 Clouds 13 1019 62 10000 2.03 41 21:20 27.10.2021
5051 Clouds 13 1019 62 10000 2.03 41 20:43 27.10.2021
5052 Clouds 13 1018 61 10000 2.08 58 19:46 27.10.2021
5053 Clouds 14 1018 61 10000 2.22 72 18:56 27.10.2021
5054 Clouds 14 1016 64 10000 1.99 67 17:39 27.10.2021
5055 Clouds 17 1014 59 10000 2.41 82 16:25 27.10.2021
5056 Clouds 18 1014 56 10000 2.9 83 15:24 27.10.2021
5057 Clouds 18 1014 56 10000 2.9 83 15:24 27.10.2021
5058 Clouds 18 1014 57 10000 2.42 90 14:20 27.10.2021
5059 Clouds 21 1015 43 10000 2.64 136 11:18 27.10.2021
5060 Clouds 21 1015 43 10000 2.61 136 10:36 27.10.2021
5061 Clouds 19 1018 47 10000 1.8 125 09:23 27.10.2021
5062 Clouds 17 1020 50 10000 1.15 132 07:44 27.10.2021
5063 Clouds 12 1020 64 10000 1.14 22 05:49 27.10.2021
5064 Clouds 14 1018 53 10000 0.61 4 01:24 27.10.2021
5065 Clouds 14 1018 53 10000 0.61 4 00:54 27.10.2021
5066 Clouds 13 1018 54 10000 0.98 20 23:54 26.10.2021
5067 Clouds 13 1019 54 10000 1.61 30 22:47 26.10.2021
5068 Clouds 13 1019 54 10000 1.9 24 22:25 26.10.2021
5069 Clouds 13 1019 54 10000 1.9 24 21:41 26.10.2021
5070 Clouds 14 1019 52 10000 2.48 53 19:54 26.10.2021
5071 Clouds 16 1018 50 10000 2.67 78 19:18 26.10.2021
5072 Clouds 16 1017 52 10000 2.97 82 18:23 26.10.2021
5073 Clouds 19 1014 52 10000 2.44 89 15:51 26.10.2021
5074 Clouds 21 1014 42 10000 1.17 121 13:21 26.10.2021
5075 Clouds 21 1015 40 10000 2.87 130 10:54 26.10.2021
5076 Clouds 19 1018 43 10000 2.71 120 08:42 26.10.2021
5077 Clouds 15 1019 52 10000 0.87 78 07:22 26.10.2021
5078 Clouds 12 1019 56 10000 1.69 29 00:19 26.10.2021
5079 Clouds 12 1019 56 10000 1.69 29 23:37 25.10.2021
5080 Clouds 12 1019 55 10000 1.85 27 22:33 25.10.2021
5081 Clouds 13 1020 54 10000 2.05 29 21:43 25.10.2021
5082 Clouds 13 1020 54 10000 2.29 40 20:38 25.10.2021
5083 Clouds 13 1020 52 10000 2.76 46 19:44 25.10.2021
5084 Clouds 14 1019 52 10000 2.87 57 19:23 25.10.2021
5085 Clouds 14 1019 52 10000 2.87 57 18:38 25.10.2021
5086 Clouds 14 1018 53 10000 2.95 74 17:34 25.10.2021
5087 Clouds 20 1014 40 10000 4.3 112 14:53 25.10.2021
5088 Clouds 21 1015 36 10000 4.02 114 12:33 25.10.2021
5089 Clouds 20 1017 38 10000 4.22 116 10:54 25.10.2021
5090 Clouds 18 1019 42 10000 4.11 116 08:58 25.10.2021
5091 Clouds 15 1020 50 10000 1.47 85 07:19 25.10.2021
5092 Clear 10 1020 51 10000 1.68 36 04:35 25.10.2021
5093 Clear 11 1019 49 10000 1.65 15 00:52 25.10.2021
5094 Clear 11 1019 49 10000 1.65 15 00:33 25.10.2021
5095 Clear 11 1020 49 10000 1.83 10 23:41 24.10.2021
5096 Clear 11 1020 50 10000 1.96 11 22:38 24.10.2021
5097 Clear 12 1021 51 10000 1.99 17 22:19 24.10.2021
5098 Clear 12 1021 50 10000 2.02 28 21:18 24.10.2021
5099 Clear 12 1021 50 10000 2.02 28 20:34 24.10.2021
5100 Clouds 13 1020 49 10000 2.11 36 19:39 24.10.2021
5101 Clouds 14 1019 49 10000 2.39 70 18:29 24.10.2021
5102 Clouds 14 1019 49 10000 2.39 70 17:44 24.10.2021
5103 Clouds 18 1016 45 10000 4.09 109 15:56 24.10.2021
5104 Clouds 18 1016 45 10000 4.09 109 15:56 24.10.2021
5105 Clouds 20 1015 39 10000 4.5 119 14:41 24.10.2021
5106 Clear 21 1015 37 10000 4.15 117 12:58 24.10.2021
5107 Clear 21 1015 40 10000 4.29 110 11:45 24.10.2021
5108 Clear 20 1017 43 10000 4.55 105 11:25 24.10.2021
5109 Clear 19 1018 45 10000 4.57 107 10:27 24.10.2021
5110 Clear 16 1020 53 10000 2.58 105 07:59 24.10.2021
5111 Clouds 10 1021 58 10000 2.17 6 01:25 24.10.2021
5112 Clouds 11 1021 57 10000 2.21 4 23:49 23.10.2021
5113 Clouds 11 1022 57 10000 2.4 18 22:29 23.10.2021
5114 Clouds 11 1022 56 10000 2.52 26 20:37 23.10.2021
5115 Clouds 12 1021 55 10000 2.8 57 18:59 23.10.2021
5116 Clouds 12 1021 55 10000 2.8 57 18:30 23.10.2021
5117 Clouds 13 1020 56 10000 3.16 73 17:43 23.10.2021
5118 Clouds 14 1018 54 10000 3.42 93 16:35 23.10.2021
5119 Clouds 19 1015 39 10000 5.04 97 14:35 23.10.2021
5120 Clear 18 1019 37 10000 6.34 91 09:45 23.10.2021
5121 Clouds 11 1021 62 10000 2.79 13 00:25 23.10.2021
5122 Clouds 11 1021 59 10000 2.78 11 23:22 22.10.2021
5123 Clouds 12 1022 56 10000 2.62 24 20:50 22.10.2021
5124 Clouds 12 1021 57 10000 2.43 41 18:57 22.10.2021
5125 Clouds 13 1019 59 10000 2.79 62 17:44 22.10.2021
5126 Clouds 17 1016 51 10000 4.46 90 15:50 22.10.2021
5127 Clouds 19 1015 40 10000 5.98 91 14:23 22.10.2021
5128 Clouds 20 1016 37 10000 6.25 92 12:38 22.10.2021
5129 Clouds 19 1017 38 10000 6.91 97 10:48 22.10.2021
5130 Clouds 18 1018 40 10000 6.59 96 09:56 22.10.2021
5131 Clouds 18 1018 40 10000 6.57 96 09:30 22.10.2021
5132 Clouds 14 1020 47 10000 2.38 45 07:26 22.10.2021
5133 Clouds 9 1020 59 10000 2.4 23 03:48 22.10.2021
5134 Clouds 10 1020 55 10000 2.69 16 00:24 22.10.2021
5135 Clouds 10 1020 55 10000 2.69 16 23:40 21.10.2021
5136 Clouds 11 1021 50 10000 2.72 23 22:21 21.10.2021
5137 Clouds 12 1021 49 10000 2.74 25 20:55 21.10.2021
5138 Clouds 12 1020 48 10000 2.98 37 20:20 21.10.2021
5139 Clouds 12 1020 48 10000 2.98 37 19:30 21.10.2021
5140 Clouds 12 1020 48 10000 2.98 37 19:30 21.10.2021
5141 Clouds 12 1020 50 10000 3.16 43 18:52 21.10.2021
5142 Clouds 13 1019 54 10000 3.29 47 18:22 21.10.2021
5143 Clouds 13 1019 54 10000 3.29 47 17:42 21.10.2021
5144 Clouds 17 1016 46 10000 4.57 85 16:20 21.10.2021
5145 Clouds 19 1015 40 10000 5.34 88 15:21 21.10.2021
5146 Clouds 19 1015 40 10000 5.34 88 14:49 21.10.2021
5147 Clouds 20 1016 36 10000 6.37 87 13:26 21.10.2021
5148 Clouds 19 1017 35 10000 6.83 88 11:27 21.10.2021
5149 Clouds 17 1020 34 10000 6.27 90 08:59 21.10.2021
5150 Clouds 14 1021 43 10000 2.17 47 07:31 21.10.2021
5151 Clouds 10 1022 55 10000 2.2 16 05:33 21.10.2021
5152 Clouds 10 1020 56 10000 2.56 35 23:45 20.10.2021
5153 Clouds 12 1020 52 10000 4.22 50 22:21 20.10.2021
5154 Clouds 12 1020 52 10000 4.22 50 21:43 20.10.2021
5155 Clouds 12 1021 52 10000 3.49 37 20:56 20.10.2021
5156 Clouds 12 1021 52 10000 3.49 37 20:36 20.10.2021
5157 Clouds 12 1021 51 10000 3.18 26 19:59 20.10.2021
5158 Clouds 12 1020 52 10000 3.25 24 18:59 20.10.2021
5159 Clouds 13 1019 54 10000 3.1 35 17:54 20.10.2021
5160 Clouds 17 1016 44 10000 4.69 84 15:47 20.10.2021
5161 Clouds 19 1015 33 10000 7.66 90 12:33 20.10.2021
5162 Clouds 18 1018 32 10000 8.52 91 09:30 20.10.2021
5163 Clouds 9 1020 65 10000 2.58 21 05:24 20.10.2021
5164 Clouds 10 1019 56 10000 3.04 26 00:53 20.10.2021
5165 Clouds 11 1020 53 10000 3.08 25 00:26 20.10.2021
5166 Clouds 11 1021 51 10000 2.98 24 21:47 19.10.2021
5167 Clouds 12 1021 51 10000 3.1 33 21:27 19.10.2021
5168 Clouds 12 1020 49 10000 3.05 39 20:25 19.10.2021
5169 Clouds 12 1020 48 10000 3.01 39 19:45 19.10.2021
5170 Clouds 12 1020 48 10000 3.14 48 19:21 19.10.2021
5171 Clouds 13 1019 52 10000 3.63 59 18:23 19.10.2021
5172 Clouds 13 1019 52 10000 3.63 59 18:23 19.10.2021
5173 Clouds 18 1015 48 10000 5.02 90 16:24 19.10.2021
5174 Clouds 19 1014 43 10000 4.87 91 15:20 19.10.2021
5175 Clouds 20 1014 37 10000 5.26 89 14:27 19.10.2021
5176 Clouds 20 1014 39 10000 5.39 92 13:43 19.10.2021
5177 Clouds 20 1015 38 10000 5.66 97 11:37 19.10.2021
5178 Clouds 20 1016 40 10000 5.65 97 10:39 19.10.2021
5179 Clouds 18 1018 43 10000 4.73 90 08:59 19.10.2021
5180 Clouds 17 1019 45 10000 3.95 79 07:56 19.10.2021
5181 Clouds 11 1018 46 10000 2.72 25 00:27 19.10.2021
5182 Clouds 11 1018 46 10000 2.72 25 23:56 18.10.2021
5183 Clouds 11 1018 48 10000 2.86 32 23:20 18.10.2021
5184 Clouds 11 1018 48 10000 2.86 32 22:54 18.10.2021
5185 Clouds 11 1019 50 10000 2.93 44 21:54 18.10.2021
5186 Clear 12 1019 51 10000 2.82 49 20:42 18.10.2021
5187 Clouds 12 1019 51 10000 3.06 54 20:20 18.10.2021
5188 Clouds 12 1019 51 10000 3.06 54 19:30 18.10.2021
5189 Clouds 13 1018 54 10000 3.41 58 18:58 18.10.2021
5190 Clouds 18 1014 52 10000 4.56 104 15:56 18.10.2021
5191 Clouds 19 1013 48 10000 4.41 102 14:33 18.10.2021
5192 Clouds 20 1014 42 10000 4.62 104 11:44 18.10.2021
5193 Clouds 19 1017 46 10000 4.19 106 09:42 18.10.2021
5194 Clear 11 1019 61 10000 2.18 5 05:32 18.10.2021
5195 Clear 11 1017 52 10000 2.61 19 23:51 17.10.2021
5196 Clear 12 1018 49 10000 2.75 41 21:59 17.10.2021
5197 Clear 12 1018 49 10000 2.75 41 21:40 17.10.2021
5198 Clear 12 1018 50 10000 2.8 48 20:49 17.10.2021
5199 Clouds 12 1018 53 10000 2.92 47 19:56 17.10.2021
5200 Clouds 12 1018 53 10000 2.92 47 19:37 17.10.2021
5201 Clouds 13 1016 57 10000 2.61 72 18:28 17.10.2021
5202 Clouds 18 1013 50 10000 3.24 106 15:57 17.10.2021
5203 Clouds 19 1012 42 10000 3.77 106 14:38 17.10.2021
5204 Clear 20 1012 37 10000 3.8 105 13:56 17.10.2021
5205 Clear 20 1012 37 10000 3.8 105 13:30 17.10.2021
5206 Clear 20 1014 38 10000 3.49 104 10:59 17.10.2021
5207 Clear 19 1016 41 10000 2.89 105 09:56 17.10.2021
5208 Clear 16 1018 46 10000 1.83 85 07:42 17.10.2021
5209 Clear 10 1017 59 10000 2.01 4 02:35 17.10.2021
5210 Clear 11 1017 56 10000 1.98 9 00:29 17.10.2021
5211 Clear 11 1018 59 10000 1.88 14 22:40 16.10.2021
5212 Clear 12 1018 60 10000 2.04 25 20:36 16.10.2021
5213 Clouds 12 1017 58 10000 2.15 37 19:59 16.10.2021
5214 Clouds 12 1017 58 10000 2.15 37 19:40 16.10.2021
5215 Clouds 13 1017 59 10000 1.94 52 19:18 16.10.2021
5216 Clouds 13 1017 59 10000 1.94 52 18:44 16.10.2021
5217 Clouds 14 1016 63 10000 1.95 70 18:22 16.10.2021
5218 Clouds 14 1016 63 10000 1.95 70 17:30 16.10.2021
5219 Clouds 17 1013 62 10000 1.89 85 15:40 16.10.2021
5220 Clouds 20 1012 46 10000 2.75 115 12:50 16.10.2021
5221 Clouds 20 1014 45 10000 2.6 129 11:24 16.10.2021
5222 Clouds 18 1017 48 10000 1.89 124 08:57 16.10.2021
5223 Clear 10 1017 61 10000 1.94 7 01:37 16.10.2021
5224 Clear 11 1018 61 10000 2.03 16 00:29 16.10.2021
5225 Clear 11 1018 62 10000 2.12 27 23:25 15.10.2021
5226 Clear 11 1019 62 10000 2.41 39 22:20 15.10.2021
5227 Clear 11 1019 62 10000 2.41 39 21:40 15.10.2021
5228 Clear 11 1019 63 10000 2.39 42 20:54 15.10.2021
5229 Clouds 12 1019 62 10000 2.5 41 20:22 15.10.2021
5230 Clouds 12 1018 62 10000 2.7 58 19:19 15.10.2021
5231 Clouds 13 1017 63 10000 2.78 71 18:21 15.10.2021
5232 Clouds 17 1014 57 10000 3.75 101 15:46 15.10.2021
5233 Clouds 18 1013 55 10000 3.93 98 14:18 15.10.2021
5234 Clouds 19 1014 55 10000 5.22 102 11:54 15.10.2021
5235 Clouds 19 1015 55 10000 5.4 102 11:18 15.10.2021
5236 Clouds 18 1017 56 10000 5.19 100 10:28 15.10.2021
5237 Clear 16 1018 63 10000 2.85 95 07:35 15.10.2021
5238 Clear 10 1019 77 10000 1.77 34 04:46 15.10.2021
5239 Clouds 11 1019 61 10000 2.06 10 00:22 15.10.2021
5240 Clouds 11 1019 60 10000 2.15 14 22:54 14.10.2021
5241 Clouds 12 1019 59 10000 2.39 17 22:19 14.10.2021
5242 Clouds 12 1019 59 10000 2.39 17 21:37 14.10.2021
5243 Clouds 11 1020 64 10000 2.67 29 20:20 14.10.2021
5244 Clouds 11 1020 64 10000 2.67 29 19:46 14.10.2021
5245 Clouds 12 1019 65 10000 2.88 44 18:40 14.10.2021
5246 Clouds 15 1016 66 10000 3.15 86 16:59 14.10.2021
5247 Clouds 15 1016 66 10000 3.15 86 16:32 14.10.2021
5248 Clouds 18 1014 56 10000 3.98 101 14:50 14.10.2021
5249 Clouds 18 1014 58 10000 4.01 96 14:26 14.10.2021
5250 Clouds 18 1014 58 10000 4.01 96 13:33 14.10.2021
5251 Clouds 19 1015 52 10000 4.91 104 11:34 14.10.2021
5252 Clouds 16 1019 58 10000 2.12 94 08:26 14.10.2021
5253 Clouds 11 1020 78 10000 1.82 12 06:19 14.10.2021
5254 Clouds 11 1018 70 10000 1.98 17 00:41 14.10.2021
5255 Clouds 11 1018 66 10000 2.22 16 22:40 13.10.2021
5256 Clouds 12 1019 64 10000 2.5 26 21:36 13.10.2021
5257 Clouds 12 1019 63 10000 2.59 31 20:45 13.10.2021
5258 Clouds 13 1017 72 10000 2.67 43 19:24 13.10.2021
5259 Clouds 13 1017 72 10000 2.67 43 18:38 13.10.2021
5260 Clouds 15 1014 73 10000 2.66 80 16:37 13.10.2021
5261 Rain 18 1012 68 10000 4.12 96 14:47 13.10.2021
5262 Rain 18 1013 73 10000 3.02 94 14:24 13.10.2021
5263 Rain 18 1013 68 8613 3.57 94 12:48 13.10.2021
5264 Rain 18 1014 68 10000 3.61 105 11:37 13.10.2021
5265 Rain 18 1016 63 10000 3.27 119 09:56 13.10.2021
5266 Clouds 17 1017 66 10000 1.81 115 07:53 13.10.2021
5267 Clouds 11 1017 81 10000 1.63 12 03:37 13.10.2021
5268 Clouds 11 1016 82 10000 1.51 11 02:21 13.10.2021
5269 Clouds 11 1017 83 10000 1.62 12 23:33 12.10.2021
5270 Clouds 12 1017 83 10000 1.8 18 22:50 12.10.2021
5271 Clouds 12 1018 83 10000 1.98 36 22:29 12.10.2021
5272 Clouds 12 1018 82 10000 2.16 54 20:54 12.10.2021
5273 Clouds 12 1018 80 10000 2.28 56 20:31 12.10.2021
5274 Clouds 12 1017 80 10000 2.37 58 19:36 12.10.2021
5275 Clouds 14 1015 77 10000 3.12 73 18:25 12.10.2021
5276 Clouds 15 1013 74 10000 3.56 86 17:20 12.10.2021
5277 Clouds 18 1012 67 10000 4.94 100 16:22 12.10.2021
5278 Clouds 18 1012 67 10000 4.94 100 15:31 12.10.2021
5279 Clouds 18 1012 67 10000 4.94 100 15:31 12.10.2021
5280 Clouds 18 1012 67 10000 4.94 100 15:30 12.10.2021
5281 Clouds 20 1010 57 10000 5.38 101 13:46 12.10.2021
5282 Clouds 21 1011 53 10000 5.35 99 12:58 12.10.2021
5283 Clouds 20 1014 52 10000 4.84 103 11:22 12.10.2021
5284 Clouds 18 1017 63 10000 3.26 110 09:22 12.10.2021
5285 Clouds 17 1017 71 10000 2.17 110 08:20 12.10.2021
5286 Clouds 15 1018 76 10000 1.36 77 06:44 12.10.2021
5287 Clouds 11 1018 84 10000 1.52 24 04:38 12.10.2021
5288 Clouds 11 1017 84 10000 1.58 5 02:46 12.10.2021
5289 Clouds 12 1017 85 10000 1.72 5 23:46 11.10.2021
5290 Clouds 12 1017 86 10000 1.76 16 23:28 11.10.2021
5291 Clouds 12 1017 86 10000 1.76 16 22:31 11.10.2021
5292 Clouds 12 1018 86 10000 2.05 44 21:20 11.10.2021
5293 Clouds 13 1018 85 10000 2.51 63 19:48 11.10.2021
5294 Clouds 13 1017 84 10000 2.52 64 19:23 11.10.2021
5295 Clouds 14 1016 83 10000 2.41 74 18:20 11.10.2021
5296 Clouds 15 1014 79 10000 3.15 96 16:40 11.10.2021
5297 Rain 18 1012 72 10000 4.55 102 16:19 11.10.2021
5298 Rain 18 1012 72 10000 4.55 102 15:40 11.10.2021
5299 Clouds 19 1012 65 10000 4.85 98 14:53 11.10.2021
5300 Rain 19 1012 67 10000 4.76 100 13:55 11.10.2021
5301 Rain 18 1013 72 10000 4.1 101 13:32 11.10.2021
5302 Rain 19 1014 71 10000 3.63 103 10:49 11.10.2021
5303 Rain 18 1016 75 10000 2.86 104 09:45 11.10.2021
5304 Rain 16 1018 82 10000 1.24 137 07:56 11.10.2021
5305 Clouds 12 1017 91 10000 1.48 17 01:43 11.10.2021
5306 Clouds 12 1017 92 10000 1.34 26 00:55 11.10.2021
5307 Clouds 12 1017 92 10000 1.34 26 00:33 11.10.2021
5308 Clouds 12 1018 93 10000 1.08 51 22:25 10.10.2021
5309 Clouds 12 1018 93 10000 1.08 51 21:36 10.10.2021
5310 Clouds 13 1018 93 10000 1.39 68 20:56 10.10.2021
5311 Clouds 13 1018 93 10000 1.39 68 20:36 10.10.2021
5312 Clouds 13 1018 95 10000 1.4 74 20:18 10.10.2021
5313 Clouds 13 1018 95 10000 1.4 74 19:40 10.10.2021
5314 Clouds 13 1017 94 10000 1.53 91 18:41 10.10.2021
5315 Rain 14 1015 93 10000 1.54 108 17:50 10.10.2021
5316 Rain 16 1013 88 10000 2.42 103 15:47 10.10.2021
5317 Rain 17 1013 84 10000 3.25 108 14:44 10.10.2021
5318 Rain 18 1012 77 8765 3.35 135 13:34 10.10.2021
5319 Rain 19 1012 69 10000 3.91 139 12:41 10.10.2021
5320 Rain 19 1014 65 10000 2.6 136 11:29 10.10.2021
5321 Rain 19 1014 65 10000 2.6 136 11:29 10.10.2021
5322 Rain 18 1016 70 10000 2.4 126 09:51 10.10.2021
5323 Rain 17 1017 78 10000 2.27 136 08:54 10.10.2021
5324 Rain 15 1018 88 10000 1.53 152 07:56 10.10.2021
5325 Rain 12 1017 98 10000 0.77 94 03:47 10.10.2021
5326 Rain 12 1017 98 10000 0.77 94 03:47 10.10.2021
5327 Rain 12 1016 98 10000 0.96 168 01:39 10.10.2021
5328 Rain 13 1016 96 10000 0.48 297 00:41 10.10.2021
5329 Rain 12 1017 97 10000 0.28 120 23:22 09.10.2021
5330 Rain 13 1017 97 10000 0.86 25 21:52 09.10.2021
5331 Rain 12 1018 97 8722 0.88 26 21:29 09.10.2021
5332 Rain 13 1017 94 10000 1.05 49 19:50 09.10.2021
5333 Rain 13 1017 94 10000 1.05 49 19:31 09.10.2021
5334 Rain 14 1016 93 10000 1.06 99 18:34 09.10.2021
5335 Clouds 14 1015 91 10000 1.1 126 17:43 09.10.2021
5336 Rain 18 1012 81 10000 1.4 125 16:19 09.10.2021
5337 Rain 19 1012 66 10000 1.72 113 13:47 09.10.2021
5338 Clouds 19 1012 67 10000 1.21 86 13:24 09.10.2021
5339 Rain 16 1014 78 10000 1.78 7 11:58 09.10.2021
5340 Rain 15 1015 84 10000 2.2 33 10:43 09.10.2021
5341 Rain 15 1017 86 10000 2.19 60 09:54 09.10.2021
5342 Rain 17 1016 79 10000 2.51 94 08:33 09.10.2021
5343 Rain 16 1017 82 10000 1.86 107 07:49 09.10.2021
5344 Rain 16 1017 82 10000 1.86 107 07:49 09.10.2021
5345 Rain 13 1017 92 10000 1.05 30 05:55 09.10.2021
5346 Rain 12 1015 91 10000 0.58 46 04:18 09.10.2021
5347 Rain 13 1014 90 10000 0.38 262 02:43 09.10.2021
5348 Rain 13 1015 87 10000 0.82 19 23:55 08.10.2021
5349 Rain 13 1015 87 10000 0.82 19 23:31 08.10.2021
5350 Clouds 13 1016 87 10000 1.38 39 22:25 08.10.2021
5351 Clouds 13 1016 87 10000 1.4 39 21:39 08.10.2021
5352 Clouds 14 1015 84 10000 1.28 53 19:44 08.10.2021
5353 Rain 15 1013 83 10000 1.27 60 17:36 08.10.2021
5354 Rain 15 1013 84 10000 1.46 78 16:53 08.10.2021
5355 Rain 15 1013 84 10000 1.46 78 16:53 08.10.2021
5356 Rain 17 1012 83 10000 1.65 85 16:24 08.10.2021
5357 Rain 18 1012 79 10000 2.25 91 14:18 08.10.2021
5358 Rain 18 1012 79 10000 2.25 91 13:36 08.10.2021
5359 Rain 19 1012 66 10000 2.26 138 11:40 08.10.2021
5360 Rain 19 1014 66 10000 2.72 124 10:42 08.10.2021
5361 Rain 19 1015 64 10000 2.41 108 09:46 08.10.2021
5362 Rain 13 1016 93 10000 0.73 59 00:35 08.10.2021
5363 Rain 14 1017 89 10000 1.61 63 23:22 07.10.2021
5364 Rain 13 1017 87 10000 1.2 34 21:46 07.10.2021
5365 Clouds 14 1017 86 10000 1.34 34 21:27 07.10.2021
5366 Rain 14 1016 86 10000 1.13 33 20:28 07.10.2021
5367 Clouds 14 1015 85 10000 1.13 60 19:31 07.10.2021
5368 Rain 15 1014 85 10000 1.28 95 18:27 07.10.2021
5369 Rain 15 1013 83 10000 2.02 100 17:27 07.10.2021
5370 Rain 16 1012 83 10000 1.62 70 15:55 07.10.2021
5371 Rain 19 1011 71 9094 2.21 125 14:24 07.10.2021
5372 Rain 19 1011 71 9094 2.21 125 13:43 07.10.2021
5373 Rain 19 1012 66 9143 2.5 138 12:48 07.10.2021
5374 Rain 19 1013 66 10000 2.94 120 10:57 07.10.2021
5375 Rain 19 1015 68 10000 2.46 114 10:20 07.10.2021
5376 Rain 19 1015 68 10000 2.46 114 09:34 07.10.2021
5377 Rain 18 1016 68 10000 1.48 139 08:51 07.10.2021
5378 Clouds 17 1017 72 10000 1.61 140 07:44 07.10.2021
5379 Clouds 15 1017 76 10000 0.84 115 07:20 07.10.2021
5380 Clouds 12 1016 84 10000 1.48 359 03:54 07.10.2021
5381 Clouds 13 1015 81 10000 0.58 40 00:29 07.10.2021
5382 Clouds 15 1015 79 10000 0.63 56 22:51 06.10.2021
5383 Clouds 14 1016 80 10000 1.14 21 22:21 06.10.2021
5384 Clouds 13 1016 84 10000 2.17 36 20:40 06.10.2021
5385 Clouds 13 1016 84 10000 2.43 48 19:55 06.10.2021
5386 Clouds 14 1015 81 10000 2.55 65 18:42 06.10.2021
5387 Rain 16 1012 74 10000 1.45 85 16:58 06.10.2021
5388 Rain 18 1011 72 10000 2.29 91 15:31 06.10.2021
5389 Rain 19 1011 67 10000 2.98 95 14:28 06.10.2021
5390 Rain 19 1012 68 10000 4.05 116 13:20 06.10.2021
5391 Rain 19 1012 68 10000 4.05 116 12:43 06.10.2021
5392 Rain 19 1013 67 9464 3.57 121 12:21 06.10.2021
5393 Rain 19 1015 68 10000 2.76 114 10:23 06.10.2021
5394 Rain 19 1015 68 10000 2.76 114 09:39 06.10.2021
5395 Rain 18 1016 68 10000 1.84 119 08:51 06.10.2021
5396 Clouds 16 1017 70 10000 1.47 142 07:50 06.10.2021
5397 Clouds 12 1016 77 10000 1.74 7 05:27 06.10.2021
5398 Clouds 12 1016 75 10000 1.8 358 01:23 06.10.2021
5399 Clouds 12 1016 76 10000 1.75 355 00:18 06.10.2021
5400 Clouds 12 1016 76 10000 1.75 355 23:45 05.10.2021
5401 Clouds 12 1016 77 10000 1.98 10 23:27 05.10.2021
5402 Clouds 12 1017 78 10000 2.24 21 22:28 05.10.2021
5403 Clouds 12 1017 78 10000 2.24 21 21:50 05.10.2021
5404 Clouds 13 1017 79 10000 2.15 19 20:48 05.10.2021
5405 Clouds 13 1017 79 10000 1.77 17 20:24 05.10.2021
5406 Clouds 13 1017 79 10000 1.77 17 19:47 05.10.2021
5407 Clouds 14 1016 79 10000 1.58 47 19:18 05.10.2021
5408 Rain 16 1013 76 10000 1.86 96 16:58 05.10.2021
5409 Rain 19 1011 66 10000 2.97 102 14:57 05.10.2021
5410 Rain 19 1012 70 10000 3.17 112 13:42 05.10.2021
5411 Rain 18 1013 75 10000 2.5 120 12:48 05.10.2021
5412 Rain 18 1014 76 10000 2.96 129 12:18 05.10.2021
5413 Rain 19 1014 72 10000 3.31 141 11:21 05.10.2021
5414 Rain 18 1016 69 10000 1.63 147 09:27 05.10.2021
5415 Clouds 11 1017 85 10000 1.42 17 05:25 05.10.2021
5416 Clouds 12 1016 88 10000 1.32 341 23:54 04.10.2021
5417 Clouds 13 1017 87 10000 1.46 350 22:38 04.10.2021
5418 Rain 13 1017 92 10000 1.64 42 20:29 04.10.2021
5419 Rain 13 1016 91 10000 1.78 66 18:34 04.10.2021
5420 Rain 15 1014 88 10000 2.24 96 16:34 04.10.2021
5421 Rain 17 1013 83 9505 2.45 105 15:31 04.10.2021
5422 Rain 18 1012 77 9201 2.9 107 14:43 04.10.2021
5423 Rain 18 1012 77 9201 2.9 107 14:43 04.10.2021
5424 Rain 18 1012 75 10000 2.42 114 13:57 04.10.2021
5425 Rain 18 1013 72 7366 2.52 118 13:27 04.10.2021
5426 Rain 18 1014 71 9122 2.32 131 12:28 04.10.2021
5427 Rain 18 1014 71 9122 2.32 131 11:31 04.10.2021
5428 Rain 17 1017 77 10000 2.13 126 10:23 04.10.2021
5429 Rain 14 1018 89 10000 1.25 145 08:42 04.10.2021
5430 Rain 14 1019 92 10000 1.04 108 07:37 04.10.2021
5431 Clouds 11 1017 89 10000 0.31 126 00:40 04.10.2021
5432 Clouds 12 1017 87 10000 1.09 1 22:41 03.10.2021
5433 Clouds 13 1017 88 10000 1.43 11 21:41 03.10.2021
5434 Clouds 13 1017 88 10000 1.34 35 21:22 03.10.2021
5435 Rain 13 1017 92 10000 1.75 38 19:59 03.10.2021
5436 Rain 13 1017 92 10000 1.75 38 19:30 03.10.2021
5437 Rain 14 1015 87 10000 1.97 96 18:27 03.10.2021
5438 Rain 16 1013 80 10000 2.04 97 17:24 03.10.2021
5439 Rain 19 1011 69 10000 2.69 77 14:47 03.10.2021
5440 Rain 18 1012 70 10000 2.58 82 14:18 03.10.2021
5441 Rain 19 1012 65 10000 2.97 88 13:34 03.10.2021
5442 Rain 19 1013 68 10000 3.46 113 12:29 03.10.2021
5443 Rain 17 1014 73 10000 2.39 109 10:37 03.10.2021
5444 Rain 17 1016 77 10000 2.66 101 08:43 03.10.2021
5445 Clouds 13 1014 87 10000 0.82 328 01:51 03.10.2021
5446 Rain 12 1017 88 10000 1.84 51 22:40 02.10.2021
5447 Rain 13 1017 89 10000 1.75 30 20:57 02.10.2021
5448 Rain 14 1015 85 10000 1.85 49 19:50 02.10.2021
5449 Rain 14 1015 85 10000 1.81 75 18:54 02.10.2021
5450 Rain 15 1013 83 10000 2.31 89 17:57 02.10.2021
5451 Rain 16 1012 79 10000 1.68 73 17:21 02.10.2021
5452 Rain 18 1011 70 10000 1.87 30 15:29 02.10.2021
5453 Clouds 16 1013 75 10000 1.11 15 16:35 30.09.2021
5454 Rain 17 1012 75 10000 0.85 24 15:36 30.09.2021
5455 Rain 19 1012 59 10000 2.21 113 13:20 30.09.2021
5456 Rain 19 1013 60 10000 2.9 136 11:37 30.09.2021
5457 Rain 19 1014 59 10000 2.83 137 10:42 30.09.2021
5458 Rain 19 1015 57 10000 2.76 133 09:31 30.09.2021
5459 Clouds 17 1016 64 10000 1.18 98 08:28 30.09.2021
5460 Clouds 15 1017 69 10000 1.13 60 07:00 30.09.2021
5461 Clouds 12 1017 78 10000 0.81 357 04:42 30.09.2021
5462 Clouds 13 1015 73 10000 0.75 325 01:19 30.09.2021
5463 Clouds 14 1015 70 10000 1.05 353 23:49 29.09.2021
5464 Clouds 14 1017 71 10000 1.04 355 21:58 29.09.2021
5465 Clouds 14 1017 70 10000 1.15 343 20:57 29.09.2021
5466 Clouds 15 1016 71 10000 0.54 303 20:24 29.09.2021
5467 Clouds 15 1016 71 10000 0.54 303 19:43 29.09.2021
5468 Clouds 16 1014 68 10000 0.83 319 18:28 29.09.2021
5469 Clouds 16 1014 68 10000 0.83 319 17:33 29.09.2021
5470 Clouds 16 1013 68 10000 0.72 333 16:46 29.09.2021
5471 Clouds 17 1012 68 10000 0.33 33 15:48 29.09.2021
5472 Clouds 18 1012 67 10000 0.28 168 14:38 29.09.2021
5473 Clouds 18 1012 64 10000 0.34 226 13:40 29.09.2021
5474 Clouds 18 1012 64 10000 0.99 155 12:46 29.09.2021
5475 Clouds 20 1013 50 10000 2.05 127 11:26 29.09.2021
5476 Clouds 20 1013 50 10000 2.05 127 10:38 29.09.2021
5477 Rain 20 1014 49 10000 1.65 125 09:47 29.09.2021
5478 Clouds 19 1015 53 10000 1.65 126 08:44 29.09.2021
5479 Clouds 16 1016 70 10000 0.63 4 06:53 29.09.2021
5480 Clouds 14 1015 75 10000 1.37 18 02:40 29.09.2021
5481 Clouds 15 1015 71 10000 0.9 9 23:21 28.09.2021
5482 Clouds 16 1016 70 10000 1.32 6 22:22 28.09.2021
5483 Clouds 16 1016 70 10000 1.47 7 21:25 28.09.2021
5484 Clouds 16 1015 70 10000 1.37 10 20:26 28.09.2021
5485 Clouds 16 1016 72 10000 1.44 24 19:41 28.09.2021
5486 Rain 16 1015 73 10000 1.07 29 18:44 28.09.2021
5487 -273 0 0 0 0 0 17:31 28.09.2021
5488 Rain 15 1014 74 10000 0.81 61 17:30 28.09.2021
5489 Clouds 19 1012 60 10000 1.71 135 15:21 28.09.2021
5490 Clouds 19 1012 60 10000 2.92 141 13:28 28.09.2021
5491 Rain 19 1013 57 10000 2.38 141 12:27 28.09.2021
5492 Rain 19 1013 57 10000 2.36 141 11:55 28.09.2021
5493 Rain 19 1013 57 10000 2.38 141 11:35 28.09.2021
5494 Rain 20 1014 55 10000 2.61 127 10:33 28.09.2021
5495 Clouds 19 1015 56 10000 2.45 118 09:33 28.09.2021
5496 Clouds 18 1016 58 10000 2.06 118 08:44 28.09.2021
5497 Clouds 18 1016 60 10000 0.82 127 08:25 28.09.2021
5498 Clouds 15 1016 65 10000 0.95 12 06:46 28.09.2021
5499 Clouds 11 1017 72 10000 2.05 16 04:39 28.09.2021
5500 Clouds 11 1016 74 10000 1.82 0 00:51 28.09.2021
5501 Clouds 12 1017 75 10000 1.9 3 23:52 27.09.2021
5502 Clouds 12 1018 76 10000 1.8 5 23:28 27.09.2021
5503 Clouds 12 1018 76 10000 1.8 5 22:44 27.09.2021
5504 Clouds 12 1018 78 10000 1.78 6 21:39 27.09.2021
5505 Clouds 13 1018 79 10000 2.01 14 20:33 27.09.2021
5506 Clouds 15 1017 78 10000 1.72 36 19:41 27.09.2021
5507 Clouds 15 1016 78 10000 1.41 27 19:22 27.09.2021
5508 Clouds 15 1015 80 10000 1.58 9 18:24 27.09.2021
5509 Rain 15 1014 80 10000 1.66 21 17:22 27.09.2021
5510 Rain 15 1014 80 10000 1.66 21 16:39 27.09.2021
5511 Rain 17 1014 78 10000 1.97 55 15:40 27.09.2021
5512 Rain 18 1013 68 10000 2.09 89 13:58 27.09.2021
5513 Rain 19 1014 63 10000 2.15 107 12:53 27.09.2021
5514 Rain 19 1015 63 10000 3.73 128 10:51 27.09.2021
5515 Rain 19 1016 61 10000 2.97 125 09:50 27.09.2021
5516 Clear 18 1017 63 10000 2.03 108 08:32 27.09.2021
5517 Clear 10 1018 79 10000 1.91 14 05:18 27.09.2021
5518 Clouds 12 1017 83 10000 1.53 357 00:39 27.09.2021
5519 Clouds 13 1018 85 10000 0.97 335 22:27 26.09.2021
5520 Clouds 13 1018 85 10000 0.97 335 21:31 26.09.2021
5521 Rain 13 1018 86 10000 0.86 345 20:45 26.09.2021
5522 Rain 13 1018 86 10000 0.76 323 20:18 26.09.2021
5523 Rain 13 1018 86 10000 0.75 325 19:37 26.09.2021
5524 Clouds 13 1017 87 10000 1.11 335 18:45 26.09.2021
5525 Rain 13 1017 88 10000 1.25 353 17:50 26.09.2021
5526 Rain 14 1016 88 10000 0.75 28 17:21 26.09.2021
5527 Rain 14 1016 90 10000 0.63 339 16:28 26.09.2021
5528 Rain 14 1016 90 10000 0.63 339 15:56 26.09.2021
5529 Rain 15 1015 84 10000 1.02 54 14:26 26.09.2021
5530 Rain 15 1015 84 10000 1.02 54 13:45 26.09.2021
5531 Rain 16 1016 79 7543 0.8 143 12:32 26.09.2021
5532 Rain 17 1016 75 7072 1.58 165 11:59 26.09.2021
5533 Rain 17 1016 75 7072 1.58 165 11:37 26.09.2021
5534 Rain 16 1018 78 10000 1.27 192 10:21 26.09.2021
5535 Rain 13 1020 93 10000 1.31 264 08:55 26.09.2021
5536 Clouds 11 1017 91 10000 0.66 0 03:24 26.09.2021
5537 Rain 12 1017 89 10000 0.4 201 00:20 26.09.2021
5538 Rain 13 1018 90 10000 0.54 245 23:22 25.09.2021
5539 Rain 13 1018 90 10000 0.54 245 22:36 25.09.2021
5540 Rain 13 1018 93 10000 0.15 80 21:55 25.09.2021
5541 Rain 13 1019 94 10000 1.25 94 21:19 25.09.2021
5542 Rain 13 1019 94 10000 1.25 94 20:37 25.09.2021
5543 Rain 13 1017 91 10000 1.54 114 18:40 25.09.2021
5544 Clouds 14 1016 88 10000 1.51 116 17:47 25.09.2021
5545 Rain 16 1014 83 10000 3.18 118 15:35 25.09.2021
5546 Rain 17 1014 73 10000 4.43 120 13:56 25.09.2021
5547 Rain 17 1015 74 10000 4.93 125 12:48 25.09.2021
5548 Rain 17 1015 72 10000 5.35 123 11:40 25.09.2021
5549 Rain 18 1017 66 10000 4.35 123 10:24 25.09.2021
5550 Clouds 17 1018 69 10000 2.64 107 09:26 25.09.2021
5551 Rain 14 1019 83 10000 2.11 86 07:52 25.09.2021
5552 Rain 14 1019 83 10000 2.11 86 07:52 25.09.2021
5553 Clouds 11 1017 88 10000 1.25 353 01:35 25.09.2021
5554 Clouds 14 1026 88 10000 2.06 230 23:33 24.09.2021
5555 Clouds 14 1027 88 10000 2.06 240 21:41 24.09.2021
5556 Clouds 13 1018 87 10000 1.71 50 20:33 24.09.2021
5557 Clouds 13 1017 86 10000 2.02 62 19:45 24.09.2021
5558 Rain 17 1024 67 10000 3.09 100 18:32 24.09.2021
5559 Rain 17 1024 67 10000 3.09 100 17:53 24.09.2021
5560 Rain 19 1024 55 10000 4.12 110 17:35 24.09.2021
5561 Rain 19 1024 55 10000 4.12 110 16:55 24.09.2021
5562 Rain 21 1024 52 10000 6.17 100 13:57 24.09.2021
5563 Rain 21 1025 60 10000 5.14 137 12:45 24.09.2021
5564 Rain 21 1025 60 10000 5.14 137 12:27 24.09.2021
5565 Rain 19 1026 63 10000 2.57 146 11:59 24.09.2021
5566 Rain 19 1026 68 10000 4.12 180 10:25 24.09.2021
5567 Rain 17 1026 77 10000 2.57 147 08:29 24.09.2021
5568 Rain 16 1016 77 10000 1.58 116 07:32 24.09.2021
5569 Clouds 12 1024 94 10000 1.03 50 06:44 24.09.2021
5570 Clouds 12 1024 100 10000 1.03 330 04:53 24.09.2021
5571 Clouds 12 1017 93 10000 1.25 55 22:46 23.09.2021
5572 Rain 12 1018 93 10000 1.81 65 22:19 23.09.2021
5573 Rain 12 1018 93 10000 1.81 65 21:44 23.09.2021
5574 Rain 13 1017 91 10000 1.44 76 20:33 23.09.2021
5575 Rain 13 1016 88 10000 2.36 81 19:18 23.09.2021
5576 Rain 13 1016 88 10000 2.36 81 19:18 23.09.2021
5577 Rain 13 1016 88 10000 2.36 81 19:18 23.09.2021
5578 Mist 16 1024 88 9000 1.87 76 17:45 23.09.2021
5579 Rain 17 1024 82 10000 4.63 100 15:21 23.09.2021
5580 Rain 17 1023 88 10000 4.63 170 14:59 23.09.2021
5581 Rain 19 1024 68 10000 6.17 160 13:45 23.09.2021
5582 Rain 19 1024 68 10000 6.17 160 13:18 23.09.2021
5583 Rain 20 1024 64 10000 4.12 157 12:47 23.09.2021
5584 Rain 20 1024 64 10000 4.12 157 12:22 23.09.2021
5585 Rain 19 1026 72 10000 3.09 180 11:20 23.09.2021
5586 Rain 18 1026 68 10000 2.06 116 10:20 23.09.2021
5587 Rain 16 1027 88 10000 3.09 280 09:49 23.09.2021
5588 Clouds 14 1026 88 10000 2.06 160 06:49 23.09.2021
5589 Clouds 15 1025 88 10000 2.06 320 01:18 23.09.2021
5590 Rain 15 1026 88 10000 0.88 23 22:58 22.09.2021
5591 Rain 15 1026 88 10000 1.86 63 22:23 22.09.2021
5592 Rain 16 1026 82 10000 1.54 330 21:46 22.09.2021
5593 Rain 16 1026 82 10000 1.54 330 21:46 22.09.2021
5594 Rain 16 1026 88 10000 1.54 250 20:59 22.09.2021
5595 Rain 16 1026 88 10000 1.54 250 20:38 22.09.2021
5596 Rain 17 1025 77 10000 0 0 19:27 22.09.2021
5597 Rain 17 1025 82 10000 2.06 170 18:36 22.09.2021
5598 Rain 14 1014 83 10000 0.96 71 17:38 22.09.2021
5599 Rain 17 1012 80 10000 2.75 115 15:53 22.09.2021
5600 Rain 18 1024 63 10000 4.12 190 14:37 22.09.2021
5601 Rain 20 1025 60 10000 4.12 190 13:24 22.09.2021
5602 Rain 18 1015 73 8103 3.02 129 11:34 22.09.2021
5603 Rain 17 1017 77 10000 1.51 170 10:18 22.09.2021
5604 Rain 16 1027 77 10000 4.12 290 08:52 22.09.2021
5605 Rain 13 1020 90 10000 0.94 277 07:49 22.09.2021
5606 Rain 13 1020 92 10000 1.23 54 06:56 22.09.2021
5607 Rain 13 1027 94 10000 0 0 05:49 22.09.2021
5608 Rain 13 1027 94 10000 0 0 05:18 22.09.2021
5609 Rain 13 1026 94 10000 2.06 240 03:34 22.09.2021
5610 Rain 14 1026 88 8000 2.06 45 00:19 22.09.2021
5611 Clouds 14 1017 83 10000 1.87 88 22:28 21.09.2021
5612 Clouds 14 1026 88 10000 2.06 220 21:31 21.09.2021
5613 Rain 14 1017 86 10000 2.77 89 19:38 21.09.2021
5614 Rain 14 1016 86 10000 2.43 70 19:19 21.09.2021
5615 Clouds 23 1023 43 10000 5.66 120 16:59 21.09.2021
5616 Rain 23 1023 43 10000 5.66 120 16:27 21.09.2021
5617 Rain 23 1023 43 10000 7.2 110 15:25 21.09.2021
5618 Rain 22 1023 43 10000 6.17 100 14:49 21.09.2021
5619 Clouds 23 1024 53 10000 3.09 100 13:40 21.09.2021
5620 Clouds 22 1011 49 10000 5.39 103 12:58 21.09.2021
5621 Clouds 21 1014 53 10000 4.66 103 11:19 21.09.2021
5622 Clouds 20 1015 56 10000 3.97 104 09:54 21.09.2021
5623 Clouds 16 1026 67 10000 2 90 07:47 21.09.2021
5624 Clouds 12 1025 82 10000 2 30 06:18 21.09.2021
5625 Clouds 15 1026 82 10000 2.06 320 23:58 20.09.2021
5626 Clouds 14 1017 71 10000 1.9 21 21:53 20.09.2021
5627 Clouds 14 1017 71 10000 1.9 21 21:32 20.09.2021
5628 Clouds 17 1026 72 10000 2.06 90 20:26 20.09.2021
5629 Clouds 17 1025 72 10000 2.06 10 19:24 20.09.2021
5630 Clouds 20 1023 60 10000 4.12 110 17:39 20.09.2021
5631 Rain 19 1012 66 10000 3.53 79 16:26 20.09.2021
5632 Rain 23 1023 49 10000 5.14 120 15:47 20.09.2021
5633 Rain 20 1011 58 10000 4.14 84 14:59 20.09.2021
5634 Rain 19 1012 64 10000 3.05 81 13:36 20.09.2021
5635 Clouds 22 1025 53 10000 4.63 120 12:34 20.09.2021
5636 Clouds 21 1026 60 10000 4.12 110 11:18 20.09.2021
5637 Clouds 20 1027 60 10000 3.09 160 09:53 20.09.2021
5638 Clouds 20 1027 60 10000 3.09 160 09:34 20.09.2021
5639 Clear 19 1017 58 10000 2.58 107 08:56 20.09.2021
5640 Clouds 15 1017 67 10000 1.36 59 06:46 20.09.2021
5641 Clouds 14 1024 88 10000 1.54 280 23:44 19.09.2021
5642 Clouds 16 1027 77 10000 1.54 40 21:56 19.09.2021
5643 Clouds 16 1027 77 10000 1.54 40 21:33 19.09.2021
5644 Clear 14 1018 74 10000 2.58 23 20:32 19.09.2021
5645 Clouds 16 1015 69 10000 2.04 47 18:57 19.09.2021
5646 Clouds 16 1015 71 10000 1.89 30 18:21 19.09.2021
5647 Rain 19 1025 59 8000 4.12 100 17:22 19.09.2021
5648 Rain 18 1013 70 10000 2.06 52 15:45 19.09.2021
5649 Rain 23 1024 46 10000 4.63 140 14:49 19.09.2021
5650 Rain 23 1024 46 10000 4.63 140 14:25 19.09.2021
5651 Rain 23 1025 46 10000 3.09 130 12:57 19.09.2021
5652 Rain 23 1025 46 10000 3.09 130 12:35 19.09.2021
5653 Rain 20 1015 57 10000 3.67 119 11:25 19.09.2021
5654 Clouds 19 1028 63 10000 3.09 120 09:58 19.09.2021
5655 Clouds 19 1028 63 10000 3.09 120 09:26 19.09.2021
5656 Clear 15 1018 72 10000 0.63 92 07:18 19.09.2021
5657 Clouds 14 1026 94 10000 3.09 290 02:24 19.09.2021
5658 Rain 14 1028 94 10000 2.06 80 23:26 18.09.2021
5659 Clouds 15 1028 94 10000 0 0 21:58 18.09.2021
5660 Clouds 15 1028 94 10000 0 0 21:58 18.09.2021
5661 Clouds 15 1027 94 10000 2.06 220 20:48 18.09.2021
5662 Clouds 15 1027 94 10000 2.06 220 20:26 18.09.2021
5663 Clouds 15 1026 94 10000 4.12 200 19:37 18.09.2021
5664 Clouds 15 1026 94 10000 4.12 200 19:19 18.09.2021
5665 Clouds 18 1025 63 10000 2.06 50 18:31 18.09.2021
5666 Clouds 21 1024 49 10000 4.12 140 17:22 18.09.2021
5667 Clouds 23 1023 43 10000 5.14 130 15:45 18.09.2021
5668 Clouds 21 1023 52 10000 3.6 120 13:46 18.09.2021
5669 Clouds 22 1011 47 10000 3.27 125 13:24 18.09.2021
5670 Clouds 23 1025 46 10000 4.63 165 12:23 18.09.2021
5671 Clouds 23 1026 46 10000 3.6 128 11:31 18.09.2021
5672 Clouds 23 1026 46 10000 3.6 128 11:30 18.09.2021
5673 Clear 21 1014 47 10000 1.65 121 10:30 18.09.2021
5674 Clouds 19 1027 55 10000 3.09 200 09:24 18.09.2021
5675 Clouds 17 1017 59 10000 0.47 351 08:28 18.09.2021
5676 Clouds 13 1015 75 10000 1.44 23 00:53 18.09.2021
5677 Clouds 14 1015 74 10000 1.14 13 23:56 17.09.2021
5678 Clouds 14 1016 74 10000 1.19 24 22:54 17.09.2021
5679 Clouds 14 1016 75 10000 1.59 36 22:25 17.09.2021
5680 Clouds 16 1026 72 10000 3.09 60 21:33 17.09.2021
5681 Clouds 15 1015 72 10000 1.77 81 19:52 17.09.2021
5682 Clouds 16 1014 71 10000 2.12 56 18:42 17.09.2021
5683 Rain 22 1022 49 10000 4.63 100 16:42 17.09.2021
5684 Clouds 22 1022 56 10000 4.12 120 15:21 17.09.2021
5685 Rain 20 1025 60 10000 2.06 200 11:51 17.09.2021
5686 Clouds 21 1025 52 10000 4.12 120 10:23 17.09.2021
5687 Clouds 17 1016 64 10000 0.68 95 07:48 17.09.2021
5688 Clouds 12 1017 80 10000 1.48 3 05:45 17.09.2021
5689 Clouds 12 1015 81 10000 1.39 357 00:32 17.09.2021
5690 Clouds 12 1016 82 10000 1.3 11 22:42 16.09.2021
5691 Clouds 13 1017 82 10000 1.35 13 22:23 16.09.2021
5692 Clouds 13 1017 82 10000 1.38 12 21:35 16.09.2021
5693 Clouds 13 1017 83 10000 1.52 15 20:30 16.09.2021
5694 Clouds 14 1015 82 10000 0.73 22 18:52 16.09.2021
5695 Clouds 14 1014 81 10000 0.42 55 18:18 16.09.2021
5696 Rain 20 1023 56 10000 4.12 100 16:37 16.09.2021
5697 Rain 20 1023 56 10000 5.14 110 14:49 16.09.2021
5698 Rain 22 1024 53 10000 5.14 150 13:34 16.09.2021
5699 Rain 21 1025 56 10000 5.14 100 12:45 16.09.2021
5700 Rain 20 1026 68 10000 5.14 160 11:49 16.09.2021
5701 Rain 19 1027 63 10000 2.06 170 10:56 16.09.2021
5702 Rain 19 1027 63 10000 2.06 170 10:22 16.09.2021
5703 Rain 19 1027 68 10000 2.06 120 09:20 16.09.2021
5704 Clouds 16 1027 72 10000 0 0 07:48 16.09.2021
5705 Clouds 12 1027 94 10000 0 0 06:56 16.09.2021
5706 Clouds 12 1027 94 10000 0 0 06:37 16.09.2021
5707 Clouds 13 1025 94 10000 2.06 10 03:22 16.09.2021
5708 Clouds 13 1025 100 10000 2.06 350 00:49 16.09.2021
5709 Clouds 15 1026 88 10000 1.54 330 23:24 15.09.2021
5710 Clouds 14 1027 82 10000 1.03 336 22:26 15.09.2021
5711 Clouds 13 1018 83 10000 1.57 19 21:31 15.09.2021
5712 Clouds 15 1027 94 10000 0 0 20:34 15.09.2021
5713 Clouds 15 1026 94 10000 2.06 200 19:33 15.09.2021
5714 Clouds 16 1025 88 10000 2.06 210 18:41 15.09.2021
5715 Rain 17 1025 77 10000 2.06 170 17:39 15.09.2021
5716 Rain 18 1024 72 10000 2.06 180 16:29 15.09.2021
5717 Rain 18 1025 72 10000 2.57 170 14:59 15.09.2021
5718 Rain 18 1025 72 10000 3.09 160 14:40 15.09.2021
5719 Rain 17 1014 79 10000 2.25 128 13:45 15.09.2021
5720 Rain 18 1014 76 6787 2.07 127 13:26 15.09.2021
5721 Rain 18 1014 76 6787 2.07 127 12:33 15.09.2021
5722 Rain 18 1015 73 8081 2.16 120 11:50 15.09.2021
5723 Rain 18 1016 72 10000 2.51 128 10:57 15.09.2021
5724 Rain 18 1016 72 10000 2.51 128 10:30 15.09.2021
5725 Mist 15 1028 88 6000 3.09 140 08:47 15.09.2021
5726 Mist 14 1028 94 6000 2.06 80 07:25 15.09.2021
5727 Clouds 12 1017 85 10000 1.04 331 00:41 15.09.2021
5728 Clouds 14 1027 94 10000 2.06 250 22:22 14.09.2021
5729 Clouds 15 1027 88 10000 2.06 250 21:21 14.09.2021
5730 Clouds 15 1027 88 10000 2.06 250 21:21 14.09.2021
5731 Clouds 15 1026 88 10000 1.04 336 20:18 14.09.2021
5732 Mist 15 1025 94 9000 1.54 190 18:44 14.09.2021
5733 Rain 14 1016 84 10000 0.3 100 17:32 14.09.2021
5734 Rain 18 1025 72 10000 2.57 70 15:59 14.09.2021
5735 Rain 16 1025 82 8000 1.54 210 14:32 14.09.2021
5736 Rain 15 1026 82 8000 3.09 20 13:33 14.09.2021
5737 Rain 19 1027 68 10000 4.12 170 10:57 14.09.2021
5738 Rain 19 1027 68 10000 4.12 170 09:52 14.09.2021
5739 Rain 18 1028 77 10000 3.09 180 09:18 14.09.2021
5740 Rain 15 1017 82 10000 1.21 240 07:28 14.09.2021
5741 Rain 14 1026 94 10000 3.09 320 00:57 14.09.2021
5742 Rain 16 1026 82 10000 0 0 23:18 13.09.2021
5743 Mist 15 1026 94 8000 1.54 20 22:27 13.09.2021
5744 Mist 16 1026 88 8000 1.54 10 21:54 13.09.2021
5745 Mist 16 1026 88 8000 1.54 10 21:19 13.09.2021
5746 Mist 16 1026 88 8000 1.54 10 21:19 13.09.2021
5747 Rain 14 1016 88 10000 0.84 63 19:34 13.09.2021
5748 Rain 14 1016 88 10000 0.39 59 18:43 13.09.2021
5749 Rain 16 1024 77 10000 2.06 300 17:18 13.09.2021
5750 Rain 17 1013 82 8912 1.61 118 15:55 13.09.2021
5751 Rain 18 1013 74 10000 2.04 138 14:19 13.09.2021
5752 Rain 20 1014 65 10000 2.25 167 11:21 13.09.2021
5753 Rain 19 1015 67 10000 1.94 170 09:54 13.09.2021
5754 Clouds 16 1017 78 10000 1.46 247 07:46 13.09.2021
5755 Clouds 13 1026 94 10000 1.03 80 23:50 12.09.2021
5756 Thunderstorm 13 1026 88 10000 5.14 80 22:27 12.09.2021
5757 Thunderstorm 12 1026 88 10000 5.14 80 21:51 12.09.2021
5758 Clouds 13 1017 85 10000 0.85 347 20:41 12.09.2021
5759 Rain 16 1025 88 10000 0 0 19:54 12.09.2021
5760 Rain 14 1016 84 10000 1.93 74 19:28 12.09.2021
5761 Rain 14 1016 84 10000 1.93 74 18:32 12.09.2021
5762 Rain 20 1024 68 10000 4.12 160 16:58 12.09.2021
5763 Rain 18 1013 73 10000 3.67 117 15:29 12.09.2021
5764 Rain 18 1013 73 10000 3.67 117 14:32 12.09.2021
5765 Rain 19 1015 69 10000 3.2 127 11:49 12.09.2021
5766 Rain 18 1016 73 10000 2.84 145 10:18 12.09.2021
5767 Rain 17 1017 75 10000 2.04 143 08:38 12.09.2021
5768 Clouds 12 1017 88 10000 0.81 52 02:56 12.09.2021
5769 Clouds 12 1017 92 10000 1.32 88 00:46 12.09.2021
5770 Rain 13 1017 86 10000 1.21 51 22:29 11.09.2021
5771 Rain 13 1017 86 10000 1.21 51 21:37 11.09.2021
5772 Rain 14 1017 87 10000 1.89 33 19:34 11.09.2021
5773 Rain 16 1015 88 9000 3.09 270 17:56 11.09.2021
5774 Rain 18 1014 80 10000 2.98 102 16:24 11.09.2021
5775 Rain 18 1024 72 10000 3.09 300 14:27 11.09.2021
5776 Rain 20 1025 64 10000 1.54 200 13:22 11.09.2021
5777 Rain 19 1027 68 10000 3.09 150 11:35 11.09.2021
5778 Rain 18 1017 71 10000 2.74 137 09:42 11.09.2021
5779 Rain 17 1028 77 10000 2.06 160 08:21 11.09.2021
5780 Rain 15 1025 94 10000 1.03 360 07:34 11.09.2021
5781 Mist 15 1026 100 5000 1.54 340 01:23 11.09.2021
5782 Clouds 13 1019 79 10000 1.37 31 22:27 10.09.2021
5783 Clouds 13 1019 79 10000 1.37 31 21:56 10.09.2021
5784 Mist 15 1027 94 8000 2.57 330 20:41 10.09.2021
5785 Clouds 14 1017 81 10000 2.23 47 18:34 10.09.2021
5786 Rain 16 1025 94 8000 4.12 290 17:33 10.09.2021
5787 Rain 21 1025 60 10000 2.06 230 15:37 10.09.2021
5788 Rain 21 1026 64 10000 5.14 170 13:18 10.09.2021
5789 Clouds 19 1029 68 10000 2.57 200 10:21 10.09.2021
5790 Clouds 16 1029 77 10000 2.57 170 07:51 10.09.2021
5791 Clouds 13 1027 94 10000 2.06 250 04:21 10.09.2021
5792 Clouds 13 1028 100 10000 2.06 30 22:33 09.09.2021
5793 Clouds 14 1029 100 10000 2.06 190 21:46 09.09.2021
5794 Clouds 14 1028 88 10000 2.06 220 20:47 09.09.2021
5795 Clouds 14 1028 88 10000 2.06 220 20:22 09.09.2021
5796 Clouds 15 1026 88 10000 2.06 180 18:35 09.09.2021
5797 Clouds 14 1016 82 10000 1.57 197 16:41 09.09.2021
5798 Clouds 16 1015 72 10000 1.38 223 16:21 09.09.2021
5799 Clouds 17 1026 72 10000 5.14 260 13:22 09.09.2021
5800 Rain 15 1027 88 10000 4.12 280 11:49 09.09.2021
5801 Rain 14 1029 88 6000 2.06 260 10:31 09.09.2021
5802 Rain 13 1029 94 5000 1.54 70 08:58 09.09.2021
5803 Mist 13 1027 100 8000 1.03 60 06:50 09.09.2021
5804 Rain 12 1017 93 10000 1.33 124 03:44 09.09.2021
5805 Rain 13 1016 86 10000 0.9 357 22:53 08.09.2021
5806 Rain 14 1016 84 10000 0.9 7 21:36 08.09.2021
5807 Rain 15 1025 94 10000 2.06 250 20:19 08.09.2021
5808 Rain 14 1015 88 10000 1.87 37 19:29 08.09.2021
5809 Rain 14 1015 88 10000 1.87 37 18:31 08.09.2021
5810 Rain 14 1015 88 10000 1.87 37 18:30 08.09.2021
5811 Rain 18 1023 72 10000 4.12 140 17:57 08.09.2021
5812 Rain 20 1023 60 10000 3.6 130 16:38 08.09.2021
5813 Rain 21 1023 60 10000 3.09 120 14:30 08.09.2021
5814 Rain 21 1023 60 10000 3.09 120 14:30 08.09.2021
5815 Rain 21 1023 60 10000 3.09 120 14:30 08.09.2021
5816 Rain 18 1013 77 7887 2.29 108 12:57 08.09.2021
5817 Rain 19 1014 70 8710 2.69 118 12:28 08.09.2021
5818 Rain 16 1026 88 10000 4.12 120 11:38 08.09.2021
5819 Rain 18 1026 77 10000 3.09 160 10:50 08.09.2021
5820 Rain 18 1026 77 10000 3.09 160 10:25 08.09.2021
5821 Rain 18 1027 77 10000 3.09 190 09:21 08.09.2021
5822 Rain 17 1026 72 10000 1.54 30 07:38 08.09.2021
5823 Clouds 13 1025 82 10000 2.06 320 05:35 08.09.2021
5824 Clouds 15 1025 94 10000 2.06 330 22:51 07.09.2021
5825 Clouds 16 1026 88 10000 0 0 22:18 07.09.2021
5826 Clouds 16 1026 88 10000 2.06 290 20:23 07.09.2021
5827 Clouds 18 1024 77 10000 3.09 180 18:45 07.09.2021
5828 Clouds 18 1024 77 10000 3.09 180 18:18 07.09.2021
5829 Rain 17 1023 77 10000 3.09 288 16:47 07.09.2021
5830 Rain 17 1023 72 10000 3.09 316 15:40 07.09.2021
5831 Rain 20 1024 68 10000 6.17 150 14:44 07.09.2021
5832 Rain 22 1025 60 10000 4.12 140 12:44 07.09.2021
5833 Rain 21 1026 60 10000 2.57 150 11:51 07.09.2021
5834 Rain 19 1027 72 10000 3.09 160 10:41 07.09.2021
5835 Rain 17 1028 77 10000 1.54 230 08:39 07.09.2021
5836 Clouds 15 1027 88 10000 1.03 180 07:44 07.09.2021
5837 Clouds 12 1019 90 10000 1.14 0 05:41 07.09.2021
5838 Clouds 14 1026 94 10000 2.06 280 02:38 07.09.2021
5839 Clouds 14 1026 94 10000 1.33 307 00:52 07.09.2021
5840 Clouds 12 1018 93 10000 1.25 298 23:35 06.09.2021
5841 Rain 12 1019 93 10000 1.12 311 22:54 06.09.2021
5842 Rain 14 1027 94 10000 2.06 60 22:35 06.09.2021
5843 Clouds 15 1027 94 10000 1.03 320 21:29 06.09.2021
5844 Rain 13 1018 93 10000 0.03 93 19:31 06.09.2021
5845 Rain 13 1017 93 10000 0.32 239 18:53 06.09.2021
5846 Rain 14 1016 92 10000 1.28 215 18:24 06.09.2021
5847 Rain 14 1025 94 6000 3.09 280 17:36 06.09.2021
5848 Rain 20 1024 64 10000 4.12 170 15:52 06.09.2021
5849 Rain 20 1024 64 10000 3.09 170 14:25 06.09.2021
5850 Rain 18 1026 77 10000 3.09 215 12:48 06.09.2021
5851 Rain 16 1028 82 10000 4.12 200 10:54 06.09.2021
5852 Clouds 14 1019 83 10000 1.56 267 08:35 06.09.2021
5853 Clouds 13 1026 94 10000 2.06 310 06:47 06.09.2021
5854 Mist 15 1026 94 8000 0 0 23:37 05.09.2021
5855 Mist 15 1026 94 8000 0 0 23:18 05.09.2021
5856 Mist 15 1026 94 8000 1.54 300 22:28 05.09.2021
5857 Mist 15 1027 94 8000 0 0 21:49 05.09.2021
5858 Clouds 15 1026 94 10000 0.51 290 20:50 05.09.2021
5859 Rain 15 1024 82 10000 2.57 210 18:56 05.09.2021
5860 Rain 17 1024 77 10000 2.57 220 17:34 05.09.2021
5861 Rain 17 1024 77 10000 2.06 70 15:31 05.09.2021
5862 Rain 18 1012 73 9445 1.95 195 14:19 05.09.2021
5863 Rain 18 1013 78 9075 1.9 206 12:30 05.09.2021
5864 Mist 19 1027 68 10000 4.63 180 10:55 05.09.2021
5865 Mist 19 1027 68 10000 4.63 180 10:31 05.09.2021
5866 Rain 16 1017 84 10000 1.81 217 09:22 05.09.2021
5867 Rain 15 1017 84 10000 1.89 247 08:21 05.09.2021
5868 Mist 14 1024 94 8000 0.89 224 02:36 05.09.2021
5869 Rain 13 1016 94 10000 1.51 176 00:30 05.09.2021
5870 Rain 13 1016 94 10000 1.51 176 00:30 05.09.2021
5871 Rain 13 1016 93 7849 1.54 150 23:42 04.09.2021
5872 Rain 14 1016 90 7912 1.34 130 22:36 04.09.2021
5873 Rain 14 1016 90 10000 1.14 99 21:58 04.09.2021
5874 Rain 14 1015 89 10000 1 102 19:42 04.09.2021
5875 Rain 15 1014 89 10000 0.63 68 18:44 04.09.2021
5876 Rain 17 1012 82 6992 1.06 115 16:23 04.09.2021
5877 Rain 19 1012 72 5435 1.42 149 13:22 04.09.2021
5878 Rain 19 1026 72 10000 5.14 180 11:19 04.09.2021
5879 Rain 17 1027 82 10000 4.12 190 09:25 04.09.2021
5880 Clouds 13 1025 100 10000 2.06 100 05:53 04.09.2021
5881 Clouds 13 1015 91 10000 0.51 107 00:27 04.09.2021
5882 Clouds 15 1025 94 10000 2.06 160 23:32 03.09.2021
5883 Rain 13 1016 92 10000 0.69 57 22:35 03.09.2021
5884 Rain 13 1017 93 10000 0.92 89 21:35 03.09.2021
5885 Rain 13 1017 93 10000 0.92 89 21:35 03.09.2021
5886 Rain 16 1024 82 10000 2.57 300 20:42 03.09.2021
5887 Clouds 13 1015 90 10000 1.18 81 19:50 03.09.2021
5888 Rain 14 1015 90 10000 1.56 63 19:18 03.09.2021
5889 Rain 19 1022 68 10000 4.12 90 17:47 03.09.2021
5890 Rain 16 1012 86 10000 2.2 131 16:34 03.09.2021
5891 Rain 19 1022 68 10000 4.12 100 14:58 03.09.2021
5892 Rain 20 1025 60 10000 2.06 210 11:59 03.09.2021
5893 Rain 18 1025 72 10000 2.06 220 10:31 03.09.2021
5894 Rain 16 1026 82 10000 2.06 260 08:46 03.09.2021
5895 Rain 15 1025 94 7000 1.03 160 07:43 03.09.2021
5896 Rain 13 1014 93 10000 1.21 23 01:40 03.09.2021
5897 Rain 13 1015 90 10000 0.89 102 22:57 02.09.2021
5898 Clouds 14 1015 88 10000 0.69 72 21:31 02.09.2021
5899 Rain 16 1024 82 10000 1.54 80 19:55 02.09.2021
5900 Rain 18 1022 72 10000 2.57 300 17:32 02.09.2021
5901 Rain 17 1012 81 10000 2.62 131 15:50 02.09.2021
5902 Rain 19 1011 72 10000 2.97 144 13:57 02.09.2021
5903 Rain 19 1012 72 10000 2.7 154 12:42 02.09.2021
5904 Rain 19 1013 73 10000 2.52 162 11:34 02.09.2021
5905 Rain 17 1015 80 10000 2.38 168 09:40 02.09.2021
5906 Rain 15 1026 88 10000 1.03 210 07:48 02.09.2021
5907 Clouds 15 1026 88 10000 1.03 210 07:18 02.09.2021
5908 Clouds 15 1026 88 10000 1.03 210 07:18 02.09.2021
5909 Clouds 14 1024 100 10000 2.06 80 02:54 02.09.2021
5910 Clouds 14 1024 100 10000 2.06 20 01:55 02.09.2021
5911 Rain 14 1024 100 10000 2.06 20 01:23 02.09.2021
5912 Rain 15 1025 100 10000 2.06 230 23:37 01.09.2021
5913 Rain 15 1026 100 10000 2.57 180 22:39 01.09.2021
5914 Clouds 15 1025 100 10000 2.06 160 21:35 01.09.2021
5915 Rain 16 1025 88 10000 2.06 150 20:28 01.09.2021
5916 Rain 16 1023 88 10000 2.06 220 18:33 01.09.2021
5917 Rain 16 1023 94 10000 3.09 180 17:37 01.09.2021
5918 Rain 18 1023 82 10000 2.06 179 16:46 01.09.2021
5919 Rain 18 1023 77 10000 2.06 190 15:25 01.09.2021
5920 Mist 17 1026 82 9000 2.57 150 11:50 01.09.2021
5921 Mist 16 1026 82 6000 3.09 250 10:59 01.09.2021
5922 Mist 14 1026 100 5000 1.54 80 08:46 01.09.2021
5923 Mist 14 1026 100 5000 0.51 60 07:51 01.09.2021
5924 Clouds 14 1023 88 10000 2.06 120 01:48 01.09.2021
5925 Clouds 15 1024 88 10000 2.06 330 22:33 31.08.2021
5926 Clouds 15 1024 88 10000 0 0 21:22 31.08.2021
5927 Clouds 14 1015 88 10000 1.45 290 19:45 31.08.2021
5928 Rain 15 1013 84 10000 1.79 302 18:27 31.08.2021
5929 Mist 17 1022 72 9000 1.03 280 17:36 31.08.2021
5930 Rain 16 1012 83 10000 1.56 322 16:52 31.08.2021
5931 Rain 17 1011 82 10000 1.37 332 16:23 31.08.2021
5932 Rain 21 1023 60 10000 4.63 190 12:57 31.08.2021
5933 Rain 20 1024 64 10000 3.6 170 11:26 31.08.2021
5934 Rain 19 1025 68 10000 4.12 160 10:52 31.08.2021
5935 Rain 19 1025 59 10000 3.6 210 09:44 31.08.2021
5936 Rain 17 1025 72 10000 3.6 180 08:37 31.08.2021
5937 Clouds 12 1023 94 10000 0 220 05:58 31.08.2021
5938 Clouds 12 1023 94 10000 2.57 30 01:36 31.08.2021
5939 Clouds 12 1015 87 10000 2.37 324 23:35 30.08.2021
5940 Clouds 14 1025 82 10000 1.03 340 21:43 30.08.2021
5941 Rain 14 1024 77 10000 3.09 280 20:42 30.08.2021
5942 Clouds 14 1024 77 10000 3.09 280 20:18 30.08.2021
5943 Clouds 14 1014 86 10000 0.69 324 19:29 30.08.2021
5944 Clouds 14 1022 88 10000 3.09 290 18:29 30.08.2021
5945 Clouds 13 1022 94 10000 5.14 270 17:44 30.08.2021
5946 Rain 13 1023 94 10000 5.14 270 16:19 30.08.2021
5947 Rain 16 1023 77 10000 5.66 340 14:51 30.08.2021
5948 Thunderstorm 15 1023 72 9000 2.06 230 13:27 30.08.2021
5949 Rain 19 1012 65 10000 1.79 223 11:57 30.08.2021
5950 Rain 16 1015 78 10000 2.16 261 08:27 30.08.2021
5951 Clouds 13 1015 91 10000 1.36 184 22:26 29.08.2021
5952 Clouds 13 1015 91 10000 1.36 184 21:32 29.08.2021
5953 Clouds 14 1014 87 10000 0.88 245 19:33 29.08.2021
5954 Rain 13 1013 88 10000 1.47 359 18:47 29.08.2021
5955 Rain 13 1013 92 10000 3.11 315 17:41 29.08.2021
5956 Rain 17 1010 81 7249 0.3 298 15:29 29.08.2021
5957 Rain 19 1021 72 7000 0 0 13:57 29.08.2021
5958 Rain 21 1022 64 10000 4.12 230 12:58 29.08.2021
5959 Rain 21 1022 64 10000 4.12 230 12:21 29.08.2021
5960 Rain 20 1024 73 10000 3.09 180 11:41 29.08.2021
5961 Rain 19 1024 72 10000 2.06 200 10:49 29.08.2021
5962 Rain 19 1024 72 10000 2.06 200 10:30 29.08.2021
5963 Rain 19 1013 63 10000 1.5 242 09:44 29.08.2021
5964 Clouds 15 1015 80 10000 1.45 298 06:38 29.08.2021
5965 Clouds 14 1024 94 10000 2.06 300 23:33 28.08.2021
5966 Clouds 15 1024 88 10000 3.09 320 20:46 28.08.2021
5967 Rain 15 1022 88 10000 1.03 20 19:36 28.08.2021
5968 Rain 15 1022 82 10000 2.06 50 18:27 28.08.2021
5969 Rain 15 1012 78 10000 1.11 340 17:47 28.08.2021
5970 Rain 15 1012 78 10000 1.11 340 17:47 28.08.2021
5971 Rain 16 1022 88 8000 5.14 320 16:56 28.08.2021
5972 Rain 16 1023 88 6000 6.69 320 15:27 28.08.2021
5973 Rain 22 1023 56 10000 4.63 300 13:59 28.08.2021
5974 Rain 23 1023 53 10000 4.12 190 13:41 28.08.2021
5975 Rain 23 1024 56 10000 6.17 120 12:35 28.08.2021
5976 Rain 22 1025 56 10000 4.12 160 11:40 28.08.2021
5977 Rain 20 1014 61 10000 0.61 188 10:18 28.08.2021
5978 Clouds 17 1026 77 10000 1.03 90 07:57 28.08.2021
5979 Rain 12 1025 94 10000 2.06 350 00:59 28.08.2021
5980 Rain 13 1017 84 10000 1.22 20 21:45 27.08.2021
5981 Clouds 14 1025 88 10000 0 0 20:53 27.08.2021
5982 Rain 15 1025 88 10000 3.09 310 19:43 27.08.2021
5983 Rain 14 1016 89 10000 1.47 75 18:39 27.08.2021
5984 Rain 14 1015 90 7064 1.77 82 17:54 27.08.2021
5985 Rain 16 1014 86 10000 2.32 119 16:46 27.08.2021
5986 Mist 15 1025 82 9000 6.69 340 14:50 27.08.2021
5987 Mist 15 1025 82 9000 6.69 340 14:31 27.08.2021
5988 Rain 19 1026 63 5000 7.72 200 12:27 27.08.2021
5989 Rain 19 1015 72 6495 0.99 125 10:58 27.08.2021
5990 Rain 19 1015 72 6495 0.99 125 10:36 27.08.2021
5991 Rain 18 1027 72 10000 3.6 250 09:19 27.08.2021
5992 Rain 16 1027 77 10000 4.12 310 08:37 27.08.2021
5993 Clouds 14 1026 94 10000 1.03 280 05:38 27.08.2021
5994 Clouds 13 1016 90 10000 0.24 234 00:48 27.08.2021
5995 Rain 13 1016 90 10000 0.51 121 00:28 27.08.2021
5996 Rain 13 1016 90 10000 0.51 121 00:28 27.08.2021
5997 Clouds 16 1026 82 10000 2.57 40 22:27 26.08.2021
5998 Clouds 13 1017 92 10000 0.81 55 21:48 26.08.2021
5999 Rain 13 1016 90 10000 1.3 131 19:53 26.08.2021
6000 Rain 18 1023 72 10000 2.57 200 18:34 26.08.2021
6001 Rain 20 1022 64 10000 3.09 210 17:25 26.08.2021
6002 Rain 21 1022 56 10000 3.09 180 16:29 26.08.2021
6003 Rain 22 1023 64 10000 4.12 190 14:47 26.08.2021
6004 Rain 19 1012 71 7780 1.52 132 13:21 26.08.2021
6005 Rain 19 1012 71 7780 1.52 132 12:33 26.08.2021
6006 Rain 20 1025 64 10000 3.09 220 11:38 26.08.2021
6007 Rain 18 1015 74 10000 1.09 154 08:51 26.08.2021
6008 Rain 16 1016 76 10000 0.52 170 08:19 26.08.2021
6009 Rain 13 1015 85 10000 0.88 39 23:44 25.08.2021
6010 Clouds 13 1016 86 10000 1.45 32 22:41 25.08.2021
6011 Clouds 13 1016 85 10000 1.58 43 22:23 25.08.2021
6012 Rain 16 1025 82 10000 1.03 360 20:57 25.08.2021
6013 Rain 16 1024 82 10000 1.54 20 20:30 25.08.2021
6014 Clouds 17 1023 77 10000 2.06 310 19:42 25.08.2021
6015 Rain 19 1023 63 10000 3.09 200 17:53 25.08.2021
6016 Rain 20 1022 60 10000 4.12 140 15:59 25.08.2021
6017 Rain 21 1022 56 10000 5.14 150 15:33 25.08.2021
6018 Rain 21 1022 60 10000 4.12 180 14:46 25.08.2021
6019 Rain 21 1024 60 10000 4.63 160 13:54 25.08.2021
6020 Rain 20 1024 68 10000 5.14 170 12:20 25.08.2021
6021 Rain 20 1025 60 10000 4.63 170 11:19 25.08.2021
6022 Rain 18 1026 63 10000 3.09 180 09:59 25.08.2021
6023 Rain 18 1026 63 10000 3.09 180 09:35 25.08.2021
6024 Rain 17 1026 77 10000 1.54 180 08:35 25.08.2021
6025 Clouds 14 1017 87 10000 1.32 119 06:37 25.08.2021
6026 Clouds 13 1015 86 10000 0.62 351 01:21 25.08.2021
6027 Clouds 13 1026 94 10000 1.03 280 23:23 24.08.2021
6028 Clouds 13 1017 86 10000 1.11 352 21:18 24.08.2021
6029 Rain 13 1017 89 10000 1.65 43 19:55 24.08.2021
6030 Rain 13 1017 89 10000 1.65 43 19:31 24.08.2021
6031 Rain 13 1016 93 10000 1.22 318 17:54 24.08.2021
6032 Rain 13 1015 94 8086 0.13 206 17:22 24.08.2021
6033 Rain 14 1014 92 4314 0.73 61 16:18 24.08.2021
6034 Rain 16 1025 82 10000 3.6 220 13:51 24.08.2021
6035 Rain 17 1014 74 9477 2.12 288 12:45 24.08.2021
6036 Rain 16 1027 82 10000 1.54 130 11:21 24.08.2021
6037 Rain 15 1027 88 10000 1.03 130 10:46 24.08.2021
6038 Rain 15 1027 82 10000 1.54 160 09:53 24.08.2021
6039 Clouds 14 1026 88 10000 2.57 170 07:41 24.08.2021
6040 Clouds 13 1025 94 10000 2.06 60 05:50 24.08.2021
6041 Rain 13 1024 100 10000 2.06 320 03:31 24.08.2021
6042 Rain 13 1025 100 10000 3.6 330 23:52 23.08.2021
6043 Rain 13 1025 88 10000 2.06 290 22:46 23.08.2021
6044 Rain 14 1016 87 10000 1.61 175 21:36 23.08.2021
6045 Rain 15 1024 82 10000 4.12 280 19:41 23.08.2021
6046 Rain 16 1024 72 10000 5.14 300 17:49 23.08.2021
6047 Rain 17 1012 76 10000 1.76 209 15:37 23.08.2021
6048 Rain 14 1024 77 6000 4.63 60 13:56 23.08.2021
6049 Rain 21 1025 60 10000 4.63 200 12:31 23.08.2021
6050 Rain 18 1027 72 10000 3.09 180 10:50 23.08.2021
6051 Rain 18 1027 72 10000 3.09 180 10:21 23.08.2021
6052 Rain 17 1026 77 10000 4.63 210 08:35 23.08.2021
6053 Rain 14 1017 85 10000 1.55 249 07:20 23.08.2021
6054 Rain 14 1017 85 10000 1.55 249 06:40 23.08.2021
6055 Rain 15 1025 82 10000 2.06 300 01:37 23.08.2021
6056 Rain 15 1025 82 10000 2.06 300 00:45 23.08.2021
6057 Rain 15 1026 82 10000 1.54 320 22:42 22.08.2021
6058 Rain 13 1017 92 10000 1 162 21:18 22.08.2021
6059 Rain 15 1025 77 10000 3.09 280 20:19 22.08.2021
6060 Rain 15 1025 77 10000 3.09 280 20:19 22.08.2021
6061 Rain 13 1015 91 9726 1.25 149 18:32 22.08.2021
6062 Rain 16 1012 83 10000 3.22 115 15:49 22.08.2021
6063 Rain 16 1024 88 7000 4.12 40 14:54 22.08.2021
6064 Rain 17 1025 72 10000 1.03 180 13:40 22.08.2021
6065 Rain 17 1025 72 10000 1.03 180 13:19 22.08.2021
6066 Rain 17 1025 77 10000 3.09 230 12:41 22.08.2021
6067 Rain 17 1014 78 6561 2.8 129 11:45 22.08.2021
6068 Rain 17 1015 77 7204 2.58 134 11:20 22.08.2021
6069 Rain 15 1027 82 10000 2.06 210 08:42 22.08.2021
6070 Rain 14 1026 88 10000 2.06 340 07:51 22.08.2021
6071 Clouds 14 1025 94 10000 0 0 03:38 22.08.2021
6072 Rain 14 1026 82 10000 2.06 250 22:36 21.08.2021
6073 Rain 15 1026 82 10000 2.06 290 21:35 21.08.2021
6074 Rain 15 1025 88 9000 2.06 180 18:47 21.08.2021
6075 Rain 15 1025 88 9000 2.06 180 18:25 21.08.2021
6076 Rain 18 1024 63 10000 5.14 320 16:58 21.08.2021
6077 Rain 20 1023 56 10000 4.12 270 16:30 21.08.2021
6078 Rain 21 1023 56 10000 3.6 240 15:38 21.08.2021
6079 Rain 21 1023 56 10000 3.6 240 15:20 21.08.2021
6080 Rain 21 1024 60 10000 3.6 250 13:36 21.08.2021
6081 Rain 19 1013 69 6584 0.98 157 12:39 21.08.2021
6082 Rain 18 1027 72 10000 3.6 220 10:43 21.08.2021
6083 Rain 15 1017 82 9215 1.38 248 07:51 21.08.2021
6084 Rain 13 1025 94 10000 3.09 250 00:26 21.08.2021
6085 Rain 14 1026 88 10000 0 0 21:56 20.08.2021
6086 Rain 14 1016 87 9883 1.62 90 19:31 20.08.2021
6087 Rain 16 1023 72 10000 8.23 60 16:57 20.08.2021
6088 Rain 14 1023 82 8000 6.17 340 14:34 20.08.2021
6089 Rain 21 1025 56 10000 5.14 200 11:55 20.08.2021
6090 Rain 21 1025 56 10000 5.14 200 11:27 20.08.2021
6091 Rain 20 1014 59 10000 1.04 190 09:46 20.08.2021
6092 Rain 19 1026 59 10000 3.6 250 08:57 20.08.2021
6093 Rain 19 1026 59 10000 3.6 250 08:36 20.08.2021
6094 Clouds 13 1024 94 10000 2.06 120 04:38 20.08.2021
6095 Clouds 13 1024 94 10000 2.06 120 04:19 20.08.2021
6096 Clouds 14 1024 88 10000 2.06 240 23:26 19.08.2021
6097 Clouds 15 1024 82 10000 1.03 160 22:37 19.08.2021
6098 Rain 16 1024 77 10000 1.03 310 21:33 19.08.2021
6099 Rain 12 1017 93 10000 4.93 82 19:59 19.08.2021
6100 Rain 15 1012 81 10000 1.59 331 17:37 19.08.2021
6101 Rain 17 1011 79 10000 1.25 336 16:41 19.08.2021
6102 Rain 18 1012 71 7737 0.6 305 14:25 19.08.2021
6103 Rain 21 1023 60 10000 5.14 200 12:40 19.08.2021
6104 Rain 21 1023 60 10000 5.14 200 12:18 19.08.2021
6105 Rain 19 1014 67 8185 1.49 180 10:47 19.08.2021
6106 Rain 18 1026 72 10000 4.12 220 09:48 19.08.2021
6107 Rain 18 1026 72 10000 4.12 220 09:26 19.08.2021
6108 Mist 16 1026 82 9000 2.06 190 08:24 19.08.2021
6109 Rain 14 1024 100 10000 1.03 310 02:54 19.08.2021
6110 Rain 14 1024 100 10000 2.06 70 01:58 19.08.2021
6111 Rain 16 1025 88 10000 1.54 180 23:21 18.08.2021
6112 Rain 17 1025 82 10000 1.54 290 21:44 18.08.2021
6113 Rain 17 1024 67 10000 2.06 200 20:39 18.08.2021
6114 Rain 17 1024 67 10000 2.06 200 20:18 18.08.2021
6115 Rain 17 1024 67 10000 2.06 200 20:18 18.08.2021
6116 Rain 19 1023 59 10000 2.06 190 18:57 18.08.2021
6117 Rain 19 1023 59 10000 2.06 290 18:33 18.08.2021
6118 Rain 22 1022 49 10000 2.06 180 16:40 18.08.2021
6119 Rain 22 1022 60 10000 3.09 120 15:39 18.08.2021
6120 Rain 22 1022 60 10000 3.09 120 15:21 18.08.2021
6121 Rain 22 1022 60 10000 3.09 120 15:20 18.08.2021
6122 Rain 21 1024 64 10000 3.09 150 12:44 18.08.2021
6123 Clouds 20 1024 64 10000 3.09 150 12:26 18.08.2021
6124 Rain 20 1026 68 10000 2.57 170 11:22 18.08.2021
6125 Rain 16 1027 77 10000 0.51 230 07:49 18.08.2021
6126 Rain 14 1016 86 10000 0.92 172 00:48 18.08.2021
6127 Rain 13 1017 86 10000 1.11 22 22:32 17.08.2021
6128 Rain 14 1027 88 9000 2.06 320 21:43 17.08.2021
6129 Rain 15 1026 82 9000 2.57 320 20:45 17.08.2021
6130 Rain 15 1016 83 10000 0.49 76 19:20 17.08.2021
6131 Rain 16 1026 82 10000 1.54 230 17:33 17.08.2021
6132 Rain 15 1026 88 10000 1.03 50 16:46 17.08.2021
6133 Rain 15 1025 72 10000 5.14 300 15:40 17.08.2021
6134 Rain 20 1026 68 10000 6.17 170 14:39 17.08.2021
6135 Rain 19 1015 70 10000 1.94 101 12:35 17.08.2021
6136 Rain 17 1019 76 10000 1.64 120 09:22 17.08.2021
6137 Rain 16 1019 82 10000 1.48 150 08:21 17.08.2021
6138 Clouds 14 1019 87 10000 0.72 215 06:40 17.08.2021
6139 Clouds 15 1027 100 10000 1.03 90 23:18 16.08.2021
6140 Clouds 13 1018 90 10000 0.8 49 22:47 16.08.2021
6141 Rain 13 1018 91 10000 0.31 1 22:28 16.08.2021
6142 Rain 16 1027 94 10000 3.6 210 21:36 16.08.2021
6143 Rain 15 1026 94 10000 4.12 190 20:50 16.08.2021
6144 Rain 14 1016 86 10000 1.46 293 19:25 16.08.2021
6145 Rain 18 1025 72 10000 2.57 230 18:25 16.08.2021
6146 Rain 19 1025 68 10000 1.03 190 17:52 16.08.2021
6147 Rain 19 1024 63 10000 2.06 110 15:53 16.08.2021
6148 Rain 18 1013 71 8962 1.49 144 14:57 16.08.2021
6149 Rain 18 1026 63 10000 5.14 320 13:40 16.08.2021
6150 Rain 20 1026 68 10000 4.12 150 12:56 16.08.2021
6151 Rain 19 1027 72 10000 5.14 200 11:29 16.08.2021
6152 Rain 16 1029 82 10000 3.09 150 08:54 16.08.2021
6153 Rain 14 1028 94 10000 3.09 40 07:45 16.08.2021
6154 Rain 14 1028 94 10000 3.09 40 07:26 16.08.2021
6155 Rain 13 1026 100 9000 2.06 170 02:45 16.08.2021
6156 Rain 13 1018 90 10000 0.49 250 23:46 15.08.2021
6157 Rain 14 1027 88 10000 1.54 240 20:51 15.08.2021
6158 Rain 14 1016 89 10000 0.41 216 18:48 15.08.2021
6159 Rain 14 1015 88 10000 1.6 173 18:20 15.08.2021
6160 Rain 16 1024 82 10000 1.54 180 17:42 15.08.2021
6161 Rain 17 1013 77 10000 0.59 280 16:28 15.08.2021
6162 Rain 17 1013 76 10000 0.76 207 15:28 15.08.2021
6163 Rain 15 1024 94 8000 3.09 330 14:30 15.08.2021
6164 Rain 19 1026 63 10000 5.14 190 11:44 15.08.2021
6165 Rain 15 1027 94 10000 4.12 240 09:41 15.08.2021
6166 Mist 14 1026 100 5000 4.12 180 05:21 15.08.2021
6167 Rain 15 1025 88 10000 1.54 20 00:43 15.08.2021
6168 Rain 15 1026 88 10000 2.06 80 22:47 14.08.2021
6169 Rain 14 1016 86 10000 0.55 146 21:20 14.08.2021
6170 Rain 17 1024 82 10000 3.09 200 19:44 14.08.2021
6171 Rain 17 1024 82 10000 3.09 200 19:24 14.08.2021
6172 Rain 20 1023 68 10000 5.14 160 17:22 14.08.2021
6173 Rain 20 1011 59 10000 3.61 125 15:54 14.08.2021
6174 Clouds 22 1023 60 10000 5.14 170 14:32 14.08.2021
6175 Rain 22 1024 60 10000 5.14 190 12:33 14.08.2021
6176 Rain 19 1026 68 10000 2.06 220 10:54 14.08.2021
6177 Mist 14 1027 100 3000 3.09 180 07:49 14.08.2021
6178 Clear 13 1016 82 10000 0.77 11 23:54 13.08.2021
6179 Rain 13 1017 83 10000 1.54 16 23:18 13.08.2021
6180 Rain 14 1017 84 10000 1.66 27 21:42 13.08.2021
6181 Rain 18 1025 77 10000 2.57 120 18:49 13.08.2021
6182 Rain 20 1025 73 10000 4.12 150 17:57 13.08.2021
6183 Rain 18 1014 77 9202 2.61 110 16:33 13.08.2021
6184 Rain 19 1013 69 10000 2.3 97 15:32 13.08.2021
6185 Rain 19 1027 68 10000 4.12 140 11:20 13.08.2021
6186 Rain 17 1029 77 10000 3.09 130 09:49 13.08.2021
6187 Rain 15 1029 94 10000 4.12 180 08:36 13.08.2021
6188 Rain 15 1028 88 10000 3.09 140 07:22 13.08.2021
6189 Clouds 13 1018 94 10000 1.03 360 04:59 13.08.2021
6190 Rain 14 1027 94 10000 2.06 310 23:52 12.08.2021
6191 Mist 16 1027 94 9000 1.03 150 21:33 12.08.2021
6192 Clouds 15 1016 81 10000 0.95 46 20:25 12.08.2021
6193 Rain 16 1026 82 9000 2.06 360 19:48 12.08.2021
6194 Rain 15 1015 82 10000 1.55 67 17:54 12.08.2021
6195 Rain 19 1025 68 10000 4.12 200 16:48 12.08.2021
6196 Rain 19 1024 68 10000 3.6 210 15:23 12.08.2021
6197 Rain 20 1026 64 10000 5.14 180 13:21 12.08.2021
6198 Rain 19 1027 59 10000 2.06 290 11:32 12.08.2021
6199 Rain 13 1028 100 4000 2.57 130 07:59 12.08.2021
6200 Rain 14 1027 94 5000 1.54 240 06:18 12.08.2021
6201 Clouds 14 1017 82 10000 0.6 145 22:56 11.08.2021
6202 Rain 16 1026 88 10000 1.54 320 21:29 11.08.2021
6203 Rain 18 1024 72 10000 0 0 18:34 11.08.2021
6204 Rain 18 1023 77 10000 2.06 70 17:42 11.08.2021
6205 Rain 20 1012 59 10000 1.8 83 15:21 11.08.2021
6206 Rain 15 1024 88 7000 4.12 270 14:23 11.08.2021
6207 Rain 20 1025 64 10000 5.14 250 12:36 11.08.2021
6208 Rain 20 1026 64 10000 4.12 180 11:47 11.08.2021
6209 Rain 20 1026 64 10000 4.12 180 11:22 11.08.2021
6210 Rain 19 1027 59 10000 4.12 170 10:25 11.08.2021
6211 Rain 17 1027 77 10000 1.54 180 08:32 11.08.2021
6212 Clouds 13 1016 82 10000 0.94 47 00:39 11.08.2021
6213 Clouds 14 1017 81 10000 1.15 56 22:32 10.08.2021
6214 Clouds 17 1026 77 10000 1.03 220 21:38 10.08.2021
6215 Clouds 17 1025 77 10000 1.03 150 20:38 10.08.2021
6216 Rain 15 1015 80 10000 1.57 66 18:59 10.08.2021
6217 Rain 21 1023 64 10000 3.6 180 16:49 10.08.2021
6218 Rain 21 1023 64 10000 3.6 180 16:49 10.08.2021
6219 Rain 20 1023 64 10000 3.6 180 15:22 10.08.2021
6220 Rain 21 1024 60 10000 4.12 180 14:38 10.08.2021
6221 Clouds 17 1027 72 10000 3.09 170 10:47 10.08.2021
6222 Rain 12 1028 100 5000 3.09 220 07:42 10.08.2021
6223 Thunderstorm 13 1028 100 4000 4.12 80 04:59 10.08.2021
6224 Thunderstorm 13 1028 100 4000 4.12 80 04:59 10.08.2021
6225 Thunderstorm 13 1028 100 4000 4.12 80 04:59 10.08.2021
6226 Clouds 14 1027 88 10000 3.6 340 00:33 10.08.2021
6227 Clouds 14 1027 88 10000 3.6 340 23:23 09.08.2021
6228 Rain 14 1027 88 10000 2.57 270 21:38 09.08.2021
6229 Rain 15 1026 88 10000 2.06 320 20:19 09.08.2021
6230 Rain 16 1025 82 10000 2.06 20 17:57 09.08.2021
6231 Rain 15 1026 77 7000 2.57 350 15:35 09.08.2021
6232 Rain 18 1026 77 10000 4.12 190 14:36 09.08.2021
6233 Rain 20 1026 64 10000 3.09 210 13:29 09.08.2021
6234 Rain 19 1016 69 8779 2.48 141 11:47 09.08.2021
6235 Rain 13 1030 94 7000 2.57 160 09:21 09.08.2021
6236 Rain 13 1030 94 6000 3.6 40 07:52 09.08.2021
6237 Mist 15 1027 88 8000 0.91 78 21:31 08.08.2021
6238 Rain 15 1027 88 10000 3.09 330 20:24 08.08.2021
6239 Fog 17 1025 72 9000 3.09 300 17:35 08.08.2021
6240 Rain 19 1025 68 10000 3.09 300 15:44 08.08.2021
6241 Rain 19 1025 68 10000 2.06 290 14:29 08.08.2021
6242 Rain 21 1027 60 10000 3.09 240 12:19 08.08.2021
6243 Rain 20 1028 56 10000 5.14 280 10:35 08.08.2021
6244 Rain 15 1019 84 10000 0.91 305 06:41 08.08.2021
6245 Rain 15 1019 84 10000 0.91 305 06:41 08.08.2021
6246 Rain 14 1026 88 10000 3.6 260 00:52 08.08.2021
6247 Rain 14 1026 88 10000 3.6 260 00:24 08.08.2021
6248 Rain 15 1027 88 10000 1.03 220 21:44 07.08.2021
6249 Rain 15 1027 88 10000 1.03 220 20:59 07.08.2021
6250 Rain 16 1015 81 10000 1.39 102 18:21 07.08.2021
6251 Rain 17 1014 82 9664 0.77 114 16:50 07.08.2021
6252 Rain 21 1024 56 10000 4.12 200 15:36 07.08.2021
6253 Rain 19 1025 68 10000 3.09 180 13:34 07.08.2021
6254 Rain 19 1016 67 10000 0.42 180 10:32 07.08.2021
6255 Rain 14 1027 82 10000 2.06 240 07:41 07.08.2021
6256 Clouds 13 1026 88 10000 3.09 320 02:20 07.08.2021
6257 Rain 14 1027 82 10000 2.08 144 22:23 06.08.2021
6258 Rain 16 1026 72 10000 1.54 300 20:35 06.08.2021
6259 Rain 15 1017 85 10000 2.35 129 19:57 06.08.2021
6260 Rain 16 1015 81 8029 1.95 140 19:18 06.08.2021
6261 Rain 18 1025 72 10000 1.54 20 17:34 06.08.2021
6262 Rain 20 1028 68 10000 3.6 170 11:22 06.08.2021
6263 Rain 18 1017 70 10000 1.63 184 09:57 06.08.2021
6264 Clouds 16 1029 82 10000 2.06 170 08:22 06.08.2021
6265 Rain 14 1019 86 10000 1.17 7 23:35 05.08.2021
6266 Clouds 13 1019 84 10000 0.88 19 22:30 05.08.2021
6267 Rain 15 1028 82 10000 1.54 30 20:47 05.08.2021
6268 Rain 16 1027 77 10000 1.03 100 19:29 05.08.2021
6269 Rain 17 1027 77 10000 2.57 190 17:43 05.08.2021
6270 Rain 18 1027 72 10000 4.12 250 14:49 05.08.2021
6271 Rain 18 1029 63 10000 1.64 287 11:38 05.08.2021
6272 Rain 16 1020 81 10000 2.06 238 08:51 05.08.2021
6273 Rain 14 1029 94 10000 2.06 250 04:51 05.08.2021
6274 Clouds 14 1028 88 10000 0 0 00:54 05.08.2021
6275 Rain 13 1029 94 10000 2.06 330 21:49 04.08.2021
6276 Rain 14 1029 94 10000 2.06 330 21:21 04.08.2021
6277 Rain 16 1028 88 8000 2.06 160 18:54 04.08.2021
6278 Rain 17 1027 82 8000 5.14 350 16:42 04.08.2021
6279 Rain 20 1027 64 10000 4.12 320 14:43 04.08.2021
6280 Rain 19 1030 63 10000 4.12 170 11:34 04.08.2021
6281 Clouds 11 1029 87 10000 1.03 350 04:55 04.08.2021
6282 Rain 14 1029 82 10000 0.33 142 20:35 03.08.2021
6283 Rain 14 1019 87 10000 0.76 57 19:59 03.08.2021
6284 Rain 16 1027 72 10000 3.09 330 17:50 03.08.2021
6285 Rain 16 1027 77 10000 3.09 350 16:23 03.08.2021
6286 Rain 14 1030 100 5000 3.09 120 12:52 03.08.2021
6287 Rain 18 1017 71 6843 1.87 221 10:40 03.08.2021
6288 Clouds 13 1021 90 10000 1.75 251 06:46 03.08.2021
6289 Rain 13 1025 94 9899 2.06 10 17:48 02.08.2021
6290 Rain 17 1015 80 10000 1.61 142 16:38 02.08.2021
6291 Rain 17 1025 72 10000 5.14 210 15:25 02.08.2021
6292 Mist 18 1028 77 6000 3.09 170 11:59 02.08.2021
6293 Mist 18 1028 77 6000 3.09 170 11:34 02.08.2021
6294 Mist 15 1029 94 3000 0.51 140 09:49 02.08.2021
6295 Rain 13 1019 93 10000 0.88 236 22:40 01.08.2021
6296 Rain 18 1025 68 10000 4.12 310 18:19 01.08.2021
6297 Rain 19 1025 68 10000 4.63 210 15:29 01.08.2021
6298 Rain 20 1028 68 10000 4.12 230 11:38 01.08.2021
6299 Mist 15 1029 94 6000 0 200 08:51 01.08.2021
6300 Clouds 13 1018 94 10000 1.53 288 03:47 01.08.2021
6301 Clouds 13 1020 95 10000 1.89 275 22:52 31.07.2021
6302 Clouds 13 1020 94 10000 2.03 264 20:52 31.07.2021
6303 Rain 14 1017 90 10000 2.36 283 17:49 31.07.2021
6304 Clouds 17 1015 76 10000 3.67 274 16:28 31.07.2021
6305 Rain 14 1017 88 10000 2.59 267 12:31 31.07.2021
6306 Rain 13 1020 97 6001 1.42 249 08:34 31.07.2021
6307 Clouds 13 1017 95 10000 1.97 270 00:54 31.07.2021
6308 Rain 13 1017 93 10000 1.65 264 20:30 30.07.2021
6309 Rain 13 1017 94 10000 2.01 303 19:22 30.07.2021
6310 Rain 13 1017 96 10000 1.74 227 23:30 29.07.2021
6311 Rain 18 1013 77 10000 2.19 196 12:35 29.07.2021
6312 Clouds 13 1017 94 10000 1.66 265 05:31 29.07.2021
6313 Rain 13 1016 97 10000 1.68 262 04:28 29.07.2021
6314 Rain 13 1017 97 10000 1.74 211 21:18 28.07.2021
6315 Rain 16 1012 89 10000 1.83 235 17:20 28.07.2021
6316 Rain 17 1014 81 10000 2.7 214 11:25 28.07.2021
6317 Clouds 13 1016 97 10000 1.7 247 05:23 28.07.2021
6318 Rain 13 1017 96 5004 1.76 304 21:46 27.07.2021
6319 Rain 14 1017 96 5570 0.14 199 21:27 27.07.2021
6320 Rain 18 1012 75 9202 2.57 254 14:51 27.07.2021
6321 Rain 17 1015 78 10000 3.17 254 10:45 27.07.2021
6322 Rain 13 1019 92 10000 3.04 285 07:31 27.07.2021
6323 Rain 13 1015 98 5764 2.42 214 15:48 26.07.2021
6324 Rain 15 1015 90 6319 2.13 218 14:23 26.07.2021
6325 Rain 12 1018 98 7946 1.98 227 04:51 26.07.2021
6326 Rain 12 1018 97 9319 1.62 230 20:55 25.07.2021
6327 Rain 12 1016 96 3451 2.02 190 18:22 25.07.2021
6328 Rain 15 1013 87 10000 3.08 220 15:28 25.07.2021
6329 Clouds 13 1017 95 2708 1.99 210 10:44 25.07.2021
6330 Rain 12 1018 98 517 1.13 151 08:18 25.07.2021
6331 Rain 14 1016 96 7206 2.26 229 20:24 24.07.2021
6332 Rain 14 1016 96 7206 2.26 229 19:54 24.07.2021
6333 Rain 18 1012 73 7801 4.2 251 12:34 24.07.2021
6334 Clouds 13 1016 88 10000 2.5 304 21:47 23.07.2021
6335 Clouds 20 1012 57 10000 6.37 305 14:36 23.07.2021
6336 Clouds 21 1012 53 10000 6.92 305 12:40 23.07.2021
6337 Rain 14 1019 90 10000 2.47 306 22:58 22.07.2021
6338 Rain 17 1016 76 10000 3.48 262 15:28 22.07.2021
6339 Rain 18 1018 65 10000 4.67 271 11:19 22.07.2021
6340 Clouds 15 1020 78 10000 2.94 275 08:34 22.07.2021
6341 Rain 13 1019 96 10000 2.79 258 01:58 22.07.2021
6342 Rain 13 1021 95 10000 1.97 260 21:42 21.07.2021
6343 Rain 13 1020 94 10000 1.87 267 21:22 21.07.2021
6344 Rain 13 1020 93 10000 2.79 259 11:54 21.07.2021
6345 Rain 13 1021 94 7389 2.93 249 09:20 21.07.2021
6346 Rain 13 1020 95 6861 2.62 250 06:42 21.07.2021
6347 Rain 13 1018 95 10000 2.03 236 21:54 20.07.2021
6348 Rain 16 1014 85 10000 2.65 235 16:37 20.07.2021
6349 Rain 19 1012 66 10000 2.84 257 15:28 20.07.2021
6350 Rain 19 1013 65 10000 3.68 293 12:55 20.07.2021
6351 Clouds 15 1018 87 10000 2.83 273 08:27 20.07.2021
6352 Rain 13 1017 97 8314 1.58 257 03:20 20.07.2021
6353 Rain 14 1015 88 7394 0.53 334 19:21 19.07.2021
6354 Rain 19 1013 65 8287 2.19 259 12:52 19.07.2021
6355 Rain 19 1013 65 8287 2.19 259 12:52 19.07.2021
6356 Clouds 15 1018 79 10000 2.49 266 07:39 19.07.2021
6357 Rain 17 1025 77 9000 3.09 280 17:22 18.07.2021
6358 Rain 18 1026 72 10000 4.12 210 10:53 18.07.2021
6359 Clouds 13 1016 88 10000 2.12 260 23:36 17.07.2021
6360 Clouds 14 1025 100 3000 3.09 210 22:18 17.07.2021
6361 Clouds 13 1017 87 10000 1.75 257 21:41 17.07.2021
6362 Clouds 14 1015 87 10000 0.65 230 17:32 17.07.2021
6363 Rain 14 1017 82 10000 1.96 236 11:34 17.07.2021
6364 Rain 13 1017 95 10000 1.53 311 04:48 17.07.2021
6365 Rain 14 1015 87 10000 1.97 278 17:41 16.07.2021
6366 Rain 18 1014 68 10000 2.59 241 13:19 16.07.2021
6367 Rain 13 1019 89 10000 1.52 305 07:25 16.07.2021
6368 Clouds 13 1018 90 10000 0.75 255 22:52 15.07.2021
6369 Rain 14 1016 83 10000 1.31 332 13:51 15.07.2021
6370 Rain 14 1027 100 5000 2.06 200 09:52 15.07.2021
6371 Rain 13 1016 93 10000 2.29 268 00:32 15.07.2021
6372 Rain 17 1024 82 10000 3.6 190 16:56 14.07.2021
6373 Rain 18 1014 70 10000 2.93 242 12:49 14.07.2021
6374 Rain 13 1025 94 10000 1.03 210 04:44 14.07.2021
6375 Rain 13 1017 91 10000 1.12 275 21:21 13.07.2021
6376 Rain 13 1017 95 10000 1.97 273 19:54 13.07.2021
6377 Clouds 13 1016 95 10000 2.21 255 19:26 13.07.2021
6378 Clouds 13 1016 95 10000 2.21 255 18:45 13.07.2021
6379 Rain 14 1015 93 10000 2.09 237 18:24 13.07.2021
6380 Rain 14 1015 93 10000 2.09 237 17:39 13.07.2021
6381 Rain 15 1018 88 10000 2.11 182 09:50 13.07.2021
6382 Thunderstorm 12 1025 94 4000 2.06 40 01:45 13.07.2021
6383 Rain 21 1023 60 10000 4.63 190 17:36 12.07.2021
6384 Rain 18 1013 67 10000 1.15 316 15:21 12.07.2021
6385 Rain 18 1017 65 7930 1.88 262 09:40 12.07.2021
6386 Clouds 13 1019 90 10000 2.4 254 21:59 11.07.2021
6387 Rain 18 1024 63 10000 4.12 230 16:19 11.07.2021
6388 Clouds 14 1025 88 10000 4.12 270 04:42 11.07.2021
6389 Clouds 17 1024 82 10000 1.54 90 17:48 10.07.2021
6390 Rain 15 1017 79 7755 1.34 269 07:58 10.07.2021
6391 Rain 14 1017 85 10000 1.64 254 07:23 10.07.2021
6392 Rain 14 1016 88 10000 0.81 292 21:39 09.07.2021
6393 Rain 18 1024 77 10000 3.09 200 17:45 09.07.2021
6394 Rain 20 1012 58 10000 1.09 253 14:46 09.07.2021
6395 Clouds 13 1017 90 10000 2.02 261 02:27 09.07.2021
6396 Rain 13 1017 88 10000 2.06 261 23:47 08.07.2021
6397 Rain 14 1017 85 10000 1.79 295 21:36 08.07.2021
6398 Rain 15 1016 82 10000 1.17 277 18:55 08.07.2021
6399 Rain 16 1015 78 5786 0.34 178 13:56 08.07.2021
6400 Rain 16 1015 78 5786 0.34 178 13:30 08.07.2021
6401 Rain 19 1014 61 9474 1.29 239 12:36 08.07.2021
6402 Rain 19 1016 62 10000 0.9 220 11:25 08.07.2021
6403 Clouds 14 1019 83 10000 1.74 263 07:42 08.07.2021
6404 Rain 11 1019 95 8356 1.21 275 04:41 08.07.2021
6405 Clouds 14 1026 100 10000 2.57 290 23:45 07.07.2021
6406 Clouds 11 1019 92 10000 1.68 309 22:20 07.07.2021
6407 Clouds 11 1019 92 10000 1.68 309 21:46 07.07.2021
6408 Clouds 11 1019 92 10000 1.67 309 21:46 07.07.2021
6409 Clouds 12 1018 93 10000 1.93 298 21:26 07.07.2021
6410 Clouds 12 1018 94 10000 2 279 19:59 07.07.2021
6411 Clouds 12 1018 94 10000 2 279 19:30 07.07.2021
6412 Clouds 12 1017 95 10000 2.26 270 18:56 07.07.2021
6413 Rain 14 1014 90 10000 3.5 262 15:58 07.07.2021
6414 Rain 15 1014 84 10000 2.92 276 15:24 07.07.2021
6415 Rain 17 1026 72 10000 5.66 290 11:52 07.07.2021
6416 Rain 12 1018 93 7025 1.25 260 07:27 07.07.2021
6417 Rain 12 1025 94 7000 2.57 40 05:52 07.07.2021
6418 Rain 15 1022 88 10000 3.6 260 02:58 07.07.2021
6419 Clouds 14 1015 81 10000 1.46 270 20:54 06.07.2021
6420 Clouds 18 1022 72 10000 2.57 130 19:18 06.07.2021
6421 Clouds 18 1022 72 10000 2.57 130 19:18 06.07.2021
6422 Clouds 15 1013 82 10000 1.19 309 18:43 06.07.2021
6423 Clouds 14 1013 86 10000 2.33 295 18:19 06.07.2021
6424 Rain 19 1023 68 10000 5.14 150 13:37 06.07.2021
6425 Clouds 21 1013 51 10000 0.97 185 09:45 06.07.2021
6426 Clouds 21 1013 51 10000 0.97 185 09:45 06.07.2021
6427 Rain 16 1025 77 10000 2.06 80 08:49 06.07.2021
6428 Rain 16 1025 77 10000 2.06 80 08:21 06.07.2021
6429 Clouds 15 1023 77 10000 2.57 290 02:30 06.07.2021
6430 Clouds 14 1025 88 10000 2.06 290 23:57 05.07.2021
6431 Mist 15 1025 82 7000 2.06 310 21:58 05.07.2021
6432 Rain 16 1014 79 10000 2.93 298 17:21 05.07.2021
6433 Rain 18 1012 65 10000 3.54 335 13:30 05.07.2021
6434 Rain 14 1017 81 10000 1.8 297 05:59 05.07.2021
6435 Rain 14 1017 81 10000 1.8 297 05:41 05.07.2021
6436 Clouds 14 1015 79 10000 1.24 289 00:58 05.07.2021
6437 Rain 14 1025 82 10000 2.06 320 21:19 04.07.2021
6438 Rain 16 1014 76 10000 1.44 241 18:25 04.07.2021
6439 Rain 22 1010 49 10000 2.62 197 15:22 04.07.2021
6440 Rain 21 1026 60 10000 3.6 210 11:26 04.07.2021
6441 Clouds 16 1026 77 10000 2.57 250 07:34 04.07.2021
6442 Clouds 15 1016 77 10000 0.81 280 23:29 03.07.2021
6443 Clouds 15 1016 76 10000 0.87 268 21:41 03.07.2021
6444 Clouds 20 1014 49 10000 0.46 313 13:21 03.07.2021
6445 Clouds 20 1014 49 10000 0.46 313 12:37 03.07.2021
6446 Rain 15 1019 75 10000 2.54 49 09:28 03.07.2021
6447 Rain 15 1019 75 10000 2.54 49 08:45 03.07.2021
6448 Rain 16 1014 74 10000 1.94 234 00:41 03.07.2021
6449 Rain 18 1029 68 10000 2.57 270 10:33 02.07.2021
6450 Rain 15 1028 77 10000 1.03 360 07:29 02.07.2021
6451 Clouds 13 1016 79 10000 1.93 291 03:23 02.07.2021
6452 Clouds 15 1017 77 10000 0.98 288 22:32 01.07.2021
6453 Clouds 14 1018 78 10000 1.36 306 21:39 01.07.2021
6454 Clouds 14 1018 82 10000 1.5 291 20:22 01.07.2021
6455 Clouds 14 1017 82 10000 1.17 258 19:21 01.07.2021
6456 Clouds 14 1017 82 10000 1.17 258 18:48 01.07.2021
6457 Rain 15 1024 77 8000 2.06 20 17:48 01.07.2021
6458 Rain 16 1016 77 10000 1.27 214 16:43 01.07.2021
6459 Rain 16 1016 78 8762 0.67 158 15:24 01.07.2021
6460 Rain 16 1016 74 8859 0.98 195 14:21 01.07.2021
6461 Rain 18 1017 64 10000 1.9 257 10:55 01.07.2021
6462 Rain 12 1020 92 10000 1.33 285 04:43 01.07.2021
6463 Rain 12 1020 92 10000 2.27 260 23:19 30.06.2021
6464 Rain 12 1021 93 10000 2.67 238 21:59 30.06.2021
6465 Rain 12 1020 92 10000 2.19 210 21:21 30.06.2021
6466 Clouds 13 1020 89 10000 2.75 261 20:26 30.06.2021
6467 Rain 14 1017 81 10000 2.29 232 17:21 30.06.2021
6468 Rain 14 1016 88 4699 0.78 153 14:23 30.06.2021
6469 Rain 15 1017 79 5780 1.04 265 12:31 30.06.2021
6470 Rain 12 1020 86 10000 2.56 257 07:30 30.06.2021
6471 Rain 14 1017 86 10000 1.86 171 21:28 29.06.2021
6472 Rain 15 1014 88 6568 1.11 142 18:22 29.06.2021
6473 Rain 15 1014 88 6568 1.11 142 17:30 29.06.2021
6474 Rain 20 1011 54 10000 2.89 92 15:52 29.06.2021
6475 Rain 21 1010 52 10000 2.87 125 14:58 29.06.2021
6476 Rain 21 1011 52 10000 3.18 112 13:30 29.06.2021
6477 Rain 21 1012 50 10000 2.93 126 12:19 29.06.2021
6478 Rain 16 1014 70 10000 1.52 79 00:41 29.06.2021
6479 Rain 16 1016 67 10000 2.38 89 21:47 28.06.2021
6480 Rain 18 1014 60 10000 3.06 97 19:40 28.06.2021
6481 Clouds 22 1010 36 10000 4.94 107 17:21 28.06.2021
6482 Clouds 22 1010 36 10000 1.65 55 15:22 28.06.2021
6483 Clouds 25 1009 28 10000 5.01 124 12:58 28.06.2021
6484 Rain 15 1016 73 10000 0.25 336 05:50 28.06.2021
6485 Clouds 15 1015 73 10000 0.95 101 23:44 27.06.2021
6486 Clouds 18 1015 57 10000 2.69 108 21:24 27.06.2021
6487 Clouds 18 1014 57 10000 3.15 95 19:40 27.06.2021
6488 Rain 19 1012 50 10000 4.73 25 15:58 27.06.2021
6489 Clouds 23 1010 36 10000 2.1 187 13:24 27.06.2021
6490 Clouds 16 1016 60 10000 0.81 229 06:41 27.06.2021
6491 Clouds 15 1014 66 10000 0.66 213 22:46 26.06.2021
6492 Clouds 16 1014 57 10000 0.96 238 20:59 26.06.2021
6493 Clouds 16 1014 57 10000 0.96 238 20:40 26.06.2021
6494 Clouds 19 1011 48 10000 1.58 246 18:22 26.06.2021
6495 Clouds 23 1008 29 10000 3.12 99 14:58 26.06.2021
6496 Clouds 23 1011 35 10000 1.75 123 12:28 26.06.2021
6497 Clouds 23 1011 35 10000 1.75 123 12:28 26.06.2021
6498 Clouds 17 1017 57 10000 0.97 247 07:53 26.06.2021
6499 Clouds 12 1017 78 10000 0.47 322 04:35 26.06.2021
6500 Clouds 14 1017 67 10000 0.2 238 20:40 25.06.2021
6501 Clouds 15 1016 56 10000 0.82 91 19:37 25.06.2021
6502 Clouds 16 1013 57 10000 0.87 300 17:48 25.06.2021
6503 Clouds 19 1012 50 10000 0.45 197 16:49 25.06.2021
6504 Clouds 18 1013 53 10000 0.75 203 14:58 25.06.2021
6505 Clouds 20 1015 44 10000 1.49 127 11:19 25.06.2021
6506 Clouds 18 1017 57 10000 1.33 262 08:22 25.06.2021
6507 Clouds 16 1018 66 10000 1.27 281 07:20 25.06.2021
6508 Rain 13 1017 77 10000 0.66 76 03:46 25.06.2021
6509 Clouds 15 1017 64 10000 0.6 93 22:20 24.06.2021
6510 Clouds 15 1017 64 10000 0.6 93 21:40 24.06.2021
6511 Clouds 16 1017 60 10000 1.51 57 20:40 24.06.2021
6512 Clouds 18 1015 56 10000 0.63 9 18:45 24.06.2021
6513 Clouds 18 1013 57 10000 2.28 339 16:19 24.06.2021
6514 Rain 20 1013 50 10000 4.32 30 15:22 24.06.2021
6515 Rain 20 1013 50 10000 4.32 30 14:47 24.06.2021
6516 Rain 17 1017 59 10000 1.15 174 11:20 24.06.2021
6517 Rain 18 1017 57 10000 3.21 121 09:30 24.06.2021
6518 Rain 17 1018 61 10000 1.68 140 08:22 24.06.2021
6519 Rain 14 1016 75 10000 1.53 184 03:32 24.06.2021
6520 Clouds 14 1016 74 10000 1.21 189 23:20 23.06.2021
6521 Clouds 15 1017 73 10000 0.77 188 21:44 23.06.2021
6522 Clouds 15 1016 69 10000 1.35 136 20:38 23.06.2021
6523 Rain 17 1015 60 10000 2.69 153 18:35 23.06.2021
6524 Clouds 18 1014 53 10000 3.3 154 17:32 23.06.2021
6525 Clouds 23 1010 29 10000 6.41 146 15:47 23.06.2021
6526 Clouds 24 1010 26 10000 5.55 131 12:58 23.06.2021
6527 Clouds 24 1011 30 10000 4.67 140 11:56 23.06.2021
6528 Clouds 22 1014 38 10000 3.93 133 09:55 23.06.2021
6529 Clouds 20 1015 45 10000 2.92 125 08:46 23.06.2021
6530 Clear 18 1016 53 10000 1.99 126 07:51 23.06.2021
6531 Clear 16 1017 65 10000 0.83 132 06:49 23.06.2021
6532 Clear 13 1016 82 10000 0.16 224 03:33 23.06.2021
6533 Clouds 14 1015 69 10000 0.99 93 00:43 23.06.2021
6534 Clouds 15 1016 66 10000 1 86 23:55 22.06.2021
6535 Clouds 15 1017 65 10000 2.46 23 22:44 22.06.2021
6536 Clouds 17 1016 58 10000 1.87 45 22:19 22.06.2021
6537 Clouds 17 1016 58 10000 1.87 45 21:36 22.06.2021
6538 Clouds 18 1015 46 10000 1.58 104 19:37 22.06.2021
6539 Clouds 19 1013 40 10000 1.56 118 18:53 22.06.2021
6540 Clouds 20 1012 37 10000 1.56 119 18:23 22.06.2021
6541 Clouds 21 1011 34 10000 2.3 151 17:21 22.06.2021
6542 Clouds 21 1011 34 10000 2.3 151 16:30 22.06.2021
6543 Clouds 21 1011 34 10000 2.3 151 16:30 22.06.2021
6544 Clouds 20 1011 42 10000 4.3 165 14:36 22.06.2021
6545 Clouds 22 1011 37 10000 3.98 135 13:47 22.06.2021
6546 Clouds 23 1011 36 10000 2.94 138 12:35 22.06.2021
6547 Clouds 21 1013 44 10000 4.68 142 10:58 22.06.2021
6548 Rain 19 1016 49 10000 2.33 123 09:21 22.06.2021
6549 Rain 16 1018 65 10000 1.11 157 06:37 22.06.2021
6550 Clear 14 1016 66 10000 0.07 225 00:37 22.06.2021
6551 Clear 15 1017 63 10000 0.48 241 22:59 21.06.2021
6552 Clear 15 1017 58 10000 0.94 152 21:41 21.06.2021
6553 Clear 16 1016 54 10000 1.47 122 20:52 21.06.2021
6554 Clouds 17 1015 51 10000 1.36 110 20:21 21.06.2021
6555 Clouds 17 1015 51 10000 1.36 110 19:49 21.06.2021
6556 Clouds 19 1013 44 10000 2.47 156 18:25 21.06.2021
6557 Clouds 21 1012 37 10000 3.34 143 16:56 21.06.2021
6558 Clouds 21 1012 37 10000 3.34 143 16:30 21.06.2021
6559 Clouds 21 1012 34 10000 5.77 102 15:57 21.06.2021
6560 Clouds 22 1011 34 10000 3.81 134 15:20 21.06.2021
6561 Clouds 23 1011 34 10000 4.54 155 13:47 21.06.2021
6562 Clouds 23 1013 38 10000 5.06 145 12:55 21.06.2021
6563 Clouds 23 1013 38 10000 5.06 145 12:31 21.06.2021
6564 Clouds 21 1015 43 10000 4.06 149 10:43 21.06.2021
6565 Rain 20 1017 48 10000 3.14 148 10:22 21.06.2021
6566 Clouds 18 1018 56 10000 2.39 157 08:32 21.06.2021
6567 Clouds 16 1019 68 10000 2 175 07:57 21.06.2021
6568 Clouds 14 1017 72 10000 0.53 169 01:53 21.06.2021
6569 Clouds 14 1017 72 10000 0.86 262 23:52 20.06.2021
6570 Clouds 14 1017 72 10000 0.86 262 23:32 20.06.2021
6571 Clouds 14 1018 71 10000 1.47 272 22:47 20.06.2021
6572 Clouds 15 1018 69 10000 1.12 245 21:44 20.06.2021
6573 Clouds 17 1016 54 10000 0.77 201 20:26 20.06.2021
6574 Clouds 17 1016 54 10000 0.77 201 19:36 20.06.2021
6575 Clouds 17 1015 53 10000 1.61 318 18:49 20.06.2021
6576 Clouds 18 1015 52 10000 2.54 54 17:37 20.06.2021
6577 Clouds 19 1014 51 10000 1.41 99 16:44 20.06.2021
6578 Rain 19 1014 52 10000 1.92 170 15:38 20.06.2021
6579 Clouds 22 1012 37 10000 4.03 108 14:55 20.06.2021
6580 Clouds 22 1012 37 10000 4.03 108 14:36 20.06.2021
6581 Rain 20 1013 48 10000 1.41 129 14:36 20.06.2021
6582 Clouds 23 1012 30 10000 3.16 84 13:19 20.06.2021
6583 Clouds 23 1014 33 10000 1.48 83 11:48 20.06.2021
6584 Clouds 22 1015 40 10000 2.18 165 11:23 20.06.2021
6585 Clouds 21 1016 41 10000 2.86 171 09:49 20.06.2021
6586 Clouds 20 1017 47 10000 2.34 170 08:59 20.06.2021
6587 Clouds 13 1018 77 10000 1.41 234 02:25 20.06.2021
6588 Clouds 14 1018 75 10000 1.29 252 23:35 19.06.2021
6589 Rain 14 1019 75 10000 1.03 256 22:43 19.06.2021
6590 Rain 15 1019 73 10000 1.17 258 21:48 19.06.2021
6591 Rain 16 1018 66 10000 1.45 253 20:37 19.06.2021
6592 Clouds 17 1016 56 10000 2.11 206 18:47 19.06.2021
6593 Clouds 19 1014 44 10000 2.31 170 17:55 19.06.2021
6594 Clouds 21 1013 35 10000 2.41 147 17:21 19.06.2021
6595 Clouds 22 1012 31 10000 3.04 131 15:52 19.06.2021
6596 Rain 23 1012 30 10000 2.12 88 14:20 19.06.2021
6597 Clouds 24 1012 30 10000 4.19 131 12:47 19.06.2021
6598 Clouds 25 1013 28 10000 4.73 143 11:53 19.06.2021
6599 Clouds 24 1014 32 10000 3.81 149 10:42 19.06.2021
6600 Clouds 22 1016 39 10000 3.2 154 10:22 19.06.2021
6601 Rain 20 1018 47 10000 2.41 165 08:48 19.06.2021
6602 Rain 18 1019 56 10000 2.21 199 07:43 19.06.2021
6603 Clouds 14 1020 72 10000 1.45 236 05:54 19.06.2021
6604 Clouds 15 1017 66 10000 0.97 186 00:35 19.06.2021
6605 Clouds 16 1017 61 10000 0.84 177 23:59 18.06.2021
6606 Clouds 16 1018 55 10000 1.25 166 23:25 18.06.2021
6607 Clouds 18 1029 48 10000 1.54 170 22:47 18.06.2021
6608 Clouds 18 1029 48 10000 1.54 170 22:18 18.06.2021
6609 Clouds 18 1028 52 10000 1.54 70 21:29 18.06.2021
6610 Clouds 19 1027 48 10000 1.54 120 20:41 18.06.2021
6611 Clouds 20 1015 36 10000 3.77 116 19:25 18.06.2021
6612 Clouds 22 1026 33 10000 3.6 120 18:21 18.06.2021
6613 Clouds 24 1012 23 10000 5.1 94 17:20 18.06.2021
6614 Clouds 25 1011 20 10000 6.31 98 15:59 18.06.2021
6615 Clouds 26 1010 19 10000 6.6 107 15:18 18.06.2021
6616 Clouds 25 1011 22 10000 6.81 108 14:32 18.06.2021
6617 Clouds 24 1026 43 10000 4.63 170 13:32 18.06.2021
6618 Clouds 23 1026 43 10000 4.12 160 12:44 18.06.2021
6619 Clouds 22 1027 49 10000 3.6 180 11:57 18.06.2021
6620 Clouds 22 1027 49 10000 3.6 180 11:57 18.06.2021
6621 Clouds 22 1027 49 10000 3.6 180 11:25 18.06.2021
6622 Clouds 21 1028 56 10000 3.09 160 10:52 18.06.2021
6623 Clouds 21 1028 56 10000 3.09 160 10:21 18.06.2021
6624 Clouds 20 1028 60 10000 1.54 180 09:43 18.06.2021
6625 Clouds 21 1017 44 10000 1.49 166 08:48 18.06.2021
6626 Clouds 19 1018 50 10000 1.48 190 08:19 18.06.2021
6627 Clouds 17 1018 55 10000 1.09 207 07:21 18.06.2021
6628 Clouds 15 1016 58 10000 0.47 256 01:41 18.06.2021
6629 Clouds 16 1016 55 10000 1.01 64 23:41 17.06.2021
6630 Clouds 16 1017 55 10000 1.61 46 22:49 17.06.2021
6631 Clouds 17 1018 53 10000 2.72 65 22:24 17.06.2021
6632 Clouds 17 1018 53 10000 2.72 65 21:41 17.06.2021
6633 Clouds 18 1017 48 10000 2.91 84 20:57 17.06.2021
6634 Clouds 18 1017 44 10000 3.43 77 20:24 17.06.2021
6635 Clouds 18 1017 44 10000 3.43 77 19:47 17.06.2021
6636 Clouds 22 1026 30 10000 4.12 100 18:40 17.06.2021
6637 Clouds 23 1025